<?xml version="1.0" encoding="UTF-8" standalone="no" ?>
<gpx xmlns="http://www.topografix.com/GPX/1/1" xmlns:xsi="http://www.w3.org/2001/XMLSchema-instance" xsi:schemaLocation="http://www.topografix.com/GPX/1/1 http://www.topografix.com/GPX/1/1/gpx.xsd" version="1.1" creator="VisuGPX - https://www.visugpx.com">
  <metadata>
    <name>Meribel 20160131</name>
    <desc><![CDATA[Ski Meribel]]></desc>
  </metadata>
  <trk>
    <name><![CDATA[Day 6 - 2015/2016]]></name>
    <desc><![CDATA[Meribel]]></desc>
    <trkseg>
      <trkpt lat="45.37835" lon="6.59335">
        <ele>2082.47</ele>
        <time>2016-01-31T10:17:37.039+01:00</time>
      </trkpt>
      <trkpt lat="45.37842" lon="6.59347">
        <ele>2090.98</ele>
        <time>2016-01-31T10:17:40.037+01:00</time>
      </trkpt>
      <trkpt lat="45.37847" lon="6.59359">
        <ele>2095.68</ele>
        <time>2016-01-31T10:17:43.092+01:00</time>
      </trkpt>
      <trkpt lat="45.37851" lon="6.59371">
        <ele>2100.58</ele>
        <time>2016-01-31T10:17:46.072+01:00</time>
      </trkpt>
      <trkpt lat="45.37856" lon="6.59383">
        <ele>2106.35</ele>
        <time>2016-01-31T10:17:49.052+01:00</time>
      </trkpt>
      <trkpt lat="45.37861" lon="6.59395">
        <ele>2108.43</ele>
        <time>2016-01-31T10:17:52.053+01:00</time>
      </trkpt>
      <trkpt lat="45.37866" lon="6.59406">
        <ele>2113.6</ele>
        <time>2016-01-31T10:17:55.038+01:00</time>
      </trkpt>
      <trkpt lat="45.37872" lon="6.59418">
        <ele>2118.96</ele>
        <time>2016-01-31T10:17:58.037+01:00</time>
      </trkpt>
      <trkpt lat="45.37877" lon="6.5943">
        <ele>2124.12</ele>
        <time>2016-01-31T10:18:01.056+01:00</time>
      </trkpt>
      <trkpt lat="45.37882" lon="6.59442">
        <ele>2129.85</ele>
        <time>2016-01-31T10:18:04.049+01:00</time>
      </trkpt>
      <trkpt lat="45.37887" lon="6.59454">
        <ele>2135.26</ele>
        <time>2016-01-31T10:18:07.054+01:00</time>
      </trkpt>
      <trkpt lat="45.37891" lon="6.59466">
        <ele>2140.77</ele>
        <time>2016-01-31T10:18:10.091+01:00</time>
      </trkpt>
      <trkpt lat="45.37898" lon="6.59478">
        <ele>2145.27</ele>
        <time>2016-01-31T10:18:13.063+01:00</time>
      </trkpt>
      <trkpt lat="45.37905" lon="6.59489">
        <ele>2149.29</ele>
        <time>2016-01-31T10:18:16.037+01:00</time>
      </trkpt>
      <trkpt lat="45.3791" lon="6.59502">
        <ele>2153.02</ele>
        <time>2016-01-31T10:18:19.056+01:00</time>
      </trkpt>
      <trkpt lat="45.37916" lon="6.59515">
        <ele>2157.22</ele>
        <time>2016-01-31T10:18:22.046+01:00</time>
      </trkpt>
      <trkpt lat="45.37923" lon="6.59528">
        <ele>2161.36</ele>
        <time>2016-01-31T10:18:25.048+01:00</time>
      </trkpt>
      <trkpt lat="45.37926" lon="6.59541">
        <ele>2166.51</ele>
        <time>2016-01-31T10:18:28.056+01:00</time>
      </trkpt>
      <trkpt lat="45.37934" lon="6.59553">
        <ele>2169.86</ele>
        <time>2016-01-31T10:18:31.050+01:00</time>
      </trkpt>
      <trkpt lat="45.37938" lon="6.59566">
        <ele>2172.68</ele>
        <time>2016-01-31T10:18:34.034+01:00</time>
      </trkpt>
      <trkpt lat="45.37944" lon="6.59578">
        <ele>2175.72</ele>
        <time>2016-01-31T10:18:37.063+01:00</time>
      </trkpt>
      <trkpt lat="45.37949" lon="6.59589">
        <ele>2179.2</ele>
        <time>2016-01-31T10:18:40.054+01:00</time>
      </trkpt>
      <trkpt lat="45.37955" lon="6.59601">
        <ele>2181.61</ele>
        <time>2016-01-31T10:18:43.083+01:00</time>
      </trkpt>
      <trkpt lat="45.3796" lon="6.59613">
        <ele>2184.53</ele>
        <time>2016-01-31T10:18:46.056+01:00</time>
      </trkpt>
      <trkpt lat="45.37965" lon="6.59625">
        <ele>2187.84</ele>
        <time>2016-01-31T10:18:49.052+01:00</time>
      </trkpt>
      <trkpt lat="45.37969" lon="6.59636">
        <ele>2191.57</ele>
        <time>2016-01-31T10:18:52.059+01:00</time>
      </trkpt>
      <trkpt lat="45.37975" lon="6.59647">
        <ele>2195.12</ele>
        <time>2016-01-31T10:18:55.072+01:00</time>
      </trkpt>
      <trkpt lat="45.37981" lon="6.5966">
        <ele>2199.71</ele>
        <time>2016-01-31T10:18:58.047+01:00</time>
      </trkpt>
      <trkpt lat="45.37989" lon="6.59672">
        <ele>2201.17</ele>
        <time>2016-01-31T10:19:01.048+01:00</time>
      </trkpt>
      <trkpt lat="45.37995" lon="6.59684">
        <ele>2201.07</ele>
        <time>2016-01-31T10:19:05.079+01:00</time>
      </trkpt>
      <trkpt lat="45.37996" lon="6.59697">
        <ele>2201.49</ele>
        <time>2016-01-31T10:19:15.058+01:00</time>
      </trkpt>
      <trkpt lat="45.37991" lon="6.59707">
        <ele>2202.39</ele>
        <time>2016-01-31T10:19:33.069+01:00</time>
      </trkpt>
      <trkpt lat="45.37984" lon="6.59717">
        <ele>2202.22</ele>
        <time>2016-01-31T10:19:53.074+01:00</time>
      </trkpt>
      <trkpt lat="45.37975" lon="6.59718">
        <ele>2211.71</ele>
        <time>2016-01-31T10:20:49.042+01:00</time>
      </trkpt>
      <trkpt lat="45.37971" lon="6.5973">
        <ele>2214.4</ele>
        <time>2016-01-31T10:21:54.065+01:00</time>
      </trkpt>
      <trkpt lat="45.37977" lon="6.59741">
        <ele>2214.8</ele>
        <time>2016-01-31T10:22:04.048+01:00</time>
      </trkpt>
      <trkpt lat="45.37983" lon="6.59751">
        <ele>2214.92</ele>
        <time>2016-01-31T10:22:13.087+01:00</time>
      </trkpt>
      <trkpt lat="45.37985" lon="6.59764">
        <ele>2215.54</ele>
        <time>2016-01-31T10:22:27.077+01:00</time>
      </trkpt>
      <trkpt lat="45.37993" lon="6.59772">
        <ele>2216.2</ele>
        <time>2016-01-31T10:22:42.059+01:00</time>
      </trkpt>
      <trkpt lat="45.37998" lon="6.59784">
        <ele>2216.34</ele>
        <time>2016-01-31T10:23:00.061+01:00</time>
      </trkpt>
      <trkpt lat="45.38006" lon="6.59788">
        <ele>2216.87</ele>
        <time>2016-01-31T10:23:16.064+01:00</time>
      </trkpt>
      <trkpt lat="45.38016" lon="6.59785">
        <ele>2217.52</ele>
        <time>2016-01-31T10:23:25.049+01:00</time>
      </trkpt>
      <trkpt lat="45.38022" lon="6.59776">
        <ele>2217.26</ele>
        <time>2016-01-31T10:23:32.067+01:00</time>
      </trkpt>
      <trkpt lat="45.38029" lon="6.59767">
        <ele>2216.38</ele>
        <time>2016-01-31T10:23:36.059+01:00</time>
      </trkpt>
      <trkpt lat="45.38036" lon="6.59755">
        <ele>2215.67</ele>
        <time>2016-01-31T10:23:40.043+01:00</time>
      </trkpt>
      <trkpt lat="45.38044" lon="6.59744">
        <ele>2215.44</ele>
        <time>2016-01-31T10:23:45.057+01:00</time>
      </trkpt>
      <trkpt lat="45.3805" lon="6.59735">
        <ele>2214.42</ele>
        <time>2016-01-31T10:23:48.061+01:00</time>
      </trkpt>
      <trkpt lat="45.38058" lon="6.59727">
        <ele>2213.63</ele>
        <time>2016-01-31T10:23:51.067+01:00</time>
      </trkpt>
      <trkpt lat="45.38066" lon="6.59719">
        <ele>2212.75</ele>
        <time>2016-01-31T10:23:54.062+01:00</time>
      </trkpt>
      <trkpt lat="45.38076" lon="6.59713">
        <ele>2211.41</ele>
        <time>2016-01-31T10:23:57.048+01:00</time>
      </trkpt>
      <trkpt lat="45.38085" lon="6.59708">
        <ele>2209.37</ele>
        <time>2016-01-31T10:23:59.055+01:00</time>
      </trkpt>
      <trkpt lat="45.38098" lon="6.59706">
        <ele>2206.92</ele>
        <time>2016-01-31T10:24:02.079+01:00</time>
      </trkpt>
      <trkpt lat="45.38112" lon="6.59707">
        <ele>2205.97</ele>
        <time>2016-01-31T10:24:04.034+01:00</time>
      </trkpt>
      <trkpt lat="45.38125" lon="6.59704">
        <ele>2204.9</ele>
        <time>2016-01-31T10:24:06.047+01:00</time>
      </trkpt>
      <trkpt lat="45.3814" lon="6.597">
        <ele>2203.47</ele>
        <time>2016-01-31T10:24:08.039+01:00</time>
      </trkpt>
      <trkpt lat="45.38149" lon="6.5969">
        <ele>2202.22</ele>
        <time>2016-01-31T10:24:10.099+01:00</time>
      </trkpt>
      <trkpt lat="45.38161" lon="6.59677">
        <ele>2200.99</ele>
        <time>2016-01-31T10:24:12.035+01:00</time>
      </trkpt>
      <trkpt lat="45.38164" lon="6.59669">
        <ele>2200.29</ele>
        <time>2016-01-31T10:24:13.045+01:00</time>
      </trkpt>
      <trkpt lat="45.38171" lon="6.59651">
        <ele>2198.61</ele>
        <time>2016-01-31T10:24:15.065+01:00</time>
      </trkpt>
      <trkpt lat="45.38183" lon="6.59643">
        <ele>2196.64</ele>
        <time>2016-01-31T10:24:17.033+01:00</time>
      </trkpt>
      <trkpt lat="45.38195" lon="6.59637">
        <ele>2195.34</ele>
        <time>2016-01-31T10:24:19.034+01:00</time>
      </trkpt>
      <trkpt lat="45.38209" lon="6.59629">
        <ele>2194.69</ele>
        <time>2016-01-31T10:24:21.033+01:00</time>
      </trkpt>
      <trkpt lat="45.38221" lon="6.59622">
        <ele>2193.39</ele>
        <time>2016-01-31T10:24:23.036+01:00</time>
      </trkpt>
      <trkpt lat="45.38233" lon="6.59615">
        <ele>2192.3</ele>
        <time>2016-01-31T10:24:25.035+01:00</time>
      </trkpt>
      <trkpt lat="45.38244" lon="6.59609">
        <ele>2191.47</ele>
        <time>2016-01-31T10:24:27.042+01:00</time>
      </trkpt>
      <trkpt lat="45.38253" lon="6.59603">
        <ele>2190.94</ele>
        <time>2016-01-31T10:24:29.068+01:00</time>
      </trkpt>
      <trkpt lat="45.38264" lon="6.59596">
        <ele>2191.18</ele>
        <time>2016-01-31T10:24:31.065+01:00</time>
      </trkpt>
      <trkpt lat="45.38273" lon="6.59585">
        <ele>2189.65</ele>
        <time>2016-01-31T10:24:34.062+01:00</time>
      </trkpt>
      <trkpt lat="45.38279" lon="6.59576">
        <ele>2188.6</ele>
        <time>2016-01-31T10:24:36.053+01:00</time>
      </trkpt>
      <trkpt lat="45.38286" lon="6.59565">
        <ele>2188.6</ele>
        <time>2016-01-31T10:24:38.059+01:00</time>
      </trkpt>
      <trkpt lat="45.38292" lon="6.59554">
        <ele>2187.71</ele>
        <time>2016-01-31T10:24:40.060+01:00</time>
      </trkpt>
      <trkpt lat="45.38298" lon="6.59543">
        <ele>2186.92</ele>
        <time>2016-01-31T10:24:42.046+01:00</time>
      </trkpt>
      <trkpt lat="45.38305" lon="6.59532">
        <ele>2186.16</ele>
        <time>2016-01-31T10:24:44.061+01:00</time>
      </trkpt>
      <trkpt lat="45.38311" lon="6.59523">
        <ele>2185.26</ele>
        <time>2016-01-31T10:24:46.045+01:00</time>
      </trkpt>
      <trkpt lat="45.38318" lon="6.59513">
        <ele>2184.42</ele>
        <time>2016-01-31T10:24:48.043+01:00</time>
      </trkpt>
      <trkpt lat="45.38327" lon="6.59503">
        <ele>2182.99</ele>
        <time>2016-01-31T10:24:50.031+01:00</time>
      </trkpt>
      <trkpt lat="45.38336" lon="6.59495">
        <ele>2181.66</ele>
        <time>2016-01-31T10:24:52.034+01:00</time>
      </trkpt>
      <trkpt lat="45.38347" lon="6.59487">
        <ele>2181.13</ele>
        <time>2016-01-31T10:24:55.034+01:00</time>
      </trkpt>
      <trkpt lat="45.38357" lon="6.59484">
        <ele>2180.37</ele>
        <time>2016-01-31T10:24:57.035+01:00</time>
      </trkpt>
      <trkpt lat="45.38371" lon="6.59479">
        <ele>2179.85</ele>
        <time>2016-01-31T10:25:00.046+01:00</time>
      </trkpt>
      <trkpt lat="45.3838" lon="6.59477">
        <ele>2178.9</ele>
        <time>2016-01-31T10:25:03.034+01:00</time>
      </trkpt>
      <trkpt lat="45.38391" lon="6.59474">
        <ele>2177.8</ele>
        <time>2016-01-31T10:25:05.033+01:00</time>
      </trkpt>
      <trkpt lat="45.38402" lon="6.59472">
        <ele>2176.87</ele>
        <time>2016-01-31T10:25:07.043+01:00</time>
      </trkpt>
      <trkpt lat="45.38418" lon="6.59456">
        <ele>2175.8</ele>
        <time>2016-01-31T10:25:11.057+01:00</time>
      </trkpt>
      <trkpt lat="45.38425" lon="6.59445">
        <ele>2174.32</ele>
        <time>2016-01-31T10:25:15.088+01:00</time>
      </trkpt>
      <trkpt lat="45.38432" lon="6.59433">
        <ele>2173.78</ele>
        <time>2016-01-31T10:25:19.084+01:00</time>
      </trkpt>
      <trkpt lat="45.38438" lon="6.59422">
        <ele>2172.56</ele>
        <time>2016-01-31T10:25:23.086+01:00</time>
      </trkpt>
      <trkpt lat="45.38444" lon="6.59411">
        <ele>2171.88</ele>
        <time>2016-01-31T10:25:26.058+01:00</time>
      </trkpt>
      <trkpt lat="45.38451" lon="6.59399">
        <ele>2170.2</ele>
        <time>2016-01-31T10:25:29.075+01:00</time>
      </trkpt>
      <trkpt lat="45.3846" lon="6.59385">
        <ele>2169.09</ele>
        <time>2016-01-31T10:25:32.070+01:00</time>
      </trkpt>
      <trkpt lat="45.38467" lon="6.59375">
        <ele>2168.1</ele>
        <time>2016-01-31T10:25:35.074+01:00</time>
      </trkpt>
      <trkpt lat="45.38474" lon="6.59364">
        <ele>2163.89</ele>
        <time>2016-01-31T10:25:42.069+01:00</time>
      </trkpt>
      <trkpt lat="45.38509" lon="6.59328">
        <ele>2161.22</ele>
        <time>2016-01-31T10:25:46.068+01:00</time>
      </trkpt>
      <trkpt lat="45.38518" lon="6.59319">
        <ele>2160.08</ele>
        <time>2016-01-31T10:25:48.064+01:00</time>
      </trkpt>
      <trkpt lat="45.38527" lon="6.59295">
        <ele>2158.64</ele>
        <time>2016-01-31T10:25:51.063+01:00</time>
      </trkpt>
      <trkpt lat="45.38533" lon="6.59276">
        <ele>2158.44</ele>
        <time>2016-01-31T10:25:54.060+01:00</time>
      </trkpt>
      <trkpt lat="45.38538" lon="6.59265">
        <ele>2157.81</ele>
        <time>2016-01-31T10:25:56.058+01:00</time>
      </trkpt>
      <trkpt lat="45.38545" lon="6.59253">
        <ele>2156.7</ele>
        <time>2016-01-31T10:25:58.063+01:00</time>
      </trkpt>
      <trkpt lat="45.38552" lon="6.59241">
        <ele>2155.77</ele>
        <time>2016-01-31T10:26:00.066+01:00</time>
      </trkpt>
      <trkpt lat="45.38558" lon="6.5923">
        <ele>2155.02</ele>
        <time>2016-01-31T10:26:02.059+01:00</time>
      </trkpt>
      <trkpt lat="45.38565" lon="6.59219">
        <ele>2154.01</ele>
        <time>2016-01-31T10:26:04.053+01:00</time>
      </trkpt>
      <trkpt lat="45.38573" lon="6.59207">
        <ele>2152.95</ele>
        <time>2016-01-31T10:26:06.054+01:00</time>
      </trkpt>
      <trkpt lat="45.3858" lon="6.59196">
        <ele>2152.54</ele>
        <time>2016-01-31T10:26:08.084+01:00</time>
      </trkpt>
      <trkpt lat="45.38589" lon="6.59185">
        <ele>2151.3</ele>
        <time>2016-01-31T10:26:10.060+01:00</time>
      </trkpt>
      <trkpt lat="45.38597" lon="6.59173">
        <ele>2150.76</ele>
        <time>2016-01-31T10:26:12.054+01:00</time>
      </trkpt>
      <trkpt lat="45.38605" lon="6.59163">
        <ele>2149.52</ele>
        <time>2016-01-31T10:26:14.057+01:00</time>
      </trkpt>
      <trkpt lat="45.38616" lon="6.59152">
        <ele>2147.66</ele>
        <time>2016-01-31T10:26:16.053+01:00</time>
      </trkpt>
      <trkpt lat="45.38626" lon="6.59141">
        <ele>2146.34</ele>
        <time>2016-01-31T10:26:18.074+01:00</time>
      </trkpt>
      <trkpt lat="45.38636" lon="6.59132">
        <ele>2145.18</ele>
        <time>2016-01-31T10:26:20.069+01:00</time>
      </trkpt>
      <trkpt lat="45.38644" lon="6.59125">
        <ele>2144.27</ele>
        <time>2016-01-31T10:26:22.065+01:00</time>
      </trkpt>
      <trkpt lat="45.38654" lon="6.59118">
        <ele>2143.21</ele>
        <time>2016-01-31T10:26:24.054+01:00</time>
      </trkpt>
      <trkpt lat="45.38665" lon="6.5911">
        <ele>2140.99</ele>
        <time>2016-01-31T10:26:27.076+01:00</time>
      </trkpt>
      <trkpt lat="45.38675" lon="6.59105">
        <ele>2137.88</ele>
        <time>2016-01-31T10:26:30.067+01:00</time>
      </trkpt>
      <trkpt lat="45.38685" lon="6.59101">
        <ele>2133.13</ele>
        <time>2016-01-31T10:26:33.038+01:00</time>
      </trkpt>
      <trkpt lat="45.38697" lon="6.59098">
        <ele>2128.96</ele>
        <time>2016-01-31T10:26:35.040+01:00</time>
      </trkpt>
      <trkpt lat="45.38711" lon="6.59095">
        <ele>2125.3</ele>
        <time>2016-01-31T10:26:37.047+01:00</time>
      </trkpt>
      <trkpt lat="45.38725" lon="6.59092">
        <ele>2121.29</ele>
        <time>2016-01-31T10:26:39.040+01:00</time>
      </trkpt>
      <trkpt lat="45.3875" lon="6.58988">
        <ele>2114.9</ele>
        <time>2016-01-31T10:26:44.034+01:00</time>
      </trkpt>
      <trkpt lat="45.38758" lon="6.58967">
        <ele>2114.96</ele>
        <time>2016-01-31T10:26:46.034+01:00</time>
      </trkpt>
      <trkpt lat="45.38769" lon="6.58963">
        <ele>2114.8</ele>
        <time>2016-01-31T10:26:47.052+01:00</time>
      </trkpt>
      <trkpt lat="45.38778" lon="6.58957">
        <ele>2113.68</ele>
        <time>2016-01-31T10:26:49.045+01:00</time>
      </trkpt>
      <trkpt lat="45.38786" lon="6.58949">
        <ele>2112.83</ele>
        <time>2016-01-31T10:26:51.031+01:00</time>
      </trkpt>
      <trkpt lat="45.38797" lon="6.58944">
        <ele>2112.27</ele>
        <time>2016-01-31T10:26:53.034+01:00</time>
      </trkpt>
      <trkpt lat="45.38802" lon="6.5894">
        <ele>2111.62</ele>
        <time>2016-01-31T10:26:54.032+01:00</time>
      </trkpt>
      <trkpt lat="45.38811" lon="6.58935">
        <ele>2111</ele>
        <time>2016-01-31T10:26:57.035+01:00</time>
      </trkpt>
      <trkpt lat="45.38819" lon="6.58929">
        <ele>2109.43</ele>
        <time>2016-01-31T10:27:01.046+01:00</time>
      </trkpt>
      <trkpt lat="45.38823" lon="6.58928">
        <ele>2109.01</ele>
        <time>2016-01-31T10:27:03.057+01:00</time>
      </trkpt>
      <trkpt lat="45.38837" lon="6.5892">
        <ele>2106.14</ele>
        <time>2016-01-31T10:27:15.055+01:00</time>
      </trkpt>
      <trkpt lat="45.3885" lon="6.5892">
        <ele>2103.28</ele>
        <time>2016-01-31T10:27:17.043+01:00</time>
      </trkpt>
      <trkpt lat="45.38866" lon="6.58928">
        <ele>2100.07</ele>
        <time>2016-01-31T10:27:20.062+01:00</time>
      </trkpt>
      <trkpt lat="45.38877" lon="6.58937">
        <ele>2097.83</ele>
        <time>2016-01-31T10:27:22.075+01:00</time>
      </trkpt>
      <trkpt lat="45.38887" lon="6.5894">
        <ele>2096.7</ele>
        <time>2016-01-31T10:27:24.056+01:00</time>
      </trkpt>
      <trkpt lat="45.3891" lon="6.58941">
        <ele>2092.2</ele>
        <time>2016-01-31T10:27:28.072+01:00</time>
      </trkpt>
      <trkpt lat="45.38916" lon="6.58932">
        <ele>2090.93</ele>
        <time>2016-01-31T10:27:30.065+01:00</time>
      </trkpt>
      <trkpt lat="45.38924" lon="6.58925">
        <ele>2087.96</ele>
        <time>2016-01-31T10:27:32.058+01:00</time>
      </trkpt>
      <trkpt lat="45.38925" lon="6.5892">
        <ele>2088.16</ele>
        <time>2016-01-31T10:27:33.057+01:00</time>
      </trkpt>
      <trkpt lat="45.38928" lon="6.58913">
        <ele>2085.92</ele>
        <time>2016-01-31T10:27:34.069+01:00</time>
      </trkpt>
      <trkpt lat="45.38932" lon="6.58911">
        <ele>2083.5</ele>
        <time>2016-01-31T10:27:35.052+01:00</time>
      </trkpt>
      <trkpt lat="45.38933" lon="6.58905">
        <ele>2082.53</ele>
        <time>2016-01-31T10:27:36.060+01:00</time>
      </trkpt>
      <trkpt lat="45.38934" lon="6.58898">
        <ele>2080.96</ele>
        <time>2016-01-31T10:27:37.038+01:00</time>
      </trkpt>
      <trkpt lat="45.38944" lon="6.58886">
        <ele>2078.14</ele>
        <time>2016-01-31T10:27:39.036+01:00</time>
      </trkpt>
      <trkpt lat="45.38955" lon="6.58881">
        <ele>2074.04</ele>
        <time>2016-01-31T10:27:42.051+01:00</time>
      </trkpt>
      <trkpt lat="45.38966" lon="6.58876">
        <ele>2071.74</ele>
        <time>2016-01-31T10:27:45.040+01:00</time>
      </trkpt>
      <trkpt lat="45.38976" lon="6.58869">
        <ele>2070.3</ele>
        <time>2016-01-31T10:27:47.044+01:00</time>
      </trkpt>
      <trkpt lat="45.38987" lon="6.58864">
        <ele>2067.46</ele>
        <time>2016-01-31T10:27:49.065+01:00</time>
      </trkpt>
      <trkpt lat="45.38998" lon="6.58858">
        <ele>2064.23</ele>
        <time>2016-01-31T10:27:51.066+01:00</time>
      </trkpt>
      <trkpt lat="45.39011" lon="6.58858">
        <ele>2061</ele>
        <time>2016-01-31T10:27:53.067+01:00</time>
      </trkpt>
      <trkpt lat="45.39022" lon="6.58854">
        <ele>2058.6</ele>
        <time>2016-01-31T10:27:55.057+01:00</time>
      </trkpt>
      <trkpt lat="45.39035" lon="6.58851">
        <ele>2055.61</ele>
        <time>2016-01-31T10:27:57.069+01:00</time>
      </trkpt>
      <trkpt lat="45.39045" lon="6.58853">
        <ele>2053.48</ele>
        <time>2016-01-31T10:27:59.072+01:00</time>
      </trkpt>
      <trkpt lat="45.39056" lon="6.58849">
        <ele>2051.64</ele>
        <time>2016-01-31T10:28:01.069+01:00</time>
      </trkpt>
      <trkpt lat="45.39067" lon="6.58848">
        <ele>2050.91</ele>
        <time>2016-01-31T10:28:03.067+01:00</time>
      </trkpt>
      <trkpt lat="45.39077" lon="6.5885">
        <ele>2049.82</ele>
        <time>2016-01-31T10:28:05.086+01:00</time>
      </trkpt>
      <trkpt lat="45.39087" lon="6.58852">
        <ele>2049.28</ele>
        <time>2016-01-31T10:28:07.075+01:00</time>
      </trkpt>
      <trkpt lat="45.39098" lon="6.58852">
        <ele>2048.03</ele>
        <time>2016-01-31T10:28:09.059+01:00</time>
      </trkpt>
      <trkpt lat="45.39109" lon="6.58856">
        <ele>2045.3</ele>
        <time>2016-01-31T10:28:11.043+01:00</time>
      </trkpt>
      <trkpt lat="45.39118" lon="6.58862">
        <ele>2044.3</ele>
        <time>2016-01-31T10:28:13.048+01:00</time>
      </trkpt>
      <trkpt lat="45.39126" lon="6.5887">
        <ele>2042.62</ele>
        <time>2016-01-31T10:28:15.035+01:00</time>
      </trkpt>
      <trkpt lat="45.39136" lon="6.58881">
        <ele>2040.42</ele>
        <time>2016-01-31T10:28:17.044+01:00</time>
      </trkpt>
      <trkpt lat="45.39143" lon="6.58888">
        <ele>2039</ele>
        <time>2016-01-31T10:28:18.043+01:00</time>
      </trkpt>
      <trkpt lat="45.39152" lon="6.58893">
        <ele>2038.08</ele>
        <time>2016-01-31T10:28:19.050+01:00</time>
      </trkpt>
      <trkpt lat="45.39165" lon="6.58895">
        <ele>2036.02</ele>
        <time>2016-01-31T10:28:21.056+01:00</time>
      </trkpt>
      <trkpt lat="45.39176" lon="6.58896">
        <ele>2034.77</ele>
        <time>2016-01-31T10:28:23.061+01:00</time>
      </trkpt>
      <trkpt lat="45.39187" lon="6.58896">
        <ele>2033.92</ele>
        <time>2016-01-31T10:28:25.077+01:00</time>
      </trkpt>
      <trkpt lat="45.39197" lon="6.58897">
        <ele>2034.55</ele>
        <time>2016-01-31T10:28:28.063+01:00</time>
      </trkpt>
      <trkpt lat="45.39211" lon="6.58898">
        <ele>2033.91</ele>
        <time>2016-01-31T10:28:32.046+01:00</time>
      </trkpt>
      <trkpt lat="45.39221" lon="6.58898">
        <ele>2032.74</ele>
        <time>2016-01-31T10:28:35.062+01:00</time>
      </trkpt>
      <trkpt lat="45.39234" lon="6.58898">
        <ele>2031.98</ele>
        <time>2016-01-31T10:28:38.059+01:00</time>
      </trkpt>
      <trkpt lat="45.39245" lon="6.58898">
        <ele>2031.2</ele>
        <time>2016-01-31T10:28:41.063+01:00</time>
      </trkpt>
      <trkpt lat="45.39254" lon="6.58896">
        <ele>2031.07</ele>
        <time>2016-01-31T10:28:44.053+01:00</time>
      </trkpt>
      <trkpt lat="45.39267" lon="6.58895">
        <ele>2028.92</ele>
        <time>2016-01-31T10:28:47.068+01:00</time>
      </trkpt>
      <trkpt lat="45.39278" lon="6.58894">
        <ele>2026.75</ele>
        <time>2016-01-31T10:28:49.071+01:00</time>
      </trkpt>
      <trkpt lat="45.3929" lon="6.58895">
        <ele>2024.19</ele>
        <time>2016-01-31T10:28:51.058+01:00</time>
      </trkpt>
      <trkpt lat="45.39302" lon="6.58897">
        <ele>2023.16</ele>
        <time>2016-01-31T10:28:53.057+01:00</time>
      </trkpt>
      <trkpt lat="45.39318" lon="6.58904">
        <ele>2019.25</ele>
        <time>2016-01-31T10:28:56.057+01:00</time>
      </trkpt>
      <trkpt lat="45.39331" lon="6.58911">
        <ele>2015.29</ele>
        <time>2016-01-31T10:28:58.103+01:00</time>
      </trkpt>
      <trkpt lat="45.39342" lon="6.58917">
        <ele>2011.47</ele>
        <time>2016-01-31T10:29:01.080+01:00</time>
      </trkpt>
      <trkpt lat="45.39356" lon="6.58926">
        <ele>2009.14</ele>
        <time>2016-01-31T10:29:04.083+01:00</time>
      </trkpt>
      <trkpt lat="45.39366" lon="6.5893">
        <ele>2005.51</ele>
        <time>2016-01-31T10:29:06.070+01:00</time>
      </trkpt>
      <trkpt lat="45.39378" lon="6.58934">
        <ele>2001.75</ele>
        <time>2016-01-31T10:29:08.068+01:00</time>
      </trkpt>
      <trkpt lat="45.39394" lon="6.58928">
        <ele>1998.76</ele>
        <time>2016-01-31T10:29:12.068+01:00</time>
      </trkpt>
      <trkpt lat="45.39416" lon="6.58926">
        <ele>1998.44</ele>
        <time>2016-01-31T10:29:16.056+01:00</time>
      </trkpt>
      <trkpt lat="45.39425" lon="6.58924">
        <ele>1997.38</ele>
        <time>2016-01-31T10:29:34.033+01:00</time>
      </trkpt>
      <trkpt lat="45.39439" lon="6.58918">
        <ele>1994.55</ele>
        <time>2016-01-31T10:29:38.037+01:00</time>
      </trkpt>
      <trkpt lat="45.39448" lon="6.58924">
        <ele>1990.96</ele>
        <time>2016-01-31T10:29:40.041+01:00</time>
      </trkpt>
      <trkpt lat="45.39462" lon="6.58924">
        <ele>1988.85</ele>
        <time>2016-01-31T10:29:42.044+01:00</time>
      </trkpt>
      <trkpt lat="45.39471" lon="6.58934">
        <ele>1985.28</ele>
        <time>2016-01-31T10:29:44.040+01:00</time>
      </trkpt>
      <trkpt lat="45.39481" lon="6.58936">
        <ele>1984.01</ele>
        <time>2016-01-31T10:29:46.051+01:00</time>
      </trkpt>
      <trkpt lat="45.39491" lon="6.58948">
        <ele>1980.89</ele>
        <time>2016-01-31T10:29:49.057+01:00</time>
      </trkpt>
      <trkpt lat="45.39503" lon="6.58956">
        <ele>1976.96</ele>
        <time>2016-01-31T10:29:51.038+01:00</time>
      </trkpt>
      <trkpt lat="45.39514" lon="6.58965">
        <ele>1974.08</ele>
        <time>2016-01-31T10:29:53.049+01:00</time>
      </trkpt>
      <trkpt lat="45.39521" lon="6.58974">
        <ele>1970.11</ele>
        <time>2016-01-31T10:29:55.068+01:00</time>
      </trkpt>
      <trkpt lat="45.39533" lon="6.5898">
        <ele>1966.76</ele>
        <time>2016-01-31T10:29:57.086+01:00</time>
      </trkpt>
      <trkpt lat="45.39542" lon="6.58986">
        <ele>1965.73</ele>
        <time>2016-01-31T10:29:59.044+01:00</time>
      </trkpt>
      <trkpt lat="45.39551" lon="6.58996">
        <ele>1964.05</ele>
        <time>2016-01-31T10:30:02.039+01:00</time>
      </trkpt>
      <trkpt lat="45.39559" lon="6.59001">
        <ele>1961.89</ele>
        <time>2016-01-31T10:30:04.042+01:00</time>
      </trkpt>
      <trkpt lat="45.39571" lon="6.59005">
        <ele>1958.87</ele>
        <time>2016-01-31T10:30:06.040+01:00</time>
      </trkpt>
      <trkpt lat="45.39581" lon="6.59003">
        <ele>1954.26</ele>
        <time>2016-01-31T10:30:09.038+01:00</time>
      </trkpt>
      <trkpt lat="45.39591" lon="6.58995">
        <ele>1949.19</ele>
        <time>2016-01-31T10:30:11.038+01:00</time>
      </trkpt>
      <trkpt lat="45.39602" lon="6.58987">
        <ele>1945.68</ele>
        <time>2016-01-31T10:30:13.038+01:00</time>
      </trkpt>
      <trkpt lat="45.3961" lon="6.58975">
        <ele>1940.57</ele>
        <time>2016-01-31T10:30:16.037+01:00</time>
      </trkpt>
      <trkpt lat="45.39616" lon="6.58963">
        <ele>1938.51</ele>
        <time>2016-01-31T10:30:21.083+01:00</time>
      </trkpt>
      <trkpt lat="45.39623" lon="6.58953">
        <ele>1934.1</ele>
        <time>2016-01-31T10:30:24.074+01:00</time>
      </trkpt>
      <trkpt lat="45.39631" lon="6.58942">
        <ele>1930.05</ele>
        <time>2016-01-31T10:30:27.113+01:00</time>
      </trkpt>
      <trkpt lat="45.3964" lon="6.58934">
        <ele>1927.36</ele>
        <time>2016-01-31T10:30:29.073+01:00</time>
      </trkpt>
      <trkpt lat="45.3965" lon="6.58933">
        <ele>1925.5</ele>
        <time>2016-01-31T10:30:31.073+01:00</time>
      </trkpt>
      <trkpt lat="45.39662" lon="6.58923">
        <ele>1923.37</ele>
        <time>2016-01-31T10:30:34.064+01:00</time>
      </trkpt>
      <trkpt lat="45.39673" lon="6.58921">
        <ele>1920.26</ele>
        <time>2016-01-31T10:30:36.064+01:00</time>
      </trkpt>
      <trkpt lat="45.39683" lon="6.58916">
        <ele>1919.03</ele>
        <time>2016-01-31T10:30:38.063+01:00</time>
      </trkpt>
      <trkpt lat="45.39695" lon="6.58907">
        <ele>1915.66</ele>
        <time>2016-01-31T10:30:41.060+01:00</time>
      </trkpt>
      <trkpt lat="45.39707" lon="6.58894">
        <ele>1913.29</ele>
        <time>2016-01-31T10:30:43.062+01:00</time>
      </trkpt>
      <trkpt lat="45.39718" lon="6.58893">
        <ele>1911.38</ele>
        <time>2016-01-31T10:30:45.058+01:00</time>
      </trkpt>
      <trkpt lat="45.39731" lon="6.58891">
        <ele>1909.6</ele>
        <time>2016-01-31T10:30:47.057+01:00</time>
      </trkpt>
      <trkpt lat="45.39738" lon="6.58884">
        <ele>1908.09</ele>
        <time>2016-01-31T10:30:48.057+01:00</time>
      </trkpt>
      <trkpt lat="45.39752" lon="6.58874">
        <ele>1902.83</ele>
        <time>2016-01-31T10:30:50.079+01:00</time>
      </trkpt>
      <trkpt lat="45.3976" lon="6.58867">
        <ele>1900.15</ele>
        <time>2016-01-31T10:30:51.054+01:00</time>
      </trkpt>
      <trkpt lat="45.39769" lon="6.58865">
        <ele>1897.66</ele>
        <time>2016-01-31T10:30:52.061+01:00</time>
      </trkpt>
      <trkpt lat="45.39779" lon="6.58851">
        <ele>1893.85</ele>
        <time>2016-01-31T10:30:54.066+01:00</time>
      </trkpt>
      <trkpt lat="45.39789" lon="6.58847">
        <ele>1891.32</ele>
        <time>2016-01-31T10:30:56.066+01:00</time>
      </trkpt>
      <trkpt lat="45.39797" lon="6.5884">
        <ele>1890.84</ele>
        <time>2016-01-31T10:30:58.067+01:00</time>
      </trkpt>
      <trkpt lat="45.39807" lon="6.58833">
        <ele>1889.46</ele>
        <time>2016-01-31T10:31:00.072+01:00</time>
      </trkpt>
      <trkpt lat="45.39821" lon="6.58823">
        <ele>1887.95</ele>
        <time>2016-01-31T10:31:02.044+01:00</time>
      </trkpt>
      <trkpt lat="45.39835" lon="6.58817">
        <ele>1885.02</ele>
        <time>2016-01-31T10:31:04.044+01:00</time>
      </trkpt>
      <trkpt lat="45.39848" lon="6.58806">
        <ele>1881.03</ele>
        <time>2016-01-31T10:31:06.045+01:00</time>
      </trkpt>
      <trkpt lat="45.39858" lon="6.58797">
        <ele>1877.62</ele>
        <time>2016-01-31T10:31:08.042+01:00</time>
      </trkpt>
      <trkpt lat="45.39868" lon="6.58793">
        <ele>1875.38</ele>
        <time>2016-01-31T10:31:10.067+01:00</time>
      </trkpt>
      <trkpt lat="45.39879" lon="6.58797">
        <ele>1872.38</ele>
        <time>2016-01-31T10:31:34.062+01:00</time>
      </trkpt>
      <trkpt lat="45.3989" lon="6.58793">
        <ele>1870.18</ele>
        <time>2016-01-31T10:31:36.073+01:00</time>
      </trkpt>
      <trkpt lat="45.39904" lon="6.58789">
        <ele>1867.27</ele>
        <time>2016-01-31T10:31:38.054+01:00</time>
      </trkpt>
      <trkpt lat="45.3992" lon="6.58785">
        <ele>1863.96</ele>
        <time>2016-01-31T10:31:40.076+01:00</time>
      </trkpt>
      <trkpt lat="45.39936" lon="6.5878">
        <ele>1860.12</ele>
        <time>2016-01-31T10:31:42.089+01:00</time>
      </trkpt>
      <trkpt lat="45.3995" lon="6.58769">
        <ele>1858.2</ele>
        <time>2016-01-31T10:31:44.087+01:00</time>
      </trkpt>
      <trkpt lat="45.39962" lon="6.58768">
        <ele>1854.24</ele>
        <time>2016-01-31T10:31:45.077+01:00</time>
      </trkpt>
      <trkpt lat="45.39972" lon="6.58762">
        <ele>1853.96</ele>
        <time>2016-01-31T10:31:46.069+01:00</time>
      </trkpt>
      <trkpt lat="45.39984" lon="6.5876">
        <ele>1849.74</ele>
        <time>2016-01-31T10:31:47.062+01:00</time>
      </trkpt>
      <trkpt lat="45.39997" lon="6.58755">
        <ele>1847.1</ele>
        <time>2016-01-31T10:31:48.064+01:00</time>
      </trkpt>
      <trkpt lat="45.40009" lon="6.58753">
        <ele>1843.9</ele>
        <time>2016-01-31T10:31:49.071+01:00</time>
      </trkpt>
      <trkpt lat="45.40021" lon="6.58749">
        <ele>1841.54</ele>
        <time>2016-01-31T10:31:50.072+01:00</time>
      </trkpt>
      <trkpt lat="45.40029" lon="6.58744">
        <ele>1840.16</ele>
        <time>2016-01-31T10:31:51.067+01:00</time>
      </trkpt>
      <trkpt lat="45.40038" lon="6.58739">
        <ele>1838.55</ele>
        <time>2016-01-31T10:31:52.067+01:00</time>
      </trkpt>
      <trkpt lat="45.40048" lon="6.58736">
        <ele>1836.68</ele>
        <time>2016-01-31T10:31:53.064+01:00</time>
      </trkpt>
      <trkpt lat="45.40057" lon="6.58734">
        <ele>1835.44</ele>
        <time>2016-01-31T10:31:54.071+01:00</time>
      </trkpt>
      <trkpt lat="45.40066" lon="6.58729">
        <ele>1834.11</ele>
        <time>2016-01-31T10:31:55.046+01:00</time>
      </trkpt>
      <trkpt lat="45.40077" lon="6.58726">
        <ele>1832.61</ele>
        <time>2016-01-31T10:31:56.034+01:00</time>
      </trkpt>
      <trkpt lat="45.40087" lon="6.58722">
        <ele>1831.15</ele>
        <time>2016-01-31T10:31:57.035+01:00</time>
      </trkpt>
      <trkpt lat="45.40096" lon="6.58716">
        <ele>1829.91</ele>
        <time>2016-01-31T10:31:58.036+01:00</time>
      </trkpt>
      <trkpt lat="45.40106" lon="6.58712">
        <ele>1828.33</ele>
        <time>2016-01-31T10:31:59.034+01:00</time>
      </trkpt>
      <trkpt lat="45.40117" lon="6.58708">
        <ele>1826.79</ele>
        <time>2016-01-31T10:32:00.031+01:00</time>
      </trkpt>
      <trkpt lat="45.40127" lon="6.58703">
        <ele>1825.69</ele>
        <time>2016-01-31T10:32:01.036+01:00</time>
      </trkpt>
      <trkpt lat="45.40137" lon="6.58698">
        <ele>1824.31</ele>
        <time>2016-01-31T10:32:02.039+01:00</time>
      </trkpt>
      <trkpt lat="45.40146" lon="6.58695">
        <ele>1825.1</ele>
        <time>2016-01-31T10:32:03.037+01:00</time>
      </trkpt>
      <trkpt lat="45.40164" lon="6.58691">
        <ele>1823.13</ele>
        <time>2016-01-31T10:32:05.036+01:00</time>
      </trkpt>
      <trkpt lat="45.40179" lon="6.58685">
        <ele>1821.61</ele>
        <time>2016-01-31T10:32:07.037+01:00</time>
      </trkpt>
      <trkpt lat="45.40195" lon="6.58685">
        <ele>1819.89</ele>
        <time>2016-01-31T10:32:09.052+01:00</time>
      </trkpt>
      <trkpt lat="45.40209" lon="6.58688">
        <ele>1819.69</ele>
        <time>2016-01-31T10:32:11.041+01:00</time>
      </trkpt>
      <trkpt lat="45.40219" lon="6.58686">
        <ele>1819.8</ele>
        <time>2016-01-31T10:32:13.062+01:00</time>
      </trkpt>
      <trkpt lat="45.40227" lon="6.58676">
        <ele>1820.05</ele>
        <time>2016-01-31T10:32:17.045+01:00</time>
      </trkpt>
      <trkpt lat="45.40235" lon="6.58679">
        <ele>1820.09</ele>
        <time>2016-01-31T10:32:26.048+01:00</time>
      </trkpt>
      <trkpt lat="45.40243" lon="6.58689">
        <ele>1820.56</ele>
        <time>2016-01-31T10:32:39.077+01:00</time>
      </trkpt>
      <trkpt lat="45.4025" lon="6.58699">
        <ele>1819.95</ele>
        <time>2016-01-31T10:32:49.032+01:00</time>
      </trkpt>
      <trkpt lat="45.40255" lon="6.58711">
        <ele>1818.55</ele>
        <time>2016-01-31T10:33:06.035+01:00</time>
      </trkpt>
      <trkpt lat="45.40261" lon="6.58728">
        <ele>1818.12</ele>
        <time>2016-01-31T10:33:09.053+01:00</time>
      </trkpt>
      <trkpt lat="45.40265" lon="6.58745">
        <ele>1821.81</ele>
        <time>2016-01-31T10:33:12.054+01:00</time>
      </trkpt>
      <trkpt lat="45.4027" lon="6.58759">
        <ele>1826.01</ele>
        <time>2016-01-31T10:33:15.058+01:00</time>
      </trkpt>
      <trkpt lat="45.40275" lon="6.58773">
        <ele>1829.96</ele>
        <time>2016-01-31T10:33:18.056+01:00</time>
      </trkpt>
      <trkpt lat="45.4028" lon="6.58789">
        <ele>1834.69</ele>
        <time>2016-01-31T10:33:22.045+01:00</time>
      </trkpt>
      <trkpt lat="45.40285" lon="6.58803">
        <ele>1835.33</ele>
        <time>2016-01-31T10:33:25.043+01:00</time>
      </trkpt>
      <trkpt lat="45.40292" lon="6.58818">
        <ele>1836.61</ele>
        <time>2016-01-31T10:33:28.052+01:00</time>
      </trkpt>
      <trkpt lat="45.40297" lon="6.5883">
        <ele>1838.73</ele>
        <time>2016-01-31T10:33:31.059+01:00</time>
      </trkpt>
      <trkpt lat="45.40301" lon="6.58844">
        <ele>1840.48</ele>
        <time>2016-01-31T10:33:34.033+01:00</time>
      </trkpt>
      <trkpt lat="45.40305" lon="6.58858">
        <ele>1842.53</ele>
        <time>2016-01-31T10:33:37.047+01:00</time>
      </trkpt>
      <trkpt lat="45.4031" lon="6.58871">
        <ele>1845.49</ele>
        <time>2016-01-31T10:33:40.035+01:00</time>
      </trkpt>
      <trkpt lat="45.40317" lon="6.58887">
        <ele>1848.01</ele>
        <time>2016-01-31T10:33:43.057+01:00</time>
      </trkpt>
      <trkpt lat="45.40322" lon="6.58902">
        <ele>1850.83</ele>
        <time>2016-01-31T10:33:46.045+01:00</time>
      </trkpt>
      <trkpt lat="45.40326" lon="6.58916">
        <ele>1854.18</ele>
        <time>2016-01-31T10:33:49.033+01:00</time>
      </trkpt>
      <trkpt lat="45.40329" lon="6.5893">
        <ele>1856.53</ele>
        <time>2016-01-31T10:33:52.045+01:00</time>
      </trkpt>
      <trkpt lat="45.40332" lon="6.58943">
        <ele>1860.07</ele>
        <time>2016-01-31T10:33:55.056+01:00</time>
      </trkpt>
      <trkpt lat="45.40336" lon="6.58957">
        <ele>1863.69</ele>
        <time>2016-01-31T10:33:58.033+01:00</time>
      </trkpt>
      <trkpt lat="45.40341" lon="6.58969">
        <ele>1867.52</ele>
        <time>2016-01-31T10:34:01.036+01:00</time>
      </trkpt>
      <trkpt lat="45.40346" lon="6.58983">
        <ele>1872.21</ele>
        <time>2016-01-31T10:34:05.055+01:00</time>
      </trkpt>
      <trkpt lat="45.40352" lon="6.58998">
        <ele>1875.11</ele>
        <time>2016-01-31T10:34:09.056+01:00</time>
      </trkpt>
      <trkpt lat="45.40358" lon="6.59012">
        <ele>1878.79</ele>
        <time>2016-01-31T10:34:14.035+01:00</time>
      </trkpt>
      <trkpt lat="45.40365" lon="6.59024">
        <ele>1880.38</ele>
        <time>2016-01-31T10:34:16.049+01:00</time>
      </trkpt>
      <trkpt lat="45.4037" lon="6.59035">
        <ele>1882.2</ele>
        <time>2016-01-31T10:34:18.075+01:00</time>
      </trkpt>
      <trkpt lat="45.40376" lon="6.59048">
        <ele>1884.73</ele>
        <time>2016-01-31T10:34:21.033+01:00</time>
      </trkpt>
      <trkpt lat="45.40381" lon="6.59063">
        <ele>1887.66</ele>
        <time>2016-01-31T10:34:24.053+01:00</time>
      </trkpt>
      <trkpt lat="45.40385" lon="6.59076">
        <ele>1890.71</ele>
        <time>2016-01-31T10:34:27.089+01:00</time>
      </trkpt>
      <trkpt lat="45.4039" lon="6.59091">
        <ele>1894.22</ele>
        <time>2016-01-31T10:34:30.064+01:00</time>
      </trkpt>
      <trkpt lat="45.40393" lon="6.59105">
        <ele>1898.16</ele>
        <time>2016-01-31T10:34:33.036+01:00</time>
      </trkpt>
      <trkpt lat="45.40396" lon="6.59117">
        <ele>1902.12</ele>
        <time>2016-01-31T10:34:36.079+01:00</time>
      </trkpt>
      <trkpt lat="45.40399" lon="6.59135">
        <ele>1906.26</ele>
        <time>2016-01-31T10:34:40.034+01:00</time>
      </trkpt>
      <trkpt lat="45.40403" lon="6.59148">
        <ele>1872.58</ele>
        <time>2016-01-31T10:34:43.036+01:00</time>
      </trkpt>
      <trkpt lat="45.40407" lon="6.59162">
        <ele>1873</ele>
        <time>2016-01-31T10:34:46.034+01:00</time>
      </trkpt>
      <trkpt lat="45.40412" lon="6.59175">
        <ele>1876.95</ele>
        <time>2016-01-31T10:34:49.068+01:00</time>
      </trkpt>
      <trkpt lat="45.40417" lon="6.59187">
        <ele>1877.58</ele>
        <time>2016-01-31T10:34:52.069+01:00</time>
      </trkpt>
      <trkpt lat="45.40421" lon="6.59201">
        <ele>1882.03</ele>
        <time>2016-01-31T10:34:55.068+01:00</time>
      </trkpt>
      <trkpt lat="45.4043" lon="6.59215">
        <ele>1895.67</ele>
        <time>2016-01-31T10:34:58.059+01:00</time>
      </trkpt>
      <trkpt lat="45.40438" lon="6.59228">
        <ele>1896.27</ele>
        <time>2016-01-31T10:35:00.047+01:00</time>
      </trkpt>
      <trkpt lat="45.40444" lon="6.59239">
        <ele>1892.68</ele>
        <time>2016-01-31T10:35:02.060+01:00</time>
      </trkpt>
      <trkpt lat="45.4045" lon="6.59253">
        <ele>1901.32</ele>
        <time>2016-01-31T10:35:05.057+01:00</time>
      </trkpt>
      <trkpt lat="45.40456" lon="6.59267">
        <ele>1906.7</ele>
        <time>2016-01-31T10:35:08.061+01:00</time>
      </trkpt>
      <trkpt lat="45.40459" lon="6.59279">
        <ele>1908.64</ele>
        <time>2016-01-31T10:35:11.086+01:00</time>
      </trkpt>
      <trkpt lat="45.40463" lon="6.59292">
        <ele>1909.76</ele>
        <time>2016-01-31T10:35:14.055+01:00</time>
      </trkpt>
      <trkpt lat="45.40467" lon="6.59305">
        <ele>1913.53</ele>
        <time>2016-01-31T10:35:17.055+01:00</time>
      </trkpt>
      <trkpt lat="45.40471" lon="6.59318">
        <ele>1918.85</ele>
        <time>2016-01-31T10:35:20.050+01:00</time>
      </trkpt>
      <trkpt lat="45.40477" lon="6.59331">
        <ele>1922.46</ele>
        <time>2016-01-31T10:35:23.075+01:00</time>
      </trkpt>
      <trkpt lat="45.40483" lon="6.59344">
        <ele>1924.68</ele>
        <time>2016-01-31T10:35:26.058+01:00</time>
      </trkpt>
      <trkpt lat="45.40486" lon="6.5936">
        <ele>1930.06</ele>
        <time>2016-01-31T10:35:30.062+01:00</time>
      </trkpt>
      <trkpt lat="45.40491" lon="6.59375">
        <ele>1935.64</ele>
        <time>2016-01-31T10:35:34.046+01:00</time>
      </trkpt>
      <trkpt lat="45.40495" lon="6.59387">
        <ele>1941</ele>
        <time>2016-01-31T10:35:37.035+01:00</time>
      </trkpt>
      <trkpt lat="45.40501" lon="6.59398">
        <ele>1940.84</ele>
        <time>2016-01-31T10:35:40.033+01:00</time>
      </trkpt>
      <trkpt lat="45.40504" lon="6.59411">
        <ele>1946.16</ele>
        <time>2016-01-31T10:35:44.032+01:00</time>
      </trkpt>
      <trkpt lat="45.40505" lon="6.59426">
        <ele>1945.95</ele>
        <time>2016-01-31T10:35:48.035+01:00</time>
      </trkpt>
      <trkpt lat="45.40508" lon="6.59441">
        <ele>1955.45</ele>
        <time>2016-01-31T10:35:52.063+01:00</time>
      </trkpt>
      <trkpt lat="45.40514" lon="6.59455">
        <ele>1958.7</ele>
        <time>2016-01-31T10:35:56.034+01:00</time>
      </trkpt>
      <trkpt lat="45.40519" lon="6.5947">
        <ele>1969.24</ele>
        <time>2016-01-31T10:36:00.037+01:00</time>
      </trkpt>
      <trkpt lat="45.40521" lon="6.59479">
        <ele>1973.42</ele>
        <time>2016-01-31T10:36:02.034+01:00</time>
      </trkpt>
      <trkpt lat="45.40526" lon="6.59494">
        <ele>1980.62</ele>
        <time>2016-01-31T10:36:06.036+01:00</time>
      </trkpt>
      <trkpt lat="45.40531" lon="6.59507">
        <ele>1985.46</ele>
        <time>2016-01-31T10:36:09.035+01:00</time>
      </trkpt>
      <trkpt lat="45.40529" lon="6.59522">
        <ele>1989.98</ele>
        <time>2016-01-31T10:36:14.037+01:00</time>
      </trkpt>
      <trkpt lat="45.40529" lon="6.59535">
        <ele>1993.32</ele>
        <time>2016-01-31T10:36:18.036+01:00</time>
      </trkpt>
      <trkpt lat="45.4053" lon="6.5955">
        <ele>1998.55</ele>
        <time>2016-01-31T10:36:22.046+01:00</time>
      </trkpt>
      <trkpt lat="45.40533" lon="6.59565">
        <ele>2011.97</ele>
        <time>2016-01-31T10:36:26.048+01:00</time>
      </trkpt>
      <trkpt lat="45.40536" lon="6.59578">
        <ele>2011.61</ele>
        <time>2016-01-31T10:36:29.057+01:00</time>
      </trkpt>
      <trkpt lat="45.4054" lon="6.59591">
        <ele>2022.48</ele>
        <time>2016-01-31T10:36:32.055+01:00</time>
      </trkpt>
      <trkpt lat="45.40544" lon="6.59605">
        <ele>2035.09</ele>
        <time>2016-01-31T10:36:35.085+01:00</time>
      </trkpt>
      <trkpt lat="45.40549" lon="6.59618">
        <ele>2035.04</ele>
        <time>2016-01-31T10:36:38.060+01:00</time>
      </trkpt>
      <trkpt lat="45.40554" lon="6.5963">
        <ele>2050.63</ele>
        <time>2016-01-31T10:36:41.034+01:00</time>
      </trkpt>
      <trkpt lat="45.4056" lon="6.59643">
        <ele>2058.83</ele>
        <time>2016-01-31T10:36:44.035+01:00</time>
      </trkpt>
      <trkpt lat="45.40564" lon="6.59655">
        <ele>2061.38</ele>
        <time>2016-01-31T10:36:47.068+01:00</time>
      </trkpt>
      <trkpt lat="45.40569" lon="6.59669">
        <ele>2062.19</ele>
        <time>2016-01-31T10:36:50.047+01:00</time>
      </trkpt>
      <trkpt lat="45.40574" lon="6.59683">
        <ele>2066.72</ele>
        <time>2016-01-31T10:36:53.035+01:00</time>
      </trkpt>
      <trkpt lat="45.40582" lon="6.59699">
        <ele>2067.79</ele>
        <time>2016-01-31T10:36:56.052+01:00</time>
      </trkpt>
      <trkpt lat="45.40592" lon="6.5971">
        <ele>2064.82</ele>
        <time>2016-01-31T10:36:58.056+01:00</time>
      </trkpt>
      <trkpt lat="45.40598" lon="6.5972">
        <ele>2066.55</ele>
        <time>2016-01-31T10:37:00.044+01:00</time>
      </trkpt>
      <trkpt lat="45.40604" lon="6.59729">
        <ele>2065.26</ele>
        <time>2016-01-31T10:37:02.034+01:00</time>
      </trkpt>
      <trkpt lat="45.40609" lon="6.59743">
        <ele>2068.45</ele>
        <time>2016-01-31T10:37:05.047+01:00</time>
      </trkpt>
      <trkpt lat="45.40614" lon="6.59757">
        <ele>2065.24</ele>
        <time>2016-01-31T10:37:08.054+01:00</time>
      </trkpt>
      <trkpt lat="45.40617" lon="6.5977">
        <ele>2068.46</ele>
        <time>2016-01-31T10:37:11.040+01:00</time>
      </trkpt>
      <trkpt lat="45.40624" lon="6.59785">
        <ele>2082.44</ele>
        <time>2016-01-31T10:37:14.035+01:00</time>
      </trkpt>
      <trkpt lat="45.4063" lon="6.59797">
        <ele>2100.77</ele>
        <time>2016-01-31T10:37:17.084+01:00</time>
      </trkpt>
      <trkpt lat="45.40636" lon="6.59811">
        <ele>2094.28</ele>
        <time>2016-01-31T10:37:21.037+01:00</time>
      </trkpt>
      <trkpt lat="45.40639" lon="6.59824">
        <ele>2088.83</ele>
        <time>2016-01-31T10:37:25.047+01:00</time>
      </trkpt>
      <trkpt lat="45.40642" lon="6.59836">
        <ele>2085.45</ele>
        <time>2016-01-31T10:37:29.041+01:00</time>
      </trkpt>
      <trkpt lat="45.40646" lon="6.5985">
        <ele>2090.79</ele>
        <time>2016-01-31T10:37:34.035+01:00</time>
      </trkpt>
      <trkpt lat="45.40649" lon="6.59865">
        <ele>2107.73</ele>
        <time>2016-01-31T10:37:39.047+01:00</time>
      </trkpt>
      <trkpt lat="45.40653" lon="6.59877">
        <ele>2121.74</ele>
        <time>2016-01-31T10:37:43.067+01:00</time>
      </trkpt>
      <trkpt lat="45.40657" lon="6.59891">
        <ele>2130.2</ele>
        <time>2016-01-31T10:37:47.042+01:00</time>
      </trkpt>
      <trkpt lat="45.4066" lon="6.59905">
        <ele>2139.78</ele>
        <time>2016-01-31T10:37:51.036+01:00</time>
      </trkpt>
      <trkpt lat="45.40664" lon="6.59918">
        <ele>2142.16</ele>
        <time>2016-01-31T10:37:55.048+01:00</time>
      </trkpt>
      <trkpt lat="45.40666" lon="6.59934">
        <ele>2141.15</ele>
        <time>2016-01-31T10:38:00.052+01:00</time>
      </trkpt>
      <trkpt lat="45.40669" lon="6.5995">
        <ele>2145.25</ele>
        <time>2016-01-31T10:38:04.036+01:00</time>
      </trkpt>
      <trkpt lat="45.40672" lon="6.59965">
        <ele>2145.23</ele>
        <time>2016-01-31T10:38:08.031+01:00</time>
      </trkpt>
      <trkpt lat="45.40675" lon="6.5998">
        <ele>2150.96</ele>
        <time>2016-01-31T10:38:12.045+01:00</time>
      </trkpt>
      <trkpt lat="45.40679" lon="6.59994">
        <ele>2163.18</ele>
        <time>2016-01-31T10:38:16.043+01:00</time>
      </trkpt>
      <trkpt lat="45.40682" lon="6.60008">
        <ele>2180.06</ele>
        <time>2016-01-31T10:38:20.033+01:00</time>
      </trkpt>
      <trkpt lat="45.40686" lon="6.60023">
        <ele>2187.9</ele>
        <time>2016-01-31T10:38:24.034+01:00</time>
      </trkpt>
      <trkpt lat="45.40689" lon="6.60037">
        <ele>2189.76</ele>
        <time>2016-01-31T10:38:28.033+01:00</time>
      </trkpt>
      <trkpt lat="45.40694" lon="6.60052">
        <ele>2208.48</ele>
        <time>2016-01-31T10:38:32.038+01:00</time>
      </trkpt>
      <trkpt lat="45.40698" lon="6.60067">
        <ele>2222.23</ele>
        <time>2016-01-31T10:38:35.032+01:00</time>
      </trkpt>
      <trkpt lat="45.40703" lon="6.60083">
        <ele>2224.89</ele>
        <time>2016-01-31T10:38:38.057+01:00</time>
      </trkpt>
      <trkpt lat="45.40707" lon="6.60095">
        <ele>2234.54</ele>
        <time>2016-01-31T10:38:40.042+01:00</time>
      </trkpt>
      <trkpt lat="45.40711" lon="6.60106">
        <ele>2239.16</ele>
        <time>2016-01-31T10:38:42.067+01:00</time>
      </trkpt>
      <trkpt lat="45.40715" lon="6.60118">
        <ele>2248.57</ele>
        <time>2016-01-31T10:38:44.065+01:00</time>
      </trkpt>
      <trkpt lat="45.4072" lon="6.60131">
        <ele>2252.04</ele>
        <time>2016-01-31T10:38:46.053+01:00</time>
      </trkpt>
      <trkpt lat="45.40726" lon="6.60147">
        <ele>2244.86</ele>
        <time>2016-01-31T10:38:49.045+01:00</time>
      </trkpt>
      <trkpt lat="45.40732" lon="6.60159">
        <ele>2237.43</ele>
        <time>2016-01-31T10:38:51.039+01:00</time>
      </trkpt>
      <trkpt lat="45.40737" lon="6.60172">
        <ele>2263.42</ele>
        <time>2016-01-31T10:38:53.031+01:00</time>
      </trkpt>
      <trkpt lat="45.40743" lon="6.60184">
        <ele>2273.91</ele>
        <time>2016-01-31T10:38:56.031+01:00</time>
      </trkpt>
      <trkpt lat="45.40748" lon="6.60196">
        <ele>2279.29</ele>
        <time>2016-01-31T10:38:59.035+01:00</time>
      </trkpt>
      <trkpt lat="45.40755" lon="6.60207">
        <ele>2281.65</ele>
        <time>2016-01-31T10:39:03.071+01:00</time>
      </trkpt>
      <trkpt lat="45.4076" lon="6.60219">
        <ele>2279.99</ele>
        <time>2016-01-31T10:39:08.047+01:00</time>
      </trkpt>
      <trkpt lat="45.40764" lon="6.60233">
        <ele>2283.6</ele>
        <time>2016-01-31T10:39:12.085+01:00</time>
      </trkpt>
      <trkpt lat="45.40766" lon="6.60246">
        <ele>2286.9</ele>
        <time>2016-01-31T10:39:15.063+01:00</time>
      </trkpt>
      <trkpt lat="45.40766" lon="6.60259">
        <ele>2311.71</ele>
        <time>2016-01-31T10:39:37.059+01:00</time>
      </trkpt>
      <trkpt lat="45.40759" lon="6.60267">
        <ele>2311.59</ele>
        <time>2016-01-31T10:39:44.054+01:00</time>
      </trkpt>
      <trkpt lat="45.40751" lon="6.60277">
        <ele>2310.61</ele>
        <time>2016-01-31T10:39:49.056+01:00</time>
      </trkpt>
      <trkpt lat="45.4075" lon="6.60278">
        <ele>2310.89</ele>
        <time>2016-01-31T10:39:50.050+01:00</time>
      </trkpt>
      <trkpt lat="45.40743" lon="6.60287">
        <ele>2309.96</ele>
        <time>2016-01-31T10:39:54.061+01:00</time>
      </trkpt>
      <trkpt lat="45.40736" lon="6.60298">
        <ele>2308.87</ele>
        <time>2016-01-31T10:39:58.074+01:00</time>
      </trkpt>
      <trkpt lat="45.4073" lon="6.60309">
        <ele>2308.85</ele>
        <time>2016-01-31T10:40:01.046+01:00</time>
      </trkpt>
      <trkpt lat="45.40726" lon="6.60317">
        <ele>2307.63</ele>
        <time>2016-01-31T10:40:03.039+01:00</time>
      </trkpt>
      <trkpt lat="45.4072" lon="6.60333">
        <ele>2305.46</ele>
        <time>2016-01-31T10:40:06.064+01:00</time>
      </trkpt>
      <trkpt lat="45.40712" lon="6.6034">
        <ele>2306.55</ele>
        <time>2016-01-31T10:40:09.057+01:00</time>
      </trkpt>
      <trkpt lat="45.40703" lon="6.60347">
        <ele>2305.43</ele>
        <time>2016-01-31T10:40:14.090+01:00</time>
      </trkpt>
      <trkpt lat="45.40696" lon="6.60356">
        <ele>2304.43</ele>
        <time>2016-01-31T10:40:20.084+01:00</time>
      </trkpt>
      <trkpt lat="45.40698" lon="6.60419">
        <ele>2298.45</ele>
        <time>2016-01-31T10:40:25.079+01:00</time>
      </trkpt>
      <trkpt lat="45.40689" lon="6.60437">
        <ele>2293.71</ele>
        <time>2016-01-31T10:40:28.057+01:00</time>
      </trkpt>
      <trkpt lat="45.40686" lon="6.60449">
        <ele>2289.62</ele>
        <time>2016-01-31T10:40:32.051+01:00</time>
      </trkpt>
      <trkpt lat="45.40684" lon="6.60471">
        <ele>2288.17</ele>
        <time>2016-01-31T10:40:35.168+01:00</time>
      </trkpt>
      <trkpt lat="45.40683" lon="6.6049">
        <ele>2287.42</ele>
        <time>2016-01-31T10:40:37.042+01:00</time>
      </trkpt>
      <trkpt lat="45.40671" lon="6.60517">
        <ele>2286.12</ele>
        <time>2016-01-31T10:40:41.058+01:00</time>
      </trkpt>
      <trkpt lat="45.40651" lon="6.60554">
        <ele>2281.34</ele>
        <time>2016-01-31T10:40:48.058+01:00</time>
      </trkpt>
      <trkpt lat="45.40639" lon="6.60604">
        <ele>2275.91</ele>
        <time>2016-01-31T10:40:52.237+01:00</time>
      </trkpt>
      <trkpt lat="45.40636" lon="6.60626">
        <ele>2268.95</ele>
        <time>2016-01-31T10:40:54.091+01:00</time>
      </trkpt>
      <trkpt lat="45.4063" lon="6.6064">
        <ele>2267.62</ele>
        <time>2016-01-31T10:40:55.071+01:00</time>
      </trkpt>
      <trkpt lat="45.40626" lon="6.60663">
        <ele>2264.34</ele>
        <time>2016-01-31T10:40:57.071+01:00</time>
      </trkpt>
      <trkpt lat="45.4063" lon="6.60716">
        <ele>2262.33</ele>
        <time>2016-01-31T10:41:03.037+01:00</time>
      </trkpt>
      <trkpt lat="45.40626" lon="6.60757">
        <ele>2256.11</ele>
        <time>2016-01-31T10:41:08.041+01:00</time>
      </trkpt>
      <trkpt lat="45.40623" lon="6.60766">
        <ele>2255.5</ele>
        <time>2016-01-31T10:41:09.039+01:00</time>
      </trkpt>
      <trkpt lat="45.4062" lon="6.60775">
        <ele>2254.69</ele>
        <time>2016-01-31T10:41:10.039+01:00</time>
      </trkpt>
      <trkpt lat="45.40618" lon="6.60786">
        <ele>2254.04</ele>
        <time>2016-01-31T10:41:11.036+01:00</time>
      </trkpt>
      <trkpt lat="45.40617" lon="6.60821">
        <ele>2249.61</ele>
        <time>2016-01-31T10:41:14.040+01:00</time>
      </trkpt>
      <trkpt lat="45.40615" lon="6.60852">
        <ele>2247.78</ele>
        <time>2016-01-31T10:41:17.033+01:00</time>
      </trkpt>
      <trkpt lat="45.40618" lon="6.60871">
        <ele>2246.3</ele>
        <time>2016-01-31T10:41:19.035+01:00</time>
      </trkpt>
      <trkpt lat="45.40624" lon="6.6089">
        <ele>2245.93</ele>
        <time>2016-01-31T10:41:21.060+01:00</time>
      </trkpt>
      <trkpt lat="45.40626" lon="6.60907">
        <ele>2246.01</ele>
        <time>2016-01-31T10:41:23.056+01:00</time>
      </trkpt>
      <trkpt lat="45.40632" lon="6.60961">
        <ele>2244.02</ele>
        <time>2016-01-31T10:41:32.060+01:00</time>
      </trkpt>
      <trkpt lat="45.40634" lon="6.60982">
        <ele>2244.03</ele>
        <time>2016-01-31T10:41:36.056+01:00</time>
      </trkpt>
      <trkpt lat="45.40634" lon="6.60991">
        <ele>2243.04</ele>
        <time>2016-01-31T10:41:38.055+01:00</time>
      </trkpt>
      <trkpt lat="45.4063" lon="6.61013">
        <ele>2241.88</ele>
        <time>2016-01-31T10:41:42.055+01:00</time>
      </trkpt>
      <trkpt lat="45.40629" lon="6.61018">
        <ele>2240.95</ele>
        <time>2016-01-31T10:41:43.058+01:00</time>
      </trkpt>
      <trkpt lat="45.40624" lon="6.61032">
        <ele>2239.62</ele>
        <time>2016-01-31T10:41:46.046+01:00</time>
      </trkpt>
      <trkpt lat="45.40619" lon="6.61047">
        <ele>2239.56</ele>
        <time>2016-01-31T10:41:49.066+01:00</time>
      </trkpt>
      <trkpt lat="45.40613" lon="6.61066">
        <ele>2239.27</ele>
        <time>2016-01-31T10:41:53.062+01:00</time>
      </trkpt>
      <trkpt lat="45.40608" lon="6.61082">
        <ele>2237.28</ele>
        <time>2016-01-31T10:41:56.034+01:00</time>
      </trkpt>
      <trkpt lat="45.40603" lon="6.61099">
        <ele>2236.34</ele>
        <time>2016-01-31T10:41:59.036+01:00</time>
      </trkpt>
      <trkpt lat="45.40603" lon="6.61119">
        <ele>2234.93</ele>
        <time>2016-01-31T10:42:02.039+01:00</time>
      </trkpt>
      <trkpt lat="45.40602" lon="6.61147">
        <ele>2234.49</ele>
        <time>2016-01-31T10:42:07.061+01:00</time>
      </trkpt>
      <trkpt lat="45.40603" lon="6.61164">
        <ele>2234.65</ele>
        <time>2016-01-31T10:42:14.089+01:00</time>
      </trkpt>
      <trkpt lat="45.40604" lon="6.61178">
        <ele>2233.58</ele>
        <time>2016-01-31T10:42:24.052+01:00</time>
      </trkpt>
      <trkpt lat="45.40583" lon="6.61199">
        <ele>2232.77</ele>
        <time>2016-01-31T10:42:27.028+01:00</time>
      </trkpt>
      <trkpt lat="45.40579" lon="6.61213">
        <ele>2232.81</ele>
        <time>2016-01-31T10:42:32.032+01:00</time>
      </trkpt>
      <trkpt lat="45.40575" lon="6.61226">
        <ele>2232.66</ele>
        <time>2016-01-31T10:42:36.049+01:00</time>
      </trkpt>
      <trkpt lat="45.40569" lon="6.61239">
        <ele>2231.35</ele>
        <time>2016-01-31T10:42:40.056+01:00</time>
      </trkpt>
      <trkpt lat="45.40563" lon="6.6125">
        <ele>2231.19</ele>
        <time>2016-01-31T10:42:44.070+01:00</time>
      </trkpt>
      <trkpt lat="45.40556" lon="6.61259">
        <ele>2230.02</ele>
        <time>2016-01-31T10:42:48.040+01:00</time>
      </trkpt>
      <trkpt lat="45.40545" lon="6.61268">
        <ele>2228.84</ele>
        <time>2016-01-31T10:42:52.033+01:00</time>
      </trkpt>
      <trkpt lat="45.40534" lon="6.61279">
        <ele>2227.7</ele>
        <time>2016-01-31T10:42:55.062+01:00</time>
      </trkpt>
      <trkpt lat="45.40529" lon="6.61291">
        <ele>2226.66</ele>
        <time>2016-01-31T10:42:57.052+01:00</time>
      </trkpt>
      <trkpt lat="45.40524" lon="6.61302">
        <ele>2225.81</ele>
        <time>2016-01-31T10:42:59.063+01:00</time>
      </trkpt>
      <trkpt lat="45.40518" lon="6.61316">
        <ele>2224.39</ele>
        <time>2016-01-31T10:43:02.057+01:00</time>
      </trkpt>
      <trkpt lat="45.40508" lon="6.61318">
        <ele>2222.91</ele>
        <time>2016-01-31T10:43:17.075+01:00</time>
      </trkpt>
      <trkpt lat="45.40499" lon="6.61324">
        <ele>2221.71</ele>
        <time>2016-01-31T10:43:20.045+01:00</time>
      </trkpt>
      <trkpt lat="45.40489" lon="6.61324">
        <ele>2220.07</ele>
        <time>2016-01-31T10:43:23.081+01:00</time>
      </trkpt>
      <trkpt lat="45.4048" lon="6.61328">
        <ele>2219.13</ele>
        <time>2016-01-31T10:43:25.044+01:00</time>
      </trkpt>
      <trkpt lat="45.40469" lon="6.61335">
        <ele>2217.71</ele>
        <time>2016-01-31T10:43:28.076+01:00</time>
      </trkpt>
      <trkpt lat="45.40468" lon="6.61351">
        <ele>2216.17</ele>
        <time>2016-01-31T10:43:31.074+01:00</time>
      </trkpt>
      <trkpt lat="45.40466" lon="6.61368">
        <ele>2212.34</ele>
        <time>2016-01-31T10:43:34.072+01:00</time>
      </trkpt>
      <trkpt lat="45.40461" lon="6.61384">
        <ele>2208.03</ele>
        <time>2016-01-31T10:43:37.069+01:00</time>
      </trkpt>
      <trkpt lat="45.40455" lon="6.61399">
        <ele>2203.52</ele>
        <time>2016-01-31T10:43:40.070+01:00</time>
      </trkpt>
      <trkpt lat="45.40461" lon="6.61415">
        <ele>2201.51</ele>
        <time>2016-01-31T10:43:43.083+01:00</time>
      </trkpt>
      <trkpt lat="45.40453" lon="6.61429">
        <ele>2196.33</ele>
        <time>2016-01-31T10:43:46.069+01:00</time>
      </trkpt>
      <trkpt lat="45.40448" lon="6.61443">
        <ele>2194</ele>
        <time>2016-01-31T10:43:48.066+01:00</time>
      </trkpt>
      <trkpt lat="45.40443" lon="6.61461">
        <ele>2189.39</ele>
        <time>2016-01-31T10:43:50.062+01:00</time>
      </trkpt>
      <trkpt lat="45.40441" lon="6.61479">
        <ele>2185.86</ele>
        <time>2016-01-31T10:43:52.060+01:00</time>
      </trkpt>
      <trkpt lat="45.4044" lon="6.61494">
        <ele>2180.38</ele>
        <time>2016-01-31T10:43:54.055+01:00</time>
      </trkpt>
      <trkpt lat="45.40448" lon="6.615">
        <ele>2177.01</ele>
        <time>2016-01-31T10:44:03.081+01:00</time>
      </trkpt>
      <trkpt lat="45.4044" lon="6.61507">
        <ele>2177.06</ele>
        <time>2016-01-31T10:44:30.041+01:00</time>
      </trkpt>
      <trkpt lat="45.40436" lon="6.61524">
        <ele>2173.94</ele>
        <time>2016-01-31T10:44:33.072+01:00</time>
      </trkpt>
      <trkpt lat="45.40432" lon="6.61542">
        <ele>2169.71</ele>
        <time>2016-01-31T10:44:36.047+01:00</time>
      </trkpt>
      <trkpt lat="45.40427" lon="6.61561">
        <ele>2165.78</ele>
        <time>2016-01-31T10:44:39.053+01:00</time>
      </trkpt>
      <trkpt lat="45.4042" lon="6.61571">
        <ele>2161.62</ele>
        <time>2016-01-31T10:44:41.064+01:00</time>
      </trkpt>
      <trkpt lat="45.40414" lon="6.61583">
        <ele>2158.84</ele>
        <time>2016-01-31T10:44:43.041+01:00</time>
      </trkpt>
      <trkpt lat="45.40406" lon="6.61598">
        <ele>2156.04</ele>
        <time>2016-01-31T10:44:45.060+01:00</time>
      </trkpt>
      <trkpt lat="45.40402" lon="6.61614">
        <ele>2152.66</ele>
        <time>2016-01-31T10:44:47.066+01:00</time>
      </trkpt>
      <trkpt lat="45.40396" lon="6.61629">
        <ele>2146.27</ele>
        <time>2016-01-31T10:44:50.069+01:00</time>
      </trkpt>
      <trkpt lat="45.40389" lon="6.6164">
        <ele>2143.78</ele>
        <time>2016-01-31T10:44:52.056+01:00</time>
      </trkpt>
      <trkpt lat="45.40381" lon="6.61651">
        <ele>2139.48</ele>
        <time>2016-01-31T10:44:54.051+01:00</time>
      </trkpt>
      <trkpt lat="45.40372" lon="6.61663">
        <ele>2134.98</ele>
        <time>2016-01-31T10:44:56.038+01:00</time>
      </trkpt>
      <trkpt lat="45.40366" lon="6.61676">
        <ele>2131.79</ele>
        <time>2016-01-31T10:44:58.042+01:00</time>
      </trkpt>
      <trkpt lat="45.40359" lon="6.61693">
        <ele>2128.2</ele>
        <time>2016-01-31T10:45:00.061+01:00</time>
      </trkpt>
      <trkpt lat="45.40358" lon="6.61708">
        <ele>2125.04</ele>
        <time>2016-01-31T10:45:02.062+01:00</time>
      </trkpt>
      <trkpt lat="45.40351" lon="6.61715">
        <ele>2122.14</ele>
        <time>2016-01-31T10:45:04.047+01:00</time>
      </trkpt>
      <trkpt lat="45.40348" lon="6.61728">
        <ele>2118.13</ele>
        <time>2016-01-31T10:45:06.053+01:00</time>
      </trkpt>
      <trkpt lat="45.40338" lon="6.61728">
        <ele>2116.66</ele>
        <time>2016-01-31T10:45:09.065+01:00</time>
      </trkpt>
      <trkpt lat="45.40343" lon="6.61744">
        <ele>2114.85</ele>
        <time>2016-01-31T10:45:37.059+01:00</time>
      </trkpt>
      <trkpt lat="45.40351" lon="6.61755">
        <ele>2114</ele>
        <time>2016-01-31T10:45:39.064+01:00</time>
      </trkpt>
      <trkpt lat="45.40357" lon="6.61765">
        <ele>2113.69</ele>
        <time>2016-01-31T10:45:42.065+01:00</time>
      </trkpt>
      <trkpt lat="45.40349" lon="6.61775">
        <ele>2110.92</ele>
        <time>2016-01-31T10:45:59.053+01:00</time>
      </trkpt>
      <trkpt lat="45.40349" lon="6.61788">
        <ele>2107.36</ele>
        <time>2016-01-31T10:46:01.080+01:00</time>
      </trkpt>
      <trkpt lat="45.40345" lon="6.61802">
        <ele>2104.77</ele>
        <time>2016-01-31T10:46:03.084+01:00</time>
      </trkpt>
      <trkpt lat="45.40344" lon="6.61816">
        <ele>2101.41</ele>
        <time>2016-01-31T10:46:05.100+01:00</time>
      </trkpt>
      <trkpt lat="45.40341" lon="6.61836">
        <ele>2098.82</ele>
        <time>2016-01-31T10:46:08.071+01:00</time>
      </trkpt>
      <trkpt lat="45.40333" lon="6.61852">
        <ele>2092.72</ele>
        <time>2016-01-31T10:46:11.057+01:00</time>
      </trkpt>
      <trkpt lat="45.40327" lon="6.61866">
        <ele>2088.53</ele>
        <time>2016-01-31T10:46:13.067+01:00</time>
      </trkpt>
      <trkpt lat="45.40321" lon="6.61878">
        <ele>2084.75</ele>
        <time>2016-01-31T10:46:15.051+01:00</time>
      </trkpt>
      <trkpt lat="45.40314" lon="6.61888">
        <ele>2080.5</ele>
        <time>2016-01-31T10:46:17.065+01:00</time>
      </trkpt>
      <trkpt lat="45.40309" lon="6.61906">
        <ele>2073.55</ele>
        <time>2016-01-31T10:46:20.051+01:00</time>
      </trkpt>
      <trkpt lat="45.403" lon="6.61908">
        <ele>2069.49</ele>
        <time>2016-01-31T10:46:22.064+01:00</time>
      </trkpt>
      <trkpt lat="45.40295" lon="6.61923">
        <ele>2066.56</ele>
        <time>2016-01-31T10:46:25.055+01:00</time>
      </trkpt>
      <trkpt lat="45.40288" lon="6.61937">
        <ele>2062.44</ele>
        <time>2016-01-31T10:46:27.046+01:00</time>
      </trkpt>
      <trkpt lat="45.40288" lon="6.61954">
        <ele>2060.26</ele>
        <time>2016-01-31T10:46:30.036+01:00</time>
      </trkpt>
      <trkpt lat="45.40291" lon="6.61965">
        <ele>2057.93</ele>
        <time>2016-01-31T10:46:35.037+01:00</time>
      </trkpt>
      <trkpt lat="45.40295" lon="6.6198">
        <ele>2056.5</ele>
        <time>2016-01-31T10:46:53.066+01:00</time>
      </trkpt>
      <trkpt lat="45.40298" lon="6.61982">
        <ele>2055.68</ele>
        <time>2016-01-31T10:46:54.063+01:00</time>
      </trkpt>
      <trkpt lat="45.40303" lon="6.61994">
        <ele>2053.64</ele>
        <time>2016-01-31T10:46:57.044+01:00</time>
      </trkpt>
      <trkpt lat="45.40309" lon="6.62006">
        <ele>2052.47</ele>
        <time>2016-01-31T10:47:00.063+01:00</time>
      </trkpt>
      <trkpt lat="45.40314" lon="6.62023">
        <ele>2049.35</ele>
        <time>2016-01-31T10:47:04.065+01:00</time>
      </trkpt>
      <trkpt lat="45.40317" lon="6.62038">
        <ele>2046.87</ele>
        <time>2016-01-31T10:47:06.073+01:00</time>
      </trkpt>
      <trkpt lat="45.40324" lon="6.62048">
        <ele>2044.3</ele>
        <time>2016-01-31T10:47:08.096+01:00</time>
      </trkpt>
      <trkpt lat="45.40333" lon="6.62062">
        <ele>2042.79</ele>
        <time>2016-01-31T10:47:10.062+01:00</time>
      </trkpt>
      <trkpt lat="45.40339" lon="6.62072">
        <ele>2040.28</ele>
        <time>2016-01-31T10:47:12.064+01:00</time>
      </trkpt>
      <trkpt lat="45.40348" lon="6.62087">
        <ele>2036.8</ele>
        <time>2016-01-31T10:47:14.064+01:00</time>
      </trkpt>
      <trkpt lat="45.40356" lon="6.621">
        <ele>2033.13</ele>
        <time>2016-01-31T10:47:16.048+01:00</time>
      </trkpt>
      <trkpt lat="45.40366" lon="6.62118">
        <ele>2028.25</ele>
        <time>2016-01-31T10:47:18.078+01:00</time>
      </trkpt>
      <trkpt lat="45.40372" lon="6.62128">
        <ele>2027.29</ele>
        <time>2016-01-31T10:47:19.086+01:00</time>
      </trkpt>
      <trkpt lat="45.40384" lon="6.62149">
        <ele>2024.05</ele>
        <time>2016-01-31T10:47:21.097+01:00</time>
      </trkpt>
      <trkpt lat="45.4039" lon="6.62159">
        <ele>2022.67</ele>
        <time>2016-01-31T10:47:22.083+01:00</time>
      </trkpt>
      <trkpt lat="45.40396" lon="6.62171">
        <ele>2021.2</ele>
        <time>2016-01-31T10:47:23.095+01:00</time>
      </trkpt>
      <trkpt lat="45.40406" lon="6.62189">
        <ele>2020.35</ele>
        <time>2016-01-31T10:47:25.088+01:00</time>
      </trkpt>
      <trkpt lat="45.40418" lon="6.62209">
        <ele>2017.85</ele>
        <time>2016-01-31T10:47:27.053+01:00</time>
      </trkpt>
      <trkpt lat="45.40429" lon="6.62229">
        <ele>2014.05</ele>
        <time>2016-01-31T10:47:29.045+01:00</time>
      </trkpt>
      <trkpt lat="45.40436" lon="6.6224">
        <ele>2012.97</ele>
        <time>2016-01-31T10:47:30.043+01:00</time>
      </trkpt>
      <trkpt lat="45.40448" lon="6.62263">
        <ele>2010.75</ele>
        <time>2016-01-31T10:47:32.037+01:00</time>
      </trkpt>
      <trkpt lat="45.40459" lon="6.62282">
        <ele>2008.77</ele>
        <time>2016-01-31T10:47:34.079+01:00</time>
      </trkpt>
      <trkpt lat="45.40464" lon="6.62293">
        <ele>2007.63</ele>
        <time>2016-01-31T10:47:35.123+01:00</time>
      </trkpt>
      <trkpt lat="45.40469" lon="6.62304">
        <ele>2006.54</ele>
        <time>2016-01-31T10:47:36.044+01:00</time>
      </trkpt>
      <trkpt lat="45.40476" lon="6.62319">
        <ele>2004.95</ele>
        <time>2016-01-31T10:47:38.077+01:00</time>
      </trkpt>
      <trkpt lat="45.40483" lon="6.62336">
        <ele>2003.64</ele>
        <time>2016-01-31T10:47:40.040+01:00</time>
      </trkpt>
      <trkpt lat="45.4049" lon="6.62347">
        <ele>2001.82</ele>
        <time>2016-01-31T10:47:42.037+01:00</time>
      </trkpt>
      <trkpt lat="45.40502" lon="6.62363">
        <ele>1997.63</ele>
        <time>2016-01-31T10:47:44.076+01:00</time>
      </trkpt>
      <trkpt lat="45.40512" lon="6.62377">
        <ele>1995.54</ele>
        <time>2016-01-31T10:47:46.075+01:00</time>
      </trkpt>
      <trkpt lat="45.4052" lon="6.62387">
        <ele>1992.94</ele>
        <time>2016-01-31T10:47:48.062+01:00</time>
      </trkpt>
      <trkpt lat="45.40536" lon="6.62406">
        <ele>1988.96</ele>
        <time>2016-01-31T10:47:50.069+01:00</time>
      </trkpt>
      <trkpt lat="45.40548" lon="6.62421">
        <ele>1984.92</ele>
        <time>2016-01-31T10:47:52.077+01:00</time>
      </trkpt>
      <trkpt lat="45.40558" lon="6.62433">
        <ele>1981.04</ele>
        <time>2016-01-31T10:47:54.073+01:00</time>
      </trkpt>
      <trkpt lat="45.40569" lon="6.62447">
        <ele>1979.02</ele>
        <time>2016-01-31T10:47:56.068+01:00</time>
      </trkpt>
      <trkpt lat="45.4058" lon="6.6246">
        <ele>1977.37</ele>
        <time>2016-01-31T10:47:58.075+01:00</time>
      </trkpt>
      <trkpt lat="45.40592" lon="6.62474">
        <ele>1973.78</ele>
        <time>2016-01-31T10:48:00.077+01:00</time>
      </trkpt>
      <trkpt lat="45.40603" lon="6.62488">
        <ele>1971.61</ele>
        <time>2016-01-31T10:48:02.065+01:00</time>
      </trkpt>
      <trkpt lat="45.40611" lon="6.62497">
        <ele>1970.53</ele>
        <time>2016-01-31T10:48:03.060+01:00</time>
      </trkpt>
      <trkpt lat="45.40623" lon="6.62511">
        <ele>1967.62</ele>
        <time>2016-01-31T10:48:05.063+01:00</time>
      </trkpt>
      <trkpt lat="45.40632" lon="6.62522">
        <ele>1965.19</ele>
        <time>2016-01-31T10:48:07.077+01:00</time>
      </trkpt>
      <trkpt lat="45.40644" lon="6.62533">
        <ele>1961.91</ele>
        <time>2016-01-31T10:48:09.096+01:00</time>
      </trkpt>
      <trkpt lat="45.40656" lon="6.62546">
        <ele>1959.19</ele>
        <time>2016-01-31T10:48:11.083+01:00</time>
      </trkpt>
      <trkpt lat="45.40669" lon="6.62559">
        <ele>1955.42</ele>
        <time>2016-01-31T10:48:13.080+01:00</time>
      </trkpt>
      <trkpt lat="45.40681" lon="6.6257">
        <ele>1953.23</ele>
        <time>2016-01-31T10:48:15.075+01:00</time>
      </trkpt>
      <trkpt lat="45.40688" lon="6.62577">
        <ele>1950.6</ele>
        <time>2016-01-31T10:48:18.074+01:00</time>
      </trkpt>
      <trkpt lat="45.407" lon="6.62587">
        <ele>1948.21</ele>
        <time>2016-01-31T10:48:22.075+01:00</time>
      </trkpt>
      <trkpt lat="45.4071" lon="6.62596">
        <ele>1945.64</ele>
        <time>2016-01-31T10:48:24.076+01:00</time>
      </trkpt>
      <trkpt lat="45.40718" lon="6.62603">
        <ele>1944.41</ele>
        <time>2016-01-31T10:48:26.072+01:00</time>
      </trkpt>
      <trkpt lat="45.40727" lon="6.6261">
        <ele>1943.18</ele>
        <time>2016-01-31T10:48:28.077+01:00</time>
      </trkpt>
      <trkpt lat="45.40736" lon="6.62618">
        <ele>1941.61</ele>
        <time>2016-01-31T10:48:30.034+01:00</time>
      </trkpt>
      <trkpt lat="45.40746" lon="6.62626">
        <ele>1939.35</ele>
        <time>2016-01-31T10:48:32.029+01:00</time>
      </trkpt>
      <trkpt lat="45.40758" lon="6.62635">
        <ele>1937.85</ele>
        <time>2016-01-31T10:48:34.031+01:00</time>
      </trkpt>
      <trkpt lat="45.40768" lon="6.62642">
        <ele>1936.56</ele>
        <time>2016-01-31T10:48:37.031+01:00</time>
      </trkpt>
      <trkpt lat="45.40772" lon="6.6267">
        <ele>1930.37</ele>
        <time>2016-01-31T10:49:44.052+01:00</time>
      </trkpt>
      <trkpt lat="45.40725" lon="6.62661">
        <ele>1926.23</ele>
        <time>2016-01-31T10:49:49.058+01:00</time>
      </trkpt>
      <trkpt lat="45.40714" lon="6.62658">
        <ele>1925.42</ele>
        <time>2016-01-31T10:49:51.109+01:00</time>
      </trkpt>
      <trkpt lat="45.407" lon="6.62654">
        <ele>1924.88</ele>
        <time>2016-01-31T10:49:53.046+01:00</time>
      </trkpt>
      <trkpt lat="45.40687" lon="6.62652">
        <ele>1923.75</ele>
        <time>2016-01-31T10:49:56.045+01:00</time>
      </trkpt>
      <trkpt lat="45.40678" lon="6.62653">
        <ele>1923.16</ele>
        <time>2016-01-31T10:49:58.051+01:00</time>
      </trkpt>
      <trkpt lat="45.40668" lon="6.62654">
        <ele>1921.47</ele>
        <time>2016-01-31T10:50:00.061+01:00</time>
      </trkpt>
      <trkpt lat="45.40654" lon="6.62653">
        <ele>1919.67</ele>
        <time>2016-01-31T10:50:02.080+01:00</time>
      </trkpt>
      <trkpt lat="45.4064" lon="6.62651">
        <ele>1918.23</ele>
        <time>2016-01-31T10:50:04.063+01:00</time>
      </trkpt>
      <trkpt lat="45.40623" lon="6.62642">
        <ele>1916.12</ele>
        <time>2016-01-31T10:50:07.049+01:00</time>
      </trkpt>
      <trkpt lat="45.40611" lon="6.62632">
        <ele>1916.22</ele>
        <time>2016-01-31T10:50:09.063+01:00</time>
      </trkpt>
      <trkpt lat="45.40602" lon="6.62625">
        <ele>1915.55</ele>
        <time>2016-01-31T10:50:11.071+01:00</time>
      </trkpt>
      <trkpt lat="45.40594" lon="6.62619">
        <ele>1915.25</ele>
        <time>2016-01-31T10:50:13.053+01:00</time>
      </trkpt>
      <trkpt lat="45.40583" lon="6.62611">
        <ele>1914.2</ele>
        <time>2016-01-31T10:50:16.058+01:00</time>
      </trkpt>
      <trkpt lat="45.40574" lon="6.62603">
        <ele>1913.16</ele>
        <time>2016-01-31T10:50:19.072+01:00</time>
      </trkpt>
      <trkpt lat="45.40563" lon="6.62595">
        <ele>1912.43</ele>
        <time>2016-01-31T10:50:22.078+01:00</time>
      </trkpt>
      <trkpt lat="45.40553" lon="6.62591">
        <ele>1910.85</ele>
        <time>2016-01-31T10:50:25.055+01:00</time>
      </trkpt>
      <trkpt lat="45.40542" lon="6.62589">
        <ele>1910.16</ele>
        <time>2016-01-31T10:50:27.041+01:00</time>
      </trkpt>
      <trkpt lat="45.40524" lon="6.62588">
        <ele>1907.65</ele>
        <time>2016-01-31T10:50:30.082+01:00</time>
      </trkpt>
      <trkpt lat="45.40512" lon="6.62589">
        <ele>1905.46</ele>
        <time>2016-01-31T10:50:32.065+01:00</time>
      </trkpt>
      <trkpt lat="45.40498" lon="6.62591">
        <ele>1902.17</ele>
        <time>2016-01-31T10:50:34.055+01:00</time>
      </trkpt>
      <trkpt lat="45.4048" lon="6.62598">
        <ele>1898.3</ele>
        <time>2016-01-31T10:50:36.051+01:00</time>
      </trkpt>
      <trkpt lat="45.40468" lon="6.62614">
        <ele>1893.63</ele>
        <time>2016-01-31T10:50:38.050+01:00</time>
      </trkpt>
      <trkpt lat="45.40459" lon="6.62626">
        <ele>1892.16</ele>
        <time>2016-01-31T10:50:39.062+01:00</time>
      </trkpt>
      <trkpt lat="45.40453" lon="6.62637">
        <ele>1891.28</ele>
        <time>2016-01-31T10:50:40.061+01:00</time>
      </trkpt>
      <trkpt lat="45.40442" lon="6.62655">
        <ele>1889.31</ele>
        <time>2016-01-31T10:50:42.059+01:00</time>
      </trkpt>
      <trkpt lat="45.40453" lon="6.62703">
        <ele>1887.69</ele>
        <time>2016-01-31T10:50:45.065+01:00</time>
      </trkpt>
      <trkpt lat="45.40459" lon="6.62724">
        <ele>1885.7</ele>
        <time>2016-01-31T10:50:47.065+01:00</time>
      </trkpt>
      <trkpt lat="45.40469" lon="6.62742">
        <ele>1885.25</ele>
        <time>2016-01-31T10:50:49.055+01:00</time>
      </trkpt>
      <trkpt lat="45.40478" lon="6.62759">
        <ele>1884.17</ele>
        <time>2016-01-31T10:50:51.082+01:00</time>
      </trkpt>
      <trkpt lat="45.40489" lon="6.62775">
        <ele>1883.86</ele>
        <time>2016-01-31T10:50:53.057+01:00</time>
      </trkpt>
      <trkpt lat="45.40503" lon="6.6279">
        <ele>1881.88</ele>
        <time>2016-01-31T10:50:55.057+01:00</time>
      </trkpt>
      <trkpt lat="45.40513" lon="6.62803">
        <ele>1880.51</ele>
        <time>2016-01-31T10:50:57.083+01:00</time>
      </trkpt>
      <trkpt lat="45.40521" lon="6.62815">
        <ele>1880.37</ele>
        <time>2016-01-31T10:50:59.086+01:00</time>
      </trkpt>
      <trkpt lat="45.40531" lon="6.62827">
        <ele>1878.8</ele>
        <time>2016-01-31T10:51:01.057+01:00</time>
      </trkpt>
      <trkpt lat="45.40538" lon="6.62837">
        <ele>1877.96</ele>
        <time>2016-01-31T10:51:03.055+01:00</time>
      </trkpt>
      <trkpt lat="45.40549" lon="6.62848">
        <ele>1876.44</ele>
        <time>2016-01-31T10:51:05.054+01:00</time>
      </trkpt>
      <trkpt lat="45.40559" lon="6.62856">
        <ele>1875.92</ele>
        <time>2016-01-31T10:51:07.054+01:00</time>
      </trkpt>
      <trkpt lat="45.40568" lon="6.62864">
        <ele>1874.18</ele>
        <time>2016-01-31T10:51:09.047+01:00</time>
      </trkpt>
      <trkpt lat="45.40579" lon="6.62875">
        <ele>1872.61</ele>
        <time>2016-01-31T10:51:11.057+01:00</time>
      </trkpt>
      <trkpt lat="45.40588" lon="6.62885">
        <ele>1871.57</ele>
        <time>2016-01-31T10:51:13.057+01:00</time>
      </trkpt>
      <trkpt lat="45.406" lon="6.62895">
        <ele>1869.55</ele>
        <time>2016-01-31T10:51:15.038+01:00</time>
      </trkpt>
      <trkpt lat="45.40612" lon="6.62903">
        <ele>1867.62</ele>
        <time>2016-01-31T10:51:17.055+01:00</time>
      </trkpt>
      <trkpt lat="45.40622" lon="6.62906">
        <ele>1866.72</ele>
        <time>2016-01-31T10:51:19.079+01:00</time>
      </trkpt>
      <trkpt lat="45.40634" lon="6.62913">
        <ele>1865.93</ele>
        <time>2016-01-31T10:51:21.080+01:00</time>
      </trkpt>
      <trkpt lat="45.40647" lon="6.62919">
        <ele>1865.31</ele>
        <time>2016-01-31T10:51:24.074+01:00</time>
      </trkpt>
      <trkpt lat="45.40657" lon="6.62922">
        <ele>1865.34</ele>
        <time>2016-01-31T10:51:27.085+01:00</time>
      </trkpt>
      <trkpt lat="45.40669" lon="6.62918">
        <ele>1864.92</ele>
        <time>2016-01-31T10:51:31.034+01:00</time>
      </trkpt>
      <trkpt lat="45.40681" lon="6.62905">
        <ele>1865.42</ele>
        <time>2016-01-31T10:51:40.069+01:00</time>
      </trkpt>
      <trkpt lat="45.40691" lon="6.629">
        <ele>1864.29</ele>
        <time>2016-01-31T10:51:50.061+01:00</time>
      </trkpt>
      <trkpt lat="45.40701" lon="6.62896">
        <ele>1863.9</ele>
        <time>2016-01-31T10:51:53.058+01:00</time>
      </trkpt>
      <trkpt lat="45.40715" lon="6.62893">
        <ele>1862.68</ele>
        <time>2016-01-31T10:51:56.053+01:00</time>
      </trkpt>
      <trkpt lat="45.40727" lon="6.62891">
        <ele>1861.54</ele>
        <time>2016-01-31T10:52:00.061+01:00</time>
      </trkpt>
      <trkpt lat="45.40738" lon="6.6289">
        <ele>1860.52</ele>
        <time>2016-01-31T10:52:03.047+01:00</time>
      </trkpt>
      <trkpt lat="45.40752" lon="6.62891">
        <ele>1859.41</ele>
        <time>2016-01-31T10:52:06.056+01:00</time>
      </trkpt>
      <trkpt lat="45.40761" lon="6.62895">
        <ele>1858.69</ele>
        <time>2016-01-31T10:52:08.065+01:00</time>
      </trkpt>
      <trkpt lat="45.40771" lon="6.62902">
        <ele>1857.83</ele>
        <time>2016-01-31T10:52:10.066+01:00</time>
      </trkpt>
      <trkpt lat="45.40779" lon="6.62908">
        <ele>1856.68</ele>
        <time>2016-01-31T10:52:12.075+01:00</time>
      </trkpt>
      <trkpt lat="45.40788" lon="6.62915">
        <ele>1855.73</ele>
        <time>2016-01-31T10:52:14.078+01:00</time>
      </trkpt>
      <trkpt lat="45.40799" lon="6.62922">
        <ele>1854.8</ele>
        <time>2016-01-31T10:52:17.082+01:00</time>
      </trkpt>
      <trkpt lat="45.40809" lon="6.62927">
        <ele>1853.92</ele>
        <time>2016-01-31T10:52:20.066+01:00</time>
      </trkpt>
      <trkpt lat="45.40818" lon="6.62931">
        <ele>1853.67</ele>
        <time>2016-01-31T10:52:23.054+01:00</time>
      </trkpt>
      <trkpt lat="45.40828" lon="6.62936">
        <ele>1853.48</ele>
        <time>2016-01-31T10:52:27.066+01:00</time>
      </trkpt>
      <trkpt lat="45.40836" lon="6.62941">
        <ele>1853.24</ele>
        <time>2016-01-31T10:52:31.064+01:00</time>
      </trkpt>
      <trkpt lat="45.40845" lon="6.62946">
        <ele>1853.21</ele>
        <time>2016-01-31T10:52:36.051+01:00</time>
      </trkpt>
      <trkpt lat="45.40854" lon="6.62952">
        <ele>1852.87</ele>
        <time>2016-01-31T10:52:41.037+01:00</time>
      </trkpt>
      <trkpt lat="45.40864" lon="6.62957">
        <ele>1851.71</ele>
        <time>2016-01-31T10:52:49.067+01:00</time>
      </trkpt>
      <trkpt lat="45.40874" lon="6.62962">
        <ele>1851.48</ele>
        <time>2016-01-31T10:52:54.042+01:00</time>
      </trkpt>
      <trkpt lat="45.40896" lon="6.62974">
        <ele>1850.73</ele>
        <time>2016-01-31T10:53:03.085+01:00</time>
      </trkpt>
      <trkpt lat="45.40907" lon="6.62979">
        <ele>1850.46</ele>
        <time>2016-01-31T10:53:08.055+01:00</time>
      </trkpt>
      <trkpt lat="45.40942" lon="6.6299">
        <ele>1846.86</ele>
        <time>2016-01-31T10:53:20.050+01:00</time>
      </trkpt>
      <trkpt lat="45.40954" lon="6.62993">
        <ele>1845.14</ele>
        <time>2016-01-31T10:53:24.048+01:00</time>
      </trkpt>
      <trkpt lat="45.40963" lon="6.62998">
        <ele>1842.83</ele>
        <time>2016-01-31T10:53:26.046+01:00</time>
      </trkpt>
      <trkpt lat="45.40976" lon="6.63003">
        <ele>1841.46</ele>
        <time>2016-01-31T10:53:28.032+01:00</time>
      </trkpt>
      <trkpt lat="45.40988" lon="6.6301">
        <ele>1839.45</ele>
        <time>2016-01-31T10:53:30.036+01:00</time>
      </trkpt>
      <trkpt lat="45.41002" lon="6.63015">
        <ele>1838.27</ele>
        <time>2016-01-31T10:53:32.033+01:00</time>
      </trkpt>
      <trkpt lat="45.41017" lon="6.63024">
        <ele>1836.48</ele>
        <time>2016-01-31T10:53:34.040+01:00</time>
      </trkpt>
      <trkpt lat="45.41033" lon="6.63027">
        <ele>1832.68</ele>
        <time>2016-01-31T10:53:36.039+01:00</time>
      </trkpt>
      <trkpt lat="45.41048" lon="6.63033">
        <ele>1831.48</ele>
        <time>2016-01-31T10:53:38.033+01:00</time>
      </trkpt>
      <trkpt lat="45.41062" lon="6.63039">
        <ele>1829.21</ele>
        <time>2016-01-31T10:53:40.035+01:00</time>
      </trkpt>
      <trkpt lat="45.41071" lon="6.63043">
        <ele>1828.37</ele>
        <time>2016-01-31T10:53:41.032+01:00</time>
      </trkpt>
      <trkpt lat="45.41081" lon="6.63048">
        <ele>1827.42</ele>
        <time>2016-01-31T10:53:42.039+01:00</time>
      </trkpt>
      <trkpt lat="45.41092" lon="6.63051">
        <ele>1826.49</ele>
        <time>2016-01-31T10:53:43.087+01:00</time>
      </trkpt>
      <trkpt lat="45.41101" lon="6.63054">
        <ele>1825.38</ele>
        <time>2016-01-31T10:53:44.063+01:00</time>
      </trkpt>
      <trkpt lat="45.41111" lon="6.63058">
        <ele>1822.36</ele>
        <time>2016-01-31T10:53:46.045+01:00</time>
      </trkpt>
      <trkpt lat="45.41125" lon="6.63063">
        <ele>1820.54</ele>
        <time>2016-01-31T10:53:48.048+01:00</time>
      </trkpt>
      <trkpt lat="45.4114" lon="6.63065">
        <ele>1818.82</ele>
        <time>2016-01-31T10:53:50.053+01:00</time>
      </trkpt>
      <trkpt lat="45.41153" lon="6.63066">
        <ele>1817.95</ele>
        <time>2016-01-31T10:53:52.053+01:00</time>
      </trkpt>
      <trkpt lat="45.41169" lon="6.63064">
        <ele>1816.94</ele>
        <time>2016-01-31T10:53:54.056+01:00</time>
      </trkpt>
      <trkpt lat="45.41185" lon="6.63067">
        <ele>1815.06</ele>
        <time>2016-01-31T10:53:56.056+01:00</time>
      </trkpt>
      <trkpt lat="45.41194" lon="6.63067">
        <ele>1813.71</ele>
        <time>2016-01-31T10:53:57.054+01:00</time>
      </trkpt>
      <trkpt lat="45.41203" lon="6.63068">
        <ele>1812.81</ele>
        <time>2016-01-31T10:53:58.056+01:00</time>
      </trkpt>
      <trkpt lat="45.41218" lon="6.63069">
        <ele>1809.9</ele>
        <time>2016-01-31T10:54:01.055+01:00</time>
      </trkpt>
      <trkpt lat="45.41229" lon="6.63075">
        <ele>1806.88</ele>
        <time>2016-01-31T10:54:03.059+01:00</time>
      </trkpt>
      <trkpt lat="45.41254" lon="6.63086">
        <ele>1802.19</ele>
        <time>2016-01-31T10:54:06.101+01:00</time>
      </trkpt>
      <trkpt lat="45.41262" lon="6.63095">
        <ele>1799.21</ele>
        <time>2016-01-31T10:54:07.057+01:00</time>
      </trkpt>
      <trkpt lat="45.41273" lon="6.63103">
        <ele>1797.07</ele>
        <time>2016-01-31T10:54:08.083+01:00</time>
      </trkpt>
      <trkpt lat="45.41283" lon="6.63115">
        <ele>1796.16</ele>
        <time>2016-01-31T10:54:09.076+01:00</time>
      </trkpt>
      <trkpt lat="45.41294" lon="6.63134">
        <ele>1792.63</ele>
        <time>2016-01-31T10:54:11.060+01:00</time>
      </trkpt>
      <trkpt lat="45.41302" lon="6.63144">
        <ele>1790.23</ele>
        <time>2016-01-31T10:54:12.051+01:00</time>
      </trkpt>
      <trkpt lat="45.41313" lon="6.63168">
        <ele>1785.53</ele>
        <time>2016-01-31T10:54:14.055+01:00</time>
      </trkpt>
      <trkpt lat="45.41322" lon="6.63176">
        <ele>1783.55</ele>
        <time>2016-01-31T10:54:15.058+01:00</time>
      </trkpt>
      <trkpt lat="45.41329" lon="6.63184">
        <ele>1781.51</ele>
        <time>2016-01-31T10:54:16.067+01:00</time>
      </trkpt>
      <trkpt lat="45.41337" lon="6.63196">
        <ele>1780.15</ele>
        <time>2016-01-31T10:54:17.063+01:00</time>
      </trkpt>
      <trkpt lat="45.41343" lon="6.63206">
        <ele>1777.99</ele>
        <time>2016-01-31T10:54:18.052+01:00</time>
      </trkpt>
      <trkpt lat="45.41351" lon="6.63214">
        <ele>1777.01</ele>
        <time>2016-01-31T10:54:19.049+01:00</time>
      </trkpt>
      <trkpt lat="45.41358" lon="6.63224">
        <ele>1775.85</ele>
        <time>2016-01-31T10:54:20.055+01:00</time>
      </trkpt>
      <trkpt lat="45.41364" lon="6.63235">
        <ele>1774.47</ele>
        <time>2016-01-31T10:54:21.050+01:00</time>
      </trkpt>
      <trkpt lat="45.4137" lon="6.63244">
        <ele>1773.51</ele>
        <time>2016-01-31T10:54:22.050+01:00</time>
      </trkpt>
      <trkpt lat="45.41383" lon="6.63261">
        <ele>1770.82</ele>
        <time>2016-01-31T10:54:24.057+01:00</time>
      </trkpt>
      <trkpt lat="45.41389" lon="6.63271">
        <ele>1769.76</ele>
        <time>2016-01-31T10:54:25.057+01:00</time>
      </trkpt>
      <trkpt lat="45.41402" lon="6.63278">
        <ele>1768.48</ele>
        <time>2016-01-31T10:54:27.056+01:00</time>
      </trkpt>
      <trkpt lat="45.41408" lon="6.63289">
        <ele>1766.66</ele>
        <time>2016-01-31T10:54:29.038+01:00</time>
      </trkpt>
      <trkpt lat="45.41421" lon="6.6329">
        <ele>1766.01</ele>
        <time>2016-01-31T10:54:32.036+01:00</time>
      </trkpt>
      <trkpt lat="45.41412" lon="6.63299">
        <ele>1765.66</ele>
        <time>2016-01-31T10:54:44.057+01:00</time>
      </trkpt>
      <trkpt lat="45.41422" lon="6.63299">
        <ele>1764.67</ele>
        <time>2016-01-31T10:55:15.055+01:00</time>
      </trkpt>
      <trkpt lat="45.4143" lon="6.63294">
        <ele>1763.57</ele>
        <time>2016-01-31T10:55:17.053+01:00</time>
      </trkpt>
      <trkpt lat="45.41438" lon="6.63284">
        <ele>1762.18</ele>
        <time>2016-01-31T10:55:19.053+01:00</time>
      </trkpt>
      <trkpt lat="45.41445" lon="6.63276">
        <ele>1761.79</ele>
        <time>2016-01-31T10:55:21.058+01:00</time>
      </trkpt>
      <trkpt lat="45.41453" lon="6.63264">
        <ele>1761.72</ele>
        <time>2016-01-31T10:55:24.054+01:00</time>
      </trkpt>
      <trkpt lat="45.4146" lon="6.63255">
        <ele>1761.29</ele>
        <time>2016-01-31T10:55:27.053+01:00</time>
      </trkpt>
      <trkpt lat="45.41467" lon="6.63263">
        <ele>1759.9</ele>
        <time>2016-01-31T10:55:38.079+01:00</time>
      </trkpt>
      <trkpt lat="45.41475" lon="6.6327">
        <ele>1758.91</ele>
        <time>2016-01-31T10:55:43.079+01:00</time>
      </trkpt>
      <trkpt lat="45.41475" lon="6.63283">
        <ele>1758.88</ele>
        <time>2016-01-31T10:55:49.066+01:00</time>
      </trkpt>
      <trkpt lat="45.41477" lon="6.63296">
        <ele>1758.47</ele>
        <time>2016-01-31T10:56:20.059+01:00</time>
      </trkpt>
      <trkpt lat="45.41499" lon="6.63286">
        <ele>1763.68</ele>
        <time>2016-01-31T11:02:35.081+01:00</time>
      </trkpt>
      <trkpt lat="45.41497" lon="6.633">
        <ele>1763.27</ele>
        <time>2016-01-31T11:02:53.060+01:00</time>
      </trkpt>
      <trkpt lat="45.41491" lon="6.63294">
        <ele>1763.55</ele>
        <time>2016-01-31T11:03:04.058+01:00</time>
      </trkpt>
      <trkpt lat="45.41485" lon="6.63283">
        <ele>1763.27</ele>
        <time>2016-01-31T11:03:50.070+01:00</time>
      </trkpt>
      <trkpt lat="45.41481" lon="6.63267">
        <ele>1763.26</ele>
        <time>2016-01-31T11:04:09.060+01:00</time>
      </trkpt>
      <trkpt lat="45.41476" lon="6.63255">
        <ele>1764.87</ele>
        <time>2016-01-31T11:04:11.085+01:00</time>
      </trkpt>
      <trkpt lat="45.4147" lon="6.6324">
        <ele>1766.76</ele>
        <time>2016-01-31T11:04:14.102+01:00</time>
      </trkpt>
      <trkpt lat="45.41463" lon="6.63227">
        <ele>1769.99</ele>
        <time>2016-01-31T11:04:18.057+01:00</time>
      </trkpt>
      <trkpt lat="45.41458" lon="6.63216">
        <ele>1773.06</ele>
        <time>2016-01-31T11:04:21.054+01:00</time>
      </trkpt>
      <trkpt lat="45.41454" lon="6.63207">
        <ele>1775.19</ele>
        <time>2016-01-31T11:04:23.052+01:00</time>
      </trkpt>
      <trkpt lat="45.41449" lon="6.63196">
        <ele>1779.23</ele>
        <time>2016-01-31T11:04:26.056+01:00</time>
      </trkpt>
      <trkpt lat="45.41433" lon="6.63161">
        <ele>1785.3</ele>
        <time>2016-01-31T11:04:35.056+01:00</time>
      </trkpt>
      <trkpt lat="45.4142" lon="6.63131">
        <ele>1790.68</ele>
        <time>2016-01-31T11:04:42.070+01:00</time>
      </trkpt>
      <trkpt lat="45.41414" lon="6.63116">
        <ele>1794.71</ele>
        <time>2016-01-31T11:04:46.056+01:00</time>
      </trkpt>
      <trkpt lat="45.41409" lon="6.63104">
        <ele>1797.74</ele>
        <time>2016-01-31T11:04:49.051+01:00</time>
      </trkpt>
      <trkpt lat="45.41404" lon="6.6309">
        <ele>1801.24</ele>
        <time>2016-01-31T11:04:52.073+01:00</time>
      </trkpt>
      <trkpt lat="45.41397" lon="6.63076">
        <ele>1806.27</ele>
        <time>2016-01-31T11:04:56.054+01:00</time>
      </trkpt>
      <trkpt lat="45.4139" lon="6.63062">
        <ele>1811.68</ele>
        <time>2016-01-31T11:05:00.047+01:00</time>
      </trkpt>
      <trkpt lat="45.41385" lon="6.6305">
        <ele>1813.56</ele>
        <time>2016-01-31T11:05:03.059+01:00</time>
      </trkpt>
      <trkpt lat="45.4138" lon="6.63037">
        <ele>1816.32</ele>
        <time>2016-01-31T11:05:06.055+01:00</time>
      </trkpt>
      <trkpt lat="45.41373" lon="6.63027">
        <ele>1818.78</ele>
        <time>2016-01-31T11:05:09.076+01:00</time>
      </trkpt>
      <trkpt lat="45.41366" lon="6.63014">
        <ele>1821.51</ele>
        <time>2016-01-31T11:05:12.060+01:00</time>
      </trkpt>
      <trkpt lat="45.4136" lon="6.63001">
        <ele>1824.99</ele>
        <time>2016-01-31T11:05:15.058+01:00</time>
      </trkpt>
      <trkpt lat="45.41353" lon="6.62987">
        <ele>1829.9</ele>
        <time>2016-01-31T11:05:19.070+01:00</time>
      </trkpt>
      <trkpt lat="45.41348" lon="6.62977">
        <ele>1833.7</ele>
        <time>2016-01-31T11:05:22.046+01:00</time>
      </trkpt>
      <trkpt lat="45.41342" lon="6.62965">
        <ele>1835.34</ele>
        <time>2016-01-31T11:05:25.080+01:00</time>
      </trkpt>
      <trkpt lat="45.41334" lon="6.62952">
        <ele>1837.81</ele>
        <time>2016-01-31T11:05:30.062+01:00</time>
      </trkpt>
      <trkpt lat="45.41327" lon="6.62939">
        <ele>1840.5</ele>
        <time>2016-01-31T11:05:35.090+01:00</time>
      </trkpt>
      <trkpt lat="45.41321" lon="6.62926">
        <ele>1842.33</ele>
        <time>2016-01-31T11:05:38.059+01:00</time>
      </trkpt>
      <trkpt lat="45.41316" lon="6.62913">
        <ele>1845.29</ele>
        <time>2016-01-31T11:05:41.051+01:00</time>
      </trkpt>
      <trkpt lat="45.4131" lon="6.62901">
        <ele>1847.28</ele>
        <time>2016-01-31T11:05:44.055+01:00</time>
      </trkpt>
      <trkpt lat="45.41305" lon="6.6289">
        <ele>1850.14</ele>
        <time>2016-01-31T11:05:47.054+01:00</time>
      </trkpt>
      <trkpt lat="45.413" lon="6.62878">
        <ele>1852.8</ele>
        <time>2016-01-31T11:05:50.057+01:00</time>
      </trkpt>
      <trkpt lat="45.41294" lon="6.62866">
        <ele>1855.87</ele>
        <time>2016-01-31T11:05:53.058+01:00</time>
      </trkpt>
      <trkpt lat="45.41289" lon="6.62855">
        <ele>1859.22</ele>
        <time>2016-01-31T11:05:56.055+01:00</time>
      </trkpt>
      <trkpt lat="45.41283" lon="6.62843">
        <ele>1863.91</ele>
        <time>2016-01-31T11:05:59.047+01:00</time>
      </trkpt>
      <trkpt lat="45.41278" lon="6.62831">
        <ele>1866.87</ele>
        <time>2016-01-31T11:06:02.053+01:00</time>
      </trkpt>
      <trkpt lat="45.41273" lon="6.62819">
        <ele>1871.36</ele>
        <time>2016-01-31T11:06:05.068+01:00</time>
      </trkpt>
      <trkpt lat="45.41267" lon="6.62809">
        <ele>1875.18</ele>
        <time>2016-01-31T11:06:08.051+01:00</time>
      </trkpt>
      <trkpt lat="45.41262" lon="6.62797">
        <ele>1880.16</ele>
        <time>2016-01-31T11:06:11.056+01:00</time>
      </trkpt>
      <trkpt lat="45.41256" lon="6.62786">
        <ele>1884.75</ele>
        <time>2016-01-31T11:06:14.059+01:00</time>
      </trkpt>
      <trkpt lat="45.41251" lon="6.62775">
        <ele>1889.85</ele>
        <time>2016-01-31T11:06:17.050+01:00</time>
      </trkpt>
      <trkpt lat="45.41244" lon="6.62761">
        <ele>1895.81</ele>
        <time>2016-01-31T11:06:21.067+01:00</time>
      </trkpt>
      <trkpt lat="45.41237" lon="6.62747">
        <ele>1898.87</ele>
        <time>2016-01-31T11:06:25.057+01:00</time>
      </trkpt>
      <trkpt lat="45.41232" lon="6.62735">
        <ele>1901.6</ele>
        <time>2016-01-31T11:06:28.051+01:00</time>
      </trkpt>
      <trkpt lat="45.41225" lon="6.62722">
        <ele>1905.92</ele>
        <time>2016-01-31T11:06:32.070+01:00</time>
      </trkpt>
      <trkpt lat="45.41219" lon="6.62711">
        <ele>1909.58</ele>
        <time>2016-01-31T11:06:35.051+01:00</time>
      </trkpt>
      <trkpt lat="45.41214" lon="6.62699">
        <ele>1913.1</ele>
        <time>2016-01-31T11:06:38.059+01:00</time>
      </trkpt>
      <trkpt lat="45.41208" lon="6.62686">
        <ele>1915.38</ele>
        <time>2016-01-31T11:06:41.057+01:00</time>
      </trkpt>
      <trkpt lat="45.41203" lon="6.62675">
        <ele>1919.12</ele>
        <time>2016-01-31T11:06:44.056+01:00</time>
      </trkpt>
      <trkpt lat="45.41196" lon="6.62661">
        <ele>1924.96</ele>
        <time>2016-01-31T11:06:48.048+01:00</time>
      </trkpt>
      <trkpt lat="45.41191" lon="6.62648">
        <ele>1928.84</ele>
        <time>2016-01-31T11:06:51.058+01:00</time>
      </trkpt>
      <trkpt lat="45.41186" lon="6.62636">
        <ele>1931.13</ele>
        <time>2016-01-31T11:06:54.057+01:00</time>
      </trkpt>
      <trkpt lat="45.41179" lon="6.62622">
        <ele>1934.81</ele>
        <time>2016-01-31T11:06:58.081+01:00</time>
      </trkpt>
      <trkpt lat="45.41174" lon="6.62612">
        <ele>1938.14</ele>
        <time>2016-01-31T11:07:01.063+01:00</time>
      </trkpt>
      <trkpt lat="45.41169" lon="6.626">
        <ele>1941.84</ele>
        <time>2016-01-31T11:07:04.053+01:00</time>
      </trkpt>
      <trkpt lat="45.41161" lon="6.62586">
        <ele>1946.9</ele>
        <time>2016-01-31T11:07:08.054+01:00</time>
      </trkpt>
      <trkpt lat="45.41156" lon="6.62574">
        <ele>1950.42</ele>
        <time>2016-01-31T11:07:11.065+01:00</time>
      </trkpt>
      <trkpt lat="45.41151" lon="6.62562">
        <ele>1954.7</ele>
        <time>2016-01-31T11:07:14.055+01:00</time>
      </trkpt>
      <trkpt lat="45.41146" lon="6.62551">
        <ele>1959.47</ele>
        <time>2016-01-31T11:07:17.059+01:00</time>
      </trkpt>
      <trkpt lat="45.41141" lon="6.62539">
        <ele>1963.62</ele>
        <time>2016-01-31T11:07:20.049+01:00</time>
      </trkpt>
      <trkpt lat="45.41135" lon="6.62524">
        <ele>1966.58</ele>
        <time>2016-01-31T11:07:23.076+01:00</time>
      </trkpt>
      <trkpt lat="45.41129" lon="6.62512">
        <ele>1971.2</ele>
        <time>2016-01-31T11:07:27.069+01:00</time>
      </trkpt>
      <trkpt lat="45.41122" lon="6.62496">
        <ele>1974.78</ele>
        <time>2016-01-31T11:07:30.048+01:00</time>
      </trkpt>
      <trkpt lat="45.41117" lon="6.62485">
        <ele>1977.46</ele>
        <time>2016-01-31T11:07:32.034+01:00</time>
      </trkpt>
      <trkpt lat="45.41111" lon="6.62471">
        <ele>1982.43</ele>
        <time>2016-01-31T11:07:36.035+01:00</time>
      </trkpt>
      <trkpt lat="45.41104" lon="6.62458">
        <ele>1987.84</ele>
        <time>2016-01-31T11:07:40.054+01:00</time>
      </trkpt>
      <trkpt lat="45.41098" lon="6.62445">
        <ele>1993.96</ele>
        <time>2016-01-31T11:07:44.090+01:00</time>
      </trkpt>
      <trkpt lat="45.41091" lon="6.62431">
        <ele>1998.05</ele>
        <time>2016-01-31T11:07:48.081+01:00</time>
      </trkpt>
      <trkpt lat="45.41086" lon="6.6242">
        <ele>2000.9</ele>
        <time>2016-01-31T11:07:51.074+01:00</time>
      </trkpt>
      <trkpt lat="45.41081" lon="6.62408">
        <ele>2004.21</ele>
        <time>2016-01-31T11:07:54.068+01:00</time>
      </trkpt>
      <trkpt lat="45.41076" lon="6.62397">
        <ele>2007.82</ele>
        <time>2016-01-31T11:07:57.079+01:00</time>
      </trkpt>
      <trkpt lat="45.41071" lon="6.62386">
        <ele>2011.42</ele>
        <time>2016-01-31T11:08:00.075+01:00</time>
      </trkpt>
      <trkpt lat="45.41066" lon="6.62375">
        <ele>2015.06</ele>
        <time>2016-01-31T11:08:03.077+01:00</time>
      </trkpt>
      <trkpt lat="45.41059" lon="6.6236">
        <ele>2020.83</ele>
        <time>2016-01-31T11:08:07.068+01:00</time>
      </trkpt>
      <trkpt lat="45.41054" lon="6.62349">
        <ele>2025.08</ele>
        <time>2016-01-31T11:08:10.073+01:00</time>
      </trkpt>
      <trkpt lat="45.41048" lon="6.62336">
        <ele>2031.21</ele>
        <time>2016-01-31T11:08:14.068+01:00</time>
      </trkpt>
      <trkpt lat="45.41042" lon="6.62325">
        <ele>2033.65</ele>
        <time>2016-01-31T11:08:17.066+01:00</time>
      </trkpt>
      <trkpt lat="45.41037" lon="6.62313">
        <ele>2035.75</ele>
        <time>2016-01-31T11:08:20.063+01:00</time>
      </trkpt>
      <trkpt lat="45.41031" lon="6.62301">
        <ele>2038.3</ele>
        <time>2016-01-31T11:08:23.057+01:00</time>
      </trkpt>
      <trkpt lat="45.41026" lon="6.62289">
        <ele>2041</ele>
        <time>2016-01-31T11:08:26.061+01:00</time>
      </trkpt>
      <trkpt lat="45.4102" lon="6.62276">
        <ele>2044.87</ele>
        <time>2016-01-31T11:08:30.051+01:00</time>
      </trkpt>
      <trkpt lat="45.41014" lon="6.62264">
        <ele>2047.75</ele>
        <time>2016-01-31T11:08:33.055+01:00</time>
      </trkpt>
      <trkpt lat="45.41009" lon="6.62251">
        <ele>2050.5</ele>
        <time>2016-01-31T11:08:36.049+01:00</time>
      </trkpt>
      <trkpt lat="45.41003" lon="6.62237">
        <ele>2054.05</ele>
        <time>2016-01-31T11:08:39.048+01:00</time>
      </trkpt>
      <trkpt lat="45.40998" lon="6.62226">
        <ele>2058.01</ele>
        <time>2016-01-31T11:08:42.048+01:00</time>
      </trkpt>
      <trkpt lat="45.40993" lon="6.62214">
        <ele>2061.55</ele>
        <time>2016-01-31T11:08:45.055+01:00</time>
      </trkpt>
      <trkpt lat="45.40987" lon="6.62203">
        <ele>2063.68</ele>
        <time>2016-01-31T11:08:48.072+01:00</time>
      </trkpt>
      <trkpt lat="45.40981" lon="6.62191">
        <ele>2065.09</ele>
        <time>2016-01-31T11:08:51.047+01:00</time>
      </trkpt>
      <trkpt lat="45.40976" lon="6.62181">
        <ele>2067.5</ele>
        <time>2016-01-31T11:08:54.057+01:00</time>
      </trkpt>
      <trkpt lat="45.40971" lon="6.62169">
        <ele>2070.25</ele>
        <time>2016-01-31T11:08:57.039+01:00</time>
      </trkpt>
      <trkpt lat="45.40964" lon="6.62155">
        <ele>2074.01</ele>
        <time>2016-01-31T11:09:01.066+01:00</time>
      </trkpt>
      <trkpt lat="45.40957" lon="6.62141">
        <ele>2077.81</ele>
        <time>2016-01-31T11:09:05.056+01:00</time>
      </trkpt>
      <trkpt lat="45.40952" lon="6.62129">
        <ele>2080.97</ele>
        <time>2016-01-31T11:09:08.061+01:00</time>
      </trkpt>
      <trkpt lat="45.40947" lon="6.62118">
        <ele>2084.83</ele>
        <time>2016-01-31T11:09:11.064+01:00</time>
      </trkpt>
      <trkpt lat="45.40942" lon="6.62105">
        <ele>2087.65</ele>
        <time>2016-01-31T11:09:14.075+01:00</time>
      </trkpt>
      <trkpt lat="45.40936" lon="6.62092">
        <ele>2089.49</ele>
        <time>2016-01-31T11:09:17.058+01:00</time>
      </trkpt>
      <trkpt lat="45.40931" lon="6.6208">
        <ele>2091.51</ele>
        <time>2016-01-31T11:09:20.055+01:00</time>
      </trkpt>
      <trkpt lat="45.40925" lon="6.62067">
        <ele>2093.91</ele>
        <time>2016-01-31T11:09:23.050+01:00</time>
      </trkpt>
      <trkpt lat="45.4092" lon="6.62054">
        <ele>2096.42</ele>
        <time>2016-01-31T11:09:26.058+01:00</time>
      </trkpt>
      <trkpt lat="45.40914" lon="6.62041">
        <ele>2098.98</ele>
        <time>2016-01-31T11:09:29.057+01:00</time>
      </trkpt>
      <trkpt lat="45.40908" lon="6.62029">
        <ele>2101.73</ele>
        <time>2016-01-31T11:09:32.055+01:00</time>
      </trkpt>
      <trkpt lat="45.40903" lon="6.62019">
        <ele>2104.67</ele>
        <time>2016-01-31T11:09:35.055+01:00</time>
      </trkpt>
      <trkpt lat="45.40896" lon="6.62005">
        <ele>2109.07</ele>
        <time>2016-01-31T11:09:39.050+01:00</time>
      </trkpt>
      <trkpt lat="45.40889" lon="6.61991">
        <ele>2112.69</ele>
        <time>2016-01-31T11:09:43.067+01:00</time>
      </trkpt>
      <trkpt lat="45.40884" lon="6.61978">
        <ele>2114.4</ele>
        <time>2016-01-31T11:09:46.055+01:00</time>
      </trkpt>
      <trkpt lat="45.40877" lon="6.61964">
        <ele>2117.25</ele>
        <time>2016-01-31T11:09:50.069+01:00</time>
      </trkpt>
      <trkpt lat="45.40872" lon="6.61952">
        <ele>2119.11</ele>
        <time>2016-01-31T11:09:53.066+01:00</time>
      </trkpt>
      <trkpt lat="45.40866" lon="6.6194">
        <ele>2121.91</ele>
        <time>2016-01-31T11:09:56.049+01:00</time>
      </trkpt>
      <trkpt lat="45.4086" lon="6.61927">
        <ele>2124.45</ele>
        <time>2016-01-31T11:09:59.057+01:00</time>
      </trkpt>
      <trkpt lat="45.40855" lon="6.61915">
        <ele>2127.25</ele>
        <time>2016-01-31T11:10:02.034+01:00</time>
      </trkpt>
      <trkpt lat="45.4085" lon="6.61904">
        <ele>2130.12</ele>
        <time>2016-01-31T11:10:05.056+01:00</time>
      </trkpt>
      <trkpt lat="45.40845" lon="6.61892">
        <ele>2133.49</ele>
        <time>2016-01-31T11:10:08.045+01:00</time>
      </trkpt>
      <trkpt lat="45.40838" lon="6.61879">
        <ele>2138.36</ele>
        <time>2016-01-31T11:10:12.051+01:00</time>
      </trkpt>
      <trkpt lat="45.40831" lon="6.61867">
        <ele>2140.34</ele>
        <time>2016-01-31T11:10:15.045+01:00</time>
      </trkpt>
      <trkpt lat="45.40825" lon="6.61854">
        <ele>2142.43</ele>
        <time>2016-01-31T11:10:18.057+01:00</time>
      </trkpt>
      <trkpt lat="45.4082" lon="6.6184">
        <ele>2144.42</ele>
        <time>2016-01-31T11:10:21.058+01:00</time>
      </trkpt>
      <trkpt lat="45.40814" lon="6.61828">
        <ele>2146.72</ele>
        <time>2016-01-31T11:10:24.055+01:00</time>
      </trkpt>
      <trkpt lat="45.40809" lon="6.61816">
        <ele>2149.49</ele>
        <time>2016-01-31T11:10:27.057+01:00</time>
      </trkpt>
      <trkpt lat="45.40803" lon="6.61804">
        <ele>2152.84</ele>
        <time>2016-01-31T11:10:30.049+01:00</time>
      </trkpt>
      <trkpt lat="45.40799" lon="6.61793">
        <ele>2155.94</ele>
        <time>2016-01-31T11:10:33.069+01:00</time>
      </trkpt>
      <trkpt lat="45.40793" lon="6.61782">
        <ele>2158.53</ele>
        <time>2016-01-31T11:10:36.077+01:00</time>
      </trkpt>
      <trkpt lat="45.40788" lon="6.6177">
        <ele>2159.97</ele>
        <time>2016-01-31T11:10:39.042+01:00</time>
      </trkpt>
      <trkpt lat="45.40781" lon="6.61756">
        <ele>2161.82</ele>
        <time>2016-01-31T11:10:43.059+01:00</time>
      </trkpt>
      <trkpt lat="45.40776" lon="6.61745">
        <ele>2163.46</ele>
        <time>2016-01-31T11:10:46.058+01:00</time>
      </trkpt>
      <trkpt lat="45.40771" lon="6.61733">
        <ele>2165.6</ele>
        <time>2016-01-31T11:10:49.059+01:00</time>
      </trkpt>
      <trkpt lat="45.40765" lon="6.61721">
        <ele>2167.58</ele>
        <time>2016-01-31T11:10:52.071+01:00</time>
      </trkpt>
      <trkpt lat="45.4076" lon="6.61709">
        <ele>2169.21</ele>
        <time>2016-01-31T11:10:55.046+01:00</time>
      </trkpt>
      <trkpt lat="45.40754" lon="6.61697">
        <ele>2171.04</ele>
        <time>2016-01-31T11:10:58.051+01:00</time>
      </trkpt>
      <trkpt lat="45.40747" lon="6.61685">
        <ele>2173.26</ele>
        <time>2016-01-31T11:11:01.073+01:00</time>
      </trkpt>
      <trkpt lat="45.40741" lon="6.61672">
        <ele>2175.67</ele>
        <time>2016-01-31T11:11:04.060+01:00</time>
      </trkpt>
      <trkpt lat="45.40736" lon="6.61661">
        <ele>2178.72</ele>
        <time>2016-01-31T11:11:07.059+01:00</time>
      </trkpt>
      <trkpt lat="45.4073" lon="6.61649">
        <ele>2181.07</ele>
        <time>2016-01-31T11:11:10.058+01:00</time>
      </trkpt>
      <trkpt lat="45.40724" lon="6.61636">
        <ele>2185.14</ele>
        <time>2016-01-31T11:11:14.057+01:00</time>
      </trkpt>
      <trkpt lat="45.40718" lon="6.61624">
        <ele>2188.65</ele>
        <time>2016-01-31T11:11:17.069+01:00</time>
      </trkpt>
      <trkpt lat="45.40713" lon="6.61612">
        <ele>2191.71</ele>
        <time>2016-01-31T11:11:20.059+01:00</time>
      </trkpt>
      <trkpt lat="45.40708" lon="6.616">
        <ele>2195.03</ele>
        <time>2016-01-31T11:11:23.081+01:00</time>
      </trkpt>
      <trkpt lat="45.40703" lon="6.61589">
        <ele>2198.15</ele>
        <time>2016-01-31T11:11:26.099+01:00</time>
      </trkpt>
      <trkpt lat="45.40696" lon="6.61576">
        <ele>2203.29</ele>
        <time>2016-01-31T11:11:30.064+01:00</time>
      </trkpt>
      <trkpt lat="45.40691" lon="6.61565">
        <ele>2207.03</ele>
        <time>2016-01-31T11:11:33.047+01:00</time>
      </trkpt>
      <trkpt lat="45.40686" lon="6.61554">
        <ele>2210.87</ele>
        <time>2016-01-31T11:11:36.055+01:00</time>
      </trkpt>
      <trkpt lat="45.40681" lon="6.61542">
        <ele>2213.12</ele>
        <time>2016-01-31T11:11:39.058+01:00</time>
      </trkpt>
      <trkpt lat="45.40676" lon="6.61531">
        <ele>2215.76</ele>
        <time>2016-01-31T11:11:42.055+01:00</time>
      </trkpt>
      <trkpt lat="45.40671" lon="6.61518">
        <ele>2219.29</ele>
        <time>2016-01-31T11:11:45.056+01:00</time>
      </trkpt>
      <trkpt lat="45.40664" lon="6.61503">
        <ele>2223.33</ele>
        <time>2016-01-31T11:11:49.050+01:00</time>
      </trkpt>
      <trkpt lat="45.40658" lon="6.61492">
        <ele>2226.71</ele>
        <time>2016-01-31T11:11:52.055+01:00</time>
      </trkpt>
      <trkpt lat="45.40652" lon="6.61478">
        <ele>2229.5</ele>
        <time>2016-01-31T11:11:55.046+01:00</time>
      </trkpt>
      <trkpt lat="45.40646" lon="6.61466">
        <ele>2233.36</ele>
        <time>2016-01-31T11:11:58.055+01:00</time>
      </trkpt>
      <trkpt lat="45.40641" lon="6.61455">
        <ele>2233.69</ele>
        <time>2016-01-31T11:12:01.034+01:00</time>
      </trkpt>
      <trkpt lat="45.40635" lon="6.61442">
        <ele>2233.56</ele>
        <time>2016-01-31T11:12:04.053+01:00</time>
      </trkpt>
      <trkpt lat="45.40628" lon="6.61432">
        <ele>2234.32</ele>
        <time>2016-01-31T11:12:08.054+01:00</time>
      </trkpt>
      <trkpt lat="45.40625" lon="6.61419">
        <ele>2234.08</ele>
        <time>2016-01-31T11:12:26.058+01:00</time>
      </trkpt>
      <trkpt lat="45.40621" lon="6.61405">
        <ele>2234.1</ele>
        <time>2016-01-31T11:12:46.086+01:00</time>
      </trkpt>
      <trkpt lat="45.40625" lon="6.61393">
        <ele>2233.38</ele>
        <time>2016-01-31T11:13:05.080+01:00</time>
      </trkpt>
      <trkpt lat="45.4063" lon="6.61382">
        <ele>2234.83</ele>
        <time>2016-01-31T11:13:46.066+01:00</time>
      </trkpt>
      <trkpt lat="45.40639" lon="6.61379">
        <ele>2235.6</ele>
        <time>2016-01-31T11:13:57.063+01:00</time>
      </trkpt>
      <trkpt lat="45.40648" lon="6.61376">
        <ele>2237.2</ele>
        <time>2016-01-31T11:14:08.086+01:00</time>
      </trkpt>
      <trkpt lat="45.40657" lon="6.61371">
        <ele>2236.05</ele>
        <time>2016-01-31T11:14:16.040+01:00</time>
      </trkpt>
      <trkpt lat="45.40667" lon="6.61371">
        <ele>2234.35</ele>
        <time>2016-01-31T11:14:43.055+01:00</time>
      </trkpt>
      <trkpt lat="45.40676" lon="6.61376">
        <ele>2234.54</ele>
        <time>2016-01-31T11:14:48.067+01:00</time>
      </trkpt>
      <trkpt lat="45.40685" lon="6.6138">
        <ele>2233.61</ele>
        <time>2016-01-31T11:14:52.039+01:00</time>
      </trkpt>
      <trkpt lat="45.40696" lon="6.61385">
        <ele>2232.45</ele>
        <time>2016-01-31T11:14:55.058+01:00</time>
      </trkpt>
      <trkpt lat="45.40708" lon="6.61388">
        <ele>2231.25</ele>
        <time>2016-01-31T11:14:58.110+01:00</time>
      </trkpt>
      <trkpt lat="45.40719" lon="6.61391">
        <ele>2229.83</ele>
        <time>2016-01-31T11:15:00.050+01:00</time>
      </trkpt>
      <trkpt lat="45.40725" lon="6.61392">
        <ele>2229.8</ele>
        <time>2016-01-31T11:15:01.044+01:00</time>
      </trkpt>
      <trkpt lat="45.40739" lon="6.61394">
        <ele>2228.12</ele>
        <time>2016-01-31T11:15:04.063+01:00</time>
      </trkpt>
      <trkpt lat="45.40751" lon="6.61394">
        <ele>2226.64</ele>
        <time>2016-01-31T11:15:07.038+01:00</time>
      </trkpt>
      <trkpt lat="45.40759" lon="6.61396">
        <ele>2225.89</ele>
        <time>2016-01-31T11:15:09.039+01:00</time>
      </trkpt>
      <trkpt lat="45.40772" lon="6.61399">
        <ele>2225.29</ele>
        <time>2016-01-31T11:15:12.032+01:00</time>
      </trkpt>
      <trkpt lat="45.40787" lon="6.61403">
        <ele>2223.74</ele>
        <time>2016-01-31T11:15:16.034+01:00</time>
      </trkpt>
      <trkpt lat="45.40795" lon="6.61406">
        <ele>2223.04</ele>
        <time>2016-01-31T11:15:19.076+01:00</time>
      </trkpt>
      <trkpt lat="45.40804" lon="6.6141">
        <ele>2224.18</ele>
        <time>2016-01-31T11:16:02.057+01:00</time>
      </trkpt>
      <trkpt lat="45.40815" lon="6.61413">
        <ele>2223.14</ele>
        <time>2016-01-31T11:16:11.045+01:00</time>
      </trkpt>
      <trkpt lat="45.40826" lon="6.6142">
        <ele>2222.51</ele>
        <time>2016-01-31T11:16:15.069+01:00</time>
      </trkpt>
      <trkpt lat="45.40837" lon="6.61425">
        <ele>2222.06</ele>
        <time>2016-01-31T11:16:18.060+01:00</time>
      </trkpt>
      <trkpt lat="45.40847" lon="6.61427">
        <ele>2221.76</ele>
        <time>2016-01-31T11:16:21.053+01:00</time>
      </trkpt>
      <trkpt lat="45.4086" lon="6.6143">
        <ele>2220.75</ele>
        <time>2016-01-31T11:16:24.070+01:00</time>
      </trkpt>
      <trkpt lat="45.40869" lon="6.61431">
        <ele>2219.36</ele>
        <time>2016-01-31T11:16:26.074+01:00</time>
      </trkpt>
      <trkpt lat="45.40891" lon="6.61439">
        <ele>2217.16</ele>
        <time>2016-01-31T11:16:30.054+01:00</time>
      </trkpt>
      <trkpt lat="45.40901" lon="6.61447">
        <ele>2214.8</ele>
        <time>2016-01-31T11:16:33.055+01:00</time>
      </trkpt>
      <trkpt lat="45.4091" lon="6.61458">
        <ele>2213.48</ele>
        <time>2016-01-31T11:16:35.055+01:00</time>
      </trkpt>
      <trkpt lat="45.40916" lon="6.61475">
        <ele>2209.36</ele>
        <time>2016-01-31T11:16:41.038+01:00</time>
      </trkpt>
      <trkpt lat="45.40974" lon="6.61524">
        <ele>2199.88</ele>
        <time>2016-01-31T11:16:50.075+01:00</time>
      </trkpt>
      <trkpt lat="45.40983" lon="6.61537">
        <ele>2196.06</ele>
        <time>2016-01-31T11:16:54.066+01:00</time>
      </trkpt>
      <trkpt lat="45.40987" lon="6.61548">
        <ele>2193.74</ele>
        <time>2016-01-31T11:16:56.037+01:00</time>
      </trkpt>
      <trkpt lat="45.40992" lon="6.61564">
        <ele>2191.1</ele>
        <time>2016-01-31T11:16:58.040+01:00</time>
      </trkpt>
      <trkpt lat="45.40999" lon="6.61582">
        <ele>2186.21</ele>
        <time>2016-01-31T11:17:00.040+01:00</time>
      </trkpt>
      <trkpt lat="45.41003" lon="6.61602">
        <ele>2181.63</ele>
        <time>2016-01-31T11:17:02.039+01:00</time>
      </trkpt>
      <trkpt lat="45.41003" lon="6.61616">
        <ele>2177.76</ele>
        <time>2016-01-31T11:17:04.039+01:00</time>
      </trkpt>
      <trkpt lat="45.40998" lon="6.61633">
        <ele>2175.21</ele>
        <time>2016-01-31T11:17:06.035+01:00</time>
      </trkpt>
      <trkpt lat="45.41003" lon="6.61644">
        <ele>2174.44</ele>
        <time>2016-01-31T11:17:25.039+01:00</time>
      </trkpt>
      <trkpt lat="45.4101" lon="6.61655">
        <ele>2172.97</ele>
        <time>2016-01-31T11:17:28.036+01:00</time>
      </trkpt>
      <trkpt lat="45.41003" lon="6.61664">
        <ele>2170.59</ele>
        <time>2016-01-31T11:17:35.034+01:00</time>
      </trkpt>
      <trkpt lat="45.40993" lon="6.61673">
        <ele>2166.43</ele>
        <time>2016-01-31T11:17:38.036+01:00</time>
      </trkpt>
      <trkpt lat="45.40985" lon="6.61683">
        <ele>2162.04</ele>
        <time>2016-01-31T11:17:45.063+01:00</time>
      </trkpt>
      <trkpt lat="45.4098" lon="6.61698">
        <ele>2156.55</ele>
        <time>2016-01-31T11:17:48.074+01:00</time>
      </trkpt>
      <trkpt lat="45.40976" lon="6.61714">
        <ele>2150.91</ele>
        <time>2016-01-31T11:17:50.077+01:00</time>
      </trkpt>
      <trkpt lat="45.40973" lon="6.61729">
        <ele>2146.99</ele>
        <time>2016-01-31T11:17:53.073+01:00</time>
      </trkpt>
      <trkpt lat="45.40971" lon="6.61747">
        <ele>2143.5</ele>
        <time>2016-01-31T11:17:55.070+01:00</time>
      </trkpt>
      <trkpt lat="45.40971" lon="6.61764">
        <ele>2140.16</ele>
        <time>2016-01-31T11:17:57.071+01:00</time>
      </trkpt>
      <trkpt lat="45.40968" lon="6.6178">
        <ele>2136.05</ele>
        <time>2016-01-31T11:17:59.067+01:00</time>
      </trkpt>
      <trkpt lat="45.40965" lon="6.61795">
        <ele>2133.09</ele>
        <time>2016-01-31T11:18:01.063+01:00</time>
      </trkpt>
      <trkpt lat="45.40961" lon="6.6181">
        <ele>2132.03</ele>
        <time>2016-01-31T11:18:03.065+01:00</time>
      </trkpt>
      <trkpt lat="45.40961" lon="6.6183">
        <ele>2130.44</ele>
        <time>2016-01-31T11:18:05.069+01:00</time>
      </trkpt>
      <trkpt lat="45.40964" lon="6.61844">
        <ele>2128.25</ele>
        <time>2016-01-31T11:18:52.056+01:00</time>
      </trkpt>
      <trkpt lat="45.40963" lon="6.6186">
        <ele>2123.83</ele>
        <time>2016-01-31T11:18:55.048+01:00</time>
      </trkpt>
      <trkpt lat="45.40962" lon="6.61873">
        <ele>2119.51</ele>
        <time>2016-01-31T11:18:57.057+01:00</time>
      </trkpt>
      <trkpt lat="45.40963" lon="6.61886">
        <ele>2115.26</ele>
        <time>2016-01-31T11:18:59.056+01:00</time>
      </trkpt>
      <trkpt lat="45.40957" lon="6.61899">
        <ele>2110.58</ele>
        <time>2016-01-31T11:19:02.053+01:00</time>
      </trkpt>
      <trkpt lat="45.40956" lon="6.61919">
        <ele>2104.64</ele>
        <time>2016-01-31T11:19:05.075+01:00</time>
      </trkpt>
      <trkpt lat="45.40956" lon="6.61936">
        <ele>2101.05</ele>
        <time>2016-01-31T11:19:07.079+01:00</time>
      </trkpt>
      <trkpt lat="45.40954" lon="6.61953">
        <ele>2096.67</ele>
        <time>2016-01-31T11:19:09.043+01:00</time>
      </trkpt>
      <trkpt lat="45.40954" lon="6.6197">
        <ele>2092.62</ele>
        <time>2016-01-31T11:19:11.035+01:00</time>
      </trkpt>
      <trkpt lat="45.40951" lon="6.61985">
        <ele>2090.99</ele>
        <time>2016-01-31T11:19:13.037+01:00</time>
      </trkpt>
      <trkpt lat="45.40948" lon="6.61998">
        <ele>2089.3</ele>
        <time>2016-01-31T11:19:15.035+01:00</time>
      </trkpt>
      <trkpt lat="45.40948" lon="6.62012">
        <ele>2087.81</ele>
        <time>2016-01-31T11:19:17.050+01:00</time>
      </trkpt>
      <trkpt lat="45.40956" lon="6.62021">
        <ele>2085.4</ele>
        <time>2016-01-31T11:19:21.063+01:00</time>
      </trkpt>
      <trkpt lat="45.40966" lon="6.62019">
        <ele>2084.02</ele>
        <time>2016-01-31T11:19:25.072+01:00</time>
      </trkpt>
      <trkpt lat="45.40976" lon="6.62019">
        <ele>2082.78</ele>
        <time>2016-01-31T11:19:35.050+01:00</time>
      </trkpt>
      <trkpt lat="45.40985" lon="6.62023">
        <ele>2079.64</ele>
        <time>2016-01-31T11:19:38.044+01:00</time>
      </trkpt>
      <trkpt lat="45.4099" lon="6.62036">
        <ele>2076.44</ele>
        <time>2016-01-31T11:19:40.051+01:00</time>
      </trkpt>
      <trkpt lat="45.40998" lon="6.62047">
        <ele>2073.52</ele>
        <time>2016-01-31T11:19:42.051+01:00</time>
      </trkpt>
      <trkpt lat="45.41006" lon="6.6206">
        <ele>2069.39</ele>
        <time>2016-01-31T11:19:44.067+01:00</time>
      </trkpt>
      <trkpt lat="45.41011" lon="6.62073">
        <ele>2068.01</ele>
        <time>2016-01-31T11:19:46.054+01:00</time>
      </trkpt>
      <trkpt lat="45.41017" lon="6.62087">
        <ele>2064.91</ele>
        <time>2016-01-31T11:19:48.066+01:00</time>
      </trkpt>
      <trkpt lat="45.41025" lon="6.62101">
        <ele>2060.67</ele>
        <time>2016-01-31T11:19:51.054+01:00</time>
      </trkpt>
      <trkpt lat="45.41034" lon="6.6212">
        <ele>2055.82</ele>
        <time>2016-01-31T11:19:54.064+01:00</time>
      </trkpt>
      <trkpt lat="45.41042" lon="6.62133">
        <ele>2052.17</ele>
        <time>2016-01-31T11:19:56.066+01:00</time>
      </trkpt>
      <trkpt lat="45.41046" lon="6.62151">
        <ele>2048.85</ele>
        <time>2016-01-31T11:19:59.078+01:00</time>
      </trkpt>
      <trkpt lat="45.41053" lon="6.62161">
        <ele>2046.09</ele>
        <time>2016-01-31T11:20:01.069+01:00</time>
      </trkpt>
      <trkpt lat="45.41061" lon="6.62174">
        <ele>2042.11</ele>
        <time>2016-01-31T11:20:03.067+01:00</time>
      </trkpt>
      <trkpt lat="45.41062" lon="6.6219">
        <ele>2039.04</ele>
        <time>2016-01-31T11:20:05.071+01:00</time>
      </trkpt>
      <trkpt lat="45.41059" lon="6.62202">
        <ele>2036.68</ele>
        <time>2016-01-31T11:20:07.084+01:00</time>
      </trkpt>
      <trkpt lat="45.4106" lon="6.62217">
        <ele>2035.32</ele>
        <time>2016-01-31T11:20:09.063+01:00</time>
      </trkpt>
      <trkpt lat="45.4107" lon="6.62222">
        <ele>2033.58</ele>
        <time>2016-01-31T11:20:11.065+01:00</time>
      </trkpt>
      <trkpt lat="45.41079" lon="6.62231">
        <ele>2031.03</ele>
        <time>2016-01-31T11:20:13.068+01:00</time>
      </trkpt>
      <trkpt lat="45.41089" lon="6.62242">
        <ele>2027.28</ele>
        <time>2016-01-31T11:20:16.066+01:00</time>
      </trkpt>
      <trkpt lat="45.41098" lon="6.62249">
        <ele>2025.52</ele>
        <time>2016-01-31T11:20:18.050+01:00</time>
      </trkpt>
      <trkpt lat="45.41107" lon="6.62253">
        <ele>2023.36</ele>
        <time>2016-01-31T11:20:20.049+01:00</time>
      </trkpt>
      <trkpt lat="45.41116" lon="6.62271">
        <ele>2017.56</ele>
        <time>2016-01-31T11:20:23.065+01:00</time>
      </trkpt>
      <trkpt lat="45.41121" lon="6.62286">
        <ele>2013.19</ele>
        <time>2016-01-31T11:20:26.035+01:00</time>
      </trkpt>
      <trkpt lat="45.41129" lon="6.62297">
        <ele>2011.35</ele>
        <time>2016-01-31T11:20:28.064+01:00</time>
      </trkpt>
      <trkpt lat="45.41133" lon="6.62312">
        <ele>2006.68</ele>
        <time>2016-01-31T11:20:47.065+01:00</time>
      </trkpt>
      <trkpt lat="45.41143" lon="6.62325">
        <ele>2003.83</ele>
        <time>2016-01-31T11:20:50.067+01:00</time>
      </trkpt>
      <trkpt lat="45.41148" lon="6.62343">
        <ele>1998.41</ele>
        <time>2016-01-31T11:20:53.092+01:00</time>
      </trkpt>
      <trkpt lat="45.41153" lon="6.6236">
        <ele>1995.22</ele>
        <time>2016-01-31T11:20:56.068+01:00</time>
      </trkpt>
      <trkpt lat="45.41159" lon="6.62377">
        <ele>1991.7</ele>
        <time>2016-01-31T11:20:59.067+01:00</time>
      </trkpt>
      <trkpt lat="45.41165" lon="6.62392">
        <ele>1989.51</ele>
        <time>2016-01-31T11:21:01.053+01:00</time>
      </trkpt>
      <trkpt lat="45.41168" lon="6.62406">
        <ele>1985.14</ele>
        <time>2016-01-31T11:21:04.064+01:00</time>
      </trkpt>
      <trkpt lat="45.41178" lon="6.62408">
        <ele>1979.39</ele>
        <time>2016-01-31T11:21:08.061+01:00</time>
      </trkpt>
      <trkpt lat="45.41187" lon="6.62415">
        <ele>1973.07</ele>
        <time>2016-01-31T11:21:25.047+01:00</time>
      </trkpt>
      <trkpt lat="45.41189" lon="6.62429">
        <ele>1969.99</ele>
        <time>2016-01-31T11:21:27.050+01:00</time>
      </trkpt>
      <trkpt lat="45.41193" lon="6.62457">
        <ele>1963.16</ele>
        <time>2016-01-31T11:21:30.064+01:00</time>
      </trkpt>
      <trkpt lat="45.41196" lon="6.62472">
        <ele>1958.25</ele>
        <time>2016-01-31T11:21:32.065+01:00</time>
      </trkpt>
      <trkpt lat="45.4119" lon="6.62491">
        <ele>1953.71</ele>
        <time>2016-01-31T11:21:35.067+01:00</time>
      </trkpt>
      <trkpt lat="45.41189" lon="6.62508">
        <ele>1946.17</ele>
        <time>2016-01-31T11:22:09.066+01:00</time>
      </trkpt>
      <trkpt lat="45.41193" lon="6.62521">
        <ele>1942.29</ele>
        <time>2016-01-31T11:22:11.067+01:00</time>
      </trkpt>
      <trkpt lat="45.41198" lon="6.62538">
        <ele>1937.2</ele>
        <time>2016-01-31T11:22:13.065+01:00</time>
      </trkpt>
      <trkpt lat="45.41206" lon="6.62552">
        <ele>1933.06</ele>
        <time>2016-01-31T11:22:15.067+01:00</time>
      </trkpt>
      <trkpt lat="45.41213" lon="6.62564">
        <ele>1928.46</ele>
        <time>2016-01-31T11:22:17.068+01:00</time>
      </trkpt>
      <trkpt lat="45.41219" lon="6.62579">
        <ele>1923.34</ele>
        <time>2016-01-31T11:22:20.069+01:00</time>
      </trkpt>
      <trkpt lat="45.4122" lon="6.62595">
        <ele>1917.87</ele>
        <time>2016-01-31T11:22:23.052+01:00</time>
      </trkpt>
      <trkpt lat="45.41217" lon="6.62608">
        <ele>1944.08</ele>
        <time>2016-01-31T11:22:26.036+01:00</time>
      </trkpt>
      <trkpt lat="45.41214" lon="6.62623">
        <ele>1907.43</ele>
        <time>2016-01-31T11:22:43.068+01:00</time>
      </trkpt>
      <trkpt lat="45.41219" lon="6.62636">
        <ele>1904.33</ele>
        <time>2016-01-31T11:22:45.067+01:00</time>
      </trkpt>
      <trkpt lat="45.41227" lon="6.62649">
        <ele>1899.34</ele>
        <time>2016-01-31T11:22:48.066+01:00</time>
      </trkpt>
      <trkpt lat="45.41233" lon="6.62666">
        <ele>1896.69</ele>
        <time>2016-01-31T11:22:51.072+01:00</time>
      </trkpt>
      <trkpt lat="45.4124" lon="6.62686">
        <ele>1891.14</ele>
        <time>2016-01-31T11:22:54.064+01:00</time>
      </trkpt>
      <trkpt lat="45.41245" lon="6.62699">
        <ele>1886.74</ele>
        <time>2016-01-31T11:22:56.057+01:00</time>
      </trkpt>
      <trkpt lat="45.41249" lon="6.62715">
        <ele>1879.69</ele>
        <time>2016-01-31T11:22:59.065+01:00</time>
      </trkpt>
      <trkpt lat="45.4126" lon="6.62715">
        <ele>1877.72</ele>
        <time>2016-01-31T11:23:01.064+01:00</time>
      </trkpt>
      <trkpt lat="45.41254" lon="6.62725">
        <ele>1873.24</ele>
        <time>2016-01-31T11:23:31.065+01:00</time>
      </trkpt>
      <trkpt lat="45.41257" lon="6.62739">
        <ele>1869.96</ele>
        <time>2016-01-31T11:23:33.066+01:00</time>
      </trkpt>
      <trkpt lat="45.4126" lon="6.62754">
        <ele>1869.23</ele>
        <time>2016-01-31T11:23:35.054+01:00</time>
      </trkpt>
      <trkpt lat="45.41267" lon="6.62772">
        <ele>1866.21</ele>
        <time>2016-01-31T11:23:37.062+01:00</time>
      </trkpt>
      <trkpt lat="45.41275" lon="6.62783">
        <ele>1862.8</ele>
        <time>2016-01-31T11:23:40.065+01:00</time>
      </trkpt>
      <trkpt lat="45.41284" lon="6.62785">
        <ele>1860.69</ele>
        <time>2016-01-31T11:23:44.064+01:00</time>
      </trkpt>
      <trkpt lat="45.41277" lon="6.62793">
        <ele>1859.01</ele>
        <time>2016-01-31T11:23:50.052+01:00</time>
      </trkpt>
      <trkpt lat="45.41281" lon="6.62809">
        <ele>1856.99</ele>
        <time>2016-01-31T11:23:54.066+01:00</time>
      </trkpt>
      <trkpt lat="45.41285" lon="6.62826">
        <ele>1853.33</ele>
        <time>2016-01-31T11:23:56.065+01:00</time>
      </trkpt>
      <trkpt lat="45.4129" lon="6.62844">
        <ele>1849.7</ele>
        <time>2016-01-31T11:23:58.064+01:00</time>
      </trkpt>
      <trkpt lat="45.41294" lon="6.62863">
        <ele>1844.5</ele>
        <time>2016-01-31T11:24:01.063+01:00</time>
      </trkpt>
      <trkpt lat="45.41299" lon="6.62882">
        <ele>1840.11</ele>
        <time>2016-01-31T11:24:03.088+01:00</time>
      </trkpt>
      <trkpt lat="45.41302" lon="6.62899">
        <ele>1836.45</ele>
        <time>2016-01-31T11:24:05.065+01:00</time>
      </trkpt>
      <trkpt lat="45.41306" lon="6.62917">
        <ele>1832.15</ele>
        <time>2016-01-31T11:24:07.072+01:00</time>
      </trkpt>
      <trkpt lat="45.41311" lon="6.62929">
        <ele>1829.91</ele>
        <time>2016-01-31T11:24:09.067+01:00</time>
      </trkpt>
      <trkpt lat="45.41311" lon="6.62948">
        <ele>1825.99</ele>
        <time>2016-01-31T11:24:11.064+01:00</time>
      </trkpt>
      <trkpt lat="45.41319" lon="6.62953">
        <ele>1824.29</ele>
        <time>2016-01-31T11:24:13.066+01:00</time>
      </trkpt>
      <trkpt lat="45.41323" lon="6.62975">
        <ele>1821.33</ele>
        <time>2016-01-31T11:24:16.051+01:00</time>
      </trkpt>
      <trkpt lat="45.41329" lon="6.62991">
        <ele>1818.26</ele>
        <time>2016-01-31T11:24:18.038+01:00</time>
      </trkpt>
      <trkpt lat="45.41335" lon="6.63">
        <ele>1813.71</ele>
        <time>2016-01-31T11:24:20.040+01:00</time>
      </trkpt>
      <trkpt lat="45.41336" lon="6.63019">
        <ele>1808.47</ele>
        <time>2016-01-31T11:24:23.041+01:00</time>
      </trkpt>
      <trkpt lat="45.41339" lon="6.63041">
        <ele>1804.24</ele>
        <time>2016-01-31T11:24:25.044+01:00</time>
      </trkpt>
      <trkpt lat="45.41337" lon="6.63056">
        <ele>1796.32</ele>
        <time>2016-01-31T11:24:53.066+01:00</time>
      </trkpt>
      <trkpt lat="45.41337" lon="6.63071">
        <ele>1791.17</ele>
        <time>2016-01-31T11:24:56.055+01:00</time>
      </trkpt>
      <trkpt lat="45.41341" lon="6.63092">
        <ele>1789.03</ele>
        <time>2016-01-31T11:24:58.037+01:00</time>
      </trkpt>
      <trkpt lat="45.41341" lon="6.63109">
        <ele>1785.66</ele>
        <time>2016-01-31T11:25:00.065+01:00</time>
      </trkpt>
      <trkpt lat="45.4134" lon="6.63123">
        <ele>1782.17</ele>
        <time>2016-01-31T11:25:02.069+01:00</time>
      </trkpt>
      <trkpt lat="45.41347" lon="6.63133">
        <ele>1779.38</ele>
        <time>2016-01-31T11:25:04.070+01:00</time>
      </trkpt>
      <trkpt lat="45.41356" lon="6.63151">
        <ele>1777.14</ele>
        <time>2016-01-31T11:25:06.068+01:00</time>
      </trkpt>
      <trkpt lat="45.41368" lon="6.6316">
        <ele>1774.31</ele>
        <time>2016-01-31T11:25:08.067+01:00</time>
      </trkpt>
      <trkpt lat="45.41376" lon="6.63175">
        <ele>1771.87</ele>
        <time>2016-01-31T11:25:10.068+01:00</time>
      </trkpt>
      <trkpt lat="45.41381" lon="6.63196">
        <ele>1769.33</ele>
        <time>2016-01-31T11:25:12.065+01:00</time>
      </trkpt>
      <trkpt lat="45.41385" lon="6.63216">
        <ele>1767.88</ele>
        <time>2016-01-31T11:25:14.056+01:00</time>
      </trkpt>
      <trkpt lat="45.41389" lon="6.63236">
        <ele>1765.72</ele>
        <time>2016-01-31T11:25:16.067+01:00</time>
      </trkpt>
      <trkpt lat="45.414" lon="6.63247">
        <ele>1764.26</ele>
        <time>2016-01-31T11:25:18.066+01:00</time>
      </trkpt>
      <trkpt lat="45.41413" lon="6.63253">
        <ele>1762.68</ele>
        <time>2016-01-31T11:25:20.064+01:00</time>
      </trkpt>
      <trkpt lat="45.41426" lon="6.63253">
        <ele>1762.14</ele>
        <time>2016-01-31T11:25:22.063+01:00</time>
      </trkpt>
      <trkpt lat="45.41436" lon="6.63262">
        <ele>1761.15</ele>
        <time>2016-01-31T11:25:24.064+01:00</time>
      </trkpt>
      <trkpt lat="45.41441" lon="6.63275">
        <ele>1758.96</ele>
        <time>2016-01-31T11:25:26.065+01:00</time>
      </trkpt>
      <trkpt lat="45.41446" lon="6.63289">
        <ele>1757.84</ele>
        <time>2016-01-31T11:25:28.068+01:00</time>
      </trkpt>
      <trkpt lat="45.41454" lon="6.63299">
        <ele>1756.09</ele>
        <time>2016-01-31T11:25:30.064+01:00</time>
      </trkpt>
      <trkpt lat="45.41465" lon="6.63303">
        <ele>1754.44</ele>
        <time>2016-01-31T11:25:33.065+01:00</time>
      </trkpt>
      <trkpt lat="45.41474" lon="6.63297">
        <ele>1754.14</ele>
        <time>2016-01-31T11:26:04.068+01:00</time>
      </trkpt>
      <trkpt lat="45.41482" lon="6.63291">
        <ele>1755.96</ele>
        <time>2016-01-31T11:26:31.074+01:00</time>
      </trkpt>
      <trkpt lat="45.41491" lon="6.63292">
        <ele>1757.68</ele>
        <time>2016-01-31T11:27:04.051+01:00</time>
      </trkpt>
      <trkpt lat="45.415" lon="6.633">
        <ele>1757.77</ele>
        <time>2016-01-31T11:27:13.064+01:00</time>
      </trkpt>
      <trkpt lat="45.415" lon="6.63316">
        <ele>1758.57</ele>
        <time>2016-01-31T11:27:19.047+01:00</time>
      </trkpt>
      <trkpt lat="45.41493" lon="6.63324">
        <ele>1758.9</ele>
        <time>2016-01-31T11:27:51.063+01:00</time>
      </trkpt>
      <trkpt lat="45.41482" lon="6.63311">
        <ele>1759.74</ele>
        <time>2016-01-31T11:29:02.057+01:00</time>
      </trkpt>
      <trkpt lat="45.41472" lon="6.63302">
        <ele>1760.75</ele>
        <time>2016-01-31T11:29:04.055+01:00</time>
      </trkpt>
      <trkpt lat="45.41461" lon="6.63294">
        <ele>1762.73</ele>
        <time>2016-01-31T11:29:06.072+01:00</time>
      </trkpt>
      <trkpt lat="45.4145" lon="6.63284">
        <ele>1764.8</ele>
        <time>2016-01-31T11:29:08.116+01:00</time>
      </trkpt>
      <trkpt lat="45.41438" lon="6.63277">
        <ele>1767.36</ele>
        <time>2016-01-31T11:29:10.051+01:00</time>
      </trkpt>
      <trkpt lat="45.41425" lon="6.63267">
        <ele>1770.3</ele>
        <time>2016-01-31T11:29:13.071+01:00</time>
      </trkpt>
      <trkpt lat="45.41416" lon="6.63261">
        <ele>1772.39</ele>
        <time>2016-01-31T11:29:15.055+01:00</time>
      </trkpt>
      <trkpt lat="45.41406" lon="6.63254">
        <ele>1774.04</ele>
        <time>2016-01-31T11:29:17.055+01:00</time>
      </trkpt>
      <trkpt lat="45.41398" lon="6.63247">
        <ele>1774.94</ele>
        <time>2016-01-31T11:29:19.046+01:00</time>
      </trkpt>
      <trkpt lat="45.41385" lon="6.63241">
        <ele>1776.96</ele>
        <time>2016-01-31T11:29:22.055+01:00</time>
      </trkpt>
      <trkpt lat="45.41377" lon="6.63236">
        <ele>1779.54</ele>
        <time>2016-01-31T11:29:24.068+01:00</time>
      </trkpt>
      <trkpt lat="45.41366" lon="6.63227">
        <ele>1781.96</ele>
        <time>2016-01-31T11:29:26.033+01:00</time>
      </trkpt>
      <trkpt lat="45.41357" lon="6.63222">
        <ele>1784.04</ele>
        <time>2016-01-31T11:29:28.032+01:00</time>
      </trkpt>
      <trkpt lat="45.41347" lon="6.63213">
        <ele>1785.99</ele>
        <time>2016-01-31T11:29:30.037+01:00</time>
      </trkpt>
      <trkpt lat="45.41335" lon="6.63207">
        <ele>1789.48</ele>
        <time>2016-01-31T11:29:33.049+01:00</time>
      </trkpt>
      <trkpt lat="45.41325" lon="6.63202">
        <ele>1791.94</ele>
        <time>2016-01-31T11:29:35.056+01:00</time>
      </trkpt>
      <trkpt lat="45.41317" lon="6.63196">
        <ele>1795.15</ele>
        <time>2016-01-31T11:29:37.052+01:00</time>
      </trkpt>
      <trkpt lat="45.41305" lon="6.63189">
        <ele>1800.21</ele>
        <time>2016-01-31T11:29:40.074+01:00</time>
      </trkpt>
      <trkpt lat="45.41296" lon="6.63183">
        <ele>1801.63</ele>
        <time>2016-01-31T11:29:42.057+01:00</time>
      </trkpt>
      <trkpt lat="45.41285" lon="6.63177">
        <ele>1802.96</ele>
        <time>2016-01-31T11:29:44.051+01:00</time>
      </trkpt>
      <trkpt lat="45.41274" lon="6.63166">
        <ele>1805.34</ele>
        <time>2016-01-31T11:29:47.054+01:00</time>
      </trkpt>
      <trkpt lat="45.41265" lon="6.63159">
        <ele>1807.22</ele>
        <time>2016-01-31T11:29:49.055+01:00</time>
      </trkpt>
      <trkpt lat="45.41253" lon="6.6315">
        <ele>1810.35</ele>
        <time>2016-01-31T11:29:52.048+01:00</time>
      </trkpt>
      <trkpt lat="45.41245" lon="6.63143">
        <ele>1812.79</ele>
        <time>2016-01-31T11:29:54.057+01:00</time>
      </trkpt>
      <trkpt lat="45.41236" lon="6.63137">
        <ele>1815.53</ele>
        <time>2016-01-31T11:29:56.057+01:00</time>
      </trkpt>
      <trkpt lat="45.41228" lon="6.63131">
        <ele>1817.65</ele>
        <time>2016-01-31T11:29:58.046+01:00</time>
      </trkpt>
      <trkpt lat="45.4122" lon="6.63124">
        <ele>1820.33</ele>
        <time>2016-01-31T11:30:00.055+01:00</time>
      </trkpt>
      <trkpt lat="45.41208" lon="6.63115">
        <ele>1824.52</ele>
        <time>2016-01-31T11:30:03.051+01:00</time>
      </trkpt>
      <trkpt lat="45.412" lon="6.63109">
        <ele>1827.84</ele>
        <time>2016-01-31T11:30:05.053+01:00</time>
      </trkpt>
      <trkpt lat="45.41192" lon="6.63102">
        <ele>1831.27</ele>
        <time>2016-01-31T11:30:07.043+01:00</time>
      </trkpt>
      <trkpt lat="45.41181" lon="6.63092">
        <ele>1832.74</ele>
        <time>2016-01-31T11:30:10.057+01:00</time>
      </trkpt>
      <trkpt lat="45.41171" lon="6.63087">
        <ele>1832.72</ele>
        <time>2016-01-31T11:30:12.054+01:00</time>
      </trkpt>
      <trkpt lat="45.41164" lon="6.6308">
        <ele>1832.57</ele>
        <time>2016-01-31T11:30:14.050+01:00</time>
      </trkpt>
      <trkpt lat="45.41148" lon="6.63069">
        <ele>1833.2</ele>
        <time>2016-01-31T11:30:17.051+01:00</time>
      </trkpt>
      <trkpt lat="45.41136" lon="6.63067">
        <ele>1834.31</ele>
        <time>2016-01-31T11:30:20.053+01:00</time>
      </trkpt>
      <trkpt lat="45.41129" lon="6.6306">
        <ele>1834.79</ele>
        <time>2016-01-31T11:30:22.064+01:00</time>
      </trkpt>
      <trkpt lat="45.41119" lon="6.63051">
        <ele>1836.12</ele>
        <time>2016-01-31T11:30:24.070+01:00</time>
      </trkpt>
      <trkpt lat="45.4111" lon="6.63048">
        <ele>1836.6</ele>
        <time>2016-01-31T11:30:26.059+01:00</time>
      </trkpt>
      <trkpt lat="45.41097" lon="6.63046">
        <ele>1837.71</ele>
        <time>2016-01-31T11:30:28.048+01:00</time>
      </trkpt>
      <trkpt lat="45.41088" lon="6.63038">
        <ele>1839.03</ele>
        <time>2016-01-31T11:30:30.046+01:00</time>
      </trkpt>
      <trkpt lat="45.41076" lon="6.63029">
        <ele>1841.3</ele>
        <time>2016-01-31T11:30:33.076+01:00</time>
      </trkpt>
      <trkpt lat="45.41067" lon="6.63023">
        <ele>1843.28</ele>
        <time>2016-01-31T11:30:35.091+01:00</time>
      </trkpt>
      <trkpt lat="45.41059" lon="6.63016">
        <ele>1844.45</ele>
        <time>2016-01-31T11:30:37.060+01:00</time>
      </trkpt>
      <trkpt lat="45.4105" lon="6.63009">
        <ele>1844.56</ele>
        <time>2016-01-31T11:30:39.051+01:00</time>
      </trkpt>
      <trkpt lat="45.41042" lon="6.63004">
        <ele>1844.59</ele>
        <time>2016-01-31T11:30:41.056+01:00</time>
      </trkpt>
      <trkpt lat="45.41027" lon="6.62997">
        <ele>1845.6</ele>
        <time>2016-01-31T11:30:44.053+01:00</time>
      </trkpt>
      <trkpt lat="45.41018" lon="6.62991">
        <ele>1846.44</ele>
        <time>2016-01-31T11:30:46.050+01:00</time>
      </trkpt>
      <trkpt lat="45.41007" lon="6.62984">
        <ele>1847.13</ele>
        <time>2016-01-31T11:30:48.050+01:00</time>
      </trkpt>
      <trkpt lat="45.40999" lon="6.62978">
        <ele>1848.06</ele>
        <time>2016-01-31T11:30:50.079+01:00</time>
      </trkpt>
      <trkpt lat="45.4099" lon="6.62971">
        <ele>1849.23</ele>
        <time>2016-01-31T11:30:52.079+01:00</time>
      </trkpt>
      <trkpt lat="45.40981" lon="6.62963">
        <ele>1850.67</ele>
        <time>2016-01-31T11:30:55.074+01:00</time>
      </trkpt>
      <trkpt lat="45.40971" lon="6.62953">
        <ele>1852.32</ele>
        <time>2016-01-31T11:30:57.077+01:00</time>
      </trkpt>
      <trkpt lat="45.40961" lon="6.6295">
        <ele>1853.8</ele>
        <time>2016-01-31T11:30:59.093+01:00</time>
      </trkpt>
      <trkpt lat="45.40953" lon="6.62943">
        <ele>1855.63</ele>
        <time>2016-01-31T11:31:01.075+01:00</time>
      </trkpt>
      <trkpt lat="45.40941" lon="6.62935">
        <ele>1858.32</ele>
        <time>2016-01-31T11:31:04.063+01:00</time>
      </trkpt>
      <trkpt lat="45.40933" lon="6.62926">
        <ele>1859.63</ele>
        <time>2016-01-31T11:31:06.075+01:00</time>
      </trkpt>
      <trkpt lat="45.40924" lon="6.62919">
        <ele>1859.61</ele>
        <time>2016-01-31T11:31:08.067+01:00</time>
      </trkpt>
      <trkpt lat="45.40914" lon="6.62913">
        <ele>1860.01</ele>
        <time>2016-01-31T11:31:10.063+01:00</time>
      </trkpt>
      <trkpt lat="45.40905" lon="6.62908">
        <ele>1860.6</ele>
        <time>2016-01-31T11:31:12.064+01:00</time>
      </trkpt>
      <trkpt lat="45.40896" lon="6.62901">
        <ele>1861.88</ele>
        <time>2016-01-31T11:31:14.055+01:00</time>
      </trkpt>
      <trkpt lat="45.40887" lon="6.62895">
        <ele>1862.8</ele>
        <time>2016-01-31T11:31:16.061+01:00</time>
      </trkpt>
      <trkpt lat="45.40874" lon="6.62887">
        <ele>1864.46</ele>
        <time>2016-01-31T11:31:19.057+01:00</time>
      </trkpt>
      <trkpt lat="45.40864" lon="6.6288">
        <ele>1865.71</ele>
        <time>2016-01-31T11:31:22.042+01:00</time>
      </trkpt>
      <trkpt lat="45.40854" lon="6.62873">
        <ele>1867.19</ele>
        <time>2016-01-31T11:31:24.047+01:00</time>
      </trkpt>
      <trkpt lat="45.40844" lon="6.62867">
        <ele>1868.76</ele>
        <time>2016-01-31T11:31:26.050+01:00</time>
      </trkpt>
      <trkpt lat="45.40836" lon="6.6286">
        <ele>1870.74</ele>
        <time>2016-01-31T11:31:28.049+01:00</time>
      </trkpt>
      <trkpt lat="45.40827" lon="6.62856">
        <ele>1872.66</ele>
        <time>2016-01-31T11:31:30.072+01:00</time>
      </trkpt>
      <trkpt lat="45.40819" lon="6.62848">
        <ele>1872.96</ele>
        <time>2016-01-31T11:31:32.048+01:00</time>
      </trkpt>
      <trkpt lat="45.40809" lon="6.6284">
        <ele>1873.53</ele>
        <time>2016-01-31T11:31:34.056+01:00</time>
      </trkpt>
      <trkpt lat="45.40797" lon="6.62831">
        <ele>1874.59</ele>
        <time>2016-01-31T11:31:37.055+01:00</time>
      </trkpt>
      <trkpt lat="45.40786" lon="6.62827">
        <ele>1875.82</ele>
        <time>2016-01-31T11:31:39.052+01:00</time>
      </trkpt>
      <trkpt lat="45.40776" lon="6.62819">
        <ele>1877.45</ele>
        <time>2016-01-31T11:31:42.051+01:00</time>
      </trkpt>
      <trkpt lat="45.40762" lon="6.62811">
        <ele>1879.29</ele>
        <time>2016-01-31T11:31:45.047+01:00</time>
      </trkpt>
      <trkpt lat="45.40752" lon="6.628">
        <ele>1880.88</ele>
        <time>2016-01-31T11:31:47.051+01:00</time>
      </trkpt>
      <trkpt lat="45.40745" lon="6.62792">
        <ele>1882.57</ele>
        <time>2016-01-31T11:31:49.067+01:00</time>
      </trkpt>
      <trkpt lat="45.40736" lon="6.62785">
        <ele>1884.65</ele>
        <time>2016-01-31T11:31:51.061+01:00</time>
      </trkpt>
      <trkpt lat="45.40727" lon="6.6278">
        <ele>1885.44</ele>
        <time>2016-01-31T11:31:53.056+01:00</time>
      </trkpt>
      <trkpt lat="45.40718" lon="6.62777">
        <ele>1885.11</ele>
        <time>2016-01-31T11:31:55.056+01:00</time>
      </trkpt>
      <trkpt lat="45.40709" lon="6.62769">
        <ele>1884.97</ele>
        <time>2016-01-31T11:31:57.074+01:00</time>
      </trkpt>
      <trkpt lat="45.40698" lon="6.62759">
        <ele>1885.19</ele>
        <time>2016-01-31T11:32:00.057+01:00</time>
      </trkpt>
      <trkpt lat="45.4069" lon="6.62752">
        <ele>1885.54</ele>
        <time>2016-01-31T11:32:02.051+01:00</time>
      </trkpt>
      <trkpt lat="45.40681" lon="6.62745">
        <ele>1886.2</ele>
        <time>2016-01-31T11:32:04.036+01:00</time>
      </trkpt>
      <trkpt lat="45.4067" lon="6.62738">
        <ele>1887.09</ele>
        <time>2016-01-31T11:32:06.036+01:00</time>
      </trkpt>
      <trkpt lat="45.40658" lon="6.62735">
        <ele>1888.1</ele>
        <time>2016-01-31T11:32:09.032+01:00</time>
      </trkpt>
      <trkpt lat="45.40645" lon="6.62726">
        <ele>1889.78</ele>
        <time>2016-01-31T11:32:12.034+01:00</time>
      </trkpt>
      <trkpt lat="45.40637" lon="6.62717">
        <ele>1891.23</ele>
        <time>2016-01-31T11:32:14.041+01:00</time>
      </trkpt>
      <trkpt lat="45.40625" lon="6.62707">
        <ele>1892.52</ele>
        <time>2016-01-31T11:32:17.055+01:00</time>
      </trkpt>
      <trkpt lat="45.40615" lon="6.627">
        <ele>1892.55</ele>
        <time>2016-01-31T11:32:19.045+01:00</time>
      </trkpt>
      <trkpt lat="45.40606" lon="6.62694">
        <ele>1892.34</ele>
        <time>2016-01-31T11:32:21.051+01:00</time>
      </trkpt>
      <trkpt lat="45.40596" lon="6.62687">
        <ele>1892.35</ele>
        <time>2016-01-31T11:32:23.074+01:00</time>
      </trkpt>
      <trkpt lat="45.40587" lon="6.62678">
        <ele>1892.53</ele>
        <time>2016-01-31T11:32:25.073+01:00</time>
      </trkpt>
      <trkpt lat="45.40577" lon="6.62675">
        <ele>1892.73</ele>
        <time>2016-01-31T11:32:27.058+01:00</time>
      </trkpt>
      <trkpt lat="45.40569" lon="6.62668">
        <ele>1893.44</ele>
        <time>2016-01-31T11:32:29.062+01:00</time>
      </trkpt>
      <trkpt lat="45.40558" lon="6.62664">
        <ele>1893.92</ele>
        <time>2016-01-31T11:32:31.067+01:00</time>
      </trkpt>
      <trkpt lat="45.40548" lon="6.62658">
        <ele>1894.55</ele>
        <time>2016-01-31T11:32:33.068+01:00</time>
      </trkpt>
      <trkpt lat="45.40536" lon="6.6265">
        <ele>1896.16</ele>
        <time>2016-01-31T11:32:36.046+01:00</time>
      </trkpt>
      <trkpt lat="45.40526" lon="6.62647">
        <ele>1896.44</ele>
        <time>2016-01-31T11:32:38.050+01:00</time>
      </trkpt>
      <trkpt lat="45.40517" lon="6.6264">
        <ele>1897.7</ele>
        <time>2016-01-31T11:32:40.056+01:00</time>
      </trkpt>
      <trkpt lat="45.40506" lon="6.62634">
        <ele>1899.11</ele>
        <time>2016-01-31T11:32:42.058+01:00</time>
      </trkpt>
      <trkpt lat="45.40498" lon="6.62627">
        <ele>1900.81</ele>
        <time>2016-01-31T11:32:44.057+01:00</time>
      </trkpt>
      <trkpt lat="45.4049" lon="6.62619">
        <ele>1902.44</ele>
        <time>2016-01-31T11:32:46.051+01:00</time>
      </trkpt>
      <trkpt lat="45.40481" lon="6.62613">
        <ele>1904.39</ele>
        <time>2016-01-31T11:32:48.048+01:00</time>
      </trkpt>
      <trkpt lat="45.40471" lon="6.62602">
        <ele>1905.07</ele>
        <time>2016-01-31T11:32:51.042+01:00</time>
      </trkpt>
      <trkpt lat="45.40463" lon="6.62595">
        <ele>1905.11</ele>
        <time>2016-01-31T11:32:53.072+01:00</time>
      </trkpt>
      <trkpt lat="45.40454" lon="6.62593">
        <ele>1905.24</ele>
        <time>2016-01-31T11:32:55.056+01:00</time>
      </trkpt>
      <trkpt lat="45.40445" lon="6.62586">
        <ele>1905.81</ele>
        <time>2016-01-31T11:32:57.055+01:00</time>
      </trkpt>
      <trkpt lat="45.40436" lon="6.62582">
        <ele>1906.6</ele>
        <time>2016-01-31T11:32:59.055+01:00</time>
      </trkpt>
      <trkpt lat="45.40425" lon="6.62572">
        <ele>1907.2</ele>
        <time>2016-01-31T11:33:01.054+01:00</time>
      </trkpt>
      <trkpt lat="45.40415" lon="6.62566">
        <ele>1907.8</ele>
        <time>2016-01-31T11:33:03.059+01:00</time>
      </trkpt>
      <trkpt lat="45.40406" lon="6.62563">
        <ele>1908.6</ele>
        <time>2016-01-31T11:33:05.058+01:00</time>
      </trkpt>
      <trkpt lat="45.40394" lon="6.62554">
        <ele>1910.08</ele>
        <time>2016-01-31T11:33:08.074+01:00</time>
      </trkpt>
      <trkpt lat="45.40386" lon="6.62547">
        <ele>1911.24</ele>
        <time>2016-01-31T11:33:10.053+01:00</time>
      </trkpt>
      <trkpt lat="45.40376" lon="6.62541">
        <ele>1912.91</ele>
        <time>2016-01-31T11:33:12.068+01:00</time>
      </trkpt>
      <trkpt lat="45.40367" lon="6.62536">
        <ele>1914.36</ele>
        <time>2016-01-31T11:33:14.069+01:00</time>
      </trkpt>
      <trkpt lat="45.40358" lon="6.6253">
        <ele>1915.95</ele>
        <time>2016-01-31T11:33:16.060+01:00</time>
      </trkpt>
      <trkpt lat="45.4035" lon="6.62523">
        <ele>1917.44</ele>
        <time>2016-01-31T11:33:18.057+01:00</time>
      </trkpt>
      <trkpt lat="45.40341" lon="6.62515">
        <ele>1919.2</ele>
        <time>2016-01-31T11:33:20.076+01:00</time>
      </trkpt>
      <trkpt lat="45.40332" lon="6.62511">
        <ele>1921.31</ele>
        <time>2016-01-31T11:33:22.055+01:00</time>
      </trkpt>
      <trkpt lat="45.40323" lon="6.62505">
        <ele>1923.38</ele>
        <time>2016-01-31T11:33:24.047+01:00</time>
      </trkpt>
      <trkpt lat="45.40315" lon="6.62498">
        <ele>1924.66</ele>
        <time>2016-01-31T11:33:26.055+01:00</time>
      </trkpt>
      <trkpt lat="45.40303" lon="6.62491">
        <ele>1924.87</ele>
        <time>2016-01-31T11:33:29.057+01:00</time>
      </trkpt>
      <trkpt lat="45.40295" lon="6.62485">
        <ele>1925.82</ele>
        <time>2016-01-31T11:33:31.080+01:00</time>
      </trkpt>
      <trkpt lat="45.40287" lon="6.62478">
        <ele>1926.11</ele>
        <time>2016-01-31T11:33:33.059+01:00</time>
      </trkpt>
      <trkpt lat="45.40279" lon="6.62471">
        <ele>1927.25</ele>
        <time>2016-01-31T11:33:35.059+01:00</time>
      </trkpt>
      <trkpt lat="45.40269" lon="6.62465">
        <ele>1928.39</ele>
        <time>2016-01-31T11:33:37.056+01:00</time>
      </trkpt>
      <trkpt lat="45.40258" lon="6.62459">
        <ele>1929.23</ele>
        <time>2016-01-31T11:33:39.047+01:00</time>
      </trkpt>
      <trkpt lat="45.40248" lon="6.62453">
        <ele>1930.79</ele>
        <time>2016-01-31T11:33:41.054+01:00</time>
      </trkpt>
      <trkpt lat="45.4024" lon="6.62446">
        <ele>1931.59</ele>
        <time>2016-01-31T11:33:43.079+01:00</time>
      </trkpt>
      <trkpt lat="45.40232" lon="6.6244">
        <ele>1933.42</ele>
        <time>2016-01-31T11:33:45.031+01:00</time>
      </trkpt>
      <trkpt lat="45.40223" lon="6.62436">
        <ele>1934.42</ele>
        <time>2016-01-31T11:33:47.031+01:00</time>
      </trkpt>
      <trkpt lat="45.40215" lon="6.62431">
        <ele>1936.66</ele>
        <time>2016-01-31T11:33:49.056+01:00</time>
      </trkpt>
      <trkpt lat="45.40202" lon="6.62425">
        <ele>1938.86</ele>
        <time>2016-01-31T11:33:52.037+01:00</time>
      </trkpt>
      <trkpt lat="45.40193" lon="6.62419">
        <ele>1941.43</ele>
        <time>2016-01-31T11:33:54.060+01:00</time>
      </trkpt>
      <trkpt lat="45.40185" lon="6.62412">
        <ele>1943.21</ele>
        <time>2016-01-31T11:33:56.054+01:00</time>
      </trkpt>
      <trkpt lat="45.40176" lon="6.62404">
        <ele>1945.6</ele>
        <time>2016-01-31T11:33:58.060+01:00</time>
      </trkpt>
      <trkpt lat="45.40169" lon="6.62396">
        <ele>1948.1</ele>
        <time>2016-01-31T11:34:00.058+01:00</time>
      </trkpt>
      <trkpt lat="45.40157" lon="6.62387">
        <ele>1950.96</ele>
        <time>2016-01-31T11:34:03.056+01:00</time>
      </trkpt>
      <trkpt lat="45.40148" lon="6.62382">
        <ele>1951.59</ele>
        <time>2016-01-31T11:34:05.057+01:00</time>
      </trkpt>
      <trkpt lat="45.40139" lon="6.62374">
        <ele>1952.61</ele>
        <time>2016-01-31T11:34:07.055+01:00</time>
      </trkpt>
      <trkpt lat="45.40125" lon="6.62366">
        <ele>1954.58</ele>
        <time>2016-01-31T11:34:10.054+01:00</time>
      </trkpt>
      <trkpt lat="45.40116" lon="6.62361">
        <ele>1955.83</ele>
        <time>2016-01-31T11:34:12.049+01:00</time>
      </trkpt>
      <trkpt lat="45.40103" lon="6.62353">
        <ele>1958.61</ele>
        <time>2016-01-31T11:34:15.076+01:00</time>
      </trkpt>
      <trkpt lat="45.40094" lon="6.62347">
        <ele>1960.63</ele>
        <time>2016-01-31T11:34:17.057+01:00</time>
      </trkpt>
      <trkpt lat="45.40085" lon="6.62341">
        <ele>1962.39</ele>
        <time>2016-01-31T11:34:19.048+01:00</time>
      </trkpt>
      <trkpt lat="45.40075" lon="6.62337">
        <ele>1964.08</ele>
        <time>2016-01-31T11:34:21.032+01:00</time>
      </trkpt>
      <trkpt lat="45.40066" lon="6.62332">
        <ele>1966.24</ele>
        <time>2016-01-31T11:34:23.052+01:00</time>
      </trkpt>
      <trkpt lat="45.40058" lon="6.62326">
        <ele>1968.5</ele>
        <time>2016-01-31T11:34:25.034+01:00</time>
      </trkpt>
      <trkpt lat="45.40048" lon="6.62321">
        <ele>1970.65</ele>
        <time>2016-01-31T11:34:27.032+01:00</time>
      </trkpt>
      <trkpt lat="45.40041" lon="6.62314">
        <ele>1973.12</ele>
        <time>2016-01-31T11:34:29.037+01:00</time>
      </trkpt>
      <trkpt lat="45.40031" lon="6.62309">
        <ele>1974.7</ele>
        <time>2016-01-31T11:34:31.040+01:00</time>
      </trkpt>
      <trkpt lat="45.40023" lon="6.62304">
        <ele>1977.53</ele>
        <time>2016-01-31T11:34:33.045+01:00</time>
      </trkpt>
      <trkpt lat="45.40011" lon="6.62296">
        <ele>1979.3</ele>
        <time>2016-01-31T11:34:36.048+01:00</time>
      </trkpt>
      <trkpt lat="45.40002" lon="6.6229">
        <ele>1980.47</ele>
        <time>2016-01-31T11:34:38.053+01:00</time>
      </trkpt>
      <trkpt lat="45.39993" lon="6.62283">
        <ele>1981.75</ele>
        <time>2016-01-31T11:34:40.053+01:00</time>
      </trkpt>
      <trkpt lat="45.39985" lon="6.62277">
        <ele>1983.28</ele>
        <time>2016-01-31T11:34:42.069+01:00</time>
      </trkpt>
      <trkpt lat="45.39976" lon="6.6227">
        <ele>1984.89</ele>
        <time>2016-01-31T11:34:44.065+01:00</time>
      </trkpt>
      <trkpt lat="45.39968" lon="6.62263">
        <ele>1986.58</ele>
        <time>2016-01-31T11:34:46.048+01:00</time>
      </trkpt>
      <trkpt lat="45.39958" lon="6.62256">
        <ele>1988.13</ele>
        <time>2016-01-31T11:34:48.047+01:00</time>
      </trkpt>
      <trkpt lat="45.3995" lon="6.6225">
        <ele>1989.91</ele>
        <time>2016-01-31T11:34:50.047+01:00</time>
      </trkpt>
      <trkpt lat="45.39942" lon="6.62244">
        <ele>1991.93</ele>
        <time>2016-01-31T11:34:52.045+01:00</time>
      </trkpt>
      <trkpt lat="45.3993" lon="6.62237">
        <ele>1995.71</ele>
        <time>2016-01-31T11:34:55.048+01:00</time>
      </trkpt>
      <trkpt lat="45.3992" lon="6.6223">
        <ele>1998.01</ele>
        <time>2016-01-31T11:34:57.052+01:00</time>
      </trkpt>
      <trkpt lat="45.39911" lon="6.62226">
        <ele>2000.26</ele>
        <time>2016-01-31T11:34:59.068+01:00</time>
      </trkpt>
      <trkpt lat="45.39903" lon="6.62219">
        <ele>2002.61</ele>
        <time>2016-01-31T11:35:01.044+01:00</time>
      </trkpt>
      <trkpt lat="45.39895" lon="6.62212">
        <ele>2005.3</ele>
        <time>2016-01-31T11:35:03.048+01:00</time>
      </trkpt>
      <trkpt lat="45.39886" lon="6.62204">
        <ele>2008.35</ele>
        <time>2016-01-31T11:35:05.047+01:00</time>
      </trkpt>
      <trkpt lat="45.39873" lon="6.622">
        <ele>2011.44</ele>
        <time>2016-01-31T11:35:07.045+01:00</time>
      </trkpt>
      <trkpt lat="45.39863" lon="6.6219">
        <ele>2015.51</ele>
        <time>2016-01-31T11:35:10.076+01:00</time>
      </trkpt>
      <trkpt lat="45.39854" lon="6.62184">
        <ele>2017.25</ele>
        <time>2016-01-31T11:35:12.061+01:00</time>
      </trkpt>
      <trkpt lat="45.39846" lon="6.62178">
        <ele>2018.83</ele>
        <time>2016-01-31T11:35:14.064+01:00</time>
      </trkpt>
      <trkpt lat="45.39838" lon="6.62171">
        <ele>2020.32</ele>
        <time>2016-01-31T11:35:16.063+01:00</time>
      </trkpt>
      <trkpt lat="45.39828" lon="6.62167">
        <ele>2021.77</ele>
        <time>2016-01-31T11:35:18.062+01:00</time>
      </trkpt>
      <trkpt lat="45.39816" lon="6.62155">
        <ele>2025.02</ele>
        <time>2016-01-31T11:35:21.071+01:00</time>
      </trkpt>
      <trkpt lat="45.39805" lon="6.62146">
        <ele>2028.81</ele>
        <time>2016-01-31T11:35:24.069+01:00</time>
      </trkpt>
      <trkpt lat="45.39793" lon="6.62142">
        <ele>2030.71</ele>
        <time>2016-01-31T11:35:26.066+01:00</time>
      </trkpt>
      <trkpt lat="45.39784" lon="6.62136">
        <ele>2032.95</ele>
        <time>2016-01-31T11:35:28.067+01:00</time>
      </trkpt>
      <trkpt lat="45.39775" lon="6.62127">
        <ele>2035.74</ele>
        <time>2016-01-31T11:35:30.065+01:00</time>
      </trkpt>
      <trkpt lat="45.39767" lon="6.62121">
        <ele>2038.52</ele>
        <time>2016-01-31T11:35:32.060+01:00</time>
      </trkpt>
      <trkpt lat="45.39757" lon="6.62116">
        <ele>2041.2</ele>
        <time>2016-01-31T11:35:34.064+01:00</time>
      </trkpt>
      <trkpt lat="45.39749" lon="6.62109">
        <ele>2044.25</ele>
        <time>2016-01-31T11:35:36.078+01:00</time>
      </trkpt>
      <trkpt lat="45.39741" lon="6.62101">
        <ele>2045.49</ele>
        <time>2016-01-31T11:35:38.061+01:00</time>
      </trkpt>
      <trkpt lat="45.39733" lon="6.62092">
        <ele>2048.66</ele>
        <time>2016-01-31T11:35:40.057+01:00</time>
      </trkpt>
      <trkpt lat="45.3972" lon="6.62088">
        <ele>2053.21</ele>
        <time>2016-01-31T11:35:43.079+01:00</time>
      </trkpt>
      <trkpt lat="45.39711" lon="6.62082">
        <ele>2056.18</ele>
        <time>2016-01-31T11:35:45.059+01:00</time>
      </trkpt>
      <trkpt lat="45.39702" lon="6.62076">
        <ele>2059.1</ele>
        <time>2016-01-31T11:35:47.050+01:00</time>
      </trkpt>
      <trkpt lat="45.39693" lon="6.62069">
        <ele>2061.41</ele>
        <time>2016-01-31T11:35:49.053+01:00</time>
      </trkpt>
      <trkpt lat="45.39683" lon="6.62064">
        <ele>2063.58</ele>
        <time>2016-01-31T11:35:51.054+01:00</time>
      </trkpt>
      <trkpt lat="45.39674" lon="6.62058">
        <ele>2065.92</ele>
        <time>2016-01-31T11:35:53.055+01:00</time>
      </trkpt>
      <trkpt lat="45.39665" lon="6.62052">
        <ele>2068.62</ele>
        <time>2016-01-31T11:35:55.050+01:00</time>
      </trkpt>
      <trkpt lat="45.39656" lon="6.62045">
        <ele>2071.48</ele>
        <time>2016-01-31T11:35:57.047+01:00</time>
      </trkpt>
      <trkpt lat="45.39647" lon="6.6204">
        <ele>2074.31</ele>
        <time>2016-01-31T11:35:59.052+01:00</time>
      </trkpt>
      <trkpt lat="45.39634" lon="6.62035">
        <ele>2074.38</ele>
        <time>2016-01-31T11:36:02.066+01:00</time>
      </trkpt>
      <trkpt lat="45.39624" lon="6.6203">
        <ele>2074.72</ele>
        <time>2016-01-31T11:36:04.073+01:00</time>
      </trkpt>
      <trkpt lat="45.39615" lon="6.62024">
        <ele>2074.14</ele>
        <time>2016-01-31T11:36:10.054+01:00</time>
      </trkpt>
      <trkpt lat="45.39616" lon="6.62009">
        <ele>2073.81</ele>
        <time>2016-01-31T11:36:40.039+01:00</time>
      </trkpt>
      <trkpt lat="45.39607" lon="6.62004">
        <ele>2073.78</ele>
        <time>2016-01-31T11:36:47.049+01:00</time>
      </trkpt>
      <trkpt lat="45.39597" lon="6.62005">
        <ele>2073.84</ele>
        <time>2016-01-31T11:37:02.056+01:00</time>
      </trkpt>
      <trkpt lat="45.39605" lon="6.62012">
        <ele>2073.58</ele>
        <time>2016-01-31T11:37:19.050+01:00</time>
      </trkpt>
      <trkpt lat="45.39606" lon="6.61999">
        <ele>2073.47</ele>
        <time>2016-01-31T11:37:31.061+01:00</time>
      </trkpt>
      <trkpt lat="45.39605" lon="6.61986">
        <ele>2073.48</ele>
        <time>2016-01-31T11:37:39.054+01:00</time>
      </trkpt>
      <trkpt lat="45.39605" lon="6.61973">
        <ele>2073.31</ele>
        <time>2016-01-31T11:37:51.058+01:00</time>
      </trkpt>
      <trkpt lat="45.39606" lon="6.61955">
        <ele>2073.15</ele>
        <time>2016-01-31T11:38:05.057+01:00</time>
      </trkpt>
      <trkpt lat="45.39648" lon="6.61961">
        <ele>2074.73</ele>
        <time>2016-01-31T11:38:49.037+01:00</time>
      </trkpt>
      <trkpt lat="45.39639" lon="6.61957">
        <ele>2075.59</ele>
        <time>2016-01-31T11:40:19.051+01:00</time>
      </trkpt>
      <trkpt lat="45.39637" lon="6.61949">
        <ele>2076.66</ele>
        <time>2016-01-31T11:44:28.057+01:00</time>
      </trkpt>
      <trkpt lat="45.39631" lon="6.61939">
        <ele>2085.99</ele>
        <time>2016-01-31T11:45:23.046+01:00</time>
      </trkpt>
      <trkpt lat="45.39623" lon="6.61932">
        <ele>2088.93</ele>
        <time>2016-01-31T11:45:25.055+01:00</time>
      </trkpt>
      <trkpt lat="45.396" lon="6.6192">
        <ele>2093.28</ele>
        <time>2016-01-31T11:45:28.045+01:00</time>
      </trkpt>
      <trkpt lat="45.39587" lon="6.61914">
        <ele>2096.96</ele>
        <time>2016-01-31T11:45:30.038+01:00</time>
      </trkpt>
      <trkpt lat="45.39561" lon="6.61896">
        <ele>2103.99</ele>
        <time>2016-01-31T11:45:33.032+01:00</time>
      </trkpt>
      <trkpt lat="45.39545" lon="6.61884">
        <ele>2108.73</ele>
        <time>2016-01-31T11:45:35.033+01:00</time>
      </trkpt>
      <trkpt lat="45.39528" lon="6.61872">
        <ele>2114.07</ele>
        <time>2016-01-31T11:45:37.071+01:00</time>
      </trkpt>
      <trkpt lat="45.39519" lon="6.61866">
        <ele>2116.91</ele>
        <time>2016-01-31T11:45:38.048+01:00</time>
      </trkpt>
      <trkpt lat="45.39511" lon="6.6186">
        <ele>2120.19</ele>
        <time>2016-01-31T11:45:39.057+01:00</time>
      </trkpt>
      <trkpt lat="45.39494" lon="6.61845">
        <ele>2126.42</ele>
        <time>2016-01-31T11:45:41.041+01:00</time>
      </trkpt>
      <trkpt lat="45.39483" lon="6.61836">
        <ele>2129.21</ele>
        <time>2016-01-31T11:45:42.036+01:00</time>
      </trkpt>
      <trkpt lat="45.39474" lon="6.6183">
        <ele>2095.36</ele>
        <time>2016-01-31T11:45:43.037+01:00</time>
      </trkpt>
      <trkpt lat="45.39465" lon="6.61822">
        <ele>2095.5</ele>
        <time>2016-01-31T11:45:44.038+01:00</time>
      </trkpt>
      <trkpt lat="45.39456" lon="6.61815">
        <ele>2098.06</ele>
        <time>2016-01-31T11:45:45.039+01:00</time>
      </trkpt>
      <trkpt lat="45.39447" lon="6.6181">
        <ele>2100.16</ele>
        <time>2016-01-31T11:45:46.069+01:00</time>
      </trkpt>
      <trkpt lat="45.39422" lon="6.61792">
        <ele>2103.29</ele>
        <time>2016-01-31T11:45:49.037+01:00</time>
      </trkpt>
      <trkpt lat="45.39413" lon="6.61784">
        <ele>2104.2</ele>
        <time>2016-01-31T11:45:50.037+01:00</time>
      </trkpt>
      <trkpt lat="45.39403" lon="6.61776">
        <ele>2105.15</ele>
        <time>2016-01-31T11:45:51.050+01:00</time>
      </trkpt>
      <trkpt lat="45.39394" lon="6.61768">
        <ele>2106.42</ele>
        <time>2016-01-31T11:45:52.063+01:00</time>
      </trkpt>
      <trkpt lat="45.39383" lon="6.61762">
        <ele>2106.37</ele>
        <time>2016-01-31T11:45:53.060+01:00</time>
      </trkpt>
      <trkpt lat="45.39373" lon="6.61755">
        <ele>2107.41</ele>
        <time>2016-01-31T11:45:54.059+01:00</time>
      </trkpt>
      <trkpt lat="45.39363" lon="6.61748">
        <ele>2108.33</ele>
        <time>2016-01-31T11:45:55.052+01:00</time>
      </trkpt>
      <trkpt lat="45.39353" lon="6.61741">
        <ele>2108.67</ele>
        <time>2016-01-31T11:45:56.057+01:00</time>
      </trkpt>
      <trkpt lat="45.39344" lon="6.61733">
        <ele>2108.24</ele>
        <time>2016-01-31T11:45:57.072+01:00</time>
      </trkpt>
      <trkpt lat="45.39333" lon="6.61728">
        <ele>2108.79</ele>
        <time>2016-01-31T11:45:58.068+01:00</time>
      </trkpt>
      <trkpt lat="45.39318" lon="6.61723">
        <ele>2116.18</ele>
        <time>2016-01-31T11:46:00.073+01:00</time>
      </trkpt>
      <trkpt lat="45.39301" lon="6.61712">
        <ele>2119.24</ele>
        <time>2016-01-31T11:46:02.048+01:00</time>
      </trkpt>
      <trkpt lat="45.39293" lon="6.61707">
        <ele>2122.36</ele>
        <time>2016-01-31T11:46:03.067+01:00</time>
      </trkpt>
      <trkpt lat="45.3928" lon="6.61699">
        <ele>2122.4</ele>
        <time>2016-01-31T11:46:04.066+01:00</time>
      </trkpt>
      <trkpt lat="45.39272" lon="6.61692">
        <ele>2123.44</ele>
        <time>2016-01-31T11:46:05.068+01:00</time>
      </trkpt>
      <trkpt lat="45.39264" lon="6.61685">
        <ele>2125.09</ele>
        <time>2016-01-31T11:46:06.062+01:00</time>
      </trkpt>
      <trkpt lat="45.39255" lon="6.61678">
        <ele>2126.26</ele>
        <time>2016-01-31T11:46:07.056+01:00</time>
      </trkpt>
      <trkpt lat="45.39245" lon="6.6167">
        <ele>2128.27</ele>
        <time>2016-01-31T11:46:08.059+01:00</time>
      </trkpt>
      <trkpt lat="45.39233" lon="6.61658">
        <ele>2130.21</ele>
        <time>2016-01-31T11:46:10.054+01:00</time>
      </trkpt>
      <trkpt lat="45.39223" lon="6.61651">
        <ele>2134.51</ele>
        <time>2016-01-31T11:46:11.048+01:00</time>
      </trkpt>
      <trkpt lat="45.39209" lon="6.61642">
        <ele>2142.89</ele>
        <time>2016-01-31T11:46:13.057+01:00</time>
      </trkpt>
      <trkpt lat="45.39199" lon="6.61637">
        <ele>2148.67</ele>
        <time>2016-01-31T11:46:14.056+01:00</time>
      </trkpt>
      <trkpt lat="45.39185" lon="6.6163">
        <ele>2157.59</ele>
        <time>2016-01-31T11:46:16.057+01:00</time>
      </trkpt>
      <trkpt lat="45.39172" lon="6.61619">
        <ele>2164.6</ele>
        <time>2016-01-31T11:46:18.060+01:00</time>
      </trkpt>
      <trkpt lat="45.39164" lon="6.61611">
        <ele>2166.6</ele>
        <time>2016-01-31T11:46:19.056+01:00</time>
      </trkpt>
      <trkpt lat="45.39156" lon="6.61604">
        <ele>2169.16</ele>
        <time>2016-01-31T11:46:20.055+01:00</time>
      </trkpt>
      <trkpt lat="45.39144" lon="6.61595">
        <ele>2178.99</ele>
        <time>2016-01-31T11:46:22.057+01:00</time>
      </trkpt>
      <trkpt lat="45.39129" lon="6.61584">
        <ele>2188.27</ele>
        <time>2016-01-31T11:46:24.055+01:00</time>
      </trkpt>
      <trkpt lat="45.39117" lon="6.61579">
        <ele>2197.81</ele>
        <time>2016-01-31T11:46:26.055+01:00</time>
      </trkpt>
      <trkpt lat="45.39105" lon="6.61572">
        <ele>2201.95</ele>
        <time>2016-01-31T11:46:28.046+01:00</time>
      </trkpt>
      <trkpt lat="45.39085" lon="6.61559">
        <ele>2202.89</ele>
        <time>2016-01-31T11:46:30.078+01:00</time>
      </trkpt>
      <trkpt lat="45.39076" lon="6.61552">
        <ele>2204.54</ele>
        <time>2016-01-31T11:46:31.079+01:00</time>
      </trkpt>
      <trkpt lat="45.39062" lon="6.6154">
        <ele>2209.5</ele>
        <time>2016-01-31T11:46:33.063+01:00</time>
      </trkpt>
      <trkpt lat="45.39044" lon="6.61528">
        <ele>2213.33</ele>
        <time>2016-01-31T11:46:35.051+01:00</time>
      </trkpt>
      <trkpt lat="45.39035" lon="6.61522">
        <ele>2215.71</ele>
        <time>2016-01-31T11:46:36.056+01:00</time>
      </trkpt>
      <trkpt lat="45.39026" lon="6.61515">
        <ele>2217.12</ele>
        <time>2016-01-31T11:46:37.057+01:00</time>
      </trkpt>
      <trkpt lat="45.39018" lon="6.61508">
        <ele>2220.01</ele>
        <time>2016-01-31T11:46:38.060+01:00</time>
      </trkpt>
      <trkpt lat="45.39002" lon="6.61497">
        <ele>2223.85</ele>
        <time>2016-01-31T11:46:40.067+01:00</time>
      </trkpt>
      <trkpt lat="45.38984" lon="6.61488">
        <ele>2230.92</ele>
        <time>2016-01-31T11:46:42.062+01:00</time>
      </trkpt>
      <trkpt lat="45.38975" lon="6.61482">
        <ele>2235.65</ele>
        <time>2016-01-31T11:46:43.071+01:00</time>
      </trkpt>
      <trkpt lat="45.38958" lon="6.6147">
        <ele>2239.41</ele>
        <time>2016-01-31T11:46:45.056+01:00</time>
      </trkpt>
      <trkpt lat="45.38949" lon="6.61464">
        <ele>2243.2</ele>
        <time>2016-01-31T11:46:46.058+01:00</time>
      </trkpt>
      <trkpt lat="45.38934" lon="6.61455">
        <ele>2250</ele>
        <time>2016-01-31T11:46:48.059+01:00</time>
      </trkpt>
      <trkpt lat="45.38926" lon="6.61446">
        <ele>2251.65</ele>
        <time>2016-01-31T11:46:49.053+01:00</time>
      </trkpt>
      <trkpt lat="45.38917" lon="6.61439">
        <ele>2252.94</ele>
        <time>2016-01-31T11:46:50.052+01:00</time>
      </trkpt>
      <trkpt lat="45.38903" lon="6.61431">
        <ele>2257.05</ele>
        <time>2016-01-31T11:46:52.054+01:00</time>
      </trkpt>
      <trkpt lat="45.38889" lon="6.61422">
        <ele>2261.16</ele>
        <time>2016-01-31T11:46:54.059+01:00</time>
      </trkpt>
      <trkpt lat="45.38879" lon="6.61416">
        <ele>2263.48</ele>
        <time>2016-01-31T11:46:55.058+01:00</time>
      </trkpt>
      <trkpt lat="45.3887" lon="6.61407">
        <ele>2265.35</ele>
        <time>2016-01-31T11:46:56.059+01:00</time>
      </trkpt>
      <trkpt lat="45.38863" lon="6.61399">
        <ele>2267.89</ele>
        <time>2016-01-31T11:46:57.057+01:00</time>
      </trkpt>
      <trkpt lat="45.38855" lon="6.61386">
        <ele>2270.26</ele>
        <time>2016-01-31T11:46:58.077+01:00</time>
      </trkpt>
      <trkpt lat="45.38838" lon="6.61372">
        <ele>2274.89</ele>
        <time>2016-01-31T11:47:00.070+01:00</time>
      </trkpt>
      <trkpt lat="45.38822" lon="6.61357">
        <ele>2281.06</ele>
        <time>2016-01-31T11:47:02.077+01:00</time>
      </trkpt>
      <trkpt lat="45.38813" lon="6.6135">
        <ele>2284.95</ele>
        <time>2016-01-31T11:47:03.056+01:00</time>
      </trkpt>
      <trkpt lat="45.38805" lon="6.61342">
        <ele>2287.54</ele>
        <time>2016-01-31T11:47:04.073+01:00</time>
      </trkpt>
      <trkpt lat="45.38789" lon="6.6133">
        <ele>2292</ele>
        <time>2016-01-31T11:47:06.074+01:00</time>
      </trkpt>
      <trkpt lat="45.38773" lon="6.61318">
        <ele>2294.09</ele>
        <time>2016-01-31T11:47:08.072+01:00</time>
      </trkpt>
      <trkpt lat="45.38756" lon="6.61312">
        <ele>2298.65</ele>
        <time>2016-01-31T11:47:10.078+01:00</time>
      </trkpt>
      <trkpt lat="45.38743" lon="6.61304">
        <ele>2303.96</ele>
        <time>2016-01-31T11:47:12.077+01:00</time>
      </trkpt>
      <trkpt lat="45.38728" lon="6.61293">
        <ele>2310.2</ele>
        <time>2016-01-31T11:47:14.076+01:00</time>
      </trkpt>
      <trkpt lat="45.38713" lon="6.61279">
        <ele>2315.02</ele>
        <time>2016-01-31T11:47:16.065+01:00</time>
      </trkpt>
      <trkpt lat="45.38704" lon="6.61273">
        <ele>2315.4</ele>
        <time>2016-01-31T11:47:17.078+01:00</time>
      </trkpt>
      <trkpt lat="45.38689" lon="6.61258">
        <ele>2321.39</ele>
        <time>2016-01-31T11:47:19.036+01:00</time>
      </trkpt>
      <trkpt lat="45.3868" lon="6.61252">
        <ele>2323.72</ele>
        <time>2016-01-31T11:47:20.034+01:00</time>
      </trkpt>
      <trkpt lat="45.38672" lon="6.61247">
        <ele>2323.76</ele>
        <time>2016-01-31T11:47:21.058+01:00</time>
      </trkpt>
      <trkpt lat="45.38664" lon="6.61239">
        <ele>2325.3</ele>
        <time>2016-01-31T11:47:22.060+01:00</time>
      </trkpt>
      <trkpt lat="45.38648" lon="6.61229">
        <ele>2329.89</ele>
        <time>2016-01-31T11:47:24.058+01:00</time>
      </trkpt>
      <trkpt lat="45.3864" lon="6.61222">
        <ele>2335.82</ele>
        <time>2016-01-31T11:47:25.039+01:00</time>
      </trkpt>
      <trkpt lat="45.38623" lon="6.61211">
        <ele>2340.44</ele>
        <time>2016-01-31T11:47:27.055+01:00</time>
      </trkpt>
      <trkpt lat="45.38608" lon="6.612">
        <ele>2346.74</ele>
        <time>2016-01-31T11:47:29.056+01:00</time>
      </trkpt>
      <trkpt lat="45.38593" lon="6.61187">
        <ele>2355.34</ele>
        <time>2016-01-31T11:47:31.048+01:00</time>
      </trkpt>
      <trkpt lat="45.38578" lon="6.61176">
        <ele>2361.81</ele>
        <time>2016-01-31T11:47:33.064+01:00</time>
      </trkpt>
      <trkpt lat="45.3857" lon="6.61168">
        <ele>2365.05</ele>
        <time>2016-01-31T11:47:34.062+01:00</time>
      </trkpt>
      <trkpt lat="45.38561" lon="6.61162">
        <ele>2368.86</ele>
        <time>2016-01-31T11:47:35.060+01:00</time>
      </trkpt>
      <trkpt lat="45.38548" lon="6.61153">
        <ele>2373.54</ele>
        <time>2016-01-31T11:47:37.056+01:00</time>
      </trkpt>
      <trkpt lat="45.38532" lon="6.61142">
        <ele>2381.27</ele>
        <time>2016-01-31T11:47:39.058+01:00</time>
      </trkpt>
      <trkpt lat="45.38519" lon="6.6113">
        <ele>2387.17</ele>
        <time>2016-01-31T11:47:41.055+01:00</time>
      </trkpt>
      <trkpt lat="45.38512" lon="6.61122">
        <ele>2390.08</ele>
        <time>2016-01-31T11:47:42.053+01:00</time>
      </trkpt>
      <trkpt lat="45.38499" lon="6.61111">
        <ele>2391.91</ele>
        <time>2016-01-31T11:47:44.052+01:00</time>
      </trkpt>
      <trkpt lat="45.38487" lon="6.611">
        <ele>2393.57</ele>
        <time>2016-01-31T11:47:46.056+01:00</time>
      </trkpt>
      <trkpt lat="45.38476" lon="6.61089">
        <ele>2399.22</ele>
        <time>2016-01-31T11:47:48.056+01:00</time>
      </trkpt>
      <trkpt lat="45.38465" lon="6.61075">
        <ele>2406.7</ele>
        <time>2016-01-31T11:47:50.050+01:00</time>
      </trkpt>
      <trkpt lat="45.38455" lon="6.61063">
        <ele>2412.5</ele>
        <time>2016-01-31T11:47:52.050+01:00</time>
      </trkpt>
      <trkpt lat="45.38443" lon="6.61056">
        <ele>2421.68</ele>
        <time>2016-01-31T11:47:55.072+01:00</time>
      </trkpt>
      <trkpt lat="45.38436" lon="6.61047">
        <ele>2425.13</ele>
        <time>2016-01-31T11:47:57.059+01:00</time>
      </trkpt>
      <trkpt lat="45.38426" lon="6.61041">
        <ele>2431.66</ele>
        <time>2016-01-31T11:48:00.055+01:00</time>
      </trkpt>
      <trkpt lat="45.38418" lon="6.61034">
        <ele>2435.46</ele>
        <time>2016-01-31T11:48:03.056+01:00</time>
      </trkpt>
      <trkpt lat="45.38408" lon="6.61027">
        <ele>2448.49</ele>
        <time>2016-01-31T11:48:07.066+01:00</time>
      </trkpt>
      <trkpt lat="45.38399" lon="6.61021">
        <ele>2483.74</ele>
        <time>2016-01-31T11:48:17.056+01:00</time>
      </trkpt>
      <trkpt lat="45.38392" lon="6.61012">
        <ele>2495.89</ele>
        <time>2016-01-31T11:48:28.055+01:00</time>
      </trkpt>
      <trkpt lat="45.38382" lon="6.61005">
        <ele>2507.13</ele>
        <time>2016-01-31T11:48:45.058+01:00</time>
      </trkpt>
      <trkpt lat="45.38362" lon="6.61028">
        <ele>2640.47</ele>
        <time>2016-01-31T11:50:12.074+01:00</time>
      </trkpt>
      <trkpt lat="45.38354" lon="6.61034">
        <ele>2652.17</ele>
        <time>2016-01-31T11:50:17.045+01:00</time>
      </trkpt>
      <trkpt lat="45.38345" lon="6.61037">
        <ele>2665.86</ele>
        <time>2016-01-31T11:50:26.068+01:00</time>
      </trkpt>
      <trkpt lat="45.38335" lon="6.61038">
        <ele>2676.51</ele>
        <time>2016-01-31T11:50:35.049+01:00</time>
      </trkpt>
      <trkpt lat="45.38326" lon="6.61041">
        <ele>2701.25</ele>
        <time>2016-01-31T11:50:50.061+01:00</time>
      </trkpt>
      <trkpt lat="45.38323" lon="6.61053">
        <ele>2700.43</ele>
        <time>2016-01-31T11:51:40.086+01:00</time>
      </trkpt>
      <trkpt lat="45.38314" lon="6.61057">
        <ele>2700.33</ele>
        <time>2016-01-31T11:52:31.061+01:00</time>
      </trkpt>
      <trkpt lat="45.38302" lon="6.61061">
        <ele>2698.9</ele>
        <time>2016-01-31T11:52:37.136+01:00</time>
      </trkpt>
      <trkpt lat="45.38292" lon="6.61061">
        <ele>2698.65</ele>
        <time>2016-01-31T11:52:40.052+01:00</time>
      </trkpt>
      <trkpt lat="45.38284" lon="6.61054">
        <ele>2697.46</ele>
        <time>2016-01-31T11:52:43.075+01:00</time>
      </trkpt>
      <trkpt lat="45.38272" lon="6.61051">
        <ele>2696.24</ele>
        <time>2016-01-31T11:52:46.078+01:00</time>
      </trkpt>
      <trkpt lat="45.3826" lon="6.61044">
        <ele>2694.2</ele>
        <time>2016-01-31T11:52:49.069+01:00</time>
      </trkpt>
      <trkpt lat="45.38249" lon="6.61039">
        <ele>2692.29</ele>
        <time>2016-01-31T11:52:51.060+01:00</time>
      </trkpt>
      <trkpt lat="45.38238" lon="6.61036">
        <ele>2691.33</ele>
        <time>2016-01-31T11:52:53.057+01:00</time>
      </trkpt>
      <trkpt lat="45.38226" lon="6.61029">
        <ele>2689.34</ele>
        <time>2016-01-31T11:52:55.039+01:00</time>
      </trkpt>
      <trkpt lat="45.38214" lon="6.61024">
        <ele>2688.13</ele>
        <time>2016-01-31T11:52:57.070+01:00</time>
      </trkpt>
      <trkpt lat="45.38203" lon="6.61021">
        <ele>2686.84</ele>
        <time>2016-01-31T11:52:59.041+01:00</time>
      </trkpt>
      <trkpt lat="45.38194" lon="6.61016">
        <ele>2686.02</ele>
        <time>2016-01-31T11:53:01.039+01:00</time>
      </trkpt>
      <trkpt lat="45.38181" lon="6.61014">
        <ele>2684.09</ele>
        <time>2016-01-31T11:53:05.040+01:00</time>
      </trkpt>
      <trkpt lat="45.3817" lon="6.61012">
        <ele>2683.14</ele>
        <time>2016-01-31T11:53:07.061+01:00</time>
      </trkpt>
      <trkpt lat="45.38159" lon="6.61014">
        <ele>2681.41</ele>
        <time>2016-01-31T11:53:10.032+01:00</time>
      </trkpt>
      <trkpt lat="45.38153" lon="6.61024">
        <ele>2680.15</ele>
        <time>2016-01-31T11:53:17.033+01:00</time>
      </trkpt>
      <trkpt lat="45.38155" lon="6.61039">
        <ele>2678.2</ele>
        <time>2016-01-31T11:53:37.056+01:00</time>
      </trkpt>
      <trkpt lat="45.3816" lon="6.61058">
        <ele>2674.41</ele>
        <time>2016-01-31T11:53:40.043+01:00</time>
      </trkpt>
      <trkpt lat="45.38164" lon="6.61071">
        <ele>2671.9</ele>
        <time>2016-01-31T11:53:42.040+01:00</time>
      </trkpt>
      <trkpt lat="45.3817" lon="6.61082">
        <ele>2668.2</ele>
        <time>2016-01-31T11:53:44.095+01:00</time>
      </trkpt>
      <trkpt lat="45.38175" lon="6.61094">
        <ele>2666.83</ele>
        <time>2016-01-31T11:53:46.038+01:00</time>
      </trkpt>
      <trkpt lat="45.3818" lon="6.61113">
        <ele>2663.55</ele>
        <time>2016-01-31T11:53:48.069+01:00</time>
      </trkpt>
      <trkpt lat="45.38187" lon="6.61124">
        <ele>2663.12</ele>
        <time>2016-01-31T11:53:50.038+01:00</time>
      </trkpt>
      <trkpt lat="45.3819" lon="6.61139">
        <ele>2662.12</ele>
        <time>2016-01-31T11:53:53.058+01:00</time>
      </trkpt>
      <trkpt lat="45.38196" lon="6.61154">
        <ele>2661.14</ele>
        <time>2016-01-31T11:53:56.048+01:00</time>
      </trkpt>
      <trkpt lat="45.38198" lon="6.61168">
        <ele>2659.69</ele>
        <time>2016-01-31T11:53:58.051+01:00</time>
      </trkpt>
      <trkpt lat="45.382" lon="6.61183">
        <ele>2657.44</ele>
        <time>2016-01-31T11:54:00.045+01:00</time>
      </trkpt>
      <trkpt lat="45.38203" lon="6.61199">
        <ele>2656.16</ele>
        <time>2016-01-31T11:54:03.046+01:00</time>
      </trkpt>
      <trkpt lat="45.38206" lon="6.61215">
        <ele>2655.28</ele>
        <time>2016-01-31T11:54:06.058+01:00</time>
      </trkpt>
      <trkpt lat="45.38212" lon="6.61228">
        <ele>2652.94</ele>
        <time>2016-01-31T11:54:10.053+01:00</time>
      </trkpt>
      <trkpt lat="45.38222" lon="6.61239">
        <ele>2647.7</ele>
        <time>2016-01-31T11:54:13.054+01:00</time>
      </trkpt>
      <trkpt lat="45.38226" lon="6.61251">
        <ele>2642.27</ele>
        <time>2016-01-31T11:54:15.063+01:00</time>
      </trkpt>
      <trkpt lat="45.3823" lon="6.61265">
        <ele>2637.15</ele>
        <time>2016-01-31T11:54:17.088+01:00</time>
      </trkpt>
      <trkpt lat="45.38237" lon="6.61274">
        <ele>2631.93</ele>
        <time>2016-01-31T11:54:20.067+01:00</time>
      </trkpt>
      <trkpt lat="45.38235" lon="6.61288">
        <ele>2625.82</ele>
        <time>2016-01-31T11:54:34.065+01:00</time>
      </trkpt>
      <trkpt lat="45.3823" lon="6.61301">
        <ele>2624.24</ele>
        <time>2016-01-31T11:54:41.034+01:00</time>
      </trkpt>
      <trkpt lat="45.38236" lon="6.61313">
        <ele>2619.93</ele>
        <time>2016-01-31T11:54:44.031+01:00</time>
      </trkpt>
      <trkpt lat="45.38241" lon="6.61328">
        <ele>2614.67</ele>
        <time>2016-01-31T11:54:47.067+01:00</time>
      </trkpt>
      <trkpt lat="45.38245" lon="6.6134">
        <ele>2604.95</ele>
        <time>2016-01-31T11:55:12.092+01:00</time>
      </trkpt>
      <trkpt lat="45.38254" lon="6.6135">
        <ele>2600.29</ele>
        <time>2016-01-31T11:55:15.071+01:00</time>
      </trkpt>
      <trkpt lat="45.38264" lon="6.61361">
        <ele>2596.87</ele>
        <time>2016-01-31T11:55:18.065+01:00</time>
      </trkpt>
      <trkpt lat="45.38273" lon="6.61364">
        <ele>2591.72</ele>
        <time>2016-01-31T11:55:21.065+01:00</time>
      </trkpt>
      <trkpt lat="45.38285" lon="6.61362">
        <ele>2588.37</ele>
        <time>2016-01-31T11:55:24.066+01:00</time>
      </trkpt>
      <trkpt lat="45.38294" lon="6.61356">
        <ele>2585.17</ele>
        <time>2016-01-31T11:55:26.066+01:00</time>
      </trkpt>
      <trkpt lat="45.38307" lon="6.61356">
        <ele>2582.37</ele>
        <time>2016-01-31T11:55:28.068+01:00</time>
      </trkpt>
      <trkpt lat="45.38317" lon="6.61358">
        <ele>2576.92</ele>
        <time>2016-01-31T11:55:47.044+01:00</time>
      </trkpt>
      <trkpt lat="45.38329" lon="6.61358">
        <ele>2574.05</ele>
        <time>2016-01-31T11:55:50.065+01:00</time>
      </trkpt>
      <trkpt lat="45.3834" lon="6.61354">
        <ele>2569.76</ele>
        <time>2016-01-31T11:55:53.063+01:00</time>
      </trkpt>
      <trkpt lat="45.3835" lon="6.61352">
        <ele>2566.71</ele>
        <time>2016-01-31T11:55:56.064+01:00</time>
      </trkpt>
      <trkpt lat="45.3836" lon="6.61357">
        <ele>2564.63</ele>
        <time>2016-01-31T11:55:59.064+01:00</time>
      </trkpt>
      <trkpt lat="45.38369" lon="6.61354">
        <ele>2560.95</ele>
        <time>2016-01-31T11:56:48.059+01:00</time>
      </trkpt>
      <trkpt lat="45.3838" lon="6.61351">
        <ele>2555.88</ele>
        <time>2016-01-31T11:56:51.064+01:00</time>
      </trkpt>
      <trkpt lat="45.38392" lon="6.61344">
        <ele>2553.49</ele>
        <time>2016-01-31T11:56:54.065+01:00</time>
      </trkpt>
      <trkpt lat="45.38402" lon="6.61351">
        <ele>2549.72</ele>
        <time>2016-01-31T11:56:57.066+01:00</time>
      </trkpt>
      <trkpt lat="45.38412" lon="6.61349">
        <ele>2544.69</ele>
        <time>2016-01-31T11:57:26.054+01:00</time>
      </trkpt>
      <trkpt lat="45.38423" lon="6.6135">
        <ele>2540.25</ele>
        <time>2016-01-31T11:57:28.070+01:00</time>
      </trkpt>
      <trkpt lat="45.38432" lon="6.6135">
        <ele>2536.53</ele>
        <time>2016-01-31T11:57:32.081+01:00</time>
      </trkpt>
      <trkpt lat="45.38442" lon="6.61353">
        <ele>2532.76</ele>
        <time>2016-01-31T11:57:35.065+01:00</time>
      </trkpt>
      <trkpt lat="45.38454" lon="6.61351">
        <ele>2530.88</ele>
        <time>2016-01-31T11:57:38.065+01:00</time>
      </trkpt>
      <trkpt lat="45.38464" lon="6.61354">
        <ele>2528.14</ele>
        <time>2016-01-31T11:57:42.066+01:00</time>
      </trkpt>
      <trkpt lat="45.38473" lon="6.61345">
        <ele>2525.41</ele>
        <time>2016-01-31T11:57:45.065+01:00</time>
      </trkpt>
      <trkpt lat="45.38481" lon="6.61336">
        <ele>2521.85</ele>
        <time>2016-01-31T11:57:56.045+01:00</time>
      </trkpt>
      <trkpt lat="45.38491" lon="6.61346">
        <ele>2518.94</ele>
        <time>2016-01-31T11:57:59.096+01:00</time>
      </trkpt>
      <trkpt lat="45.385" lon="6.61347">
        <ele>2514.92</ele>
        <time>2016-01-31T11:58:02.070+01:00</time>
      </trkpt>
      <trkpt lat="45.3851" lon="6.61351">
        <ele>2506.87</ele>
        <time>2016-01-31T11:58:35.059+01:00</time>
      </trkpt>
      <trkpt lat="45.38525" lon="6.61357">
        <ele>2499.58</ele>
        <time>2016-01-31T11:58:38.073+01:00</time>
      </trkpt>
      <trkpt lat="45.38535" lon="6.61347">
        <ele>2495.59</ele>
        <time>2016-01-31T11:58:41.083+01:00</time>
      </trkpt>
      <trkpt lat="45.38544" lon="6.61343">
        <ele>2493.73</ele>
        <time>2016-01-31T11:58:44.070+01:00</time>
      </trkpt>
      <trkpt lat="45.38542" lon="6.61357">
        <ele>2492.97</ele>
        <time>2016-01-31T11:59:13.056+01:00</time>
      </trkpt>
      <trkpt lat="45.38553" lon="6.61363">
        <ele>2487.15</ele>
        <time>2016-01-31T11:59:20.066+01:00</time>
      </trkpt>
      <trkpt lat="45.38563" lon="6.61361">
        <ele>2485.31</ele>
        <time>2016-01-31T11:59:23.083+01:00</time>
      </trkpt>
      <trkpt lat="45.3857" lon="6.61354">
        <ele>2481.96</ele>
        <time>2016-01-31T11:59:25.079+01:00</time>
      </trkpt>
      <trkpt lat="45.38575" lon="6.61342">
        <ele>2481.36</ele>
        <time>2016-01-31T11:59:29.064+01:00</time>
      </trkpt>
      <trkpt lat="45.38584" lon="6.6134">
        <ele>2478.32</ele>
        <time>2016-01-31T11:59:36.039+01:00</time>
      </trkpt>
      <trkpt lat="45.38596" lon="6.61341">
        <ele>2474.68</ele>
        <time>2016-01-31T11:59:47.052+01:00</time>
      </trkpt>
      <trkpt lat="45.38606" lon="6.61333">
        <ele>2471.36</ele>
        <time>2016-01-31T11:59:50.063+01:00</time>
      </trkpt>
      <trkpt lat="45.38616" lon="6.61328">
        <ele>2468.28</ele>
        <time>2016-01-31T11:59:53.094+01:00</time>
      </trkpt>
      <trkpt lat="45.38626" lon="6.61325">
        <ele>2463.16</ele>
        <time>2016-01-31T11:59:56.066+01:00</time>
      </trkpt>
      <trkpt lat="45.38637" lon="6.61324">
        <ele>2460.08</ele>
        <time>2016-01-31T11:59:59.067+01:00</time>
      </trkpt>
      <trkpt lat="45.38644" lon="6.61332">
        <ele>2458.39</ele>
        <time>2016-01-31T12:00:02.070+01:00</time>
      </trkpt>
      <trkpt lat="45.38652" lon="6.61328">
        <ele>2454.25</ele>
        <time>2016-01-31T12:00:23.074+01:00</time>
      </trkpt>
      <trkpt lat="45.38664" lon="6.61326">
        <ele>2450.71</ele>
        <time>2016-01-31T12:00:26.064+01:00</time>
      </trkpt>
      <trkpt lat="45.38673" lon="6.6132">
        <ele>2449.06</ele>
        <time>2016-01-31T12:00:28.106+01:00</time>
      </trkpt>
      <trkpt lat="45.38682" lon="6.61323">
        <ele>2446.48</ele>
        <time>2016-01-31T12:00:30.099+01:00</time>
      </trkpt>
      <trkpt lat="45.38693" lon="6.61323">
        <ele>2442.93</ele>
        <time>2016-01-31T12:00:33.064+01:00</time>
      </trkpt>
      <trkpt lat="45.38704" lon="6.61318">
        <ele>2440.59</ele>
        <time>2016-01-31T12:00:36.100+01:00</time>
      </trkpt>
      <trkpt lat="45.38706" lon="6.61331">
        <ele>2438.31</ele>
        <time>2016-01-31T12:00:41.093+01:00</time>
      </trkpt>
      <trkpt lat="45.38712" lon="6.61321">
        <ele>2435.29</ele>
        <time>2016-01-31T12:01:21.060+01:00</time>
      </trkpt>
      <trkpt lat="45.38722" lon="6.6132">
        <ele>2431.89</ele>
        <time>2016-01-31T12:01:25.057+01:00</time>
      </trkpt>
      <trkpt lat="45.38733" lon="6.61321">
        <ele>2427.67</ele>
        <time>2016-01-31T12:01:28.072+01:00</time>
      </trkpt>
      <trkpt lat="45.38746" lon="6.61315">
        <ele>2423.52</ele>
        <time>2016-01-31T12:01:31.114+01:00</time>
      </trkpt>
      <trkpt lat="45.38755" lon="6.61319">
        <ele>2420.12</ele>
        <time>2016-01-31T12:01:34.062+01:00</time>
      </trkpt>
      <trkpt lat="45.3876" lon="6.61305">
        <ele>2417.01</ele>
        <time>2016-01-31T12:01:50.053+01:00</time>
      </trkpt>
      <trkpt lat="45.38769" lon="6.61301">
        <ele>2413.2</ele>
        <time>2016-01-31T12:01:54.067+01:00</time>
      </trkpt>
      <trkpt lat="45.3878" lon="6.6131">
        <ele>2409.22</ele>
        <time>2016-01-31T12:02:07.057+01:00</time>
      </trkpt>
      <trkpt lat="45.38789" lon="6.61306">
        <ele>2405.25</ele>
        <time>2016-01-31T12:02:09.060+01:00</time>
      </trkpt>
      <trkpt lat="45.38798" lon="6.61313">
        <ele>2402.05</ele>
        <time>2016-01-31T12:02:11.060+01:00</time>
      </trkpt>
      <trkpt lat="45.38809" lon="6.61311">
        <ele>2396.4</ele>
        <time>2016-01-31T12:02:14.077+01:00</time>
      </trkpt>
      <trkpt lat="45.38821" lon="6.61312">
        <ele>2395.21</ele>
        <time>2016-01-31T12:02:17.068+01:00</time>
      </trkpt>
      <trkpt lat="45.38833" lon="6.61315">
        <ele>2391.23</ele>
        <time>2016-01-31T12:02:19.068+01:00</time>
      </trkpt>
      <trkpt lat="45.38843" lon="6.61313">
        <ele>2385.59</ele>
        <time>2016-01-31T12:02:58.066+01:00</time>
      </trkpt>
      <trkpt lat="45.38855" lon="6.6132">
        <ele>2380.44</ele>
        <time>2016-01-31T12:03:01.063+01:00</time>
      </trkpt>
      <trkpt lat="45.38864" lon="6.61325">
        <ele>2376.3</ele>
        <time>2016-01-31T12:03:03.093+01:00</time>
      </trkpt>
      <trkpt lat="45.38876" lon="6.6133">
        <ele>2372.66</ele>
        <time>2016-01-31T12:03:05.066+01:00</time>
      </trkpt>
      <trkpt lat="45.38885" lon="6.61327">
        <ele>2367.46</ele>
        <time>2016-01-31T12:03:17.034+01:00</time>
      </trkpt>
      <trkpt lat="45.389" lon="6.61326">
        <ele>2364.6</ele>
        <time>2016-01-31T12:03:20.041+01:00</time>
      </trkpt>
      <trkpt lat="45.38911" lon="6.61325">
        <ele>2359.78</ele>
        <time>2016-01-31T12:03:22.042+01:00</time>
      </trkpt>
      <trkpt lat="45.38922" lon="6.61321">
        <ele>2357.82</ele>
        <time>2016-01-31T12:03:25.036+01:00</time>
      </trkpt>
      <trkpt lat="45.3893" lon="6.61315">
        <ele>2355.22</ele>
        <time>2016-01-31T12:03:50.051+01:00</time>
      </trkpt>
      <trkpt lat="45.38939" lon="6.61308">
        <ele>2353.4</ele>
        <time>2016-01-31T12:03:54.059+01:00</time>
      </trkpt>
      <trkpt lat="45.38946" lon="6.61299">
        <ele>2351.59</ele>
        <time>2016-01-31T12:04:00.060+01:00</time>
      </trkpt>
      <trkpt lat="45.38954" lon="6.6129">
        <ele>2349.81</ele>
        <time>2016-01-31T12:04:29.054+01:00</time>
      </trkpt>
      <trkpt lat="45.38964" lon="6.61279">
        <ele>2346.47</ele>
        <time>2016-01-31T12:04:32.094+01:00</time>
      </trkpt>
      <trkpt lat="45.38976" lon="6.61271">
        <ele>2341.57</ele>
        <time>2016-01-31T12:04:35.091+01:00</time>
      </trkpt>
      <trkpt lat="45.38986" lon="6.61267">
        <ele>2337.29</ele>
        <time>2016-01-31T12:04:38.087+01:00</time>
      </trkpt>
      <trkpt lat="45.38993" lon="6.61257">
        <ele>2336.55</ele>
        <time>2016-01-31T12:05:19.063+01:00</time>
      </trkpt>
      <trkpt lat="45.38996" lon="6.61244">
        <ele>2335.79</ele>
        <time>2016-01-31T12:05:39.082+01:00</time>
      </trkpt>
      <trkpt lat="45.39006" lon="6.61238">
        <ele>2332.37</ele>
        <time>2016-01-31T12:05:43.078+01:00</time>
      </trkpt>
      <trkpt lat="45.39012" lon="6.61227">
        <ele>2329.84</ele>
        <time>2016-01-31T12:05:46.092+01:00</time>
      </trkpt>
      <trkpt lat="45.39021" lon="6.61223">
        <ele>2327.09</ele>
        <time>2016-01-31T12:05:49.088+01:00</time>
      </trkpt>
      <trkpt lat="45.39034" lon="6.61226">
        <ele>2324.74</ele>
        <time>2016-01-31T12:05:51.086+01:00</time>
      </trkpt>
      <trkpt lat="45.39044" lon="6.61223">
        <ele>2321.95</ele>
        <time>2016-01-31T12:05:53.106+01:00</time>
      </trkpt>
      <trkpt lat="45.39036" lon="6.61232">
        <ele>2320.61</ele>
        <time>2016-01-31T12:05:57.074+01:00</time>
      </trkpt>
      <trkpt lat="45.39046" lon="6.61225">
        <ele>2314.64</ele>
        <time>2016-01-31T12:06:08.081+01:00</time>
      </trkpt>
      <trkpt lat="45.39059" lon="6.61227">
        <ele>2309.34</ele>
        <time>2016-01-31T12:06:11.045+01:00</time>
      </trkpt>
      <trkpt lat="45.39075" lon="6.61227">
        <ele>2303.24</ele>
        <time>2016-01-31T12:06:29.063+01:00</time>
      </trkpt>
      <trkpt lat="45.39081" lon="6.61239">
        <ele>2298.48</ele>
        <time>2016-01-31T12:06:54.065+01:00</time>
      </trkpt>
      <trkpt lat="45.39092" lon="6.61235">
        <ele>2294.73</ele>
        <time>2016-01-31T12:06:57.083+01:00</time>
      </trkpt>
      <trkpt lat="45.39103" lon="6.61237">
        <ele>2292.34</ele>
        <time>2016-01-31T12:07:23.074+01:00</time>
      </trkpt>
      <trkpt lat="45.39115" lon="6.6124">
        <ele>2285.76</ele>
        <time>2016-01-31T12:07:26.130+01:00</time>
      </trkpt>
      <trkpt lat="45.39119" lon="6.61255">
        <ele>2281.91</ele>
        <time>2016-01-31T12:07:41.040+01:00</time>
      </trkpt>
      <trkpt lat="45.39127" lon="6.61264">
        <ele>2279.62</ele>
        <time>2016-01-31T12:07:44.044+01:00</time>
      </trkpt>
      <trkpt lat="45.39128" lon="6.61277">
        <ele>2275.98</ele>
        <time>2016-01-31T12:07:47.043+01:00</time>
      </trkpt>
      <trkpt lat="45.39137" lon="6.61287">
        <ele>2271.79</ele>
        <time>2016-01-31T12:07:50.093+01:00</time>
      </trkpt>
      <trkpt lat="45.39144" lon="6.61297">
        <ele>2269.54</ele>
        <time>2016-01-31T12:07:53.063+01:00</time>
      </trkpt>
      <trkpt lat="45.39142" lon="6.61314">
        <ele>2265.72</ele>
        <time>2016-01-31T12:07:56.066+01:00</time>
      </trkpt>
      <trkpt lat="45.39148" lon="6.61327">
        <ele>2262.55</ele>
        <time>2016-01-31T12:07:59.084+01:00</time>
      </trkpt>
      <trkpt lat="45.39155" lon="6.61339">
        <ele>2260.63</ele>
        <time>2016-01-31T12:08:02.063+01:00</time>
      </trkpt>
      <trkpt lat="45.39162" lon="6.61349">
        <ele>2258.9</ele>
        <time>2016-01-31T12:08:04.074+01:00</time>
      </trkpt>
      <trkpt lat="45.3917" lon="6.61357">
        <ele>2256.18</ele>
        <time>2016-01-31T12:08:06.077+01:00</time>
      </trkpt>
      <trkpt lat="45.39179" lon="6.61365">
        <ele>2253.37</ele>
        <time>2016-01-31T12:08:09.082+01:00</time>
      </trkpt>
      <trkpt lat="45.39185" lon="6.61378">
        <ele>2249.77</ele>
        <time>2016-01-31T12:08:11.069+01:00</time>
      </trkpt>
      <trkpt lat="45.39191" lon="6.61394">
        <ele>2247.09</ele>
        <time>2016-01-31T12:08:13.059+01:00</time>
      </trkpt>
      <trkpt lat="45.39198" lon="6.61412">
        <ele>2243.31</ele>
        <time>2016-01-31T12:08:15.101+01:00</time>
      </trkpt>
      <trkpt lat="45.39214" lon="6.61433">
        <ele>2240</ele>
        <time>2016-01-31T12:08:17.080+01:00</time>
      </trkpt>
      <trkpt lat="45.39222" lon="6.61442">
        <ele>2237.84</ele>
        <time>2016-01-31T12:08:18.139+01:00</time>
      </trkpt>
      <trkpt lat="45.39227" lon="6.61453">
        <ele>2235.98</ele>
        <time>2016-01-31T12:08:19.142+01:00</time>
      </trkpt>
      <trkpt lat="45.39234" lon="6.61445">
        <ele>2248.12</ele>
        <time>2016-01-31T12:08:21.047+01:00</time>
      </trkpt>
      <trkpt lat="45.39224" lon="6.61451">
        <ele>2234.73</ele>
        <time>2016-01-31T12:09:28.065+01:00</time>
      </trkpt>
      <trkpt lat="45.39248" lon="6.61484">
        <ele>2227.36</ele>
        <time>2016-01-31T12:14:17.105+01:00</time>
      </trkpt>
      <trkpt lat="45.39259" lon="6.61495">
        <ele>2225.8</ele>
        <time>2016-01-31T12:14:20.085+01:00</time>
      </trkpt>
      <trkpt lat="45.39264" lon="6.61508">
        <ele>2224.59</ele>
        <time>2016-01-31T12:14:23.105+01:00</time>
      </trkpt>
      <trkpt lat="45.39271" lon="6.6152">
        <ele>2223.71</ele>
        <time>2016-01-31T12:14:26.067+01:00</time>
      </trkpt>
      <trkpt lat="45.39276" lon="6.61532">
        <ele>2222.72</ele>
        <time>2016-01-31T12:14:28.026+01:00</time>
      </trkpt>
      <trkpt lat="45.3928" lon="6.61547">
        <ele>2221.05</ele>
        <time>2016-01-31T12:14:31.044+01:00</time>
      </trkpt>
      <trkpt lat="45.39294" lon="6.61586">
        <ele>2208.43</ele>
        <time>2016-01-31T12:17:28.106+01:00</time>
      </trkpt>
      <trkpt lat="45.39304" lon="6.61601">
        <ele>2202.74</ele>
        <time>2016-01-31T12:17:31.094+01:00</time>
      </trkpt>
      <trkpt lat="45.39314" lon="6.6161">
        <ele>2198.59</ele>
        <time>2016-01-31T12:17:33.081+01:00</time>
      </trkpt>
      <trkpt lat="45.39311" lon="6.61624">
        <ele>2193.77</ele>
        <time>2016-01-31T12:17:36.039+01:00</time>
      </trkpt>
      <trkpt lat="45.39318" lon="6.61639">
        <ele>2191.16</ele>
        <time>2016-01-31T12:17:44.042+01:00</time>
      </trkpt>
      <trkpt lat="45.39324" lon="6.61654">
        <ele>2187.17</ele>
        <time>2016-01-31T12:17:47.062+01:00</time>
      </trkpt>
      <trkpt lat="45.39334" lon="6.6166">
        <ele>2176.27</ele>
        <time>2016-01-31T12:18:05.069+01:00</time>
      </trkpt>
      <trkpt lat="45.39342" lon="6.61653">
        <ele>2173.53</ele>
        <time>2016-01-31T12:18:07.114+01:00</time>
      </trkpt>
      <trkpt lat="45.39354" lon="6.61655">
        <ele>2172.6</ele>
        <time>2016-01-31T12:18:35.047+01:00</time>
      </trkpt>
      <trkpt lat="45.39365" lon="6.6165">
        <ele>2169.54</ele>
        <time>2016-01-31T12:18:38.043+01:00</time>
      </trkpt>
      <trkpt lat="45.39376" lon="6.61641">
        <ele>2164.83</ele>
        <time>2016-01-31T12:18:41.098+01:00</time>
      </trkpt>
      <trkpt lat="45.39388" lon="6.61645">
        <ele>2158.5</ele>
        <time>2016-01-31T12:18:44.071+01:00</time>
      </trkpt>
      <trkpt lat="45.394" lon="6.61643">
        <ele>2153.22</ele>
        <time>2016-01-31T12:18:47.089+01:00</time>
      </trkpt>
      <trkpt lat="45.39413" lon="6.61646">
        <ele>2148.75</ele>
        <time>2016-01-31T12:18:50.072+01:00</time>
      </trkpt>
      <trkpt lat="45.39424" lon="6.61647">
        <ele>2145.83</ele>
        <time>2016-01-31T12:18:52.076+01:00</time>
      </trkpt>
      <trkpt lat="45.39438" lon="6.61643">
        <ele>2143.57</ele>
        <time>2016-01-31T12:18:54.066+01:00</time>
      </trkpt>
      <trkpt lat="45.39448" lon="6.61642">
        <ele>2140.23</ele>
        <time>2016-01-31T12:18:56.064+01:00</time>
      </trkpt>
      <trkpt lat="45.39444" lon="6.61676">
        <ele>2137.75</ele>
        <time>2016-01-31T12:19:26.053+01:00</time>
      </trkpt>
      <trkpt lat="45.39449" lon="6.61692">
        <ele>2134.13</ele>
        <time>2016-01-31T12:19:29.085+01:00</time>
      </trkpt>
      <trkpt lat="45.39452" lon="6.61707">
        <ele>2131.95</ele>
        <time>2016-01-31T12:19:31.059+01:00</time>
      </trkpt>
      <trkpt lat="45.3946" lon="6.61713">
        <ele>2129.87</ele>
        <time>2016-01-31T12:19:33.048+01:00</time>
      </trkpt>
      <trkpt lat="45.3947" lon="6.61717">
        <ele>2127.7</ele>
        <time>2016-01-31T12:19:35.059+01:00</time>
      </trkpt>
      <trkpt lat="45.39473" lon="6.61732">
        <ele>2125.45</ele>
        <time>2016-01-31T12:19:37.082+01:00</time>
      </trkpt>
      <trkpt lat="45.39479" lon="6.61742">
        <ele>2123.46</ele>
        <time>2016-01-31T12:19:39.065+01:00</time>
      </trkpt>
      <trkpt lat="45.39492" lon="6.61747">
        <ele>2120.86</ele>
        <time>2016-01-31T12:19:42.046+01:00</time>
      </trkpt>
      <trkpt lat="45.39494" lon="6.6176">
        <ele>2118.8</ele>
        <time>2016-01-31T12:19:44.070+01:00</time>
      </trkpt>
      <trkpt lat="45.39503" lon="6.6177">
        <ele>2116.86</ele>
        <time>2016-01-31T12:20:01.052+01:00</time>
      </trkpt>
      <trkpt lat="45.39512" lon="6.61777">
        <ele>2113.45</ele>
        <time>2016-01-31T12:20:04.095+01:00</time>
      </trkpt>
      <trkpt lat="45.39521" lon="6.61785">
        <ele>2110.02</ele>
        <time>2016-01-31T12:20:07.076+01:00</time>
      </trkpt>
      <trkpt lat="45.39524" lon="6.61802">
        <ele>2104.8</ele>
        <time>2016-01-31T12:20:10.065+01:00</time>
      </trkpt>
      <trkpt lat="45.39534" lon="6.61803">
        <ele>2102.88</ele>
        <time>2016-01-31T12:20:12.064+01:00</time>
      </trkpt>
      <trkpt lat="45.39543" lon="6.61797">
        <ele>2100.68</ele>
        <time>2016-01-31T12:20:15.080+01:00</time>
      </trkpt>
      <trkpt lat="45.39553" lon="6.61801">
        <ele>2099.77</ele>
        <time>2016-01-31T12:20:26.045+01:00</time>
      </trkpt>
      <trkpt lat="45.39555" lon="6.6182">
        <ele>2096.67</ele>
        <time>2016-01-31T12:20:28.045+01:00</time>
      </trkpt>
      <trkpt lat="45.39564" lon="6.61831">
        <ele>2094.14</ele>
        <time>2016-01-31T12:20:30.109+01:00</time>
      </trkpt>
      <trkpt lat="45.39567" lon="6.61849">
        <ele>2091.16</ele>
        <time>2016-01-31T12:20:32.090+01:00</time>
      </trkpt>
      <trkpt lat="45.39575" lon="6.61858">
        <ele>2090.1</ele>
        <time>2016-01-31T12:20:35.065+01:00</time>
      </trkpt>
      <trkpt lat="45.39581" lon="6.6187">
        <ele>2087.69</ele>
        <time>2016-01-31T12:20:37.062+01:00</time>
      </trkpt>
      <trkpt lat="45.3959" lon="6.61875">
        <ele>2086.13</ele>
        <time>2016-01-31T12:20:39.072+01:00</time>
      </trkpt>
      <trkpt lat="45.39599" lon="6.61872">
        <ele>2083.95</ele>
        <time>2016-01-31T12:21:09.068+01:00</time>
      </trkpt>
      <trkpt lat="45.39611" lon="6.61874">
        <ele>2082.33</ele>
        <time>2016-01-31T12:21:48.078+01:00</time>
      </trkpt>
      <trkpt lat="45.39623" lon="6.61873">
        <ele>2080.33</ele>
        <time>2016-01-31T12:21:51.081+01:00</time>
      </trkpt>
      <trkpt lat="45.39634" lon="6.61882">
        <ele>2077.35</ele>
        <time>2016-01-31T12:21:55.093+01:00</time>
      </trkpt>
      <trkpt lat="45.39645" lon="6.61885">
        <ele>2075.58</ele>
        <time>2016-01-31T12:21:58.074+01:00</time>
      </trkpt>
      <trkpt lat="45.39658" lon="6.61888">
        <ele>2072.14</ele>
        <time>2016-01-31T12:22:01.063+01:00</time>
      </trkpt>
      <trkpt lat="45.39666" lon="6.61892">
        <ele>2068.91</ele>
        <time>2016-01-31T12:22:03.069+01:00</time>
      </trkpt>
      <trkpt lat="45.39679" lon="6.61899">
        <ele>2066.81</ele>
        <time>2016-01-31T12:22:06.072+01:00</time>
      </trkpt>
      <trkpt lat="45.39688" lon="6.61904">
        <ele>2064.26</ele>
        <time>2016-01-31T12:22:08.066+01:00</time>
      </trkpt>
      <trkpt lat="45.39697" lon="6.61909">
        <ele>2062.46</ele>
        <time>2016-01-31T12:22:10.068+01:00</time>
      </trkpt>
      <trkpt lat="45.39704" lon="6.61916">
        <ele>2060.54</ele>
        <time>2016-01-31T12:22:12.059+01:00</time>
      </trkpt>
      <trkpt lat="45.39715" lon="6.61919">
        <ele>2058.22</ele>
        <time>2016-01-31T12:22:14.066+01:00</time>
      </trkpt>
      <trkpt lat="45.39725" lon="6.61926">
        <ele>2055.44</ele>
        <time>2016-01-31T12:22:16.060+01:00</time>
      </trkpt>
      <trkpt lat="45.39736" lon="6.61933">
        <ele>2052.17</ele>
        <time>2016-01-31T12:22:18.064+01:00</time>
      </trkpt>
      <trkpt lat="45.39739" lon="6.61947">
        <ele>2049.04</ele>
        <time>2016-01-31T12:22:20.064+01:00</time>
      </trkpt>
      <trkpt lat="45.39751" lon="6.61952">
        <ele>2046.66</ele>
        <time>2016-01-31T12:22:23.068+01:00</time>
      </trkpt>
      <trkpt lat="45.39757" lon="6.61964">
        <ele>2042.29</ele>
        <time>2016-01-31T12:22:27.079+01:00</time>
      </trkpt>
      <trkpt lat="45.39767" lon="6.61972">
        <ele>2038.66</ele>
        <time>2016-01-31T12:22:30.069+01:00</time>
      </trkpt>
      <trkpt lat="45.39776" lon="6.61973">
        <ele>2036.76</ele>
        <time>2016-01-31T12:22:33.067+01:00</time>
      </trkpt>
      <trkpt lat="45.39783" lon="6.61982">
        <ele>2033.54</ele>
        <time>2016-01-31T12:22:36.067+01:00</time>
      </trkpt>
      <trkpt lat="45.39792" lon="6.61989">
        <ele>2031.07</ele>
        <time>2016-01-31T12:22:39.065+01:00</time>
      </trkpt>
      <trkpt lat="45.39803" lon="6.61998">
        <ele>2028.58</ele>
        <time>2016-01-31T12:22:42.064+01:00</time>
      </trkpt>
      <trkpt lat="45.39811" lon="6.62007">
        <ele>2026.03</ele>
        <time>2016-01-31T12:22:44.059+01:00</time>
      </trkpt>
      <trkpt lat="45.3982" lon="6.62014">
        <ele>2023.58</ele>
        <time>2016-01-31T12:22:46.060+01:00</time>
      </trkpt>
      <trkpt lat="45.39829" lon="6.6202">
        <ele>2020.01</ele>
        <time>2016-01-31T12:22:49.064+01:00</time>
      </trkpt>
      <trkpt lat="45.39841" lon="6.62021">
        <ele>2016.16</ele>
        <time>2016-01-31T12:22:52.062+01:00</time>
      </trkpt>
      <trkpt lat="45.3985" lon="6.62024">
        <ele>2013.6</ele>
        <time>2016-01-31T12:22:54.067+01:00</time>
      </trkpt>
      <trkpt lat="45.3986" lon="6.62026">
        <ele>2011.07</ele>
        <time>2016-01-31T12:22:56.068+01:00</time>
      </trkpt>
      <trkpt lat="45.39869" lon="6.62031">
        <ele>2009.4</ele>
        <time>2016-01-31T12:22:58.065+01:00</time>
      </trkpt>
      <trkpt lat="45.39879" lon="6.62039">
        <ele>2006.33</ele>
        <time>2016-01-31T12:23:00.053+01:00</time>
      </trkpt>
      <trkpt lat="45.39887" lon="6.6205">
        <ele>2003.8</ele>
        <time>2016-01-31T12:23:02.065+01:00</time>
      </trkpt>
      <trkpt lat="45.39897" lon="6.62055">
        <ele>2000.99</ele>
        <time>2016-01-31T12:23:04.068+01:00</time>
      </trkpt>
      <trkpt lat="45.39907" lon="6.6206">
        <ele>1998.55</ele>
        <time>2016-01-31T12:23:06.064+01:00</time>
      </trkpt>
      <trkpt lat="45.39916" lon="6.6207">
        <ele>1996.52</ele>
        <time>2016-01-31T12:23:08.067+01:00</time>
      </trkpt>
      <trkpt lat="45.39923" lon="6.62078">
        <ele>1994.14</ele>
        <time>2016-01-31T12:23:10.064+01:00</time>
      </trkpt>
      <trkpt lat="45.39935" lon="6.62089">
        <ele>1991.76</ele>
        <time>2016-01-31T12:23:13.068+01:00</time>
      </trkpt>
      <trkpt lat="45.39945" lon="6.62099">
        <ele>1988.6</ele>
        <time>2016-01-31T12:23:16.054+01:00</time>
      </trkpt>
      <trkpt lat="45.39956" lon="6.62109">
        <ele>1985.55</ele>
        <time>2016-01-31T12:23:19.064+01:00</time>
      </trkpt>
      <trkpt lat="45.39966" lon="6.62114">
        <ele>1983.81</ele>
        <time>2016-01-31T12:23:21.064+01:00</time>
      </trkpt>
      <trkpt lat="45.39975" lon="6.62121">
        <ele>1980.85</ele>
        <time>2016-01-31T12:23:23.064+01:00</time>
      </trkpt>
      <trkpt lat="45.39982" lon="6.62133">
        <ele>1979.17</ele>
        <time>2016-01-31T12:23:25.064+01:00</time>
      </trkpt>
      <trkpt lat="45.3999" lon="6.62143">
        <ele>1977.12</ele>
        <time>2016-01-31T12:23:27.068+01:00</time>
      </trkpt>
      <trkpt lat="45.40001" lon="6.6215">
        <ele>1975.11</ele>
        <time>2016-01-31T12:23:29.065+01:00</time>
      </trkpt>
      <trkpt lat="45.40009" lon="6.62159">
        <ele>1973.04</ele>
        <time>2016-01-31T12:23:31.053+01:00</time>
      </trkpt>
      <trkpt lat="45.40019" lon="6.62166">
        <ele>1971.24</ele>
        <time>2016-01-31T12:23:33.068+01:00</time>
      </trkpt>
      <trkpt lat="45.40029" lon="6.62174">
        <ele>1968.63</ele>
        <time>2016-01-31T12:23:35.064+01:00</time>
      </trkpt>
      <trkpt lat="45.4004" lon="6.62182">
        <ele>1965.33</ele>
        <time>2016-01-31T12:23:37.064+01:00</time>
      </trkpt>
      <trkpt lat="45.40051" lon="6.62194">
        <ele>1960.88</ele>
        <time>2016-01-31T12:23:40.046+01:00</time>
      </trkpt>
      <trkpt lat="45.40062" lon="6.62198">
        <ele>1959.67</ele>
        <time>2016-01-31T12:23:42.038+01:00</time>
      </trkpt>
      <trkpt lat="45.4007" lon="6.62207">
        <ele>1957.61</ele>
        <time>2016-01-31T12:23:44.035+01:00</time>
      </trkpt>
      <trkpt lat="45.4008" lon="6.62211">
        <ele>1955.53</ele>
        <time>2016-01-31T12:23:46.035+01:00</time>
      </trkpt>
      <trkpt lat="45.4009" lon="6.62219">
        <ele>1953.58</ele>
        <time>2016-01-31T12:23:48.035+01:00</time>
      </trkpt>
      <trkpt lat="45.40103" lon="6.62223">
        <ele>1950.14</ele>
        <time>2016-01-31T12:23:50.069+01:00</time>
      </trkpt>
      <trkpt lat="45.40115" lon="6.62233">
        <ele>1947.63</ele>
        <time>2016-01-31T12:23:52.069+01:00</time>
      </trkpt>
      <trkpt lat="45.40127" lon="6.62243">
        <ele>1945.37</ele>
        <time>2016-01-31T12:23:54.062+01:00</time>
      </trkpt>
      <trkpt lat="45.40139" lon="6.62252">
        <ele>1942.65</ele>
        <time>2016-01-31T12:23:56.062+01:00</time>
      </trkpt>
      <trkpt lat="45.40147" lon="6.62263">
        <ele>1941.06</ele>
        <time>2016-01-31T12:23:58.061+01:00</time>
      </trkpt>
      <trkpt lat="45.40158" lon="6.62277">
        <ele>1939.07</ele>
        <time>2016-01-31T12:24:00.061+01:00</time>
      </trkpt>
      <trkpt lat="45.40168" lon="6.62294">
        <ele>1936.59</ele>
        <time>2016-01-31T12:24:02.062+01:00</time>
      </trkpt>
      <trkpt lat="45.40177" lon="6.6231">
        <ele>1933.8</ele>
        <time>2016-01-31T12:24:04.049+01:00</time>
      </trkpt>
      <trkpt lat="45.40187" lon="6.62325">
        <ele>1932.09</ele>
        <time>2016-01-31T12:24:06.066+01:00</time>
      </trkpt>
      <trkpt lat="45.40195" lon="6.62339">
        <ele>1930.76</ele>
        <time>2016-01-31T12:24:08.065+01:00</time>
      </trkpt>
      <trkpt lat="45.40203" lon="6.62355">
        <ele>1929.77</ele>
        <time>2016-01-31T12:24:10.065+01:00</time>
      </trkpt>
      <trkpt lat="45.40212" lon="6.62373">
        <ele>1927.78</ele>
        <time>2016-01-31T12:24:12.062+01:00</time>
      </trkpt>
      <trkpt lat="45.40222" lon="6.62388">
        <ele>1925.01</ele>
        <time>2016-01-31T12:24:14.063+01:00</time>
      </trkpt>
      <trkpt lat="45.40232" lon="6.62406">
        <ele>1923.2</ele>
        <time>2016-01-31T12:24:16.063+01:00</time>
      </trkpt>
      <trkpt lat="45.40243" lon="6.62423">
        <ele>1921.94</ele>
        <time>2016-01-31T12:24:18.063+01:00</time>
      </trkpt>
      <trkpt lat="45.40252" lon="6.62441">
        <ele>1920.2</ele>
        <time>2016-01-31T12:24:20.054+01:00</time>
      </trkpt>
      <trkpt lat="45.40258" lon="6.62451">
        <ele>1918.9</ele>
        <time>2016-01-31T12:24:21.064+01:00</time>
      </trkpt>
      <trkpt lat="45.40269" lon="6.62467">
        <ele>1916.7</ele>
        <time>2016-01-31T12:24:23.061+01:00</time>
      </trkpt>
      <trkpt lat="45.40276" lon="6.62476">
        <ele>1916.12</ele>
        <time>2016-01-31T12:24:24.061+01:00</time>
      </trkpt>
      <trkpt lat="45.40283" lon="6.62487">
        <ele>1914.5</ele>
        <time>2016-01-31T12:24:25.064+01:00</time>
      </trkpt>
      <trkpt lat="45.40289" lon="6.62496">
        <ele>1913.34</ele>
        <time>2016-01-31T12:24:26.062+01:00</time>
      </trkpt>
      <trkpt lat="45.40296" lon="6.62505">
        <ele>1911.8</ele>
        <time>2016-01-31T12:24:27.062+01:00</time>
      </trkpt>
      <trkpt lat="45.40307" lon="6.62522">
        <ele>1908.35</ele>
        <time>2016-01-31T12:24:29.061+01:00</time>
      </trkpt>
      <trkpt lat="45.40314" lon="6.62531">
        <ele>1908.75</ele>
        <time>2016-01-31T12:24:30.065+01:00</time>
      </trkpt>
      <trkpt lat="45.40321" lon="6.6254">
        <ele>1907.89</ele>
        <time>2016-01-31T12:24:31.062+01:00</time>
      </trkpt>
      <trkpt lat="45.40332" lon="6.62557">
        <ele>1906.27</ele>
        <time>2016-01-31T12:24:33.066+01:00</time>
      </trkpt>
      <trkpt lat="45.40345" lon="6.6257">
        <ele>1903.35</ele>
        <time>2016-01-31T12:24:35.049+01:00</time>
      </trkpt>
      <trkpt lat="45.40358" lon="6.62589">
        <ele>1901.23</ele>
        <time>2016-01-31T12:24:37.062+01:00</time>
      </trkpt>
      <trkpt lat="45.40366" lon="6.62598">
        <ele>1899.66</ele>
        <time>2016-01-31T12:24:38.065+01:00</time>
      </trkpt>
      <trkpt lat="45.40373" lon="6.62606">
        <ele>1897.8</ele>
        <time>2016-01-31T12:24:39.062+01:00</time>
      </trkpt>
      <trkpt lat="45.40386" lon="6.62622">
        <ele>1896.48</ele>
        <time>2016-01-31T12:24:41.063+01:00</time>
      </trkpt>
      <trkpt lat="45.404" lon="6.6264">
        <ele>1893.99</ele>
        <time>2016-01-31T12:24:43.062+01:00</time>
      </trkpt>
      <trkpt lat="45.40411" lon="6.62659">
        <ele>1893.99</ele>
        <time>2016-01-31T12:24:45.064+01:00</time>
      </trkpt>
      <trkpt lat="45.40422" lon="6.62669">
        <ele>1891.89</ele>
        <time>2016-01-31T12:24:47.069+01:00</time>
      </trkpt>
      <trkpt lat="45.40434" lon="6.62684">
        <ele>1891.61</ele>
        <time>2016-01-31T12:24:49.068+01:00</time>
      </trkpt>
      <trkpt lat="45.40442" lon="6.62699">
        <ele>1889.7</ele>
        <time>2016-01-31T12:24:51.056+01:00</time>
      </trkpt>
      <trkpt lat="45.40451" lon="6.62714">
        <ele>1888.39</ele>
        <time>2016-01-31T12:24:53.047+01:00</time>
      </trkpt>
      <trkpt lat="45.40459" lon="6.62729">
        <ele>1887.05</ele>
        <time>2016-01-31T12:24:55.047+01:00</time>
      </trkpt>
      <trkpt lat="45.40468" lon="6.62745">
        <ele>1885.27</ele>
        <time>2016-01-31T12:24:57.039+01:00</time>
      </trkpt>
      <trkpt lat="45.40476" lon="6.6276">
        <ele>1884.15</ele>
        <time>2016-01-31T12:24:59.039+01:00</time>
      </trkpt>
      <trkpt lat="45.40484" lon="6.62775">
        <ele>1883.19</ele>
        <time>2016-01-31T12:25:01.039+01:00</time>
      </trkpt>
      <trkpt lat="45.40491" lon="6.62786">
        <ele>1882.82</ele>
        <time>2016-01-31T12:25:03.060+01:00</time>
      </trkpt>
      <trkpt lat="45.40503" lon="6.62798">
        <ele>1880.54</ele>
        <time>2016-01-31T12:25:06.055+01:00</time>
      </trkpt>
      <trkpt lat="45.40514" lon="6.62806">
        <ele>1878.93</ele>
        <time>2016-01-31T12:25:08.046+01:00</time>
      </trkpt>
      <trkpt lat="45.40524" lon="6.62816">
        <ele>1878.58</ele>
        <time>2016-01-31T12:25:10.057+01:00</time>
      </trkpt>
      <trkpt lat="45.40532" lon="6.62829">
        <ele>1877.6</ele>
        <time>2016-01-31T12:25:12.057+01:00</time>
      </trkpt>
      <trkpt lat="45.40542" lon="6.62838">
        <ele>1875.79</ele>
        <time>2016-01-31T12:25:14.056+01:00</time>
      </trkpt>
      <trkpt lat="45.40552" lon="6.62852">
        <ele>1874.98</ele>
        <time>2016-01-31T12:25:16.072+01:00</time>
      </trkpt>
      <trkpt lat="45.40563" lon="6.62864">
        <ele>1873.17</ele>
        <time>2016-01-31T12:25:18.052+01:00</time>
      </trkpt>
      <trkpt lat="45.40575" lon="6.62875">
        <ele>1871.48</ele>
        <time>2016-01-31T12:25:20.058+01:00</time>
      </trkpt>
      <trkpt lat="45.40585" lon="6.62886">
        <ele>1870.82</ele>
        <time>2016-01-31T12:25:22.059+01:00</time>
      </trkpt>
      <trkpt lat="45.40598" lon="6.62895">
        <ele>1869.51</ele>
        <time>2016-01-31T12:25:24.043+01:00</time>
      </trkpt>
      <trkpt lat="45.40611" lon="6.62905">
        <ele>1866.67</ele>
        <time>2016-01-31T12:25:26.043+01:00</time>
      </trkpt>
      <trkpt lat="45.40626" lon="6.62912">
        <ele>1865.61</ele>
        <time>2016-01-31T12:25:28.067+01:00</time>
      </trkpt>
      <trkpt lat="45.40637" lon="6.62902">
        <ele>1865.49</ele>
        <time>2016-01-31T12:25:30.052+01:00</time>
      </trkpt>
      <trkpt lat="45.40648" lon="6.62894">
        <ele>1864.71</ele>
        <time>2016-01-31T12:25:32.056+01:00</time>
      </trkpt>
      <trkpt lat="45.40657" lon="6.62892">
        <ele>1865.27</ele>
        <time>2016-01-31T12:25:37.054+01:00</time>
      </trkpt>
      <trkpt lat="45.40666" lon="6.62889">
        <ele>1865.15</ele>
        <time>2016-01-31T12:25:43.056+01:00</time>
      </trkpt>
      <trkpt lat="45.40675" lon="6.62888">
        <ele>1865.32</ele>
        <time>2016-01-31T12:26:38.058+01:00</time>
      </trkpt>
      <trkpt lat="45.40683" lon="6.62895">
        <ele>1865.11</ele>
        <time>2016-01-31T12:27:46.060+01:00</time>
      </trkpt>
      <trkpt lat="45.40673" lon="6.62895">
        <ele>1864.87</ele>
        <time>2016-01-31T12:28:15.066+01:00</time>
      </trkpt>
      <trkpt lat="45.40683" lon="6.6289">
        <ele>1864.03</ele>
        <time>2016-01-31T12:28:42.057+01:00</time>
      </trkpt>
      <trkpt lat="45.40694" lon="6.62888">
        <ele>1863.09</ele>
        <time>2016-01-31T12:28:46.057+01:00</time>
      </trkpt>
      <trkpt lat="45.40705" lon="6.62889">
        <ele>1862.05</ele>
        <time>2016-01-31T12:28:50.056+01:00</time>
      </trkpt>
      <trkpt lat="45.40715" lon="6.62893">
        <ele>1861.29</ele>
        <time>2016-01-31T12:28:53.056+01:00</time>
      </trkpt>
      <trkpt lat="45.40726" lon="6.62898">
        <ele>1860.55</ele>
        <time>2016-01-31T12:28:56.058+01:00</time>
      </trkpt>
      <trkpt lat="45.40737" lon="6.62903">
        <ele>1859.22</ele>
        <time>2016-01-31T12:28:59.079+01:00</time>
      </trkpt>
      <trkpt lat="45.40749" lon="6.6291">
        <ele>1857.8</ele>
        <time>2016-01-31T12:29:02.065+01:00</time>
      </trkpt>
      <trkpt lat="45.40759" lon="6.62914">
        <ele>1856.86</ele>
        <time>2016-01-31T12:29:04.057+01:00</time>
      </trkpt>
      <trkpt lat="45.4077" lon="6.62919">
        <ele>1856.33</ele>
        <time>2016-01-31T12:29:06.059+01:00</time>
      </trkpt>
      <trkpt lat="45.40774" lon="6.62923">
        <ele>1855.78</ele>
        <time>2016-01-31T12:29:07.047+01:00</time>
      </trkpt>
      <trkpt lat="45.40785" lon="6.62929">
        <ele>1854.7</ele>
        <time>2016-01-31T12:29:09.066+01:00</time>
      </trkpt>
      <trkpt lat="45.40795" lon="6.62933">
        <ele>1853.64</ele>
        <time>2016-01-31T12:29:11.070+01:00</time>
      </trkpt>
      <trkpt lat="45.40805" lon="6.62938">
        <ele>1853.39</ele>
        <time>2016-01-31T12:29:13.063+01:00</time>
      </trkpt>
      <trkpt lat="45.40817" lon="6.62942">
        <ele>1853.39</ele>
        <time>2016-01-31T12:29:16.055+01:00</time>
      </trkpt>
      <trkpt lat="45.40826" lon="6.62948">
        <ele>1853.37</ele>
        <time>2016-01-31T12:29:19.055+01:00</time>
      </trkpt>
      <trkpt lat="45.40835" lon="6.62952">
        <ele>1852.74</ele>
        <time>2016-01-31T12:29:22.055+01:00</time>
      </trkpt>
      <trkpt lat="45.40844" lon="6.62957">
        <ele>1852.7</ele>
        <time>2016-01-31T12:29:26.053+01:00</time>
      </trkpt>
      <trkpt lat="45.40853" lon="6.62962">
        <ele>1852.46</ele>
        <time>2016-01-31T12:29:32.048+01:00</time>
      </trkpt>
      <trkpt lat="45.40862" lon="6.62966">
        <ele>1852.07</ele>
        <time>2016-01-31T12:29:39.047+01:00</time>
      </trkpt>
      <trkpt lat="45.40871" lon="6.6297">
        <ele>1851.58</ele>
        <time>2016-01-31T12:29:46.032+01:00</time>
      </trkpt>
      <trkpt lat="45.40887" lon="6.62972">
        <ele>1850.9</ele>
        <time>2016-01-31T12:30:07.074+01:00</time>
      </trkpt>
      <trkpt lat="45.40896" lon="6.62979">
        <ele>1850.45</ele>
        <time>2016-01-31T12:30:16.034+01:00</time>
      </trkpt>
      <trkpt lat="45.40906" lon="6.62979">
        <ele>1849.43</ele>
        <time>2016-01-31T12:30:23.051+01:00</time>
      </trkpt>
      <trkpt lat="45.40916" lon="6.62983">
        <ele>1845.35</ele>
        <time>2016-01-31T12:30:39.059+01:00</time>
      </trkpt>
      <trkpt lat="45.40974" lon="6.62996">
        <ele>1839.9</ele>
        <time>2016-01-31T12:30:44.056+01:00</time>
      </trkpt>
      <trkpt lat="45.40987" lon="6.63">
        <ele>1838.47</ele>
        <time>2016-01-31T12:30:46.050+01:00</time>
      </trkpt>
      <trkpt lat="45.40998" lon="6.63006">
        <ele>1836.57</ele>
        <time>2016-01-31T12:30:48.051+01:00</time>
      </trkpt>
      <trkpt lat="45.41007" lon="6.63012">
        <ele>1834.08</ele>
        <time>2016-01-31T12:30:50.055+01:00</time>
      </trkpt>
      <trkpt lat="45.41021" lon="6.63021">
        <ele>1831.94</ele>
        <time>2016-01-31T12:30:52.046+01:00</time>
      </trkpt>
      <trkpt lat="45.41031" lon="6.6303">
        <ele>1831.33</ele>
        <time>2016-01-31T12:30:54.054+01:00</time>
      </trkpt>
      <trkpt lat="45.41043" lon="6.6303">
        <ele>1830.72</ele>
        <time>2016-01-31T12:30:56.055+01:00</time>
      </trkpt>
      <trkpt lat="45.41055" lon="6.63035">
        <ele>1828.94</ele>
        <time>2016-01-31T12:30:58.057+01:00</time>
      </trkpt>
      <trkpt lat="45.41067" lon="6.63044">
        <ele>1827.08</ele>
        <time>2016-01-31T12:31:00.057+01:00</time>
      </trkpt>
      <trkpt lat="45.41082" lon="6.63045">
        <ele>1825.85</ele>
        <time>2016-01-31T12:31:02.044+01:00</time>
      </trkpt>
      <trkpt lat="45.41092" lon="6.63044">
        <ele>1823.15</ele>
        <time>2016-01-31T12:31:04.057+01:00</time>
      </trkpt>
      <trkpt lat="45.41101" lon="6.63045">
        <ele>1821.56</ele>
        <time>2016-01-31T12:31:05.053+01:00</time>
      </trkpt>
      <trkpt lat="45.4111" lon="6.63045">
        <ele>1820.98</ele>
        <time>2016-01-31T12:31:06.043+01:00</time>
      </trkpt>
      <trkpt lat="45.41123" lon="6.63046">
        <ele>1819.62</ele>
        <time>2016-01-31T12:31:08.095+01:00</time>
      </trkpt>
      <trkpt lat="45.41136" lon="6.63049">
        <ele>1817.53</ele>
        <time>2016-01-31T12:31:10.056+01:00</time>
      </trkpt>
      <trkpt lat="45.41145" lon="6.6305">
        <ele>1817.63</ele>
        <time>2016-01-31T12:31:11.055+01:00</time>
      </trkpt>
      <trkpt lat="45.4116" lon="6.63055">
        <ele>1816.03</ele>
        <time>2016-01-31T12:31:13.057+01:00</time>
      </trkpt>
      <trkpt lat="45.41177" lon="6.63058">
        <ele>1814.64</ele>
        <time>2016-01-31T12:31:15.063+01:00</time>
      </trkpt>
      <trkpt lat="45.41188" lon="6.63064">
        <ele>1814.13</ele>
        <time>2016-01-31T12:31:17.066+01:00</time>
      </trkpt>
      <trkpt lat="45.4121" lon="6.63068">
        <ele>1810.31</ele>
        <time>2016-01-31T12:31:20.072+01:00</time>
      </trkpt>
      <trkpt lat="45.4122" lon="6.63075">
        <ele>1807.77</ele>
        <time>2016-01-31T12:31:22.068+01:00</time>
      </trkpt>
      <trkpt lat="45.41243" lon="6.63082">
        <ele>1805.16</ele>
        <time>2016-01-31T12:31:24.059+01:00</time>
      </trkpt>
      <trkpt lat="45.41252" lon="6.63089">
        <ele>1802.9</ele>
        <time>2016-01-31T12:31:25.061+01:00</time>
      </trkpt>
      <trkpt lat="45.41261" lon="6.63091">
        <ele>1800.95</ele>
        <time>2016-01-31T12:31:26.071+01:00</time>
      </trkpt>
      <trkpt lat="45.41277" lon="6.63096">
        <ele>1799.24</ele>
        <time>2016-01-31T12:31:28.071+01:00</time>
      </trkpt>
      <trkpt lat="45.41288" lon="6.63105">
        <ele>1795.75</ele>
        <time>2016-01-31T12:31:30.071+01:00</time>
      </trkpt>
      <trkpt lat="45.41297" lon="6.63119">
        <ele>1792.58</ele>
        <time>2016-01-31T12:31:32.060+01:00</time>
      </trkpt>
      <trkpt lat="45.41304" lon="6.63138">
        <ele>1790.04</ele>
        <time>2016-01-31T12:31:34.070+01:00</time>
      </trkpt>
      <trkpt lat="45.41315" lon="6.63155">
        <ele>1787.01</ele>
        <time>2016-01-31T12:31:36.066+01:00</time>
      </trkpt>
      <trkpt lat="45.41323" lon="6.63174">
        <ele>1783.6</ele>
        <time>2016-01-31T12:31:38.054+01:00</time>
      </trkpt>
      <trkpt lat="45.41335" lon="6.63186">
        <ele>1781.3</ele>
        <time>2016-01-31T12:31:40.065+01:00</time>
      </trkpt>
      <trkpt lat="45.41343" lon="6.63206">
        <ele>1777.92</ele>
        <time>2016-01-31T12:31:42.066+01:00</time>
      </trkpt>
      <trkpt lat="45.41357" lon="6.63217">
        <ele>1776.74</ele>
        <time>2016-01-31T12:31:44.054+01:00</time>
      </trkpt>
      <trkpt lat="45.41371" lon="6.6323">
        <ele>1773.67</ele>
        <time>2016-01-31T12:31:46.040+01:00</time>
      </trkpt>
      <trkpt lat="45.41386" lon="6.63241">
        <ele>1771.53</ele>
        <time>2016-01-31T12:31:48.038+01:00</time>
      </trkpt>
      <trkpt lat="45.41398" lon="6.63251">
        <ele>1768.42</ele>
        <time>2016-01-31T12:31:50.068+01:00</time>
      </trkpt>
      <trkpt lat="45.41413" lon="6.63252">
        <ele>1767.1</ele>
        <time>2016-01-31T12:31:52.050+01:00</time>
      </trkpt>
      <trkpt lat="45.41424" lon="6.63258">
        <ele>1765.32</ele>
        <time>2016-01-31T12:31:54.038+01:00</time>
      </trkpt>
      <trkpt lat="45.41435" lon="6.63257">
        <ele>1764.84</ele>
        <time>2016-01-31T12:31:56.038+01:00</time>
      </trkpt>
      <trkpt lat="45.41447" lon="6.63261">
        <ele>1762.67</ele>
        <time>2016-01-31T12:31:58.049+01:00</time>
      </trkpt>
      <trkpt lat="45.41458" lon="6.6326">
        <ele>1761.6</ele>
        <time>2016-01-31T12:32:00.049+01:00</time>
      </trkpt>
      <trkpt lat="45.41469" lon="6.63271">
        <ele>1759.12</ele>
        <time>2016-01-31T12:32:03.053+01:00</time>
      </trkpt>
      <trkpt lat="45.41476" lon="6.63278">
        <ele>1758.32</ele>
        <time>2016-01-31T12:32:09.057+01:00</time>
      </trkpt>
      <trkpt lat="45.41475" lon="6.63292">
        <ele>1757.67</ele>
        <time>2016-01-31T12:32:32.064+01:00</time>
      </trkpt>
      <trkpt lat="45.41482" lon="6.63299">
        <ele>1760.01</ele>
        <time>2016-01-31T12:33:17.057+01:00</time>
      </trkpt>
      <trkpt lat="45.41491" lon="6.63306">
        <ele>1760.85</ele>
        <time>2016-01-31T12:33:30.067+01:00</time>
      </trkpt>
      <trkpt lat="45.415" lon="6.6331">
        <ele>1761.39</ele>
        <time>2016-01-31T12:33:39.080+01:00</time>
      </trkpt>
      <trkpt lat="45.41501" lon="6.63296">
        <ele>1761.47</ele>
        <time>2016-01-31T12:33:53.037+01:00</time>
      </trkpt>
      <trkpt lat="45.41496" lon="6.6328">
        <ele>1761.43</ele>
        <time>2016-01-31T12:33:55.044+01:00</time>
      </trkpt>
      <trkpt lat="45.415" lon="6.63289">
        <ele>1761.42</ele>
        <time>2016-01-31T12:33:58.048+01:00</time>
      </trkpt>
      <trkpt lat="45.41491" lon="6.63282">
        <ele>1760.95</ele>
        <time>2016-01-31T12:34:12.055+01:00</time>
      </trkpt>
      <trkpt lat="45.41498" lon="6.63293">
        <ele>1760.84</ele>
        <time>2016-01-31T12:34:38.063+01:00</time>
      </trkpt>
      <trkpt lat="45.41494" lon="6.6328">
        <ele>1760.57</ele>
        <time>2016-01-31T12:35:08.052+01:00</time>
      </trkpt>
      <trkpt lat="45.41486" lon="6.63268">
        <ele>1761.72</ele>
        <time>2016-01-31T12:35:26.052+01:00</time>
      </trkpt>
      <trkpt lat="45.4148" lon="6.63255">
        <ele>1763.11</ele>
        <time>2016-01-31T12:35:28.055+01:00</time>
      </trkpt>
      <trkpt lat="45.41475" lon="6.63243">
        <ele>1764.78</ele>
        <time>2016-01-31T12:35:30.057+01:00</time>
      </trkpt>
      <trkpt lat="45.4147" lon="6.63232">
        <ele>1766.51</ele>
        <time>2016-01-31T12:35:32.107+01:00</time>
      </trkpt>
      <trkpt lat="45.41463" lon="6.63218">
        <ele>1769.03</ele>
        <time>2016-01-31T12:35:35.068+01:00</time>
      </trkpt>
      <trkpt lat="45.41457" lon="6.63204">
        <ele>1772.22</ele>
        <time>2016-01-31T12:35:38.055+01:00</time>
      </trkpt>
      <trkpt lat="45.41451" lon="6.63191">
        <ele>1775.83</ele>
        <time>2016-01-31T12:35:41.059+01:00</time>
      </trkpt>
      <trkpt lat="45.41446" lon="6.63179">
        <ele>1779.75</ele>
        <time>2016-01-31T12:35:44.056+01:00</time>
      </trkpt>
      <trkpt lat="45.41441" lon="6.63165">
        <ele>1781.55</ele>
        <time>2016-01-31T12:35:47.055+01:00</time>
      </trkpt>
      <trkpt lat="45.41434" lon="6.63154">
        <ele>1783.6</ele>
        <time>2016-01-31T12:35:50.048+01:00</time>
      </trkpt>
      <trkpt lat="45.41429" lon="6.63142">
        <ele>1785.81</ele>
        <time>2016-01-31T12:35:53.056+01:00</time>
      </trkpt>
      <trkpt lat="45.41424" lon="6.63131">
        <ele>1788.5</ele>
        <time>2016-01-31T12:35:56.067+01:00</time>
      </trkpt>
      <trkpt lat="45.41418" lon="6.63119">
        <ele>1791.52</ele>
        <time>2016-01-31T12:35:59.061+01:00</time>
      </trkpt>
      <trkpt lat="45.41413" lon="6.63107">
        <ele>1794.72</ele>
        <time>2016-01-31T12:36:02.076+01:00</time>
      </trkpt>
      <trkpt lat="45.41408" lon="6.63095">
        <ele>1797.86</ele>
        <time>2016-01-31T12:36:05.105+01:00</time>
      </trkpt>
      <trkpt lat="45.41402" lon="6.6308">
        <ele>1801.9</ele>
        <time>2016-01-31T12:36:08.087+01:00</time>
      </trkpt>
      <trkpt lat="45.41394" lon="6.63066">
        <ele>1807.67</ele>
        <time>2016-01-31T12:36:12.066+01:00</time>
      </trkpt>
      <trkpt lat="45.41388" lon="6.63055">
        <ele>1810.89</ele>
        <time>2016-01-31T12:36:15.049+01:00</time>
      </trkpt>
      <trkpt lat="45.41382" lon="6.63044">
        <ele>1812.54</ele>
        <time>2016-01-31T12:36:18.065+01:00</time>
      </trkpt>
      <trkpt lat="45.41376" lon="6.63034">
        <ele>1815.45</ele>
        <time>2016-01-31T12:36:21.061+01:00</time>
      </trkpt>
      <trkpt lat="45.41369" lon="6.63023">
        <ele>1818.05</ele>
        <time>2016-01-31T12:36:24.051+01:00</time>
      </trkpt>
      <trkpt lat="45.41365" lon="6.63012">
        <ele>1821.19</ele>
        <time>2016-01-31T12:36:27.036+01:00</time>
      </trkpt>
      <trkpt lat="45.41361" lon="6.62999">
        <ele>1824.46</ele>
        <time>2016-01-31T12:36:30.065+01:00</time>
      </trkpt>
      <trkpt lat="45.41356" lon="6.62985">
        <ele>1828.29</ele>
        <time>2016-01-31T12:36:33.056+01:00</time>
      </trkpt>
      <trkpt lat="45.41351" lon="6.62975">
        <ele>1832.71</ele>
        <time>2016-01-31T12:36:36.054+01:00</time>
      </trkpt>
      <trkpt lat="45.41346" lon="6.62964">
        <ele>1834.86</ele>
        <time>2016-01-31T12:36:39.039+01:00</time>
      </trkpt>
      <trkpt lat="45.41338" lon="6.6295">
        <ele>1836.32</ele>
        <time>2016-01-31T12:36:43.055+01:00</time>
      </trkpt>
      <trkpt lat="45.41333" lon="6.6294">
        <ele>1837.65</ele>
        <time>2016-01-31T12:36:46.061+01:00</time>
      </trkpt>
      <trkpt lat="45.41328" lon="6.62929">
        <ele>1839.77</ele>
        <time>2016-01-31T12:36:49.060+01:00</time>
      </trkpt>
      <trkpt lat="45.41321" lon="6.62917">
        <ele>1841.5</ele>
        <time>2016-01-31T12:36:52.053+01:00</time>
      </trkpt>
      <trkpt lat="45.41314" lon="6.62908">
        <ele>1844.47</ele>
        <time>2016-01-31T12:36:55.059+01:00</time>
      </trkpt>
      <trkpt lat="45.41307" lon="6.62896">
        <ele>1846.21</ele>
        <time>2016-01-31T12:36:58.079+01:00</time>
      </trkpt>
      <trkpt lat="45.41301" lon="6.62884">
        <ele>1849.46</ele>
        <time>2016-01-31T12:37:01.111+01:00</time>
      </trkpt>
      <trkpt lat="45.41295" lon="6.62873">
        <ele>1851.66</ele>
        <time>2016-01-31T12:37:04.064+01:00</time>
      </trkpt>
      <trkpt lat="45.4129" lon="6.62861">
        <ele>1855.87</ele>
        <time>2016-01-31T12:37:07.090+01:00</time>
      </trkpt>
      <trkpt lat="45.41286" lon="6.6285">
        <ele>1858.77</ele>
        <time>2016-01-31T12:37:10.050+01:00</time>
      </trkpt>
      <trkpt lat="45.41283" lon="6.62835">
        <ele>1863.21</ele>
        <time>2016-01-31T12:37:13.088+01:00</time>
      </trkpt>
      <trkpt lat="45.41277" lon="6.62824">
        <ele>1866.27</ele>
        <time>2016-01-31T12:37:16.090+01:00</time>
      </trkpt>
      <trkpt lat="45.4127" lon="6.62812">
        <ele>1870.44</ele>
        <time>2016-01-31T12:37:19.039+01:00</time>
      </trkpt>
      <trkpt lat="45.41265" lon="6.62803">
        <ele>1874.38</ele>
        <time>2016-01-31T12:37:22.100+01:00</time>
      </trkpt>
      <trkpt lat="45.41258" lon="6.62791">
        <ele>1878.24</ele>
        <time>2016-01-31T12:37:25.092+01:00</time>
      </trkpt>
      <trkpt lat="45.41252" lon="6.62779">
        <ele>1883.16</ele>
        <time>2016-01-31T12:37:28.065+01:00</time>
      </trkpt>
      <trkpt lat="45.41248" lon="6.62766">
        <ele>1889.41</ele>
        <time>2016-01-31T12:37:32.065+01:00</time>
      </trkpt>
      <trkpt lat="45.41242" lon="6.62755">
        <ele>1892.64</ele>
        <time>2016-01-31T12:37:35.053+01:00</time>
      </trkpt>
      <trkpt lat="45.41236" lon="6.62744">
        <ele>1894.79</ele>
        <time>2016-01-31T12:37:38.081+01:00</time>
      </trkpt>
      <trkpt lat="45.41234" lon="6.6273">
        <ele>1897.82</ele>
        <time>2016-01-31T12:37:41.129+01:00</time>
      </trkpt>
      <trkpt lat="45.41228" lon="6.62717">
        <ele>1899.97</ele>
        <time>2016-01-31T12:37:44.063+01:00</time>
      </trkpt>
      <trkpt lat="45.41223" lon="6.62703">
        <ele>1903.79</ele>
        <time>2016-01-31T12:37:47.052+01:00</time>
      </trkpt>
      <trkpt lat="45.41219" lon="6.62691">
        <ele>1907.09</ele>
        <time>2016-01-31T12:37:50.053+01:00</time>
      </trkpt>
      <trkpt lat="45.41213" lon="6.62678">
        <ele>1910.65</ele>
        <time>2016-01-31T12:37:53.086+01:00</time>
      </trkpt>
      <trkpt lat="45.41207" lon="6.62666">
        <ele>1914.32</ele>
        <time>2016-01-31T12:37:56.062+01:00</time>
      </trkpt>
      <trkpt lat="45.41201" lon="6.62656">
        <ele>1918.46</ele>
        <time>2016-01-31T12:37:59.112+01:00</time>
      </trkpt>
      <trkpt lat="45.41196" lon="6.62644">
        <ele>1922.65</ele>
        <time>2016-01-31T12:38:02.066+01:00</time>
      </trkpt>
      <trkpt lat="45.41191" lon="6.62631">
        <ele>1925.94</ele>
        <time>2016-01-31T12:38:05.061+01:00</time>
      </trkpt>
      <trkpt lat="45.41186" lon="6.6262">
        <ele>1928</ele>
        <time>2016-01-31T12:38:08.110+01:00</time>
      </trkpt>
      <trkpt lat="45.41181" lon="6.62608">
        <ele>1930.35</ele>
        <time>2016-01-31T12:38:11.055+01:00</time>
      </trkpt>
      <trkpt lat="45.41175" lon="6.62595">
        <ele>1934.84</ele>
        <time>2016-01-31T12:38:15.088+01:00</time>
      </trkpt>
      <trkpt lat="45.41169" lon="6.62584">
        <ele>1938.2</ele>
        <time>2016-01-31T12:38:18.084+01:00</time>
      </trkpt>
      <trkpt lat="45.41165" lon="6.62572">
        <ele>1942.12</ele>
        <time>2016-01-31T12:38:21.092+01:00</time>
      </trkpt>
      <trkpt lat="45.4116" lon="6.6256">
        <ele>1945.65</ele>
        <time>2016-01-31T12:38:24.082+01:00</time>
      </trkpt>
      <trkpt lat="45.41155" lon="6.62548">
        <ele>1949.85</ele>
        <time>2016-01-31T12:38:27.087+01:00</time>
      </trkpt>
      <trkpt lat="45.41149" lon="6.62533">
        <ele>1956</ele>
        <time>2016-01-31T12:38:31.087+01:00</time>
      </trkpt>
      <trkpt lat="45.41143" lon="6.62522">
        <ele>1959.93</ele>
        <time>2016-01-31T12:38:34.084+01:00</time>
      </trkpt>
      <trkpt lat="45.41138" lon="6.6251">
        <ele>1963</ele>
        <time>2016-01-31T12:38:37.082+01:00</time>
      </trkpt>
      <trkpt lat="45.41132" lon="6.62499">
        <ele>1966.74</ele>
        <time>2016-01-31T12:38:40.127+01:00</time>
      </trkpt>
      <trkpt lat="45.41127" lon="6.62487">
        <ele>1970.59</ele>
        <time>2016-01-31T12:38:43.076+01:00</time>
      </trkpt>
      <trkpt lat="45.41122" lon="6.62475">
        <ele>1974.51</ele>
        <time>2016-01-31T12:38:46.072+01:00</time>
      </trkpt>
      <trkpt lat="45.41117" lon="6.62464">
        <ele>1977.18</ele>
        <time>2016-01-31T12:38:49.078+01:00</time>
      </trkpt>
      <trkpt lat="45.41111" lon="6.62454">
        <ele>1981.37</ele>
        <time>2016-01-31T12:38:52.067+01:00</time>
      </trkpt>
      <trkpt lat="45.41104" lon="6.62441">
        <ele>1987.5</ele>
        <time>2016-01-31T12:38:56.110+01:00</time>
      </trkpt>
      <trkpt lat="45.41099" lon="6.62427">
        <ele>1994.02</ele>
        <time>2016-01-31T12:39:00.072+01:00</time>
      </trkpt>
      <trkpt lat="45.41092" lon="6.62418">
        <ele>1996.9</ele>
        <time>2016-01-31T12:39:03.110+01:00</time>
      </trkpt>
      <trkpt lat="45.41085" lon="6.62407">
        <ele>1999.49</ele>
        <time>2016-01-31T12:39:06.098+01:00</time>
      </trkpt>
      <trkpt lat="45.4108" lon="6.62396">
        <ele>2003.06</ele>
        <time>2016-01-31T12:39:09.089+01:00</time>
      </trkpt>
      <trkpt lat="45.41074" lon="6.62385">
        <ele>2007.08</ele>
        <time>2016-01-31T12:39:12.104+01:00</time>
      </trkpt>
      <trkpt lat="45.41069" lon="6.62374">
        <ele>2010.95</ele>
        <time>2016-01-31T12:39:15.063+01:00</time>
      </trkpt>
      <trkpt lat="45.41063" lon="6.62361">
        <ele>2014.99</ele>
        <time>2016-01-31T12:39:18.088+01:00</time>
      </trkpt>
      <trkpt lat="45.41058" lon="6.6235">
        <ele>2019.02</ele>
        <time>2016-01-31T12:39:21.093+01:00</time>
      </trkpt>
      <trkpt lat="45.41053" lon="6.62337">
        <ele>2025.22</ele>
        <time>2016-01-31T12:39:25.093+01:00</time>
      </trkpt>
      <trkpt lat="45.41046" lon="6.62323">
        <ele>2030.87</ele>
        <time>2016-01-31T12:39:29.050+01:00</time>
      </trkpt>
      <trkpt lat="45.4104" lon="6.62311">
        <ele>2032.66</ele>
        <time>2016-01-31T12:39:32.046+01:00</time>
      </trkpt>
      <trkpt lat="45.41034" lon="6.62299">
        <ele>2034.68</ele>
        <time>2016-01-31T12:39:35.057+01:00</time>
      </trkpt>
      <trkpt lat="45.41028" lon="6.62287">
        <ele>2037.76</ele>
        <time>2016-01-31T12:39:38.056+01:00</time>
      </trkpt>
      <trkpt lat="45.41022" lon="6.62276">
        <ele>2040.94</ele>
        <time>2016-01-31T12:39:41.051+01:00</time>
      </trkpt>
      <trkpt lat="45.41017" lon="6.62263">
        <ele>2044.22</ele>
        <time>2016-01-31T12:39:44.100+01:00</time>
      </trkpt>
      <trkpt lat="45.41011" lon="6.62251">
        <ele>2047.25</ele>
        <time>2016-01-31T12:39:47.073+01:00</time>
      </trkpt>
      <trkpt lat="45.41006" lon="6.6224">
        <ele>2050.52</ele>
        <time>2016-01-31T12:39:50.058+01:00</time>
      </trkpt>
      <trkpt lat="45.41001" lon="6.62228">
        <ele>2052.86</ele>
        <time>2016-01-31T12:39:53.057+01:00</time>
      </trkpt>
      <trkpt lat="45.40995" lon="6.62217">
        <ele>2056.83</ele>
        <time>2016-01-31T12:39:56.056+01:00</time>
      </trkpt>
      <trkpt lat="45.4099" lon="6.62205">
        <ele>2060.65</ele>
        <time>2016-01-31T12:39:59.036+01:00</time>
      </trkpt>
      <trkpt lat="45.40985" lon="6.62193">
        <ele>2062.82</ele>
        <time>2016-01-31T12:40:02.041+01:00</time>
      </trkpt>
      <trkpt lat="45.4098" lon="6.6218">
        <ele>2065.06</ele>
        <time>2016-01-31T12:40:05.037+01:00</time>
      </trkpt>
      <trkpt lat="45.40974" lon="6.62168">
        <ele>2067.29</ele>
        <time>2016-01-31T12:40:08.036+01:00</time>
      </trkpt>
      <trkpt lat="45.40969" lon="6.62157">
        <ele>2070.25</ele>
        <time>2016-01-31T12:40:11.113+01:00</time>
      </trkpt>
      <trkpt lat="45.40964" lon="6.62146">
        <ele>2073.21</ele>
        <time>2016-01-31T12:40:14.071+01:00</time>
      </trkpt>
      <trkpt lat="45.40959" lon="6.62135">
        <ele>2076.52</ele>
        <time>2016-01-31T12:40:17.056+01:00</time>
      </trkpt>
      <trkpt lat="45.40953" lon="6.62123">
        <ele>2079.53</ele>
        <time>2016-01-31T12:40:20.054+01:00</time>
      </trkpt>
      <trkpt lat="45.40947" lon="6.62112">
        <ele>2082.97</ele>
        <time>2016-01-31T12:40:23.044+01:00</time>
      </trkpt>
      <trkpt lat="45.40942" lon="6.621">
        <ele>2086.44</ele>
        <time>2016-01-31T12:40:26.058+01:00</time>
      </trkpt>
      <trkpt lat="45.40936" lon="6.62088">
        <ele>2088.25</ele>
        <time>2016-01-31T12:40:29.055+01:00</time>
      </trkpt>
      <trkpt lat="45.4093" lon="6.62076">
        <ele>2090.35</ele>
        <time>2016-01-31T12:40:32.060+01:00</time>
      </trkpt>
      <trkpt lat="45.40925" lon="6.62065">
        <ele>2092.52</ele>
        <time>2016-01-31T12:40:35.049+01:00</time>
      </trkpt>
      <trkpt lat="45.4092" lon="6.62053">
        <ele>2095.11</ele>
        <time>2016-01-31T12:40:38.054+01:00</time>
      </trkpt>
      <trkpt lat="45.40913" lon="6.62037">
        <ele>2098.99</ele>
        <time>2016-01-31T12:40:42.040+01:00</time>
      </trkpt>
      <trkpt lat="45.40908" lon="6.62026">
        <ele>2101.63</ele>
        <time>2016-01-31T12:40:45.082+01:00</time>
      </trkpt>
      <trkpt lat="45.40903" lon="6.62015">
        <ele>2104.82</ele>
        <time>2016-01-31T12:40:48.049+01:00</time>
      </trkpt>
      <trkpt lat="45.40898" lon="6.62002">
        <ele>2108.54</ele>
        <time>2016-01-31T12:40:51.062+01:00</time>
      </trkpt>
      <trkpt lat="45.40892" lon="6.61992">
        <ele>2112.52</ele>
        <time>2016-01-31T12:40:54.058+01:00</time>
      </trkpt>
      <trkpt lat="45.40885" lon="6.61979">
        <ele>2114.09</ele>
        <time>2016-01-31T12:40:57.067+01:00</time>
      </trkpt>
      <trkpt lat="45.40878" lon="6.61968">
        <ele>2115.71</ele>
        <time>2016-01-31T12:41:00.046+01:00</time>
      </trkpt>
      <trkpt lat="45.40873" lon="6.61952">
        <ele>2118.55</ele>
        <time>2016-01-31T12:41:04.054+01:00</time>
      </trkpt>
      <trkpt lat="45.40869" lon="6.6194">
        <ele>2121</ele>
        <time>2016-01-31T12:41:07.043+01:00</time>
      </trkpt>
      <trkpt lat="45.40862" lon="6.61928">
        <ele>2123.89</ele>
        <time>2016-01-31T12:41:10.049+01:00</time>
      </trkpt>
      <trkpt lat="45.40856" lon="6.61915">
        <ele>2126.92</ele>
        <time>2016-01-31T12:41:13.073+01:00</time>
      </trkpt>
      <trkpt lat="45.40851" lon="6.61901">
        <ele>2129.8</ele>
        <time>2016-01-31T12:41:16.100+01:00</time>
      </trkpt>
      <trkpt lat="45.40845" lon="6.6189">
        <ele>2132.89</ele>
        <time>2016-01-31T12:41:19.072+01:00</time>
      </trkpt>
      <trkpt lat="45.4084" lon="6.61879">
        <ele>2136.31</ele>
        <time>2016-01-31T12:41:22.057+01:00</time>
      </trkpt>
      <trkpt lat="45.40834" lon="6.61868">
        <ele>2139.97</ele>
        <time>2016-01-31T12:41:25.051+01:00</time>
      </trkpt>
      <trkpt lat="45.40829" lon="6.61856">
        <ele>2141.46</ele>
        <time>2016-01-31T12:41:28.046+01:00</time>
      </trkpt>
      <trkpt lat="45.40824" lon="6.61844">
        <ele>2143.41</ele>
        <time>2016-01-31T12:41:31.048+01:00</time>
      </trkpt>
      <trkpt lat="45.40818" lon="6.61831">
        <ele>2145.94</ele>
        <time>2016-01-31T12:41:34.058+01:00</time>
      </trkpt>
      <trkpt lat="45.40813" lon="6.61819">
        <ele>2148.36</ele>
        <time>2016-01-31T12:41:37.053+01:00</time>
      </trkpt>
      <trkpt lat="45.40806" lon="6.61807">
        <ele>2150.72</ele>
        <time>2016-01-31T12:41:40.093+01:00</time>
      </trkpt>
      <trkpt lat="45.40802" lon="6.61795">
        <ele>2154.04</ele>
        <time>2016-01-31T12:41:43.059+01:00</time>
      </trkpt>
      <trkpt lat="45.40799" lon="6.61783">
        <ele>2157.45</ele>
        <time>2016-01-31T12:41:46.050+01:00</time>
      </trkpt>
      <trkpt lat="45.40794" lon="6.61771">
        <ele>2160.34</ele>
        <time>2016-01-31T12:41:49.045+01:00</time>
      </trkpt>
      <trkpt lat="45.40789" lon="6.6176">
        <ele>2160.88</ele>
        <time>2016-01-31T12:41:52.058+01:00</time>
      </trkpt>
      <trkpt lat="45.40784" lon="6.61748">
        <ele>2162.13</ele>
        <time>2016-01-31T12:41:55.047+01:00</time>
      </trkpt>
      <trkpt lat="45.40779" lon="6.61736">
        <ele>2163.75</ele>
        <time>2016-01-31T12:41:58.052+01:00</time>
      </trkpt>
      <trkpt lat="45.40774" lon="6.61725">
        <ele>2165.16</ele>
        <time>2016-01-31T12:42:01.055+01:00</time>
      </trkpt>
      <trkpt lat="45.40769" lon="6.61713">
        <ele>2167.15</ele>
        <time>2016-01-31T12:42:04.059+01:00</time>
      </trkpt>
      <trkpt lat="45.40763" lon="6.617">
        <ele>2169.62</ele>
        <time>2016-01-31T12:42:07.044+01:00</time>
      </trkpt>
      <trkpt lat="45.40757" lon="6.61689">
        <ele>2171.75</ele>
        <time>2016-01-31T12:42:10.065+01:00</time>
      </trkpt>
      <trkpt lat="45.40751" lon="6.61676">
        <ele>2174.04</ele>
        <time>2016-01-31T12:42:13.140+01:00</time>
      </trkpt>
      <trkpt lat="45.40745" lon="6.61664">
        <ele>2176.65</ele>
        <time>2016-01-31T12:42:16.049+01:00</time>
      </trkpt>
      <trkpt lat="45.4074" lon="6.61653">
        <ele>2179.93</ele>
        <time>2016-01-31T12:42:19.051+01:00</time>
      </trkpt>
      <trkpt lat="45.40734" lon="6.61642">
        <ele>2182.77</ele>
        <time>2016-01-31T12:42:22.059+01:00</time>
      </trkpt>
      <trkpt lat="45.40729" lon="6.61629">
        <ele>2186.53</ele>
        <time>2016-01-31T12:42:25.055+01:00</time>
      </trkpt>
      <trkpt lat="45.40723" lon="6.61618">
        <ele>2189.31</ele>
        <time>2016-01-31T12:42:28.054+01:00</time>
      </trkpt>
      <trkpt lat="45.40717" lon="6.61607">
        <ele>2193.07</ele>
        <time>2016-01-31T12:42:31.050+01:00</time>
      </trkpt>
      <trkpt lat="45.40712" lon="6.61594">
        <ele>2196.43</ele>
        <time>2016-01-31T12:42:34.047+01:00</time>
      </trkpt>
      <trkpt lat="45.40707" lon="6.61583">
        <ele>2200.12</ele>
        <time>2016-01-31T12:42:37.075+01:00</time>
      </trkpt>
      <trkpt lat="45.40702" lon="6.61572">
        <ele>2203.98</ele>
        <time>2016-01-31T12:42:40.062+01:00</time>
      </trkpt>
      <trkpt lat="45.40697" lon="6.6156">
        <ele>2207.48</ele>
        <time>2016-01-31T12:42:43.058+01:00</time>
      </trkpt>
      <trkpt lat="45.40691" lon="6.61549">
        <ele>2210.47</ele>
        <time>2016-01-31T12:42:46.045+01:00</time>
      </trkpt>
      <trkpt lat="45.40686" lon="6.61537">
        <ele>2213.32</ele>
        <time>2016-01-31T12:42:49.057+01:00</time>
      </trkpt>
      <trkpt lat="45.40681" lon="6.61526">
        <ele>2216.1</ele>
        <time>2016-01-31T12:42:52.054+01:00</time>
      </trkpt>
      <trkpt lat="45.40674" lon="6.61514">
        <ele>2218.92</ele>
        <time>2016-01-31T12:42:55.058+01:00</time>
      </trkpt>
      <trkpt lat="45.40668" lon="6.61504">
        <ele>2221.94</ele>
        <time>2016-01-31T12:42:58.041+01:00</time>
      </trkpt>
      <trkpt lat="45.40663" lon="6.61493">
        <ele>2225.01</ele>
        <time>2016-01-31T12:43:01.035+01:00</time>
      </trkpt>
      <trkpt lat="45.40657" lon="6.61482">
        <ele>2227.55</ele>
        <time>2016-01-31T12:43:04.034+01:00</time>
      </trkpt>
      <trkpt lat="45.40651" lon="6.61471">
        <ele>2231.75</ele>
        <time>2016-01-31T12:43:07.073+01:00</time>
      </trkpt>
      <trkpt lat="45.40646" lon="6.61459">
        <ele>2234.92</ele>
        <time>2016-01-31T12:43:10.075+01:00</time>
      </trkpt>
      <trkpt lat="45.4064" lon="6.61447">
        <ele>2237.29</ele>
        <time>2016-01-31T12:43:13.077+01:00</time>
      </trkpt>
      <trkpt lat="45.40634" lon="6.61435">
        <ele>2236.93</ele>
        <time>2016-01-31T12:43:16.072+01:00</time>
      </trkpt>
      <trkpt lat="45.40627" lon="6.61422">
        <ele>2236.7</ele>
        <time>2016-01-31T12:43:19.073+01:00</time>
      </trkpt>
      <trkpt lat="45.40619" lon="6.61429">
        <ele>2237.64</ele>
        <time>2016-01-31T12:43:46.057+01:00</time>
      </trkpt>
      <trkpt lat="45.4062" lon="6.61416">
        <ele>2236.32</ele>
        <time>2016-01-31T12:44:07.036+01:00</time>
      </trkpt>
      <trkpt lat="45.40617" lon="6.61402">
        <ele>2236.17</ele>
        <time>2016-01-31T12:44:36.036+01:00</time>
      </trkpt>
      <trkpt lat="45.40609" lon="6.61408">
        <ele>2235.94</ele>
        <time>2016-01-31T12:45:13.035+01:00</time>
      </trkpt>
      <trkpt lat="45.406" lon="6.6141">
        <ele>2235.42</ele>
        <time>2016-01-31T12:45:51.034+01:00</time>
      </trkpt>
      <trkpt lat="45.40621" lon="6.61396">
        <ele>2240.73</ele>
        <time>2016-01-31T14:10:09.052+01:00</time>
      </trkpt>
      <trkpt lat="45.40629" lon="6.61388">
        <ele>2241.37</ele>
        <time>2016-01-31T14:10:21.056+01:00</time>
      </trkpt>
      <trkpt lat="45.40636" lon="6.61378">
        <ele>2243.26</ele>
        <time>2016-01-31T14:10:52.083+01:00</time>
      </trkpt>
      <trkpt lat="45.40645" lon="6.61373">
        <ele>2244.61</ele>
        <time>2016-01-31T14:11:27.062+01:00</time>
      </trkpt>
      <trkpt lat="45.40656" lon="6.61374">
        <ele>2244.13</ele>
        <time>2016-01-31T14:11:33.049+01:00</time>
      </trkpt>
      <trkpt lat="45.40668" lon="6.61375">
        <ele>2243.14</ele>
        <time>2016-01-31T14:11:37.052+01:00</time>
      </trkpt>
      <trkpt lat="45.4068" lon="6.61378">
        <ele>2243.38</ele>
        <time>2016-01-31T14:11:40.040+01:00</time>
      </trkpt>
      <trkpt lat="45.40689" lon="6.6138">
        <ele>2243.16</ele>
        <time>2016-01-31T14:11:43.069+01:00</time>
      </trkpt>
      <trkpt lat="45.40702" lon="6.61383">
        <ele>2241.89</ele>
        <time>2016-01-31T14:11:47.051+01:00</time>
      </trkpt>
      <trkpt lat="45.40711" lon="6.61384">
        <ele>2240.71</ele>
        <time>2016-01-31T14:11:50.064+01:00</time>
      </trkpt>
      <trkpt lat="45.40733" lon="6.61387">
        <ele>2238.67</ele>
        <time>2016-01-31T14:11:53.054+01:00</time>
      </trkpt>
      <trkpt lat="45.40746" lon="6.61388">
        <ele>2238.22</ele>
        <time>2016-01-31T14:11:55.039+01:00</time>
      </trkpt>
      <trkpt lat="45.40763" lon="6.61385">
        <ele>2237.11</ele>
        <time>2016-01-31T14:11:57.037+01:00</time>
      </trkpt>
      <trkpt lat="45.40774" lon="6.61388">
        <ele>2236.04</ele>
        <time>2016-01-31T14:11:58.034+01:00</time>
      </trkpt>
      <trkpt lat="45.40785" lon="6.61393">
        <ele>2234.23</ele>
        <time>2016-01-31T14:12:00.045+01:00</time>
      </trkpt>
      <trkpt lat="45.40798" lon="6.61402">
        <ele>2233.54</ele>
        <time>2016-01-31T14:12:02.068+01:00</time>
      </trkpt>
      <trkpt lat="45.40819" lon="6.61415">
        <ele>2230.75</ele>
        <time>2016-01-31T14:12:06.048+01:00</time>
      </trkpt>
      <trkpt lat="45.40829" lon="6.61422">
        <ele>2229.56</ele>
        <time>2016-01-31T14:12:09.086+01:00</time>
      </trkpt>
      <trkpt lat="45.40839" lon="6.61426">
        <ele>2229.25</ele>
        <time>2016-01-31T14:12:11.052+01:00</time>
      </trkpt>
      <trkpt lat="45.40862" lon="6.6143">
        <ele>2227.04</ele>
        <time>2016-01-31T14:12:14.050+01:00</time>
      </trkpt>
      <trkpt lat="45.40879" lon="6.61433">
        <ele>2225.72</ele>
        <time>2016-01-31T14:12:16.067+01:00</time>
      </trkpt>
      <trkpt lat="45.40892" lon="6.61439">
        <ele>2223.18</ele>
        <time>2016-01-31T14:12:18.064+01:00</time>
      </trkpt>
      <trkpt lat="45.409" lon="6.61447">
        <ele>2221.86</ele>
        <time>2016-01-31T14:12:19.058+01:00</time>
      </trkpt>
      <trkpt lat="45.4091" lon="6.61459">
        <ele>2221.11</ele>
        <time>2016-01-31T14:12:21.043+01:00</time>
      </trkpt>
      <trkpt lat="45.40917" lon="6.61477">
        <ele>2216.54</ele>
        <time>2016-01-31T14:12:25.056+01:00</time>
      </trkpt>
      <trkpt lat="45.40966" lon="6.61526">
        <ele>2211.92</ele>
        <time>2016-01-31T14:12:29.059+01:00</time>
      </trkpt>
      <trkpt lat="45.40985" lon="6.61518">
        <ele>2208.26</ele>
        <time>2016-01-31T14:12:34.066+01:00</time>
      </trkpt>
      <trkpt lat="45.40995" lon="6.61513">
        <ele>2207.24</ele>
        <time>2016-01-31T14:12:36.043+01:00</time>
      </trkpt>
      <trkpt lat="45.41004" lon="6.61509">
        <ele>2204.85</ele>
        <time>2016-01-31T14:12:38.035+01:00</time>
      </trkpt>
      <trkpt lat="45.41019" lon="6.61505">
        <ele>2202.59</ele>
        <time>2016-01-31T14:12:40.039+01:00</time>
      </trkpt>
      <trkpt lat="45.41029" lon="6.61508">
        <ele>2199.73</ele>
        <time>2016-01-31T14:12:42.034+01:00</time>
      </trkpt>
      <trkpt lat="45.41047" lon="6.61523">
        <ele>2197.81</ele>
        <time>2016-01-31T14:12:44.077+01:00</time>
      </trkpt>
      <trkpt lat="45.41053" lon="6.61536">
        <ele>2194.33</ele>
        <time>2016-01-31T14:12:46.065+01:00</time>
      </trkpt>
      <trkpt lat="45.41061" lon="6.61556">
        <ele>2189.73</ele>
        <time>2016-01-31T14:12:48.072+01:00</time>
      </trkpt>
      <trkpt lat="45.41066" lon="6.61572">
        <ele>2186.7</ele>
        <time>2016-01-31T14:12:50.064+01:00</time>
      </trkpt>
      <trkpt lat="45.41071" lon="6.61585">
        <ele>2189.45</ele>
        <time>2016-01-31T14:12:55.067+01:00</time>
      </trkpt>
      <trkpt lat="45.41088" lon="6.61583">
        <ele>2189.47</ele>
        <time>2016-01-31T14:12:58.061+01:00</time>
      </trkpt>
      <trkpt lat="45.41099" lon="6.61579">
        <ele>2189.82</ele>
        <time>2016-01-31T14:13:03.072+01:00</time>
      </trkpt>
      <trkpt lat="45.41109" lon="6.61574">
        <ele>2188.76</ele>
        <time>2016-01-31T14:13:08.052+01:00</time>
      </trkpt>
      <trkpt lat="45.4112" lon="6.61571">
        <ele>2187.7</ele>
        <time>2016-01-31T14:13:12.080+01:00</time>
      </trkpt>
      <trkpt lat="45.41128" lon="6.61562">
        <ele>2185.89</ele>
        <time>2016-01-31T14:13:16.114+01:00</time>
      </trkpt>
      <trkpt lat="45.41138" lon="6.61566">
        <ele>2182.88</ele>
        <time>2016-01-31T14:13:30.055+01:00</time>
      </trkpt>
      <trkpt lat="45.41183" lon="6.61563">
        <ele>2169.56</ele>
        <time>2016-01-31T14:13:35.061+01:00</time>
      </trkpt>
      <trkpt lat="45.41193" lon="6.61564">
        <ele>2168.08</ele>
        <time>2016-01-31T14:13:36.107+01:00</time>
      </trkpt>
      <trkpt lat="45.41206" lon="6.61566">
        <ele>2163.65</ele>
        <time>2016-01-31T14:13:38.089+01:00</time>
      </trkpt>
      <trkpt lat="45.41228" lon="6.61571">
        <ele>2158.43</ele>
        <time>2016-01-31T14:13:40.087+01:00</time>
      </trkpt>
      <trkpt lat="45.41242" lon="6.61576">
        <ele>2154.67</ele>
        <time>2016-01-31T14:13:42.069+01:00</time>
      </trkpt>
      <trkpt lat="45.41252" lon="6.61579">
        <ele>2152.36</ele>
        <time>2016-01-31T14:13:43.065+01:00</time>
      </trkpt>
      <trkpt lat="45.41261" lon="6.61575">
        <ele>2147.06</ele>
        <time>2016-01-31T14:13:45.095+01:00</time>
      </trkpt>
      <trkpt lat="45.41273" lon="6.61573">
        <ele>2144.21</ele>
        <time>2016-01-31T14:13:47.056+01:00</time>
      </trkpt>
      <trkpt lat="45.41285" lon="6.61584">
        <ele>2140</ele>
        <time>2016-01-31T14:13:49.056+01:00</time>
      </trkpt>
      <trkpt lat="45.41298" lon="6.61586">
        <ele>2136.12</ele>
        <time>2016-01-31T14:13:51.063+01:00</time>
      </trkpt>
      <trkpt lat="45.4131" lon="6.6159">
        <ele>2132.59</ele>
        <time>2016-01-31T14:13:53.074+01:00</time>
      </trkpt>
      <trkpt lat="45.41322" lon="6.61587">
        <ele>2130.29</ele>
        <time>2016-01-31T14:13:56.059+01:00</time>
      </trkpt>
      <trkpt lat="45.41327" lon="6.61604">
        <ele>2127.97</ele>
        <time>2016-01-31T14:14:01.069+01:00</time>
      </trkpt>
      <trkpt lat="45.41337" lon="6.61611">
        <ele>2127.11</ele>
        <time>2016-01-31T14:14:04.064+01:00</time>
      </trkpt>
      <trkpt lat="45.41344" lon="6.6162">
        <ele>2126.26</ele>
        <time>2016-01-31T14:14:06.053+01:00</time>
      </trkpt>
      <trkpt lat="45.41354" lon="6.61632">
        <ele>2125.27</ele>
        <time>2016-01-31T14:14:09.040+01:00</time>
      </trkpt>
      <trkpt lat="45.4136" lon="6.61641">
        <ele>2123.37</ele>
        <time>2016-01-31T14:14:11.064+01:00</time>
      </trkpt>
      <trkpt lat="45.41368" lon="6.61652">
        <ele>2122.57</ele>
        <time>2016-01-31T14:14:13.047+01:00</time>
      </trkpt>
      <trkpt lat="45.41375" lon="6.61661">
        <ele>2121.37</ele>
        <time>2016-01-31T14:14:15.042+01:00</time>
      </trkpt>
      <trkpt lat="45.41384" lon="6.61672">
        <ele>2121.15</ele>
        <time>2016-01-31T14:14:17.056+01:00</time>
      </trkpt>
      <trkpt lat="45.41391" lon="6.61684">
        <ele>2119.45</ele>
        <time>2016-01-31T14:14:20.051+01:00</time>
      </trkpt>
      <trkpt lat="45.41398" lon="6.61695">
        <ele>2119.22</ele>
        <time>2016-01-31T14:14:22.057+01:00</time>
      </trkpt>
      <trkpt lat="45.41405" lon="6.61709">
        <ele>2118.8</ele>
        <time>2016-01-31T14:14:25.058+01:00</time>
      </trkpt>
      <trkpt lat="45.41416" lon="6.61715">
        <ele>2116.24</ele>
        <time>2016-01-31T14:14:41.091+01:00</time>
      </trkpt>
      <trkpt lat="45.41427" lon="6.61715">
        <ele>2112.34</ele>
        <time>2016-01-31T14:14:44.092+01:00</time>
      </trkpt>
      <trkpt lat="45.41439" lon="6.61727">
        <ele>2107.86</ele>
        <time>2016-01-31T14:14:46.044+01:00</time>
      </trkpt>
      <trkpt lat="45.41449" lon="6.61738">
        <ele>2104.09</ele>
        <time>2016-01-31T14:14:48.087+01:00</time>
      </trkpt>
      <trkpt lat="45.41457" lon="6.61751">
        <ele>2102.07</ele>
        <time>2016-01-31T14:14:50.084+01:00</time>
      </trkpt>
      <trkpt lat="45.41467" lon="6.61754">
        <ele>2097.29</ele>
        <time>2016-01-31T14:14:52.108+01:00</time>
      </trkpt>
      <trkpt lat="45.41479" lon="6.61765">
        <ele>2093.71</ele>
        <time>2016-01-31T14:14:54.087+01:00</time>
      </trkpt>
      <trkpt lat="45.41493" lon="6.61772">
        <ele>2089.81</ele>
        <time>2016-01-31T14:14:56.079+01:00</time>
      </trkpt>
      <trkpt lat="45.41509" lon="6.61783">
        <ele>2084.35</ele>
        <time>2016-01-31T14:14:58.088+01:00</time>
      </trkpt>
      <trkpt lat="45.41523" lon="6.61784">
        <ele>2082.26</ele>
        <time>2016-01-31T14:15:00.063+01:00</time>
      </trkpt>
      <trkpt lat="45.41533" lon="6.61794">
        <ele>2079.6</ele>
        <time>2016-01-31T14:15:02.100+01:00</time>
      </trkpt>
      <trkpt lat="45.41543" lon="6.61793">
        <ele>2078.15</ele>
        <time>2016-01-31T14:15:04.072+01:00</time>
      </trkpt>
      <trkpt lat="45.41558" lon="6.61795">
        <ele>2075.85</ele>
        <time>2016-01-31T14:15:06.072+01:00</time>
      </trkpt>
      <trkpt lat="45.41565" lon="6.61783">
        <ele>2073.72</ele>
        <time>2016-01-31T14:15:09.053+01:00</time>
      </trkpt>
      <trkpt lat="45.41581" lon="6.6178">
        <ele>2069.02</ele>
        <time>2016-01-31T14:15:19.057+01:00</time>
      </trkpt>
      <trkpt lat="45.41598" lon="6.61782">
        <ele>2067.5</ele>
        <time>2016-01-31T14:15:21.105+01:00</time>
      </trkpt>
      <trkpt lat="45.4161" lon="6.61775">
        <ele>2065.54</ele>
        <time>2016-01-31T14:15:23.059+01:00</time>
      </trkpt>
      <trkpt lat="45.4162" lon="6.6176">
        <ele>2062.45</ele>
        <time>2016-01-31T14:15:25.080+01:00</time>
      </trkpt>
      <trkpt lat="45.41622" lon="6.61739">
        <ele>2058.78</ele>
        <time>2016-01-31T14:15:27.076+01:00</time>
      </trkpt>
      <trkpt lat="45.41626" lon="6.61718">
        <ele>2054.32</ele>
        <time>2016-01-31T14:15:29.054+01:00</time>
      </trkpt>
      <trkpt lat="45.41626" lon="6.61702">
        <ele>2051.53</ele>
        <time>2016-01-31T14:15:30.104+01:00</time>
      </trkpt>
      <trkpt lat="45.41627" lon="6.61688">
        <ele>2051.06</ele>
        <time>2016-01-31T14:15:31.091+01:00</time>
      </trkpt>
      <trkpt lat="45.41634" lon="6.61673">
        <ele>2047.34</ele>
        <time>2016-01-31T14:15:33.097+01:00</time>
      </trkpt>
      <trkpt lat="45.41637" lon="6.61652">
        <ele>2045.54</ele>
        <time>2016-01-31T14:15:35.082+01:00</time>
      </trkpt>
      <trkpt lat="45.41637" lon="6.61634">
        <ele>2042.06</ele>
        <time>2016-01-31T14:15:37.054+01:00</time>
      </trkpt>
      <trkpt lat="45.41635" lon="6.61612">
        <ele>2039.25</ele>
        <time>2016-01-31T14:15:39.078+01:00</time>
      </trkpt>
      <trkpt lat="45.41637" lon="6.61596">
        <ele>2033.46</ele>
        <time>2016-01-31T14:15:42.038+01:00</time>
      </trkpt>
      <trkpt lat="45.41641" lon="6.61566">
        <ele>2031.05</ele>
        <time>2016-01-31T14:15:44.101+01:00</time>
      </trkpt>
      <trkpt lat="45.41645" lon="6.61554">
        <ele>2028.15</ele>
        <time>2016-01-31T14:15:45.057+01:00</time>
      </trkpt>
      <trkpt lat="45.41641" lon="6.61535">
        <ele>2024.15</ele>
        <time>2016-01-31T14:15:47.061+01:00</time>
      </trkpt>
      <trkpt lat="45.41645" lon="6.6151">
        <ele>2019.36</ele>
        <time>2016-01-31T14:15:49.044+01:00</time>
      </trkpt>
      <trkpt lat="45.41644" lon="6.61492">
        <ele>2016.15</ele>
        <time>2016-01-31T14:15:52.093+01:00</time>
      </trkpt>
      <trkpt lat="45.41644" lon="6.61475">
        <ele>2014.72</ele>
        <time>2016-01-31T14:15:54.056+01:00</time>
      </trkpt>
      <trkpt lat="45.41644" lon="6.61448">
        <ele>2011.46</ele>
        <time>2016-01-31T14:15:56.041+01:00</time>
      </trkpt>
      <trkpt lat="45.41642" lon="6.61424">
        <ele>2008.61</ele>
        <time>2016-01-31T14:15:58.064+01:00</time>
      </trkpt>
      <trkpt lat="45.41642" lon="6.61409">
        <ele>2007.54</ele>
        <time>2016-01-31T14:15:59.097+01:00</time>
      </trkpt>
      <trkpt lat="45.41634" lon="6.61387">
        <ele>2005.93</ele>
        <time>2016-01-31T14:16:01.084+01:00</time>
      </trkpt>
      <trkpt lat="45.41625" lon="6.61371">
        <ele>2003.49</ele>
        <time>2016-01-31T14:16:03.068+01:00</time>
      </trkpt>
      <trkpt lat="45.41618" lon="6.61351">
        <ele>2001.83</ele>
        <time>2016-01-31T14:16:05.052+01:00</time>
      </trkpt>
      <trkpt lat="45.4161" lon="6.61334">
        <ele>2001.63</ele>
        <time>2016-01-31T14:16:07.046+01:00</time>
      </trkpt>
      <trkpt lat="45.41611" lon="6.61318">
        <ele>1999.9</ele>
        <time>2016-01-31T14:16:08.045+01:00</time>
      </trkpt>
      <trkpt lat="45.41608" lon="6.61296">
        <ele>1997.76</ele>
        <time>2016-01-31T14:16:10.033+01:00</time>
      </trkpt>
      <trkpt lat="45.41606" lon="6.61284">
        <ele>1996.35</ele>
        <time>2016-01-31T14:16:11.049+01:00</time>
      </trkpt>
      <trkpt lat="45.41601" lon="6.61256">
        <ele>1992.36</ele>
        <time>2016-01-31T14:16:13.036+01:00</time>
      </trkpt>
      <trkpt lat="45.41591" lon="6.61237">
        <ele>1988.59</ele>
        <time>2016-01-31T14:16:15.040+01:00</time>
      </trkpt>
      <trkpt lat="45.41586" lon="6.61226">
        <ele>1986.66</ele>
        <time>2016-01-31T14:16:16.037+01:00</time>
      </trkpt>
      <trkpt lat="45.41575" lon="6.61221">
        <ele>1982.3</ele>
        <time>2016-01-31T14:16:18.074+01:00</time>
      </trkpt>
      <trkpt lat="45.41567" lon="6.61214">
        <ele>1982.47</ele>
        <time>2016-01-31T14:16:19.073+01:00</time>
      </trkpt>
      <trkpt lat="45.41556" lon="6.61194">
        <ele>1978.92</ele>
        <time>2016-01-31T14:16:21.073+01:00</time>
      </trkpt>
      <trkpt lat="45.41545" lon="6.61183">
        <ele>1977.73</ele>
        <time>2016-01-31T14:16:23.068+01:00</time>
      </trkpt>
      <trkpt lat="45.41538" lon="6.61175">
        <ele>1975.49</ele>
        <time>2016-01-31T14:16:25.111+01:00</time>
      </trkpt>
      <trkpt lat="45.41532" lon="6.61163">
        <ele>1974.23</ele>
        <time>2016-01-31T14:16:27.060+01:00</time>
      </trkpt>
      <trkpt lat="45.41524" lon="6.61145">
        <ele>1972.45</ele>
        <time>2016-01-31T14:16:30.079+01:00</time>
      </trkpt>
      <trkpt lat="45.41524" lon="6.61131">
        <ele>1971.72</ele>
        <time>2016-01-31T14:16:32.060+01:00</time>
      </trkpt>
      <trkpt lat="45.41518" lon="6.6112">
        <ele>1970.49</ele>
        <time>2016-01-31T14:16:54.058+01:00</time>
      </trkpt>
      <trkpt lat="45.41526" lon="6.61127">
        <ele>1969.77</ele>
        <time>2016-01-31T14:17:20.127+01:00</time>
      </trkpt>
      <trkpt lat="45.41515" lon="6.61128">
        <ele>1966.99</ele>
        <time>2016-01-31T14:17:34.096+01:00</time>
      </trkpt>
      <trkpt lat="45.4151" lon="6.61108">
        <ele>1964.67</ele>
        <time>2016-01-31T14:17:36.055+01:00</time>
      </trkpt>
      <trkpt lat="45.41504" lon="6.6109">
        <ele>1961.27</ele>
        <time>2016-01-31T14:17:38.056+01:00</time>
      </trkpt>
      <trkpt lat="45.415" lon="6.61056">
        <ele>1961.15</ele>
        <time>2016-01-31T14:17:40.038+01:00</time>
      </trkpt>
      <trkpt lat="45.41507" lon="6.61048">
        <ele>1956.8</ele>
        <time>2016-01-31T14:17:42.067+01:00</time>
      </trkpt>
      <trkpt lat="45.41513" lon="6.61036">
        <ele>1952.76</ele>
        <time>2016-01-31T14:17:44.065+01:00</time>
      </trkpt>
      <trkpt lat="45.41521" lon="6.61022">
        <ele>1947.25</ele>
        <time>2016-01-31T14:17:47.060+01:00</time>
      </trkpt>
      <trkpt lat="45.41523" lon="6.61004">
        <ele>1942.5</ele>
        <time>2016-01-31T14:17:49.067+01:00</time>
      </trkpt>
      <trkpt lat="45.41536" lon="6.60997">
        <ele>1938.78</ele>
        <time>2016-01-31T14:17:51.081+01:00</time>
      </trkpt>
      <trkpt lat="45.4155" lon="6.60987">
        <ele>1934.73</ele>
        <time>2016-01-31T14:17:53.094+01:00</time>
      </trkpt>
      <trkpt lat="45.41563" lon="6.60976">
        <ele>1929.23</ele>
        <time>2016-01-31T14:17:56.073+01:00</time>
      </trkpt>
      <trkpt lat="45.41572" lon="6.60963">
        <ele>1924.06</ele>
        <time>2016-01-31T14:17:59.077+01:00</time>
      </trkpt>
      <trkpt lat="45.41583" lon="6.60959">
        <ele>1918.67</ele>
        <time>2016-01-31T14:18:01.108+01:00</time>
      </trkpt>
      <trkpt lat="45.41603" lon="6.60948">
        <ele>1908.43</ele>
        <time>2016-01-31T14:18:04.051+01:00</time>
      </trkpt>
      <trkpt lat="45.41614" lon="6.60938">
        <ele>1904.19</ele>
        <time>2016-01-31T14:18:06.049+01:00</time>
      </trkpt>
      <trkpt lat="45.41621" lon="6.60924">
        <ele>1901.49</ele>
        <time>2016-01-31T14:18:08.046+01:00</time>
      </trkpt>
      <trkpt lat="45.41631" lon="6.60913">
        <ele>1896.76</ele>
        <time>2016-01-31T14:18:10.064+01:00</time>
      </trkpt>
      <trkpt lat="45.41639" lon="6.60901">
        <ele>1893.29</ele>
        <time>2016-01-31T14:18:12.051+01:00</time>
      </trkpt>
      <trkpt lat="45.41649" lon="6.60895">
        <ele>1890.99</ele>
        <time>2016-01-31T14:18:15.093+01:00</time>
      </trkpt>
      <trkpt lat="45.41651" lon="6.6088">
        <ele>1888.08</ele>
        <time>2016-01-31T14:18:28.094+01:00</time>
      </trkpt>
      <trkpt lat="45.41654" lon="6.60863">
        <ele>1885.71</ele>
        <time>2016-01-31T14:18:32.076+01:00</time>
      </trkpt>
      <trkpt lat="45.41653" lon="6.60845">
        <ele>1883.1</ele>
        <time>2016-01-31T14:18:34.087+01:00</time>
      </trkpt>
      <trkpt lat="45.41651" lon="6.60822">
        <ele>1880.41</ele>
        <time>2016-01-31T14:18:37.083+01:00</time>
      </trkpt>
      <trkpt lat="45.41651" lon="6.60808">
        <ele>1878.13</ele>
        <time>2016-01-31T14:18:39.045+01:00</time>
      </trkpt>
      <trkpt lat="45.41645" lon="6.60793">
        <ele>1876.62</ele>
        <time>2016-01-31T14:18:41.074+01:00</time>
      </trkpt>
      <trkpt lat="45.41638" lon="6.60774">
        <ele>1874.8</ele>
        <time>2016-01-31T14:18:44.077+01:00</time>
      </trkpt>
      <trkpt lat="45.41632" lon="6.60755">
        <ele>1874.94</ele>
        <time>2016-01-31T14:18:46.069+01:00</time>
      </trkpt>
      <trkpt lat="45.41629" lon="6.60738">
        <ele>1874.62</ele>
        <time>2016-01-31T14:18:49.053+01:00</time>
      </trkpt>
      <trkpt lat="45.4162" lon="6.60729">
        <ele>1874.79</ele>
        <time>2016-01-31T14:18:52.033+01:00</time>
      </trkpt>
      <trkpt lat="45.41613" lon="6.6072">
        <ele>1875.18</ele>
        <time>2016-01-31T14:18:59.059+01:00</time>
      </trkpt>
      <trkpt lat="45.41605" lon="6.60711">
        <ele>1874.74</ele>
        <time>2016-01-31T14:19:10.065+01:00</time>
      </trkpt>
      <trkpt lat="45.41601" lon="6.60723">
        <ele>1874.31</ele>
        <time>2016-01-31T14:19:13.068+01:00</time>
      </trkpt>
      <trkpt lat="45.416" lon="6.6071">
        <ele>1873.97</ele>
        <time>2016-01-31T14:19:29.054+01:00</time>
      </trkpt>
      <trkpt lat="45.41588" lon="6.60706">
        <ele>1872.52</ele>
        <time>2016-01-31T14:19:42.064+01:00</time>
      </trkpt>
      <trkpt lat="45.41577" lon="6.60702">
        <ele>1873.8</ele>
        <time>2016-01-31T14:19:45.064+01:00</time>
      </trkpt>
      <trkpt lat="45.41568" lon="6.60698">
        <ele>1876.55</ele>
        <time>2016-01-31T14:19:48.087+01:00</time>
      </trkpt>
      <trkpt lat="45.41559" lon="6.60693">
        <ele>1879.07</ele>
        <time>2016-01-31T14:19:51.065+01:00</time>
      </trkpt>
      <trkpt lat="45.4155" lon="6.60689">
        <ele>1883.44</ele>
        <time>2016-01-31T14:19:54.053+01:00</time>
      </trkpt>
      <trkpt lat="45.41539" lon="6.60687">
        <ele>1888.62</ele>
        <time>2016-01-31T14:19:58.065+01:00</time>
      </trkpt>
      <trkpt lat="45.41528" lon="6.60683">
        <ele>1894.7</ele>
        <time>2016-01-31T14:20:02.040+01:00</time>
      </trkpt>
      <trkpt lat="45.41519" lon="6.60678">
        <ele>1899.79</ele>
        <time>2016-01-31T14:20:05.051+01:00</time>
      </trkpt>
      <trkpt lat="45.41511" lon="6.60674">
        <ele>1904.8</ele>
        <time>2016-01-31T14:20:08.052+01:00</time>
      </trkpt>
      <trkpt lat="45.41502" lon="6.6067">
        <ele>1910.01</ele>
        <time>2016-01-31T14:20:11.039+01:00</time>
      </trkpt>
      <trkpt lat="45.41492" lon="6.60668">
        <ele>1916.96</ele>
        <time>2016-01-31T14:20:15.038+01:00</time>
      </trkpt>
      <trkpt lat="45.41482" lon="6.60665">
        <ele>1924.52</ele>
        <time>2016-01-31T14:20:19.059+01:00</time>
      </trkpt>
      <trkpt lat="45.41471" lon="6.60662">
        <ele>1900.18</ele>
        <time>2016-01-31T14:20:23.032+01:00</time>
      </trkpt>
      <trkpt lat="45.41461" lon="6.60659">
        <ele>1903.65</ele>
        <time>2016-01-31T14:20:26.035+01:00</time>
      </trkpt>
      <trkpt lat="45.4145" lon="6.60655">
        <ele>1906.77</ele>
        <time>2016-01-31T14:20:30.033+01:00</time>
      </trkpt>
      <trkpt lat="45.4144" lon="6.60647">
        <ele>1919.76</ele>
        <time>2016-01-31T14:20:33.032+01:00</time>
      </trkpt>
      <trkpt lat="45.4143" lon="6.60639">
        <ele>1926.89</ele>
        <time>2016-01-31T14:20:36.031+01:00</time>
      </trkpt>
      <trkpt lat="45.41421" lon="6.60632">
        <ele>1933.05</ele>
        <time>2016-01-31T14:20:39.039+01:00</time>
      </trkpt>
      <trkpt lat="45.41412" lon="6.60627">
        <ele>1965.33</ele>
        <time>2016-01-31T14:20:42.050+01:00</time>
      </trkpt>
      <trkpt lat="45.41403" lon="6.60621">
        <ele>1967.31</ele>
        <time>2016-01-31T14:20:45.083+01:00</time>
      </trkpt>
      <trkpt lat="45.41393" lon="6.60616">
        <ele>1968.24</ele>
        <time>2016-01-31T14:20:48.060+01:00</time>
      </trkpt>
      <trkpt lat="45.41383" lon="6.60611">
        <ele>1969.62</ele>
        <time>2016-01-31T14:20:51.059+01:00</time>
      </trkpt>
      <trkpt lat="45.41372" lon="6.60605">
        <ele>1971.57</ele>
        <time>2016-01-31T14:20:54.086+01:00</time>
      </trkpt>
      <trkpt lat="45.41362" lon="6.60601">
        <ele>1973.58</ele>
        <time>2016-01-31T14:20:57.061+01:00</time>
      </trkpt>
      <trkpt lat="45.41353" lon="6.60597">
        <ele>1976.25</ele>
        <time>2016-01-31T14:21:00.057+01:00</time>
      </trkpt>
      <trkpt lat="45.4134" lon="6.60593">
        <ele>1980.53</ele>
        <time>2016-01-31T14:21:04.047+01:00</time>
      </trkpt>
      <trkpt lat="45.41323" lon="6.60586">
        <ele>1981.43</ele>
        <time>2016-01-31T14:21:07.049+01:00</time>
      </trkpt>
      <trkpt lat="45.41312" lon="6.60583">
        <ele>1982.11</ele>
        <time>2016-01-31T14:21:09.044+01:00</time>
      </trkpt>
      <trkpt lat="45.41301" lon="6.60578">
        <ele>1984.44</ele>
        <time>2016-01-31T14:21:13.088+01:00</time>
      </trkpt>
      <trkpt lat="45.41289" lon="6.60574">
        <ele>1987.59</ele>
        <time>2016-01-31T14:21:16.061+01:00</time>
      </trkpt>
      <trkpt lat="45.41279" lon="6.6057">
        <ele>1991.92</ele>
        <time>2016-01-31T14:21:19.052+01:00</time>
      </trkpt>
      <trkpt lat="45.41268" lon="6.60567">
        <ele>1996.69</ele>
        <time>2016-01-31T14:21:22.047+01:00</time>
      </trkpt>
      <trkpt lat="45.41257" lon="6.60563">
        <ele>2004.2</ele>
        <time>2016-01-31T14:21:26.050+01:00</time>
      </trkpt>
      <trkpt lat="45.41247" lon="6.60559">
        <ele>2009.45</ele>
        <time>2016-01-31T14:21:29.055+01:00</time>
      </trkpt>
      <trkpt lat="45.41236" lon="6.60556">
        <ele>2015.51</ele>
        <time>2016-01-31T14:21:32.048+01:00</time>
      </trkpt>
      <trkpt lat="45.41225" lon="6.60552">
        <ele>2021.33</ele>
        <time>2016-01-31T14:21:35.059+01:00</time>
      </trkpt>
      <trkpt lat="45.41215" lon="6.60549">
        <ele>2027.24</ele>
        <time>2016-01-31T14:21:38.057+01:00</time>
      </trkpt>
      <trkpt lat="45.41204" lon="6.60547">
        <ele>2033.51</ele>
        <time>2016-01-31T14:21:41.045+01:00</time>
      </trkpt>
      <trkpt lat="45.41174" lon="6.60539">
        <ele>1974.47</ele>
        <time>2016-01-31T14:21:50.032+01:00</time>
      </trkpt>
      <trkpt lat="45.41165" lon="6.60535">
        <ele>1986.09</ele>
        <time>2016-01-31T14:21:54.032+01:00</time>
      </trkpt>
      <trkpt lat="45.41154" lon="6.60532">
        <ele>1990.78</ele>
        <time>2016-01-31T14:21:58.052+01:00</time>
      </trkpt>
      <trkpt lat="45.41144" lon="6.6053">
        <ele>1993.5</ele>
        <time>2016-01-31T14:22:01.052+01:00</time>
      </trkpt>
      <trkpt lat="45.41135" lon="6.60525">
        <ele>2016.38</ele>
        <time>2016-01-31T14:22:05.057+01:00</time>
      </trkpt>
      <trkpt lat="45.41128" lon="6.60513">
        <ele>2039.07</ele>
        <time>2016-01-31T14:22:10.046+01:00</time>
      </trkpt>
      <trkpt lat="45.41121" lon="6.60503">
        <ele>2052.02</ele>
        <time>2016-01-31T14:22:14.058+01:00</time>
      </trkpt>
      <trkpt lat="45.41113" lon="6.60493">
        <ele>2064.79</ele>
        <time>2016-01-31T14:22:18.055+01:00</time>
      </trkpt>
      <trkpt lat="45.41105" lon="6.60484">
        <ele>2075.29</ele>
        <time>2016-01-31T14:22:22.055+01:00</time>
      </trkpt>
      <trkpt lat="45.41096" lon="6.60481">
        <ele>2082.62</ele>
        <time>2016-01-31T14:22:25.057+01:00</time>
      </trkpt>
      <trkpt lat="45.41085" lon="6.60478">
        <ele>2083.04</ele>
        <time>2016-01-31T14:22:28.050+01:00</time>
      </trkpt>
      <trkpt lat="45.41074" lon="6.60476">
        <ele>2084.1</ele>
        <time>2016-01-31T14:22:31.077+01:00</time>
      </trkpt>
      <trkpt lat="45.41063" lon="6.60474">
        <ele>2083.14</ele>
        <time>2016-01-31T14:22:34.051+01:00</time>
      </trkpt>
      <trkpt lat="45.41053" lon="6.60472">
        <ele>2089.36</ele>
        <time>2016-01-31T14:22:37.084+01:00</time>
      </trkpt>
      <trkpt lat="45.41046" lon="6.60462">
        <ele>2115.68</ele>
        <time>2016-01-31T14:22:50.071+01:00</time>
      </trkpt>
      <trkpt lat="45.41037" lon="6.60457">
        <ele>2121.46</ele>
        <time>2016-01-31T14:22:54.066+01:00</time>
      </trkpt>
      <trkpt lat="45.41027" lon="6.6045">
        <ele>2129.92</ele>
        <time>2016-01-31T14:22:58.061+01:00</time>
      </trkpt>
      <trkpt lat="45.41018" lon="6.60442">
        <ele>2128.92</ele>
        <time>2016-01-31T14:23:02.056+01:00</time>
      </trkpt>
      <trkpt lat="45.41009" lon="6.60435">
        <ele>2136.53</ele>
        <time>2016-01-31T14:23:05.054+01:00</time>
      </trkpt>
      <trkpt lat="45.41" lon="6.60426">
        <ele>2144.41</ele>
        <time>2016-01-31T14:23:08.052+01:00</time>
      </trkpt>
      <trkpt lat="45.40993" lon="6.60417">
        <ele>2152.72</ele>
        <time>2016-01-31T14:23:11.048+01:00</time>
      </trkpt>
      <trkpt lat="45.40984" lon="6.60407">
        <ele>2161.03</ele>
        <time>2016-01-31T14:23:15.045+01:00</time>
      </trkpt>
      <trkpt lat="45.40974" lon="6.60401">
        <ele>2174.22</ele>
        <time>2016-01-31T14:23:19.055+01:00</time>
      </trkpt>
      <trkpt lat="45.40965" lon="6.60395">
        <ele>2190.96</ele>
        <time>2016-01-31T14:23:24.057+01:00</time>
      </trkpt>
      <trkpt lat="45.40955" lon="6.60388">
        <ele>2202.14</ele>
        <time>2016-01-31T14:23:28.057+01:00</time>
      </trkpt>
      <trkpt lat="45.40946" lon="6.60383">
        <ele>2213.36</ele>
        <time>2016-01-31T14:23:32.053+01:00</time>
      </trkpt>
      <trkpt lat="45.40937" lon="6.60378">
        <ele>2219.65</ele>
        <time>2016-01-31T14:23:35.070+01:00</time>
      </trkpt>
      <trkpt lat="45.40928" lon="6.60373">
        <ele>2224.46</ele>
        <time>2016-01-31T14:23:38.091+01:00</time>
      </trkpt>
      <trkpt lat="45.40918" lon="6.60367">
        <ele>2228.94</ele>
        <time>2016-01-31T14:23:41.067+01:00</time>
      </trkpt>
      <trkpt lat="45.40907" lon="6.60361">
        <ele>2236.88</ele>
        <time>2016-01-31T14:23:45.053+01:00</time>
      </trkpt>
      <trkpt lat="45.40898" lon="6.60354">
        <ele>2242.45</ele>
        <time>2016-01-31T14:23:48.045+01:00</time>
      </trkpt>
      <trkpt lat="45.40888" lon="6.60348">
        <ele>2247.87</ele>
        <time>2016-01-31T14:23:51.068+01:00</time>
      </trkpt>
      <trkpt lat="45.40877" lon="6.60342">
        <ele>2253.04</ele>
        <time>2016-01-31T14:23:55.072+01:00</time>
      </trkpt>
      <trkpt lat="45.40868" lon="6.60339">
        <ele>2257.73</ele>
        <time>2016-01-31T14:23:58.085+01:00</time>
      </trkpt>
      <trkpt lat="45.40857" lon="6.60334">
        <ele>2264.95</ele>
        <time>2016-01-31T14:24:02.093+01:00</time>
      </trkpt>
      <trkpt lat="45.40848" lon="6.60329">
        <ele>2267.53</ele>
        <time>2016-01-31T14:24:05.060+01:00</time>
      </trkpt>
      <trkpt lat="45.40838" lon="6.60324">
        <ele>2271.37</ele>
        <time>2016-01-31T14:24:08.055+01:00</time>
      </trkpt>
      <trkpt lat="45.40827" lon="6.60318">
        <ele>2276.93</ele>
        <time>2016-01-31T14:24:12.040+01:00</time>
      </trkpt>
      <trkpt lat="45.40817" lon="6.60314">
        <ele>2279.97</ele>
        <time>2016-01-31T14:24:16.042+01:00</time>
      </trkpt>
      <trkpt lat="45.40806" lon="6.60308">
        <ele>2281.09</ele>
        <time>2016-01-31T14:24:19.058+01:00</time>
      </trkpt>
      <trkpt lat="45.40796" lon="6.60302">
        <ele>2282.74</ele>
        <time>2016-01-31T14:24:22.035+01:00</time>
      </trkpt>
      <trkpt lat="45.40786" lon="6.60299">
        <ele>2282.96</ele>
        <time>2016-01-31T14:24:26.036+01:00</time>
      </trkpt>
      <trkpt lat="45.40777" lon="6.60297">
        <ele>2284.55</ele>
        <time>2016-01-31T14:24:30.092+01:00</time>
      </trkpt>
      <trkpt lat="45.40768" lon="6.60293">
        <ele>2284.79</ele>
        <time>2016-01-31T14:24:34.095+01:00</time>
      </trkpt>
      <trkpt lat="45.40759" lon="6.60286">
        <ele>2285.26</ele>
        <time>2016-01-31T14:24:42.038+01:00</time>
      </trkpt>
      <trkpt lat="45.40752" lon="6.60278">
        <ele>2285.26</ele>
        <time>2016-01-31T14:24:50.044+01:00</time>
      </trkpt>
      <trkpt lat="45.40744" lon="6.60271">
        <ele>2285.25</ele>
        <time>2016-01-31T14:24:56.052+01:00</time>
      </trkpt>
      <trkpt lat="45.40738" lon="6.60261">
        <ele>2288.11</ele>
        <time>2016-01-31T14:25:05.101+01:00</time>
      </trkpt>
      <trkpt lat="45.40729" lon="6.6026">
        <ele>2291.17</ele>
        <time>2016-01-31T14:25:25.071+01:00</time>
      </trkpt>
      <trkpt lat="45.40722" lon="6.60251">
        <ele>2293.57</ele>
        <time>2016-01-31T14:25:40.043+01:00</time>
      </trkpt>
      <trkpt lat="45.40713" lon="6.60245">
        <ele>2294.21</ele>
        <time>2016-01-31T14:25:49.051+01:00</time>
      </trkpt>
      <trkpt lat="45.40703" lon="6.6024">
        <ele>2293.06</ele>
        <time>2016-01-31T14:25:58.063+01:00</time>
      </trkpt>
      <trkpt lat="45.40696" lon="6.60237">
        <ele>2290.81</ele>
        <time>2016-01-31T14:26:01.118+01:00</time>
      </trkpt>
      <trkpt lat="45.40687" lon="6.60233">
        <ele>2290.42</ele>
        <time>2016-01-31T14:26:04.095+01:00</time>
      </trkpt>
      <trkpt lat="45.40676" lon="6.60225">
        <ele>2288.39</ele>
        <time>2016-01-31T14:26:07.055+01:00</time>
      </trkpt>
      <trkpt lat="45.40666" lon="6.60219">
        <ele>2287.17</ele>
        <time>2016-01-31T14:26:09.036+01:00</time>
      </trkpt>
      <trkpt lat="45.40654" lon="6.60208">
        <ele>2285.89</ele>
        <time>2016-01-31T14:26:11.073+01:00</time>
      </trkpt>
      <trkpt lat="45.40643" lon="6.60206">
        <ele>2283.37</ele>
        <time>2016-01-31T14:26:13.044+01:00</time>
      </trkpt>
      <trkpt lat="45.40634" lon="6.60197">
        <ele>2281.81</ele>
        <time>2016-01-31T14:26:15.081+01:00</time>
      </trkpt>
      <trkpt lat="45.40632" lon="6.60167">
        <ele>2277.8</ele>
        <time>2016-01-31T14:26:19.073+01:00</time>
      </trkpt>
      <trkpt lat="45.40637" lon="6.60152">
        <ele>2273.7</ele>
        <time>2016-01-31T14:26:22.056+01:00</time>
      </trkpt>
      <trkpt lat="45.40644" lon="6.60144">
        <ele>2271.61</ele>
        <time>2016-01-31T14:26:24.059+01:00</time>
      </trkpt>
      <trkpt lat="45.40651" lon="6.60134">
        <ele>2267.71</ele>
        <time>2016-01-31T14:26:27.092+01:00</time>
      </trkpt>
      <trkpt lat="45.4066" lon="6.60122">
        <ele>2262.35</ele>
        <time>2016-01-31T14:26:30.080+01:00</time>
      </trkpt>
      <trkpt lat="45.40668" lon="6.6011">
        <ele>2259.65</ele>
        <time>2016-01-31T14:26:32.061+01:00</time>
      </trkpt>
      <trkpt lat="45.40673" lon="6.60096">
        <ele>2255.47</ele>
        <time>2016-01-31T14:26:34.057+01:00</time>
      </trkpt>
      <trkpt lat="45.4068" lon="6.60086">
        <ele>2253.18</ele>
        <time>2016-01-31T14:26:38.068+01:00</time>
      </trkpt>
      <trkpt lat="45.40685" lon="6.60073">
        <ele>2247.88</ele>
        <time>2016-01-31T14:26:41.055+01:00</time>
      </trkpt>
      <trkpt lat="45.40696" lon="6.60064">
        <ele>2244.84</ele>
        <time>2016-01-31T14:26:44.054+01:00</time>
      </trkpt>
      <trkpt lat="45.40705" lon="6.6005">
        <ele>2242.28</ele>
        <time>2016-01-31T14:26:47.067+01:00</time>
      </trkpt>
      <trkpt lat="45.40711" lon="6.60039">
        <ele>2239.72</ele>
        <time>2016-01-31T14:26:50.064+01:00</time>
      </trkpt>
      <trkpt lat="45.40723" lon="6.60028">
        <ele>2236.53</ele>
        <time>2016-01-31T14:26:53.079+01:00</time>
      </trkpt>
      <trkpt lat="45.40731" lon="6.6002">
        <ele>2235.2</ele>
        <time>2016-01-31T14:26:55.070+01:00</time>
      </trkpt>
      <trkpt lat="45.40739" lon="6.60015">
        <ele>2233.44</ele>
        <time>2016-01-31T14:26:57.062+01:00</time>
      </trkpt>
      <trkpt lat="45.4075" lon="6.60006">
        <ele>2230.61</ele>
        <time>2016-01-31T14:27:00.062+01:00</time>
      </trkpt>
      <trkpt lat="45.40759" lon="6.59994">
        <ele>2228.61</ele>
        <time>2016-01-31T14:27:02.062+01:00</time>
      </trkpt>
      <trkpt lat="45.4077" lon="6.59985">
        <ele>2226.05</ele>
        <time>2016-01-31T14:27:04.065+01:00</time>
      </trkpt>
      <trkpt lat="45.40783" lon="6.59978">
        <ele>2253.61</ele>
        <time>2016-01-31T14:27:06.063+01:00</time>
      </trkpt>
      <trkpt lat="45.4079" lon="6.59968">
        <ele>2252.82</ele>
        <time>2016-01-31T14:27:08.049+01:00</time>
      </trkpt>
      <trkpt lat="45.40799" lon="6.59963">
        <ele>2249.92</ele>
        <time>2016-01-31T14:27:10.062+01:00</time>
      </trkpt>
      <trkpt lat="45.40808" lon="6.59947">
        <ele>2247.22</ele>
        <time>2016-01-31T14:27:13.050+01:00</time>
      </trkpt>
      <trkpt lat="45.40818" lon="6.59932">
        <ele>2214.11</ele>
        <time>2016-01-31T14:27:16.070+01:00</time>
      </trkpt>
      <trkpt lat="45.40826" lon="6.59921">
        <ele>2211.01</ele>
        <time>2016-01-31T14:27:18.086+01:00</time>
      </trkpt>
      <trkpt lat="45.40836" lon="6.59918">
        <ele>2210</ele>
        <time>2016-01-31T14:27:20.085+01:00</time>
      </trkpt>
      <trkpt lat="45.4084" lon="6.59906">
        <ele>2209.21</ele>
        <time>2016-01-31T14:27:23.064+01:00</time>
      </trkpt>
      <trkpt lat="45.40845" lon="6.59887">
        <ele>2204.48</ele>
        <time>2016-01-31T14:27:26.089+01:00</time>
      </trkpt>
      <trkpt lat="45.40849" lon="6.59875">
        <ele>2201.31</ele>
        <time>2016-01-31T14:27:30.063+01:00</time>
      </trkpt>
      <trkpt lat="45.40857" lon="6.59861">
        <ele>2199.93</ele>
        <time>2016-01-31T14:27:33.067+01:00</time>
      </trkpt>
      <trkpt lat="45.40869" lon="6.59859">
        <ele>2196.32</ele>
        <time>2016-01-31T14:27:35.077+01:00</time>
      </trkpt>
      <trkpt lat="45.40878" lon="6.59852">
        <ele>2191.61</ele>
        <time>2016-01-31T14:27:39.054+01:00</time>
      </trkpt>
      <trkpt lat="45.40887" lon="6.59842">
        <ele>2188.14</ele>
        <time>2016-01-31T14:27:42.088+01:00</time>
      </trkpt>
      <trkpt lat="45.40899" lon="6.59834">
        <ele>2185.34</ele>
        <time>2016-01-31T14:27:44.079+01:00</time>
      </trkpt>
      <trkpt lat="45.40911" lon="6.59823">
        <ele>2183.56</ele>
        <time>2016-01-31T14:27:46.055+01:00</time>
      </trkpt>
      <trkpt lat="45.40921" lon="6.59811">
        <ele>2181.73</ele>
        <time>2016-01-31T14:27:48.054+01:00</time>
      </trkpt>
      <trkpt lat="45.4093" lon="6.59807">
        <ele>2180.14</ele>
        <time>2016-01-31T14:27:50.058+01:00</time>
      </trkpt>
      <trkpt lat="45.40942" lon="6.59803">
        <ele>2178.61</ele>
        <time>2016-01-31T14:27:53.066+01:00</time>
      </trkpt>
      <trkpt lat="45.40953" lon="6.59798">
        <ele>2178.08</ele>
        <time>2016-01-31T14:27:55.063+01:00</time>
      </trkpt>
      <trkpt lat="45.40965" lon="6.59793">
        <ele>2177.79</ele>
        <time>2016-01-31T14:27:57.077+01:00</time>
      </trkpt>
      <trkpt lat="45.40976" lon="6.59792">
        <ele>2174.03</ele>
        <time>2016-01-31T14:27:59.079+01:00</time>
      </trkpt>
      <trkpt lat="45.40986" lon="6.59796">
        <ele>2172.79</ele>
        <time>2016-01-31T14:28:01.052+01:00</time>
      </trkpt>
      <trkpt lat="45.40995" lon="6.59799">
        <ele>2169.83</ele>
        <time>2016-01-31T14:28:03.096+01:00</time>
      </trkpt>
      <trkpt lat="45.41004" lon="6.59798">
        <ele>2166.74</ele>
        <time>2016-01-31T14:28:05.060+01:00</time>
      </trkpt>
      <trkpt lat="45.41014" lon="6.59797">
        <ele>2163.02</ele>
        <time>2016-01-31T14:28:08.045+01:00</time>
      </trkpt>
      <trkpt lat="45.41023" lon="6.59792">
        <ele>2158.63</ele>
        <time>2016-01-31T14:28:13.049+01:00</time>
      </trkpt>
      <trkpt lat="45.41034" lon="6.59789">
        <ele>2153.51</ele>
        <time>2016-01-31T14:28:17.059+01:00</time>
      </trkpt>
      <trkpt lat="45.4104" lon="6.59778">
        <ele>2149.74</ele>
        <time>2016-01-31T14:28:20.069+01:00</time>
      </trkpt>
      <trkpt lat="45.41045" lon="6.59765">
        <ele>2176.22</ele>
        <time>2016-01-31T14:28:24.074+01:00</time>
      </trkpt>
      <trkpt lat="45.41048" lon="6.59753">
        <ele>2174.94</ele>
        <time>2016-01-31T14:28:26.078+01:00</time>
      </trkpt>
      <trkpt lat="45.41058" lon="6.59743">
        <ele>2174.24</ele>
        <time>2016-01-31T14:28:28.078+01:00</time>
      </trkpt>
      <trkpt lat="45.41071" lon="6.5974">
        <ele>2171.67</ele>
        <time>2016-01-31T14:28:30.066+01:00</time>
      </trkpt>
      <trkpt lat="45.41084" lon="6.59734">
        <ele>2170.68</ele>
        <time>2016-01-31T14:28:32.083+01:00</time>
      </trkpt>
      <trkpt lat="45.41099" lon="6.59732">
        <ele>2171.41</ele>
        <time>2016-01-31T14:28:34.076+01:00</time>
      </trkpt>
      <trkpt lat="45.41093" lon="6.59742">
        <ele>2166.86</ele>
        <time>2016-01-31T14:28:49.044+01:00</time>
      </trkpt>
      <trkpt lat="45.41104" lon="6.59732">
        <ele>2161.23</ele>
        <time>2016-01-31T14:29:03.049+01:00</time>
      </trkpt>
      <trkpt lat="45.41108" lon="6.59718">
        <ele>2154.89</ele>
        <time>2016-01-31T14:29:07.044+01:00</time>
      </trkpt>
      <trkpt lat="45.41104" lon="6.59705">
        <ele>2150.43</ele>
        <time>2016-01-31T14:29:10.100+01:00</time>
      </trkpt>
      <trkpt lat="45.41096" lon="6.59693">
        <ele>2118.11</ele>
        <time>2016-01-31T14:29:13.084+01:00</time>
      </trkpt>
      <trkpt lat="45.41086" lon="6.59694">
        <ele>2113.05</ele>
        <time>2016-01-31T14:29:16.073+01:00</time>
      </trkpt>
      <trkpt lat="45.41072" lon="6.59688">
        <ele>2105.75</ele>
        <time>2016-01-31T14:29:19.076+01:00</time>
      </trkpt>
      <trkpt lat="45.41063" lon="6.59686">
        <ele>2133.05</ele>
        <time>2016-01-31T14:29:21.044+01:00</time>
      </trkpt>
      <trkpt lat="45.41053" lon="6.59672">
        <ele>2125.71</ele>
        <time>2016-01-31T14:29:23.116+01:00</time>
      </trkpt>
      <trkpt lat="45.41041" lon="6.59664">
        <ele>2123.41</ele>
        <time>2016-01-31T14:29:25.041+01:00</time>
      </trkpt>
      <trkpt lat="45.41031" lon="6.59649">
        <ele>2108.78</ele>
        <time>2016-01-31T14:29:27.063+01:00</time>
      </trkpt>
      <trkpt lat="45.41018" lon="6.59642">
        <ele>2109.25</ele>
        <time>2016-01-31T14:29:29.048+01:00</time>
      </trkpt>
      <trkpt lat="45.41005" lon="6.59627">
        <ele>2105.57</ele>
        <time>2016-01-31T14:29:31.031+01:00</time>
      </trkpt>
      <trkpt lat="45.40992" lon="6.59617">
        <ele>2112.12</ele>
        <time>2016-01-31T14:29:33.032+01:00</time>
      </trkpt>
      <trkpt lat="45.40982" lon="6.59605">
        <ele>2106.06</ele>
        <time>2016-01-31T14:29:35.035+01:00</time>
      </trkpt>
      <trkpt lat="45.4097" lon="6.59594">
        <ele>2106.1</ele>
        <time>2016-01-31T14:29:37.034+01:00</time>
      </trkpt>
      <trkpt lat="45.40958" lon="6.5958">
        <ele>2103.79</ele>
        <time>2016-01-31T14:29:39.038+01:00</time>
      </trkpt>
      <trkpt lat="45.40942" lon="6.59569">
        <ele>2097.73</ele>
        <time>2016-01-31T14:29:41.030+01:00</time>
      </trkpt>
      <trkpt lat="45.40933" lon="6.59565">
        <ele>2071.32</ele>
        <time>2016-01-31T14:29:42.029+01:00</time>
      </trkpt>
      <trkpt lat="45.40921" lon="6.59559">
        <ele>2070.04</ele>
        <time>2016-01-31T14:29:44.051+01:00</time>
      </trkpt>
      <trkpt lat="45.40908" lon="6.59551">
        <ele>2067.62</ele>
        <time>2016-01-31T14:29:46.036+01:00</time>
      </trkpt>
      <trkpt lat="45.40897" lon="6.59547">
        <ele>2064.87</ele>
        <time>2016-01-31T14:29:49.033+01:00</time>
      </trkpt>
      <trkpt lat="45.40885" lon="6.59539">
        <ele>2058.46</ele>
        <time>2016-01-31T14:29:53.072+01:00</time>
      </trkpt>
      <trkpt lat="45.40878" lon="6.59528">
        <ele>2055.02</ele>
        <time>2016-01-31T14:29:55.084+01:00</time>
      </trkpt>
      <trkpt lat="45.40877" lon="6.59514">
        <ele>2085.89</ele>
        <time>2016-01-31T14:29:57.089+01:00</time>
      </trkpt>
      <trkpt lat="45.40874" lon="6.59495">
        <ele>2085.57</ele>
        <time>2016-01-31T14:29:59.080+01:00</time>
      </trkpt>
      <trkpt lat="45.40872" lon="6.59483">
        <ele>2083.53</ele>
        <time>2016-01-31T14:30:00.100+01:00</time>
      </trkpt>
      <trkpt lat="45.40862" lon="6.59464">
        <ele>2067.8</ele>
        <time>2016-01-31T14:30:02.078+01:00</time>
      </trkpt>
      <trkpt lat="45.40848" lon="6.59449">
        <ele>2065.01</ele>
        <time>2016-01-31T14:30:04.074+01:00</time>
      </trkpt>
      <trkpt lat="45.40838" lon="6.59445">
        <ele>2060.9</ele>
        <time>2016-01-31T14:30:05.073+01:00</time>
      </trkpt>
      <trkpt lat="45.40823" lon="6.59445">
        <ele>2058.03</ele>
        <time>2016-01-31T14:30:07.098+01:00</time>
      </trkpt>
      <trkpt lat="45.40811" lon="6.59443">
        <ele>2055.75</ele>
        <time>2016-01-31T14:30:09.082+01:00</time>
      </trkpt>
      <trkpt lat="45.40799" lon="6.59445">
        <ele>2056.14</ele>
        <time>2016-01-31T14:30:11.063+01:00</time>
      </trkpt>
      <trkpt lat="45.40789" lon="6.5944">
        <ele>2052.62</ele>
        <time>2016-01-31T14:30:13.068+01:00</time>
      </trkpt>
      <trkpt lat="45.40776" lon="6.59446">
        <ele>2052.2</ele>
        <time>2016-01-31T14:30:15.080+01:00</time>
      </trkpt>
      <trkpt lat="45.40768" lon="6.59457">
        <ele>2046.53</ele>
        <time>2016-01-31T14:30:20.122+01:00</time>
      </trkpt>
      <trkpt lat="45.4076" lon="6.59461">
        <ele>2040.63</ele>
        <time>2016-01-31T14:30:23.063+01:00</time>
      </trkpt>
      <trkpt lat="45.40749" lon="6.59465">
        <ele>2038.41</ele>
        <time>2016-01-31T14:30:25.091+01:00</time>
      </trkpt>
      <trkpt lat="45.40739" lon="6.59463">
        <ele>2035.05</ele>
        <time>2016-01-31T14:30:28.058+01:00</time>
      </trkpt>
      <trkpt lat="45.40734" lon="6.59474">
        <ele>2038.29</ele>
        <time>2016-01-31T14:30:30.056+01:00</time>
      </trkpt>
      <trkpt lat="45.40725" lon="6.59476">
        <ele>2028.21</ele>
        <time>2016-01-31T14:30:33.058+01:00</time>
      </trkpt>
      <trkpt lat="45.40718" lon="6.59489">
        <ele>2019.26</ele>
        <time>2016-01-31T14:30:35.103+01:00</time>
      </trkpt>
      <trkpt lat="45.40708" lon="6.59487">
        <ele>2015.24</ele>
        <time>2016-01-31T14:30:37.071+01:00</time>
      </trkpt>
      <trkpt lat="45.40698" lon="6.5947">
        <ele>2009.27</ele>
        <time>2016-01-31T14:30:40.057+01:00</time>
      </trkpt>
      <trkpt lat="45.40685" lon="6.59457">
        <ele>2009.47</ele>
        <time>2016-01-31T14:30:42.059+01:00</time>
      </trkpt>
      <trkpt lat="45.40684" lon="6.5945">
        <ele>2007.81</ele>
        <time>2016-01-31T14:30:44.066+01:00</time>
      </trkpt>
      <trkpt lat="45.40676" lon="6.59436">
        <ele>2001.25</ele>
        <time>2016-01-31T14:30:46.049+01:00</time>
      </trkpt>
      <trkpt lat="45.4067" lon="6.59425">
        <ele>1999.75</ele>
        <time>2016-01-31T14:30:48.053+01:00</time>
      </trkpt>
      <trkpt lat="45.40664" lon="6.59407">
        <ele>1990</ele>
        <time>2016-01-31T14:30:50.062+01:00</time>
      </trkpt>
      <trkpt lat="45.40651" lon="6.59402">
        <ele>1988.6</ele>
        <time>2016-01-31T14:30:52.051+01:00</time>
      </trkpt>
      <trkpt lat="45.40642" lon="6.59391">
        <ele>1986.4</ele>
        <time>2016-01-31T14:30:54.049+01:00</time>
      </trkpt>
      <trkpt lat="45.40629" lon="6.59383">
        <ele>1977.62</ele>
        <time>2016-01-31T14:30:56.050+01:00</time>
      </trkpt>
      <trkpt lat="45.40616" lon="6.59367">
        <ele>1973.75</ele>
        <time>2016-01-31T14:30:58.049+01:00</time>
      </trkpt>
      <trkpt lat="45.40608" lon="6.59358">
        <ele>1968.61</ele>
        <time>2016-01-31T14:30:59.042+01:00</time>
      </trkpt>
      <trkpt lat="45.40575" lon="6.59327">
        <ele>1942.73</ele>
        <time>2016-01-31T14:31:03.038+01:00</time>
      </trkpt>
      <trkpt lat="45.40562" lon="6.59317">
        <ele>1940.34</ele>
        <time>2016-01-31T14:31:05.052+01:00</time>
      </trkpt>
      <trkpt lat="45.40552" lon="6.59309">
        <ele>1940.74</ele>
        <time>2016-01-31T14:31:07.052+01:00</time>
      </trkpt>
      <trkpt lat="45.4054" lon="6.59298">
        <ele>1941.67</ele>
        <time>2016-01-31T14:31:10.067+01:00</time>
      </trkpt>
      <trkpt lat="45.40533" lon="6.59288">
        <ele>1942.08</ele>
        <time>2016-01-31T14:31:13.069+01:00</time>
      </trkpt>
      <trkpt lat="45.40524" lon="6.59279">
        <ele>1942.19</ele>
        <time>2016-01-31T14:31:18.067+01:00</time>
      </trkpt>
      <trkpt lat="45.40516" lon="6.59273">
        <ele>1941.6</ele>
        <time>2016-01-31T14:31:22.038+01:00</time>
      </trkpt>
      <trkpt lat="45.40504" lon="6.59267">
        <ele>1940.29</ele>
        <time>2016-01-31T14:31:26.065+01:00</time>
      </trkpt>
      <trkpt lat="45.40497" lon="6.59258">
        <ele>1938.98</ele>
        <time>2016-01-31T14:31:30.066+01:00</time>
      </trkpt>
      <trkpt lat="45.40487" lon="6.59253">
        <ele>1936.94</ele>
        <time>2016-01-31T14:31:41.039+01:00</time>
      </trkpt>
      <trkpt lat="45.40477" lon="6.59252">
        <ele>1935.48</ele>
        <time>2016-01-31T14:31:43.037+01:00</time>
      </trkpt>
      <trkpt lat="45.40469" lon="6.59243">
        <ele>1932.72</ele>
        <time>2016-01-31T14:31:45.076+01:00</time>
      </trkpt>
      <trkpt lat="45.40458" lon="6.59238">
        <ele>1929.86</ele>
        <time>2016-01-31T14:31:47.049+01:00</time>
      </trkpt>
      <trkpt lat="45.40445" lon="6.59228">
        <ele>1926.01</ele>
        <time>2016-01-31T14:31:49.064+01:00</time>
      </trkpt>
      <trkpt lat="45.40434" lon="6.59223">
        <ele>1922.29</ele>
        <time>2016-01-31T14:31:51.064+01:00</time>
      </trkpt>
      <trkpt lat="45.40421" lon="6.59215">
        <ele>1918.31</ele>
        <time>2016-01-31T14:31:53.066+01:00</time>
      </trkpt>
      <trkpt lat="45.40408" lon="6.59205">
        <ele>1915.23</ele>
        <time>2016-01-31T14:31:55.071+01:00</time>
      </trkpt>
      <trkpt lat="45.40393" lon="6.59199">
        <ele>1911.73</ele>
        <time>2016-01-31T14:31:57.063+01:00</time>
      </trkpt>
      <trkpt lat="45.40382" lon="6.59195">
        <ele>1909.96</ele>
        <time>2016-01-31T14:31:59.089+01:00</time>
      </trkpt>
      <trkpt lat="45.40375" lon="6.59185">
        <ele>1907.98</ele>
        <time>2016-01-31T14:32:01.043+01:00</time>
      </trkpt>
      <trkpt lat="45.40368" lon="6.59178">
        <ele>1904.92</ele>
        <time>2016-01-31T14:32:03.059+01:00</time>
      </trkpt>
      <trkpt lat="45.40358" lon="6.59172">
        <ele>1904.41</ele>
        <time>2016-01-31T14:32:05.056+01:00</time>
      </trkpt>
      <trkpt lat="45.40348" lon="6.59168">
        <ele>1902.15</ele>
        <time>2016-01-31T14:32:07.069+01:00</time>
      </trkpt>
      <trkpt lat="45.40341" lon="6.59152">
        <ele>1896.4</ele>
        <time>2016-01-31T14:32:10.082+01:00</time>
      </trkpt>
      <trkpt lat="45.40332" lon="6.59136">
        <ele>1893.95</ele>
        <time>2016-01-31T14:32:12.065+01:00</time>
      </trkpt>
      <trkpt lat="45.40326" lon="6.59117">
        <ele>1890.34</ele>
        <time>2016-01-31T14:32:14.063+01:00</time>
      </trkpt>
      <trkpt lat="45.40322" lon="6.59102">
        <ele>1888.23</ele>
        <time>2016-01-31T14:32:16.089+01:00</time>
      </trkpt>
      <trkpt lat="45.40318" lon="6.59083">
        <ele>1886.52</ele>
        <time>2016-01-31T14:32:18.064+01:00</time>
      </trkpt>
      <trkpt lat="45.40316" lon="6.59069">
        <ele>1882.29</ele>
        <time>2016-01-31T14:32:20.048+01:00</time>
      </trkpt>
      <trkpt lat="45.40308" lon="6.59053">
        <ele>1880.19</ele>
        <time>2016-01-31T14:32:22.037+01:00</time>
      </trkpt>
      <trkpt lat="45.40307" lon="6.59038">
        <ele>1875.85</ele>
        <time>2016-01-31T14:32:24.035+01:00</time>
      </trkpt>
      <trkpt lat="45.40301" lon="6.59026">
        <ele>1874.32</ele>
        <time>2016-01-31T14:32:26.035+01:00</time>
      </trkpt>
      <trkpt lat="45.40297" lon="6.59008">
        <ele>1869.08</ele>
        <time>2016-01-31T14:32:29.034+01:00</time>
      </trkpt>
      <trkpt lat="45.40292" lon="6.58996">
        <ele>1868.08</ele>
        <time>2016-01-31T14:32:31.060+01:00</time>
      </trkpt>
      <trkpt lat="45.4029" lon="6.58983">
        <ele>1864.19</ele>
        <time>2016-01-31T14:32:33.046+01:00</time>
      </trkpt>
      <trkpt lat="45.40289" lon="6.58968">
        <ele>1859.26</ele>
        <time>2016-01-31T14:32:35.034+01:00</time>
      </trkpt>
      <trkpt lat="45.40283" lon="6.58954">
        <ele>1857.29</ele>
        <time>2016-01-31T14:32:37.035+01:00</time>
      </trkpt>
      <trkpt lat="45.40273" lon="6.58948">
        <ele>1851.74</ele>
        <time>2016-01-31T14:32:40.048+01:00</time>
      </trkpt>
      <trkpt lat="45.40262" lon="6.58942">
        <ele>1849.1</ele>
        <time>2016-01-31T14:32:42.065+01:00</time>
      </trkpt>
      <trkpt lat="45.40253" lon="6.58927">
        <ele>1840.82</ele>
        <time>2016-01-31T14:32:45.048+01:00</time>
      </trkpt>
      <trkpt lat="45.40251" lon="6.58905">
        <ele>1867.62</ele>
        <time>2016-01-31T14:32:47.035+01:00</time>
      </trkpt>
      <trkpt lat="45.40251" lon="6.58891">
        <ele>1866.59</ele>
        <time>2016-01-31T14:32:48.036+01:00</time>
      </trkpt>
      <trkpt lat="45.40249" lon="6.58878">
        <ele>1865.2</ele>
        <time>2016-01-31T14:32:49.037+01:00</time>
      </trkpt>
      <trkpt lat="45.40247" lon="6.58863">
        <ele>1864.1</ele>
        <time>2016-01-31T14:32:50.036+01:00</time>
      </trkpt>
      <trkpt lat="45.40244" lon="6.58824">
        <ele>1861.47</ele>
        <time>2016-01-31T14:32:52.034+01:00</time>
      </trkpt>
      <trkpt lat="45.40239" lon="6.58796">
        <ele>1858.53</ele>
        <time>2016-01-31T14:32:54.035+01:00</time>
      </trkpt>
      <trkpt lat="45.40234" lon="6.58772">
        <ele>1856.21</ele>
        <time>2016-01-31T14:32:56.036+01:00</time>
      </trkpt>
      <trkpt lat="45.40231" lon="6.58759">
        <ele>1854.7</ele>
        <time>2016-01-31T14:32:57.036+01:00</time>
      </trkpt>
      <trkpt lat="45.40228" lon="6.5874">
        <ele>1827.03</ele>
        <time>2016-01-31T14:32:59.037+01:00</time>
      </trkpt>
      <trkpt lat="45.40223" lon="6.58724">
        <ele>1827.54</ele>
        <time>2016-01-31T14:33:01.037+01:00</time>
      </trkpt>
      <trkpt lat="45.40221" lon="6.5871">
        <ele>1827.29</ele>
        <time>2016-01-31T14:33:03.034+01:00</time>
      </trkpt>
      <trkpt lat="45.40217" lon="6.58694">
        <ele>1828.05</ele>
        <time>2016-01-31T14:33:06.035+01:00</time>
      </trkpt>
      <trkpt lat="45.40214" lon="6.5868">
        <ele>1828.27</ele>
        <time>2016-01-31T14:33:10.053+01:00</time>
      </trkpt>
      <trkpt lat="45.4021" lon="6.58667">
        <ele>1828.4</ele>
        <time>2016-01-31T14:33:14.065+01:00</time>
      </trkpt>
      <trkpt lat="45.40206" lon="6.58652">
        <ele>1827.62</ele>
        <time>2016-01-31T14:33:18.065+01:00</time>
      </trkpt>
      <trkpt lat="45.40201" lon="6.58638">
        <ele>1826.68</ele>
        <time>2016-01-31T14:33:21.065+01:00</time>
      </trkpt>
      <trkpt lat="45.40196" lon="6.58621">
        <ele>1825.35</ele>
        <time>2016-01-31T14:33:24.051+01:00</time>
      </trkpt>
      <trkpt lat="45.40193" lon="6.58608">
        <ele>1825.25</ele>
        <time>2016-01-31T14:33:26.037+01:00</time>
      </trkpt>
      <trkpt lat="45.40192" lon="6.58595">
        <ele>1824.76</ele>
        <time>2016-01-31T14:33:28.038+01:00</time>
      </trkpt>
      <trkpt lat="45.40191" lon="6.58577">
        <ele>1824.83</ele>
        <time>2016-01-31T14:33:31.064+01:00</time>
      </trkpt>
      <trkpt lat="45.40191" lon="6.58558">
        <ele>1824.04</ele>
        <time>2016-01-31T14:33:34.067+01:00</time>
      </trkpt>
      <trkpt lat="45.40192" lon="6.58536">
        <ele>1822.72</ele>
        <time>2016-01-31T14:33:36.065+01:00</time>
      </trkpt>
      <trkpt lat="45.40196" lon="6.58524">
        <ele>1821.29</ele>
        <time>2016-01-31T14:33:39.066+01:00</time>
      </trkpt>
      <trkpt lat="45.402" lon="6.58506">
        <ele>1819.26</ele>
        <time>2016-01-31T14:33:41.063+01:00</time>
      </trkpt>
      <trkpt lat="45.40207" lon="6.58489">
        <ele>1817.15</ele>
        <time>2016-01-31T14:33:43.066+01:00</time>
      </trkpt>
      <trkpt lat="45.40216" lon="6.5847">
        <ele>1814.68</ele>
        <time>2016-01-31T14:33:45.041+01:00</time>
      </trkpt>
      <trkpt lat="45.40221" lon="6.58459">
        <ele>1813.2</ele>
        <time>2016-01-31T14:33:46.055+01:00</time>
      </trkpt>
      <trkpt lat="45.40225" lon="6.58446">
        <ele>1811.41</ele>
        <time>2016-01-31T14:33:47.051+01:00</time>
      </trkpt>
      <trkpt lat="45.4023" lon="6.58434">
        <ele>1810.32</ele>
        <time>2016-01-31T14:33:48.049+01:00</time>
      </trkpt>
      <trkpt lat="45.40243" lon="6.58419">
        <ele>1808.05</ele>
        <time>2016-01-31T14:33:50.050+01:00</time>
      </trkpt>
      <trkpt lat="45.40254" lon="6.58405">
        <ele>1807.25</ele>
        <time>2016-01-31T14:33:52.050+01:00</time>
      </trkpt>
      <trkpt lat="45.40266" lon="6.58393">
        <ele>1805.3</ele>
        <time>2016-01-31T14:33:54.077+01:00</time>
      </trkpt>
      <trkpt lat="45.4028" lon="6.5838">
        <ele>1802.15</ele>
        <time>2016-01-31T14:33:56.056+01:00</time>
      </trkpt>
      <trkpt lat="45.40295" lon="6.58368">
        <ele>1799.28</ele>
        <time>2016-01-31T14:33:58.069+01:00</time>
      </trkpt>
      <trkpt lat="45.40305" lon="6.58366">
        <ele>1797.5</ele>
        <time>2016-01-31T14:33:59.035+01:00</time>
      </trkpt>
      <trkpt lat="45.40315" lon="6.58353">
        <ele>1797.3</ele>
        <time>2016-01-31T14:34:01.042+01:00</time>
      </trkpt>
      <trkpt lat="45.40328" lon="6.58347">
        <ele>1795.16</ele>
        <time>2016-01-31T14:34:03.059+01:00</time>
      </trkpt>
      <trkpt lat="45.40342" lon="6.58337">
        <ele>1794.56</ele>
        <time>2016-01-31T14:34:05.077+01:00</time>
      </trkpt>
      <trkpt lat="45.40356" lon="6.58326">
        <ele>1792.11</ele>
        <time>2016-01-31T14:34:07.044+01:00</time>
      </trkpt>
      <trkpt lat="45.40365" lon="6.58323">
        <ele>1789.79</ele>
        <time>2016-01-31T14:34:08.052+01:00</time>
      </trkpt>
      <trkpt lat="45.40379" lon="6.58306">
        <ele>1785.86</ele>
        <time>2016-01-31T14:34:10.043+01:00</time>
      </trkpt>
      <trkpt lat="45.4039" lon="6.58298">
        <ele>1781.98</ele>
        <time>2016-01-31T14:34:12.060+01:00</time>
      </trkpt>
      <trkpt lat="45.40401" lon="6.58282">
        <ele>1780.8</ele>
        <time>2016-01-31T14:34:14.045+01:00</time>
      </trkpt>
      <trkpt lat="45.40413" lon="6.58274">
        <ele>1777.49</ele>
        <time>2016-01-31T14:34:16.040+01:00</time>
      </trkpt>
      <trkpt lat="45.40426" lon="6.58258">
        <ele>1774.79</ele>
        <time>2016-01-31T14:34:18.036+01:00</time>
      </trkpt>
      <trkpt lat="45.40437" lon="6.58238">
        <ele>1772.93</ele>
        <time>2016-01-31T14:34:20.040+01:00</time>
      </trkpt>
      <trkpt lat="45.40443" lon="6.58227">
        <ele>1771.1</ele>
        <time>2016-01-31T14:34:21.035+01:00</time>
      </trkpt>
      <trkpt lat="45.40448" lon="6.58216">
        <ele>1769.47</ele>
        <time>2016-01-31T14:34:22.042+01:00</time>
      </trkpt>
      <trkpt lat="45.40453" lon="6.58204">
        <ele>1768.52</ele>
        <time>2016-01-31T14:34:23.043+01:00</time>
      </trkpt>
      <trkpt lat="45.40458" lon="6.58193">
        <ele>1766.79</ele>
        <time>2016-01-31T14:34:24.057+01:00</time>
      </trkpt>
      <trkpt lat="45.40465" lon="6.58181">
        <ele>1765.55</ele>
        <time>2016-01-31T14:34:25.048+01:00</time>
      </trkpt>
      <trkpt lat="45.4047" lon="6.58169">
        <ele>1762.83</ele>
        <time>2016-01-31T14:34:26.045+01:00</time>
      </trkpt>
      <trkpt lat="45.40474" lon="6.58156">
        <ele>1762.58</ele>
        <time>2016-01-31T14:34:27.063+01:00</time>
      </trkpt>
      <trkpt lat="45.40478" lon="6.58141">
        <ele>1760.74</ele>
        <time>2016-01-31T14:34:28.064+01:00</time>
      </trkpt>
      <trkpt lat="45.40482" lon="6.58127">
        <ele>1759.42</ele>
        <time>2016-01-31T14:34:29.062+01:00</time>
      </trkpt>
      <trkpt lat="45.40485" lon="6.58113">
        <ele>1757.99</ele>
        <time>2016-01-31T14:34:30.061+01:00</time>
      </trkpt>
      <trkpt lat="45.40486" lon="6.5809">
        <ele>1757.52</ele>
        <time>2016-01-31T14:34:32.060+01:00</time>
      </trkpt>
      <trkpt lat="45.40493" lon="6.58073">
        <ele>1755.76</ele>
        <time>2016-01-31T14:34:34.062+01:00</time>
      </trkpt>
      <trkpt lat="45.40498" lon="6.58048">
        <ele>1751.64</ele>
        <time>2016-01-31T14:34:36.065+01:00</time>
      </trkpt>
      <trkpt lat="45.40502" lon="6.58034">
        <ele>1749.14</ele>
        <time>2016-01-31T14:34:37.048+01:00</time>
      </trkpt>
      <trkpt lat="45.40505" lon="6.58019">
        <ele>1746.76</ele>
        <time>2016-01-31T14:34:38.037+01:00</time>
      </trkpt>
      <trkpt lat="45.40508" lon="6.58003">
        <ele>1744.84</ele>
        <time>2016-01-31T14:34:39.038+01:00</time>
      </trkpt>
      <trkpt lat="45.40512" lon="6.57988">
        <ele>1742.49</ele>
        <time>2016-01-31T14:34:40.032+01:00</time>
      </trkpt>
      <trkpt lat="45.40509" lon="6.57975">
        <ele>1740.09</ele>
        <time>2016-01-31T14:34:41.033+01:00</time>
      </trkpt>
      <trkpt lat="45.40509" lon="6.57961">
        <ele>1738.86</ele>
        <time>2016-01-31T14:34:42.051+01:00</time>
      </trkpt>
      <trkpt lat="45.40513" lon="6.57948">
        <ele>1736.95</ele>
        <time>2016-01-31T14:34:43.065+01:00</time>
      </trkpt>
      <trkpt lat="45.40515" lon="6.57935">
        <ele>1736.16</ele>
        <time>2016-01-31T14:34:44.061+01:00</time>
      </trkpt>
      <trkpt lat="45.40516" lon="6.57921">
        <ele>1735.34</ele>
        <time>2016-01-31T14:34:45.062+01:00</time>
      </trkpt>
      <trkpt lat="45.40518" lon="6.57907">
        <ele>1733.41</ele>
        <time>2016-01-31T14:34:46.063+01:00</time>
      </trkpt>
      <trkpt lat="45.4052" lon="6.57892">
        <ele>1732.56</ele>
        <time>2016-01-31T14:34:47.049+01:00</time>
      </trkpt>
      <trkpt lat="45.40521" lon="6.57879">
        <ele>1731.68</ele>
        <time>2016-01-31T14:34:48.039+01:00</time>
      </trkpt>
      <trkpt lat="45.40521" lon="6.57866">
        <ele>1730.88</ele>
        <time>2016-01-31T14:34:49.035+01:00</time>
      </trkpt>
      <trkpt lat="45.40512" lon="6.57845">
        <ele>1730.97</ele>
        <time>2016-01-31T14:34:51.059+01:00</time>
      </trkpt>
      <trkpt lat="45.40503" lon="6.57832">
        <ele>1729.37</ele>
        <time>2016-01-31T14:34:53.054+01:00</time>
      </trkpt>
      <trkpt lat="45.40492" lon="6.57823">
        <ele>1729.71</ele>
        <time>2016-01-31T14:34:55.063+01:00</time>
      </trkpt>
      <trkpt lat="45.40484" lon="6.57815">
        <ele>1730.27</ele>
        <time>2016-01-31T14:34:57.069+01:00</time>
      </trkpt>
      <trkpt lat="45.40474" lon="6.57807">
        <ele>1731.18</ele>
        <time>2016-01-31T14:35:01.037+01:00</time>
      </trkpt>
      <trkpt lat="45.40464" lon="6.57803">
        <ele>1730.71</ele>
        <time>2016-01-31T14:35:09.066+01:00</time>
      </trkpt>
      <trkpt lat="45.40454" lon="6.578">
        <ele>1730.73</ele>
        <time>2016-01-31T14:35:15.067+01:00</time>
      </trkpt>
      <trkpt lat="45.40445" lon="6.57795">
        <ele>1731.14</ele>
        <time>2016-01-31T14:35:21.050+01:00</time>
      </trkpt>
      <trkpt lat="45.40436" lon="6.57789">
        <ele>1730.83</ele>
        <time>2016-01-31T14:35:27.056+01:00</time>
      </trkpt>
      <trkpt lat="45.40427" lon="6.57783">
        <ele>1731.13</ele>
        <time>2016-01-31T14:35:33.054+01:00</time>
      </trkpt>
      <trkpt lat="45.40417" lon="6.57779">
        <ele>1730.96</ele>
        <time>2016-01-31T14:35:39.028+01:00</time>
      </trkpt>
      <trkpt lat="45.4041" lon="6.57772">
        <ele>1731.35</ele>
        <time>2016-01-31T14:35:45.081+01:00</time>
      </trkpt>
      <trkpt lat="45.40402" lon="6.57763">
        <ele>1731.65</ele>
        <time>2016-01-31T14:35:52.053+01:00</time>
      </trkpt>
      <trkpt lat="45.40392" lon="6.57761">
        <ele>1731.87</ele>
        <time>2016-01-31T14:35:59.035+01:00</time>
      </trkpt>
      <trkpt lat="45.40384" lon="6.57755">
        <ele>1732.6</ele>
        <time>2016-01-31T14:36:05.067+01:00</time>
      </trkpt>
      <trkpt lat="45.40375" lon="6.57753">
        <ele>1733.03</ele>
        <time>2016-01-31T14:36:11.036+01:00</time>
      </trkpt>
      <trkpt lat="45.40367" lon="6.57747">
        <ele>1733.81</ele>
        <time>2016-01-31T14:36:17.051+01:00</time>
      </trkpt>
      <trkpt lat="45.40358" lon="6.5774">
        <ele>1734.26</ele>
        <time>2016-01-31T14:36:24.057+01:00</time>
      </trkpt>
      <trkpt lat="45.40349" lon="6.57733">
        <ele>1734.58</ele>
        <time>2016-01-31T14:36:30.055+01:00</time>
      </trkpt>
      <trkpt lat="45.40343" lon="6.57721">
        <ele>1733.51</ele>
        <time>2016-01-31T14:36:35.063+01:00</time>
      </trkpt>
      <trkpt lat="45.40337" lon="6.57711">
        <ele>1732.55</ele>
        <time>2016-01-31T14:36:39.063+01:00</time>
      </trkpt>
      <trkpt lat="45.4033" lon="6.57701">
        <ele>1731.56</ele>
        <time>2016-01-31T14:36:42.044+01:00</time>
      </trkpt>
      <trkpt lat="45.40322" lon="6.57692">
        <ele>1730.86</ele>
        <time>2016-01-31T14:36:45.060+01:00</time>
      </trkpt>
      <trkpt lat="45.40312" lon="6.57682">
        <ele>1729.7</ele>
        <time>2016-01-31T14:36:48.045+01:00</time>
      </trkpt>
      <trkpt lat="45.40301" lon="6.57676">
        <ele>1729.28</ele>
        <time>2016-01-31T14:36:51.036+01:00</time>
      </trkpt>
      <trkpt lat="45.4029" lon="6.57669">
        <ele>1728.94</ele>
        <time>2016-01-31T14:36:54.047+01:00</time>
      </trkpt>
      <trkpt lat="45.40281" lon="6.57662">
        <ele>1728.51</ele>
        <time>2016-01-31T14:36:57.087+01:00</time>
      </trkpt>
      <trkpt lat="45.40272" lon="6.57655">
        <ele>1728.18</ele>
        <time>2016-01-31T14:37:00.087+01:00</time>
      </trkpt>
      <trkpt lat="45.40263" lon="6.5765">
        <ele>1728.02</ele>
        <time>2016-01-31T14:37:03.082+01:00</time>
      </trkpt>
      <trkpt lat="45.40253" lon="6.57643">
        <ele>1727.3</ele>
        <time>2016-01-31T14:37:07.104+01:00</time>
      </trkpt>
      <trkpt lat="45.40244" lon="6.57638">
        <ele>1726.77</ele>
        <time>2016-01-31T14:37:10.077+01:00</time>
      </trkpt>
      <trkpt lat="45.40235" lon="6.57635">
        <ele>1726.66</ele>
        <time>2016-01-31T14:37:13.066+01:00</time>
      </trkpt>
      <trkpt lat="45.40224" lon="6.57635">
        <ele>1726.21</ele>
        <time>2016-01-31T14:37:17.071+01:00</time>
      </trkpt>
      <trkpt lat="45.40212" lon="6.57637">
        <ele>1725.39</ele>
        <time>2016-01-31T14:37:21.069+01:00</time>
      </trkpt>
      <trkpt lat="45.40202" lon="6.57635">
        <ele>1724.42</ele>
        <time>2016-01-31T14:37:24.060+01:00</time>
      </trkpt>
      <trkpt lat="45.40191" lon="6.57627">
        <ele>1723.77</ele>
        <time>2016-01-31T14:37:27.067+01:00</time>
      </trkpt>
      <trkpt lat="45.40183" lon="6.57615">
        <ele>1723.45</ele>
        <time>2016-01-31T14:37:30.042+01:00</time>
      </trkpt>
      <trkpt lat="45.40174" lon="6.57605">
        <ele>1722.6</ele>
        <time>2016-01-31T14:37:33.050+01:00</time>
      </trkpt>
      <trkpt lat="45.40164" lon="6.57594">
        <ele>1721.94</ele>
        <time>2016-01-31T14:37:36.054+01:00</time>
      </trkpt>
      <trkpt lat="45.40156" lon="6.57587">
        <ele>1721.5</ele>
        <time>2016-01-31T14:37:38.075+01:00</time>
      </trkpt>
      <trkpt lat="45.40144" lon="6.5758">
        <ele>1720.56</ele>
        <time>2016-01-31T14:37:41.058+01:00</time>
      </trkpt>
      <trkpt lat="45.40132" lon="6.57577">
        <ele>1719.64</ele>
        <time>2016-01-31T14:37:44.054+01:00</time>
      </trkpt>
      <trkpt lat="45.40121" lon="6.57576">
        <ele>1719.23</ele>
        <time>2016-01-31T14:37:47.055+01:00</time>
      </trkpt>
      <trkpt lat="45.4011" lon="6.57576">
        <ele>1718.63</ele>
        <time>2016-01-31T14:37:50.063+01:00</time>
      </trkpt>
      <trkpt lat="45.40099" lon="6.57577">
        <ele>1718.01</ele>
        <time>2016-01-31T14:37:53.068+01:00</time>
      </trkpt>
      <trkpt lat="45.40086" lon="6.57576">
        <ele>1716.85</ele>
        <time>2016-01-31T14:37:56.057+01:00</time>
      </trkpt>
      <trkpt lat="45.40074" lon="6.57574">
        <ele>1716.56</ele>
        <time>2016-01-31T14:37:58.056+01:00</time>
      </trkpt>
      <trkpt lat="45.40062" lon="6.57577">
        <ele>1716.02</ele>
        <time>2016-01-31T14:38:01.045+01:00</time>
      </trkpt>
      <trkpt lat="45.40051" lon="6.5758">
        <ele>1715.97</ele>
        <time>2016-01-31T14:38:04.031+01:00</time>
      </trkpt>
      <trkpt lat="45.40042" lon="6.57586">
        <ele>1715.11</ele>
        <time>2016-01-31T14:38:07.052+01:00</time>
      </trkpt>
      <trkpt lat="45.40029" lon="6.5759">
        <ele>1714.35</ele>
        <time>2016-01-31T14:38:10.044+01:00</time>
      </trkpt>
      <trkpt lat="45.40016" lon="6.57596">
        <ele>1712.86</ele>
        <time>2016-01-31T14:38:13.033+01:00</time>
      </trkpt>
      <trkpt lat="45.40002" lon="6.57601">
        <ele>1711.74</ele>
        <time>2016-01-31T14:38:16.040+01:00</time>
      </trkpt>
      <trkpt lat="45.39992" lon="6.57603">
        <ele>1710.94</ele>
        <time>2016-01-31T14:38:18.052+01:00</time>
      </trkpt>
      <trkpt lat="45.39984" lon="6.57609">
        <ele>1710.15</ele>
        <time>2016-01-31T14:38:20.061+01:00</time>
      </trkpt>
      <trkpt lat="45.39971" lon="6.5762">
        <ele>1708.43</ele>
        <time>2016-01-31T14:38:23.051+01:00</time>
      </trkpt>
      <trkpt lat="45.39959" lon="6.57623">
        <ele>1706.81</ele>
        <time>2016-01-31T14:38:25.054+01:00</time>
      </trkpt>
      <trkpt lat="45.39944" lon="6.57625">
        <ele>1704.79</ele>
        <time>2016-01-31T14:38:27.054+01:00</time>
      </trkpt>
      <trkpt lat="45.39929" lon="6.57626">
        <ele>1702.94</ele>
        <time>2016-01-31T14:38:29.033+01:00</time>
      </trkpt>
      <trkpt lat="45.39912" lon="6.57629">
        <ele>1700.19</ele>
        <time>2016-01-31T14:38:31.035+01:00</time>
      </trkpt>
      <trkpt lat="45.39903" lon="6.57633">
        <ele>1699.29</ele>
        <time>2016-01-31T14:38:32.036+01:00</time>
      </trkpt>
      <trkpt lat="45.39888" lon="6.5764">
        <ele>1697.98</ele>
        <time>2016-01-31T14:38:34.037+01:00</time>
      </trkpt>
      <trkpt lat="45.39874" lon="6.57648">
        <ele>1696.91</ele>
        <time>2016-01-31T14:38:36.052+01:00</time>
      </trkpt>
      <trkpt lat="45.39861" lon="6.57658">
        <ele>1695.83</ele>
        <time>2016-01-31T14:38:38.053+01:00</time>
      </trkpt>
      <trkpt lat="45.39849" lon="6.57668">
        <ele>1695.25</ele>
        <time>2016-01-31T14:38:40.060+01:00</time>
      </trkpt>
      <trkpt lat="45.39836" lon="6.57677">
        <ele>1694.07</ele>
        <time>2016-01-31T14:38:42.060+01:00</time>
      </trkpt>
      <trkpt lat="45.39824" lon="6.57687">
        <ele>1693.3</ele>
        <time>2016-01-31T14:38:44.065+01:00</time>
      </trkpt>
      <trkpt lat="45.39812" lon="6.57693">
        <ele>1692.73</ele>
        <time>2016-01-31T14:38:46.068+01:00</time>
      </trkpt>
      <trkpt lat="45.39802" lon="6.57699">
        <ele>1692.8</ele>
        <time>2016-01-31T14:38:48.051+01:00</time>
      </trkpt>
      <trkpt lat="45.3979" lon="6.57701">
        <ele>1692.31</ele>
        <time>2016-01-31T14:38:50.057+01:00</time>
      </trkpt>
      <trkpt lat="45.3978" lon="6.57702">
        <ele>1691.73</ele>
        <time>2016-01-31T14:38:52.057+01:00</time>
      </trkpt>
      <trkpt lat="45.39769" lon="6.577">
        <ele>1691.41</ele>
        <time>2016-01-31T14:38:54.041+01:00</time>
      </trkpt>
      <trkpt lat="45.39759" lon="6.57694">
        <ele>1691.09</ele>
        <time>2016-01-31T14:38:56.053+01:00</time>
      </trkpt>
      <trkpt lat="45.39747" lon="6.57686">
        <ele>1689.77</ele>
        <time>2016-01-31T14:38:59.054+01:00</time>
      </trkpt>
      <trkpt lat="45.39737" lon="6.57679">
        <ele>1687.54</ele>
        <time>2016-01-31T14:39:02.073+01:00</time>
      </trkpt>
      <trkpt lat="45.39722" lon="6.57675">
        <ele>1685.49</ele>
        <time>2016-01-31T14:39:04.033+01:00</time>
      </trkpt>
      <trkpt lat="45.39707" lon="6.57671">
        <ele>1684.68</ele>
        <time>2016-01-31T14:39:06.055+01:00</time>
      </trkpt>
      <trkpt lat="45.39698" lon="6.57666">
        <ele>1683.54</ele>
        <time>2016-01-31T14:39:07.052+01:00</time>
      </trkpt>
      <trkpt lat="45.39681" lon="6.57662">
        <ele>1683</ele>
        <time>2016-01-31T14:39:09.056+01:00</time>
      </trkpt>
      <trkpt lat="45.39667" lon="6.57665">
        <ele>1682.01</ele>
        <time>2016-01-31T14:39:11.059+01:00</time>
      </trkpt>
      <trkpt lat="45.39651" lon="6.57669">
        <ele>1681.3</ele>
        <time>2016-01-31T14:39:13.051+01:00</time>
      </trkpt>
      <trkpt lat="45.39636" lon="6.5767">
        <ele>1679.47</ele>
        <time>2016-01-31T14:39:15.056+01:00</time>
      </trkpt>
      <trkpt lat="45.39619" lon="6.57667">
        <ele>1677.98</ele>
        <time>2016-01-31T14:39:17.058+01:00</time>
      </trkpt>
      <trkpt lat="45.39605" lon="6.57662">
        <ele>1676.79</ele>
        <time>2016-01-31T14:39:19.055+01:00</time>
      </trkpt>
      <trkpt lat="45.39591" lon="6.57651">
        <ele>1675.52</ele>
        <time>2016-01-31T14:39:21.056+01:00</time>
      </trkpt>
      <trkpt lat="45.39579" lon="6.57636">
        <ele>1674.69</ele>
        <time>2016-01-31T14:39:23.055+01:00</time>
      </trkpt>
      <trkpt lat="45.39569" lon="6.5762">
        <ele>1673.03</ele>
        <time>2016-01-31T14:39:25.061+01:00</time>
      </trkpt>
      <trkpt lat="45.39559" lon="6.57606">
        <ele>1670.67</ele>
        <time>2016-01-31T14:39:27.066+01:00</time>
      </trkpt>
      <trkpt lat="45.39552" lon="6.57589">
        <ele>1668.52</ele>
        <time>2016-01-31T14:39:29.044+01:00</time>
      </trkpt>
      <trkpt lat="45.39553" lon="6.57576">
        <ele>1667.65</ele>
        <time>2016-01-31T14:39:30.076+01:00</time>
      </trkpt>
      <trkpt lat="45.39554" lon="6.57562">
        <ele>1666.9</ele>
        <time>2016-01-31T14:39:31.071+01:00</time>
      </trkpt>
      <trkpt lat="45.39558" lon="6.57542">
        <ele>1665.36</ele>
        <time>2016-01-31T14:39:33.055+01:00</time>
      </trkpt>
      <trkpt lat="45.39563" lon="6.57526">
        <ele>1663.26</ele>
        <time>2016-01-31T14:39:35.052+01:00</time>
      </trkpt>
      <trkpt lat="45.39568" lon="6.57508">
        <ele>1663.4</ele>
        <time>2016-01-31T14:39:37.051+01:00</time>
      </trkpt>
      <trkpt lat="45.39571" lon="6.57496">
        <ele>1664.28</ele>
        <time>2016-01-31T14:39:39.049+01:00</time>
      </trkpt>
      <trkpt lat="45.39583" lon="6.57492">
        <ele>1661.59</ele>
        <time>2016-01-31T14:40:00.066+01:00</time>
      </trkpt>
      <trkpt lat="45.39591" lon="6.57478">
        <ele>1659.68</ele>
        <time>2016-01-31T14:40:03.049+01:00</time>
      </trkpt>
      <trkpt lat="45.39595" lon="6.57463">
        <ele>1658.74</ele>
        <time>2016-01-31T14:40:05.049+01:00</time>
      </trkpt>
      <trkpt lat="45.39603" lon="6.57457">
        <ele>1657.33</ele>
        <time>2016-01-31T14:40:07.060+01:00</time>
      </trkpt>
      <trkpt lat="45.3961" lon="6.57447">
        <ele>1655.88</ele>
        <time>2016-01-31T14:40:09.057+01:00</time>
      </trkpt>
      <trkpt lat="45.39617" lon="6.57437">
        <ele>1655.62</ele>
        <time>2016-01-31T14:40:11.058+01:00</time>
      </trkpt>
      <trkpt lat="45.39626" lon="6.57427">
        <ele>1652.48</ele>
        <time>2016-01-31T14:40:13.097+01:00</time>
      </trkpt>
      <trkpt lat="45.39637" lon="6.57417">
        <ele>1650.63</ele>
        <time>2016-01-31T14:40:15.084+01:00</time>
      </trkpt>
      <trkpt lat="45.39645" lon="6.57406">
        <ele>1646.87</ele>
        <time>2016-01-31T14:40:17.052+01:00</time>
      </trkpt>
      <trkpt lat="45.3966" lon="6.57395">
        <ele>1643.97</ele>
        <time>2016-01-31T14:40:19.091+01:00</time>
      </trkpt>
      <trkpt lat="45.39673" lon="6.5738">
        <ele>1639.49</ele>
        <time>2016-01-31T14:40:21.088+01:00</time>
      </trkpt>
      <trkpt lat="45.39685" lon="6.57369">
        <ele>1638.8</ele>
        <time>2016-01-31T14:40:23.109+01:00</time>
      </trkpt>
      <trkpt lat="45.39688" lon="6.57355">
        <ele>1636.21</ele>
        <time>2016-01-31T14:40:26.046+01:00</time>
      </trkpt>
      <trkpt lat="45.39699" lon="6.57342">
        <ele>1632.78</ele>
        <time>2016-01-31T14:40:28.058+01:00</time>
      </trkpt>
      <trkpt lat="45.39701" lon="6.57326">
        <ele>1629.29</ele>
        <time>2016-01-31T14:40:30.081+01:00</time>
      </trkpt>
      <trkpt lat="45.39706" lon="6.5731">
        <ele>1625.7</ele>
        <time>2016-01-31T14:40:32.043+01:00</time>
      </trkpt>
      <trkpt lat="45.39716" lon="6.57303">
        <ele>1622.91</ele>
        <time>2016-01-31T14:40:33.064+01:00</time>
      </trkpt>
      <trkpt lat="45.3971" lon="6.5729">
        <ele>1618.69</ele>
        <time>2016-01-31T14:40:36.076+01:00</time>
      </trkpt>
      <trkpt lat="45.39713" lon="6.57276">
        <ele>1616.28</ele>
        <time>2016-01-31T14:40:38.071+01:00</time>
      </trkpt>
      <trkpt lat="45.39711" lon="6.57261">
        <ele>1611.4</ele>
        <time>2016-01-31T14:40:40.070+01:00</time>
      </trkpt>
      <trkpt lat="45.39714" lon="6.57243">
        <ele>1608.34</ele>
        <time>2016-01-31T14:40:42.068+01:00</time>
      </trkpt>
      <trkpt lat="45.39712" lon="6.57228">
        <ele>1604.2</ele>
        <time>2016-01-31T14:40:44.068+01:00</time>
      </trkpt>
      <trkpt lat="45.39708" lon="6.57204">
        <ele>1599.51</ele>
        <time>2016-01-31T14:40:46.066+01:00</time>
      </trkpt>
      <trkpt lat="45.39708" lon="6.57185">
        <ele>1594.93</ele>
        <time>2016-01-31T14:40:48.065+01:00</time>
      </trkpt>
      <trkpt lat="45.39706" lon="6.57173">
        <ele>1594.23</ele>
        <time>2016-01-31T14:40:49.065+01:00</time>
      </trkpt>
      <trkpt lat="45.39705" lon="6.57151">
        <ele>1592.02</ele>
        <time>2016-01-31T14:40:51.064+01:00</time>
      </trkpt>
      <trkpt lat="45.39704" lon="6.57138">
        <ele>1592.37</ele>
        <time>2016-01-31T14:40:53.063+01:00</time>
      </trkpt>
      <trkpt lat="45.39703" lon="6.57122">
        <ele>1591.73</ele>
        <time>2016-01-31T14:40:55.076+01:00</time>
      </trkpt>
      <trkpt lat="45.39699" lon="6.57109">
        <ele>1590.79</ele>
        <time>2016-01-31T14:40:57.073+01:00</time>
      </trkpt>
      <trkpt lat="45.39697" lon="6.57093">
        <ele>1588.7</ele>
        <time>2016-01-31T14:40:59.053+01:00</time>
      </trkpt>
      <trkpt lat="45.39692" lon="6.57077">
        <ele>1586.76</ele>
        <time>2016-01-31T14:41:01.043+01:00</time>
      </trkpt>
      <trkpt lat="45.39686" lon="6.57062">
        <ele>1583.62</ele>
        <time>2016-01-31T14:41:03.044+01:00</time>
      </trkpt>
      <trkpt lat="45.39676" lon="6.57045">
        <ele>1581.95</ele>
        <time>2016-01-31T14:41:05.053+01:00</time>
      </trkpt>
      <trkpt lat="45.39668" lon="6.57026">
        <ele>1578.53</ele>
        <time>2016-01-31T14:41:07.064+01:00</time>
      </trkpt>
      <trkpt lat="45.39655" lon="6.57016">
        <ele>1576.1</ele>
        <time>2016-01-31T14:41:09.060+01:00</time>
      </trkpt>
      <trkpt lat="45.39644" lon="6.57008">
        <ele>1573.65</ele>
        <time>2016-01-31T14:41:11.063+01:00</time>
      </trkpt>
      <trkpt lat="45.39636" lon="6.57002">
        <ele>1573.43</ele>
        <time>2016-01-31T14:41:13.048+01:00</time>
      </trkpt>
      <trkpt lat="45.39624" lon="6.57009">
        <ele>1570.69</ele>
        <time>2016-01-31T14:41:15.034+01:00</time>
      </trkpt>
      <trkpt lat="45.3961" lon="6.57008">
        <ele>1567.67</ele>
        <time>2016-01-31T14:41:17.035+01:00</time>
      </trkpt>
      <trkpt lat="45.39594" lon="6.57008">
        <ele>1563.75</ele>
        <time>2016-01-31T14:41:19.037+01:00</time>
      </trkpt>
      <trkpt lat="45.39581" lon="6.57003">
        <ele>1560.68</ele>
        <time>2016-01-31T14:41:21.035+01:00</time>
      </trkpt>
      <trkpt lat="45.39566" lon="6.56997">
        <ele>1556.16</ele>
        <time>2016-01-31T14:41:23.035+01:00</time>
      </trkpt>
      <trkpt lat="45.39555" lon="6.56995">
        <ele>1554.78</ele>
        <time>2016-01-31T14:41:25.075+01:00</time>
      </trkpt>
      <trkpt lat="45.39542" lon="6.56988">
        <ele>1550.86</ele>
        <time>2016-01-31T14:41:27.062+01:00</time>
      </trkpt>
      <trkpt lat="45.3953" lon="6.5698">
        <ele>1548.14</ele>
        <time>2016-01-31T14:41:30.041+01:00</time>
      </trkpt>
      <trkpt lat="45.39519" lon="6.56981">
        <ele>1546.55</ele>
        <time>2016-01-31T14:41:32.057+01:00</time>
      </trkpt>
      <trkpt lat="45.39508" lon="6.56974">
        <ele>1542.87</ele>
        <time>2016-01-31T14:41:34.036+01:00</time>
      </trkpt>
      <trkpt lat="45.39495" lon="6.5697">
        <ele>1539.52</ele>
        <time>2016-01-31T14:41:36.044+01:00</time>
      </trkpt>
      <trkpt lat="45.39483" lon="6.56974">
        <ele>1536.72</ele>
        <time>2016-01-31T14:41:38.061+01:00</time>
      </trkpt>
      <trkpt lat="45.39471" lon="6.56978">
        <ele>1533.07</ele>
        <time>2016-01-31T14:41:40.079+01:00</time>
      </trkpt>
      <trkpt lat="45.39458" lon="6.56981">
        <ele>1531.87</ele>
        <time>2016-01-31T14:41:42.037+01:00</time>
      </trkpt>
      <trkpt lat="45.39443" lon="6.56982">
        <ele>1529.49</ele>
        <time>2016-01-31T14:41:44.037+01:00</time>
      </trkpt>
      <trkpt lat="45.39433" lon="6.56981">
        <ele>1528.42</ele>
        <time>2016-01-31T14:41:45.039+01:00</time>
      </trkpt>
      <trkpt lat="45.39424" lon="6.56982">
        <ele>1527.39</ele>
        <time>2016-01-31T14:41:46.031+01:00</time>
      </trkpt>
      <trkpt lat="45.39408" lon="6.56984">
        <ele>1525.09</ele>
        <time>2016-01-31T14:41:48.027+01:00</time>
      </trkpt>
      <trkpt lat="45.39396" lon="6.56988">
        <ele>1522.76</ele>
        <time>2016-01-31T14:41:50.032+01:00</time>
      </trkpt>
      <trkpt lat="45.39378" lon="6.56986">
        <ele>1520.2</ele>
        <time>2016-01-31T14:41:52.037+01:00</time>
      </trkpt>
      <trkpt lat="45.39365" lon="6.5699">
        <ele>1517.97</ele>
        <time>2016-01-31T14:41:54.075+01:00</time>
      </trkpt>
      <trkpt lat="45.39349" lon="6.5699">
        <ele>1515.17</ele>
        <time>2016-01-31T14:41:56.064+01:00</time>
      </trkpt>
      <trkpt lat="45.39339" lon="6.56989">
        <ele>1513.94</ele>
        <time>2016-01-31T14:41:57.054+01:00</time>
      </trkpt>
      <trkpt lat="45.39328" lon="6.56987">
        <ele>1513.23</ele>
        <time>2016-01-31T14:41:58.058+01:00</time>
      </trkpt>
      <trkpt lat="45.39312" lon="6.56988">
        <ele>1510.6</ele>
        <time>2016-01-31T14:42:00.047+01:00</time>
      </trkpt>
      <trkpt lat="45.39294" lon="6.5699">
        <ele>1507.9</ele>
        <time>2016-01-31T14:42:02.067+01:00</time>
      </trkpt>
      <trkpt lat="45.39276" lon="6.56994">
        <ele>1505.45</ele>
        <time>2016-01-31T14:42:04.051+01:00</time>
      </trkpt>
      <trkpt lat="45.39267" lon="6.56996">
        <ele>1503.69</ele>
        <time>2016-01-31T14:42:05.037+01:00</time>
      </trkpt>
      <trkpt lat="45.39249" lon="6.57002">
        <ele>1502.76</ele>
        <time>2016-01-31T14:42:07.037+01:00</time>
      </trkpt>
      <trkpt lat="45.3924" lon="6.57002">
        <ele>1501.09</ele>
        <time>2016-01-31T14:42:08.038+01:00</time>
      </trkpt>
      <trkpt lat="45.39224" lon="6.57006">
        <ele>1499.84</ele>
        <time>2016-01-31T14:42:10.039+01:00</time>
      </trkpt>
      <trkpt lat="45.39205" lon="6.57006">
        <ele>1498.75</ele>
        <time>2016-01-31T14:42:12.052+01:00</time>
      </trkpt>
      <trkpt lat="45.39189" lon="6.57007">
        <ele>1497.88</ele>
        <time>2016-01-31T14:42:14.062+01:00</time>
      </trkpt>
      <trkpt lat="45.39177" lon="6.57012">
        <ele>1494.6</ele>
        <time>2016-01-31T14:42:16.049+01:00</time>
      </trkpt>
      <trkpt lat="45.39167" lon="6.57012">
        <ele>1492.98</ele>
        <time>2016-01-31T14:42:18.062+01:00</time>
      </trkpt>
      <trkpt lat="45.39156" lon="6.57016">
        <ele>1491.98</ele>
        <time>2016-01-31T14:42:20.064+01:00</time>
      </trkpt>
      <trkpt lat="45.39147" lon="6.57009">
        <ele>1489.61</ele>
        <time>2016-01-31T14:42:22.072+01:00</time>
      </trkpt>
      <trkpt lat="45.39137" lon="6.57012">
        <ele>1487.43</ele>
        <time>2016-01-31T14:42:24.069+01:00</time>
      </trkpt>
      <trkpt lat="45.39129" lon="6.57004">
        <ele>1485.5</ele>
        <time>2016-01-31T14:42:26.066+01:00</time>
      </trkpt>
      <trkpt lat="45.39112" lon="6.56993">
        <ele>1482.92</ele>
        <time>2016-01-31T14:42:28.066+01:00</time>
      </trkpt>
      <trkpt lat="45.39107" lon="6.56982">
        <ele>1481.53</ele>
        <time>2016-01-31T14:42:58.063+01:00</time>
      </trkpt>
      <trkpt lat="45.39096" lon="6.56975">
        <ele>1474.47</ele>
        <time>2016-01-31T14:43:04.047+01:00</time>
      </trkpt>
      <trkpt lat="45.39088" lon="6.56913">
        <ele>1462.59</ele>
        <time>2016-01-31T14:43:10.066+01:00</time>
      </trkpt>
      <trkpt lat="45.39096" lon="6.56902">
        <ele>1458.85</ele>
        <time>2016-01-31T14:43:12.063+01:00</time>
      </trkpt>
      <trkpt lat="45.39108" lon="6.56884">
        <ele>1456.99</ele>
        <time>2016-01-31T14:43:14.061+01:00</time>
      </trkpt>
      <trkpt lat="45.39117" lon="6.56876">
        <ele>1455.25</ele>
        <time>2016-01-31T14:43:15.064+01:00</time>
      </trkpt>
      <trkpt lat="45.39135" lon="6.56868">
        <ele>1453.43</ele>
        <time>2016-01-31T14:43:17.066+01:00</time>
      </trkpt>
      <trkpt lat="45.3915" lon="6.5686">
        <ele>1452.34</ele>
        <time>2016-01-31T14:43:19.082+01:00</time>
      </trkpt>
      <trkpt lat="45.39116" lon="6.56843">
        <ele>1448.53</ele>
        <time>2016-01-31T14:43:23.055+01:00</time>
      </trkpt>
      <trkpt lat="45.39112" lon="6.56829">
        <ele>1446.65</ele>
        <time>2016-01-31T14:43:26.048+01:00</time>
      </trkpt>
      <trkpt lat="45.3912" lon="6.56818">
        <ele>1445.1</ele>
        <time>2016-01-31T14:43:28.064+01:00</time>
      </trkpt>
      <trkpt lat="45.39112" lon="6.56813">
        <ele>1445.12</ele>
        <time>2016-01-31T14:43:46.083+01:00</time>
      </trkpt>
      <trkpt lat="45.39109" lon="6.56801">
        <ele>1443.42</ele>
        <time>2016-01-31T14:44:02.059+01:00</time>
      </trkpt>
      <trkpt lat="45.39102" lon="6.56791">
        <ele>1445.93</ele>
        <time>2016-01-31T14:44:25.069+01:00</time>
      </trkpt>
      <trkpt lat="45.39093" lon="6.56791">
        <ele>1447.06</ele>
        <time>2016-01-31T14:44:33.063+01:00</time>
      </trkpt>
      <trkpt lat="45.3909" lon="6.56803">
        <ele>1447.67</ele>
        <time>2016-01-31T14:45:10.065+01:00</time>
      </trkpt>
      <trkpt lat="45.3908" lon="6.56799">
        <ele>1448.07</ele>
        <time>2016-01-31T14:45:31.084+01:00</time>
      </trkpt>
      <trkpt lat="45.39071" lon="6.56795">
        <ele>1447.76</ele>
        <time>2016-01-31T14:45:33.067+01:00</time>
      </trkpt>
      <trkpt lat="45.39062" lon="6.56791">
        <ele>1447.4</ele>
        <time>2016-01-31T14:45:35.041+01:00</time>
      </trkpt>
      <trkpt lat="45.39052" lon="6.56786">
        <ele>1447.87</ele>
        <time>2016-01-31T14:45:37.041+01:00</time>
      </trkpt>
      <trkpt lat="45.39043" lon="6.56781">
        <ele>1449.83</ele>
        <time>2016-01-31T14:45:39.038+01:00</time>
      </trkpt>
      <trkpt lat="45.39032" lon="6.56779">
        <ele>1452.4</ele>
        <time>2016-01-31T14:45:42.060+01:00</time>
      </trkpt>
      <trkpt lat="45.3902" lon="6.56777">
        <ele>1456.43</ele>
        <time>2016-01-31T14:45:45.045+01:00</time>
      </trkpt>
      <trkpt lat="45.39009" lon="6.56769">
        <ele>1457.94</ele>
        <time>2016-01-31T14:45:48.068+01:00</time>
      </trkpt>
      <trkpt lat="45.38998" lon="6.56763">
        <ele>1459.94</ele>
        <time>2016-01-31T14:45:51.052+01:00</time>
      </trkpt>
      <trkpt lat="45.38987" lon="6.56757">
        <ele>1462.47</ele>
        <time>2016-01-31T14:45:54.036+01:00</time>
      </trkpt>
      <trkpt lat="45.38976" lon="6.56752">
        <ele>1465.04</ele>
        <time>2016-01-31T14:45:57.039+01:00</time>
      </trkpt>
      <trkpt lat="45.38966" lon="6.56752">
        <ele>1468.12</ele>
        <time>2016-01-31T14:46:00.036+01:00</time>
      </trkpt>
      <trkpt lat="45.38955" lon="6.56749">
        <ele>1471.45</ele>
        <time>2016-01-31T14:46:03.044+01:00</time>
      </trkpt>
      <trkpt lat="45.38944" lon="6.56744">
        <ele>1474.4</ele>
        <time>2016-01-31T14:46:06.085+01:00</time>
      </trkpt>
      <trkpt lat="45.38934" lon="6.5674">
        <ele>1477.93</ele>
        <time>2016-01-31T14:46:09.071+01:00</time>
      </trkpt>
      <trkpt lat="45.38924" lon="6.56737">
        <ele>1481.42</ele>
        <time>2016-01-31T14:46:12.062+01:00</time>
      </trkpt>
      <trkpt lat="45.38912" lon="6.56733">
        <ele>1455.59</ele>
        <time>2016-01-31T14:46:15.065+01:00</time>
      </trkpt>
      <trkpt lat="45.38901" lon="6.5673">
        <ele>1462.3</ele>
        <time>2016-01-31T14:46:18.041+01:00</time>
      </trkpt>
      <trkpt lat="45.38892" lon="6.56727">
        <ele>1492.08</ele>
        <time>2016-01-31T14:46:21.047+01:00</time>
      </trkpt>
      <trkpt lat="45.38881" lon="6.56723">
        <ele>1494.23</ele>
        <time>2016-01-31T14:46:24.056+01:00</time>
      </trkpt>
      <trkpt lat="45.3887" lon="6.56718">
        <ele>1496.51</ele>
        <time>2016-01-31T14:46:27.054+01:00</time>
      </trkpt>
      <trkpt lat="45.3886" lon="6.56713">
        <ele>1499.14</ele>
        <time>2016-01-31T14:46:30.067+01:00</time>
      </trkpt>
      <trkpt lat="45.3885" lon="6.5671">
        <ele>1502.33</ele>
        <time>2016-01-31T14:46:33.051+01:00</time>
      </trkpt>
      <trkpt lat="45.38841" lon="6.56707">
        <ele>1505.38</ele>
        <time>2016-01-31T14:46:36.079+01:00</time>
      </trkpt>
      <trkpt lat="45.38831" lon="6.56704">
        <ele>1508.73</ele>
        <time>2016-01-31T14:46:39.060+01:00</time>
      </trkpt>
      <trkpt lat="45.3882" lon="6.567">
        <ele>1513.07</ele>
        <time>2016-01-31T14:46:43.059+01:00</time>
      </trkpt>
      <trkpt lat="45.38811" lon="6.56697">
        <ele>1516.69</ele>
        <time>2016-01-31T14:46:46.056+01:00</time>
      </trkpt>
      <trkpt lat="45.38802" lon="6.56693">
        <ele>1520.65</ele>
        <time>2016-01-31T14:46:49.048+01:00</time>
      </trkpt>
      <trkpt lat="45.38791" lon="6.56691">
        <ele>1526.13</ele>
        <time>2016-01-31T14:46:53.034+01:00</time>
      </trkpt>
      <trkpt lat="45.3878" lon="6.56687">
        <ele>1530.31</ele>
        <time>2016-01-31T14:46:57.033+01:00</time>
      </trkpt>
      <trkpt lat="45.38768" lon="6.56689">
        <ele>1535.45</ele>
        <time>2016-01-31T14:47:00.049+01:00</time>
      </trkpt>
      <trkpt lat="45.38755" lon="6.56688">
        <ele>1539.12</ele>
        <time>2016-01-31T14:47:03.058+01:00</time>
      </trkpt>
      <trkpt lat="45.38744" lon="6.56686">
        <ele>1543.92</ele>
        <time>2016-01-31T14:47:06.070+01:00</time>
      </trkpt>
      <trkpt lat="45.38733" lon="6.56684">
        <ele>1548.81</ele>
        <time>2016-01-31T14:47:09.054+01:00</time>
      </trkpt>
      <trkpt lat="45.38722" lon="6.5668">
        <ele>1553.61</ele>
        <time>2016-01-31T14:47:12.062+01:00</time>
      </trkpt>
      <trkpt lat="45.38711" lon="6.56677">
        <ele>1557.96</ele>
        <time>2016-01-31T14:47:15.067+01:00</time>
      </trkpt>
      <trkpt lat="45.38699" lon="6.56674">
        <ele>1562.5</ele>
        <time>2016-01-31T14:47:18.073+01:00</time>
      </trkpt>
      <trkpt lat="45.38688" lon="6.56671">
        <ele>1568.13</ele>
        <time>2016-01-31T14:47:21.072+01:00</time>
      </trkpt>
      <trkpt lat="45.38679" lon="6.56667">
        <ele>1570.96</ele>
        <time>2016-01-31T14:47:24.089+01:00</time>
      </trkpt>
      <trkpt lat="45.38667" lon="6.56664">
        <ele>1576.38</ele>
        <time>2016-01-31T14:47:27.088+01:00</time>
      </trkpt>
      <trkpt lat="45.38658" lon="6.56661">
        <ele>1581.69</ele>
        <time>2016-01-31T14:47:30.036+01:00</time>
      </trkpt>
      <trkpt lat="45.38649" lon="6.56657">
        <ele>1587.72</ele>
        <time>2016-01-31T14:47:33.041+01:00</time>
      </trkpt>
      <trkpt lat="45.3864" lon="6.56653">
        <ele>1592.75</ele>
        <time>2016-01-31T14:47:36.055+01:00</time>
      </trkpt>
      <trkpt lat="45.38632" lon="6.56648">
        <ele>1596.65</ele>
        <time>2016-01-31T14:47:39.081+01:00</time>
      </trkpt>
      <trkpt lat="45.3862" lon="6.56643">
        <ele>1575.82</ele>
        <time>2016-01-31T14:47:43.037+01:00</time>
      </trkpt>
      <trkpt lat="45.38611" lon="6.5664">
        <ele>1579.16</ele>
        <time>2016-01-31T14:47:46.040+01:00</time>
      </trkpt>
      <trkpt lat="45.38601" lon="6.56635">
        <ele>1582.24</ele>
        <time>2016-01-31T14:47:49.041+01:00</time>
      </trkpt>
      <trkpt lat="45.3859" lon="6.56629">
        <ele>1583.53</ele>
        <time>2016-01-31T14:47:52.061+01:00</time>
      </trkpt>
      <trkpt lat="45.3858" lon="6.56628">
        <ele>1590.64</ele>
        <time>2016-01-31T14:47:55.074+01:00</time>
      </trkpt>
      <trkpt lat="45.38569" lon="6.56624">
        <ele>1596.61</ele>
        <time>2016-01-31T14:47:58.068+01:00</time>
      </trkpt>
      <trkpt lat="45.38559" lon="6.56622">
        <ele>1600.49</ele>
        <time>2016-01-31T14:48:01.070+01:00</time>
      </trkpt>
      <trkpt lat="45.3855" lon="6.5662">
        <ele>1608.17</ele>
        <time>2016-01-31T14:48:04.063+01:00</time>
      </trkpt>
      <trkpt lat="45.3854" lon="6.56617">
        <ele>1613.72</ele>
        <time>2016-01-31T14:48:07.068+01:00</time>
      </trkpt>
      <trkpt lat="45.38529" lon="6.56611">
        <ele>1619.64</ele>
        <time>2016-01-31T14:48:10.059+01:00</time>
      </trkpt>
      <trkpt lat="45.38518" lon="6.56608">
        <ele>1624.54</ele>
        <time>2016-01-31T14:48:13.061+01:00</time>
      </trkpt>
      <trkpt lat="45.38507" lon="6.56608">
        <ele>1629.49</ele>
        <time>2016-01-31T14:48:16.054+01:00</time>
      </trkpt>
      <trkpt lat="45.38498" lon="6.56607">
        <ele>1632.98</ele>
        <time>2016-01-31T14:48:19.057+01:00</time>
      </trkpt>
      <trkpt lat="45.38488" lon="6.56606">
        <ele>1637.45</ele>
        <time>2016-01-31T14:48:22.052+01:00</time>
      </trkpt>
      <trkpt lat="45.38479" lon="6.56602">
        <ele>1644.27</ele>
        <time>2016-01-31T14:48:25.062+01:00</time>
      </trkpt>
      <trkpt lat="45.38469" lon="6.56597">
        <ele>1674.16</ele>
        <time>2016-01-31T14:48:28.050+01:00</time>
      </trkpt>
      <trkpt lat="45.38459" lon="6.56593">
        <ele>1678.3</ele>
        <time>2016-01-31T14:48:31.071+01:00</time>
      </trkpt>
      <trkpt lat="45.38447" lon="6.56588">
        <ele>1683.84</ele>
        <time>2016-01-31T14:48:34.065+01:00</time>
      </trkpt>
      <trkpt lat="45.38437" lon="6.56584">
        <ele>1689.01</ele>
        <time>2016-01-31T14:48:37.060+01:00</time>
      </trkpt>
      <trkpt lat="45.38428" lon="6.56582">
        <ele>1694.68</ele>
        <time>2016-01-31T14:48:40.065+01:00</time>
      </trkpt>
      <trkpt lat="45.38419" lon="6.56575">
        <ele>1701.63</ele>
        <time>2016-01-31T14:48:44.052+01:00</time>
      </trkpt>
      <trkpt lat="45.38407" lon="6.56572">
        <ele>1707.86</ele>
        <time>2016-01-31T14:48:48.065+01:00</time>
      </trkpt>
      <trkpt lat="45.38396" lon="6.56574">
        <ele>1713.15</ele>
        <time>2016-01-31T14:48:52.038+01:00</time>
      </trkpt>
      <trkpt lat="45.38386" lon="6.56571">
        <ele>1717.64</ele>
        <time>2016-01-31T14:48:55.037+01:00</time>
      </trkpt>
      <trkpt lat="45.38376" lon="6.56567">
        <ele>1722.88</ele>
        <time>2016-01-31T14:48:58.074+01:00</time>
      </trkpt>
      <trkpt lat="45.38365" lon="6.56561">
        <ele>1727.65</ele>
        <time>2016-01-31T14:49:01.049+01:00</time>
      </trkpt>
      <trkpt lat="45.38353" lon="6.56556">
        <ele>1733.06</ele>
        <time>2016-01-31T14:49:04.049+01:00</time>
      </trkpt>
      <trkpt lat="45.38345" lon="6.56551">
        <ele>1737.83</ele>
        <time>2016-01-31T14:49:07.048+01:00</time>
      </trkpt>
      <trkpt lat="45.38336" lon="6.56548">
        <ele>1743.55</ele>
        <time>2016-01-31T14:49:10.059+01:00</time>
      </trkpt>
      <trkpt lat="45.38325" lon="6.56543">
        <ele>1717.72</ele>
        <time>2016-01-31T14:49:14.064+01:00</time>
      </trkpt>
      <trkpt lat="45.38315" lon="6.56539">
        <ele>1720.13</ele>
        <time>2016-01-31T14:49:17.069+01:00</time>
      </trkpt>
      <trkpt lat="45.38304" lon="6.56535">
        <ele>1726.54</ele>
        <time>2016-01-31T14:49:20.064+01:00</time>
      </trkpt>
      <trkpt lat="45.38293" lon="6.5653">
        <ele>1728.55</ele>
        <time>2016-01-31T14:49:23.068+01:00</time>
      </trkpt>
      <trkpt lat="45.38284" lon="6.56527">
        <ele>1728.96</ele>
        <time>2016-01-31T14:49:26.074+01:00</time>
      </trkpt>
      <trkpt lat="45.38275" lon="6.56525">
        <ele>1734.71</ele>
        <time>2016-01-31T14:49:29.054+01:00</time>
      </trkpt>
      <trkpt lat="45.38264" lon="6.5652">
        <ele>1741.52</ele>
        <time>2016-01-31T14:49:32.047+01:00</time>
      </trkpt>
      <trkpt lat="45.38255" lon="6.56517">
        <ele>1751.71</ele>
        <time>2016-01-31T14:49:35.051+01:00</time>
      </trkpt>
      <trkpt lat="45.38244" lon="6.56512">
        <ele>1757.84</ele>
        <time>2016-01-31T14:49:38.055+01:00</time>
      </trkpt>
      <trkpt lat="45.38233" lon="6.5651">
        <ele>1763.55</ele>
        <time>2016-01-31T14:49:41.056+01:00</time>
      </trkpt>
      <trkpt lat="45.38222" lon="6.56507">
        <ele>1766.86</ele>
        <time>2016-01-31T14:49:44.054+01:00</time>
      </trkpt>
      <trkpt lat="45.38211" lon="6.56504">
        <ele>1795.17</ele>
        <time>2016-01-31T14:49:47.055+01:00</time>
      </trkpt>
      <trkpt lat="45.38201" lon="6.56501">
        <ele>1798.85</ele>
        <time>2016-01-31T14:49:50.052+01:00</time>
      </trkpt>
      <trkpt lat="45.3819" lon="6.56498">
        <ele>1802.76</ele>
        <time>2016-01-31T14:49:53.076+01:00</time>
      </trkpt>
      <trkpt lat="45.3818" lon="6.56495">
        <ele>1806.56</ele>
        <time>2016-01-31T14:49:56.065+01:00</time>
      </trkpt>
      <trkpt lat="45.38169" lon="6.56492">
        <ele>1810.58</ele>
        <time>2016-01-31T14:49:59.051+01:00</time>
      </trkpt>
      <trkpt lat="45.38158" lon="6.56488">
        <ele>1815.15</ele>
        <time>2016-01-31T14:50:02.059+01:00</time>
      </trkpt>
      <trkpt lat="45.38148" lon="6.56485">
        <ele>1819.34</ele>
        <time>2016-01-31T14:50:05.052+01:00</time>
      </trkpt>
      <trkpt lat="45.38138" lon="6.56482">
        <ele>1823.32</ele>
        <time>2016-01-31T14:50:08.057+01:00</time>
      </trkpt>
      <trkpt lat="45.38127" lon="6.56478">
        <ele>1824.97</ele>
        <time>2016-01-31T14:50:11.058+01:00</time>
      </trkpt>
      <trkpt lat="45.38117" lon="6.56475">
        <ele>1827.05</ele>
        <time>2016-01-31T14:50:14.047+01:00</time>
      </trkpt>
      <trkpt lat="45.38107" lon="6.56472">
        <ele>1829.36</ele>
        <time>2016-01-31T14:50:17.051+01:00</time>
      </trkpt>
      <trkpt lat="45.38096" lon="6.5647">
        <ele>1831.64</ele>
        <time>2016-01-31T14:50:20.050+01:00</time>
      </trkpt>
      <trkpt lat="45.38086" lon="6.56466">
        <ele>1834.09</ele>
        <time>2016-01-31T14:50:23.076+01:00</time>
      </trkpt>
      <trkpt lat="45.38076" lon="6.56463">
        <ele>1836.75</ele>
        <time>2016-01-31T14:50:26.054+01:00</time>
      </trkpt>
      <trkpt lat="45.38066" lon="6.5646">
        <ele>1838.93</ele>
        <time>2016-01-31T14:50:29.058+01:00</time>
      </trkpt>
      <trkpt lat="45.38055" lon="6.56456">
        <ele>1840.75</ele>
        <time>2016-01-31T14:50:32.035+01:00</time>
      </trkpt>
      <trkpt lat="45.38044" lon="6.56453">
        <ele>1842.19</ele>
        <time>2016-01-31T14:50:35.046+01:00</time>
      </trkpt>
      <trkpt lat="45.38034" lon="6.5645">
        <ele>1844.23</ele>
        <time>2016-01-31T14:50:38.036+01:00</time>
      </trkpt>
      <trkpt lat="45.38024" lon="6.56447">
        <ele>1846.23</ele>
        <time>2016-01-31T14:50:41.046+01:00</time>
      </trkpt>
      <trkpt lat="45.38014" lon="6.56444">
        <ele>1848.35</ele>
        <time>2016-01-31T14:50:44.061+01:00</time>
      </trkpt>
      <trkpt lat="45.38003" lon="6.56441">
        <ele>1850.8</ele>
        <time>2016-01-31T14:50:47.067+01:00</time>
      </trkpt>
      <trkpt lat="45.37992" lon="6.56438">
        <ele>1853.24</ele>
        <time>2016-01-31T14:50:50.045+01:00</time>
      </trkpt>
      <trkpt lat="45.37982" lon="6.56434">
        <ele>1855.87</ele>
        <time>2016-01-31T14:50:53.062+01:00</time>
      </trkpt>
      <trkpt lat="45.37972" lon="6.56431">
        <ele>1858.47</ele>
        <time>2016-01-31T14:50:56.034+01:00</time>
      </trkpt>
      <trkpt lat="45.37961" lon="6.56428">
        <ele>1861.57</ele>
        <time>2016-01-31T14:50:59.035+01:00</time>
      </trkpt>
      <trkpt lat="45.37951" lon="6.56424">
        <ele>1863.3</ele>
        <time>2016-01-31T14:51:02.059+01:00</time>
      </trkpt>
      <trkpt lat="45.37941" lon="6.56421">
        <ele>1864.87</ele>
        <time>2016-01-31T14:51:05.050+01:00</time>
      </trkpt>
      <trkpt lat="45.37931" lon="6.56418">
        <ele>1866.76</ele>
        <time>2016-01-31T14:51:08.059+01:00</time>
      </trkpt>
      <trkpt lat="45.3792" lon="6.56414">
        <ele>1868.41</ele>
        <time>2016-01-31T14:51:11.035+01:00</time>
      </trkpt>
      <trkpt lat="45.37909" lon="6.5641">
        <ele>1870.7</ele>
        <time>2016-01-31T14:51:14.039+01:00</time>
      </trkpt>
      <trkpt lat="45.37898" lon="6.56406">
        <ele>1872.94</ele>
        <time>2016-01-31T14:51:17.056+01:00</time>
      </trkpt>
      <trkpt lat="45.37888" lon="6.56403">
        <ele>1875.34</ele>
        <time>2016-01-31T14:51:20.075+01:00</time>
      </trkpt>
      <trkpt lat="45.37877" lon="6.56399">
        <ele>1878.25</ele>
        <time>2016-01-31T14:51:23.056+01:00</time>
      </trkpt>
      <trkpt lat="45.37867" lon="6.56396">
        <ele>1880.95</ele>
        <time>2016-01-31T14:51:26.051+01:00</time>
      </trkpt>
      <trkpt lat="45.37856" lon="6.56392">
        <ele>1883.89</ele>
        <time>2016-01-31T14:51:29.065+01:00</time>
      </trkpt>
      <trkpt lat="45.37845" lon="6.56388">
        <ele>1887.25</ele>
        <time>2016-01-31T14:51:32.086+01:00</time>
      </trkpt>
      <trkpt lat="45.37835" lon="6.56384">
        <ele>1889.73</ele>
        <time>2016-01-31T14:51:35.056+01:00</time>
      </trkpt>
      <trkpt lat="45.37825" lon="6.56381">
        <ele>1892.01</ele>
        <time>2016-01-31T14:51:38.055+01:00</time>
      </trkpt>
      <trkpt lat="45.37815" lon="6.56378">
        <ele>1893.51</ele>
        <time>2016-01-31T14:51:41.047+01:00</time>
      </trkpt>
      <trkpt lat="45.37804" lon="6.56375">
        <ele>1896.05</ele>
        <time>2016-01-31T14:51:44.073+01:00</time>
      </trkpt>
      <trkpt lat="45.37793" lon="6.56371">
        <ele>1898.06</ele>
        <time>2016-01-31T14:51:47.069+01:00</time>
      </trkpt>
      <trkpt lat="45.37783" lon="6.56367">
        <ele>1900.09</ele>
        <time>2016-01-31T14:51:50.065+01:00</time>
      </trkpt>
      <trkpt lat="45.37772" lon="6.56364">
        <ele>1902.65</ele>
        <time>2016-01-31T14:51:53.073+01:00</time>
      </trkpt>
      <trkpt lat="45.37762" lon="6.5636">
        <ele>1905.69</ele>
        <time>2016-01-31T14:51:56.069+01:00</time>
      </trkpt>
      <trkpt lat="45.37752" lon="6.56356">
        <ele>1908.79</ele>
        <time>2016-01-31T14:51:59.071+01:00</time>
      </trkpt>
      <trkpt lat="45.37742" lon="6.56352">
        <ele>1911.77</ele>
        <time>2016-01-31T14:52:02.063+01:00</time>
      </trkpt>
      <trkpt lat="45.37731" lon="6.56348">
        <ele>1914.27</ele>
        <time>2016-01-31T14:52:05.064+01:00</time>
      </trkpt>
      <trkpt lat="45.37721" lon="6.56344">
        <ele>1914.45</ele>
        <time>2016-01-31T14:52:08.060+01:00</time>
      </trkpt>
      <trkpt lat="45.37711" lon="6.56341">
        <ele>1915.02</ele>
        <time>2016-01-31T14:52:11.065+01:00</time>
      </trkpt>
      <trkpt lat="45.37708" lon="6.56328">
        <ele>1914.34</ele>
        <time>2016-01-31T14:52:48.066+01:00</time>
      </trkpt>
      <trkpt lat="45.37703" lon="6.56317">
        <ele>1916.16</ele>
        <time>2016-01-31T14:53:19.070+01:00</time>
      </trkpt>
      <trkpt lat="45.37694" lon="6.56321">
        <ele>1914.21</ele>
        <time>2016-01-31T14:53:31.063+01:00</time>
      </trkpt>
      <trkpt lat="45.37685" lon="6.56318">
        <ele>1914.18</ele>
        <time>2016-01-31T14:53:39.066+01:00</time>
      </trkpt>
      <trkpt lat="45.37675" lon="6.56317">
        <ele>1914.16</ele>
        <time>2016-01-31T14:53:50.067+01:00</time>
      </trkpt>
      <trkpt lat="45.37666" lon="6.56313">
        <ele>1914.16</ele>
        <time>2016-01-31T14:54:02.070+01:00</time>
      </trkpt>
      <trkpt lat="45.37654" lon="6.56308">
        <ele>1911.38</ele>
        <time>2016-01-31T14:54:12.039+01:00</time>
      </trkpt>
      <trkpt lat="45.37641" lon="6.56303">
        <ele>1913.81</ele>
        <time>2016-01-31T14:54:15.042+01:00</time>
      </trkpt>
      <trkpt lat="45.37629" lon="6.56296">
        <ele>1923.67</ele>
        <time>2016-01-31T14:54:18.040+01:00</time>
      </trkpt>
      <trkpt lat="45.37618" lon="6.56292">
        <ele>1928.63</ele>
        <time>2016-01-31T14:54:21.037+01:00</time>
      </trkpt>
      <trkpt lat="45.37607" lon="6.56287">
        <ele>1934.66</ele>
        <time>2016-01-31T14:54:24.070+01:00</time>
      </trkpt>
      <trkpt lat="45.37596" lon="6.56282">
        <ele>1940.78</ele>
        <time>2016-01-31T14:54:27.067+01:00</time>
      </trkpt>
      <trkpt lat="45.37586" lon="6.56279">
        <ele>1944.04</ele>
        <time>2016-01-31T14:54:30.065+01:00</time>
      </trkpt>
      <trkpt lat="45.37575" lon="6.56275">
        <ele>1947.6</ele>
        <time>2016-01-31T14:54:33.052+01:00</time>
      </trkpt>
      <trkpt lat="45.37563" lon="6.56269">
        <ele>1951.04</ele>
        <time>2016-01-31T14:54:36.038+01:00</time>
      </trkpt>
      <trkpt lat="45.37552" lon="6.56264">
        <ele>1955.33</ele>
        <time>2016-01-31T14:54:39.068+01:00</time>
      </trkpt>
      <trkpt lat="45.37541" lon="6.56257">
        <ele>1958.3</ele>
        <time>2016-01-31T14:54:42.044+01:00</time>
      </trkpt>
      <trkpt lat="45.37531" lon="6.56253">
        <ele>1960.76</ele>
        <time>2016-01-31T14:54:44.058+01:00</time>
      </trkpt>
      <trkpt lat="45.37521" lon="6.56248">
        <ele>1965.4</ele>
        <time>2016-01-31T14:54:47.052+01:00</time>
      </trkpt>
      <trkpt lat="45.37511" lon="6.56242">
        <ele>1968.26</ele>
        <time>2016-01-31T14:54:49.057+01:00</time>
      </trkpt>
      <trkpt lat="45.37503" lon="6.56234">
        <ele>1973</ele>
        <time>2016-01-31T14:54:52.053+01:00</time>
      </trkpt>
      <trkpt lat="45.37494" lon="6.56228">
        <ele>1976.5</ele>
        <time>2016-01-31T14:54:55.034+01:00</time>
      </trkpt>
      <trkpt lat="45.37485" lon="6.56224">
        <ele>1977.52</ele>
        <time>2016-01-31T14:54:58.035+01:00</time>
      </trkpt>
      <trkpt lat="45.37475" lon="6.56225">
        <ele>1978.83</ele>
        <time>2016-01-31T14:55:00.069+01:00</time>
      </trkpt>
      <trkpt lat="45.37466" lon="6.56224">
        <ele>1979.94</ele>
        <time>2016-01-31T14:55:02.067+01:00</time>
      </trkpt>
      <trkpt lat="45.37454" lon="6.56221">
        <ele>1982.01</ele>
        <time>2016-01-31T14:55:05.080+01:00</time>
      </trkpt>
      <trkpt lat="45.37441" lon="6.56216">
        <ele>1984.3</ele>
        <time>2016-01-31T14:55:08.061+01:00</time>
      </trkpt>
      <trkpt lat="45.37429" lon="6.56211">
        <ele>1987.6</ele>
        <time>2016-01-31T14:55:11.055+01:00</time>
      </trkpt>
      <trkpt lat="45.37419" lon="6.56208">
        <ele>1990.55</ele>
        <time>2016-01-31T14:55:14.055+01:00</time>
      </trkpt>
      <trkpt lat="45.37408" lon="6.56204">
        <ele>1993.84</ele>
        <time>2016-01-31T14:55:17.059+01:00</time>
      </trkpt>
      <trkpt lat="45.37397" lon="6.56199">
        <ele>1997.09</ele>
        <time>2016-01-31T14:55:20.056+01:00</time>
      </trkpt>
      <trkpt lat="45.37387" lon="6.56196">
        <ele>1999.87</ele>
        <time>2016-01-31T14:55:23.058+01:00</time>
      </trkpt>
      <trkpt lat="45.37376" lon="6.56192">
        <ele>2001.2</ele>
        <time>2016-01-31T14:55:26.059+01:00</time>
      </trkpt>
      <trkpt lat="45.37364" lon="6.56187">
        <ele>2003.39</ele>
        <time>2016-01-31T14:55:29.055+01:00</time>
      </trkpt>
      <trkpt lat="45.37354" lon="6.56183">
        <ele>2006.3</ele>
        <time>2016-01-31T14:55:32.076+01:00</time>
      </trkpt>
      <trkpt lat="45.37343" lon="6.5618">
        <ele>2009.02</ele>
        <time>2016-01-31T14:55:35.066+01:00</time>
      </trkpt>
      <trkpt lat="45.37331" lon="6.56176">
        <ele>2012.37</ele>
        <time>2016-01-31T14:55:38.076+01:00</time>
      </trkpt>
      <trkpt lat="45.37321" lon="6.56172">
        <ele>2014.84</ele>
        <time>2016-01-31T14:55:41.064+01:00</time>
      </trkpt>
      <trkpt lat="45.37309" lon="6.56168">
        <ele>2019.03</ele>
        <time>2016-01-31T14:55:44.077+01:00</time>
      </trkpt>
      <trkpt lat="45.37298" lon="6.56164">
        <ele>2021.61</ele>
        <time>2016-01-31T14:55:47.073+01:00</time>
      </trkpt>
      <trkpt lat="45.37287" lon="6.56159">
        <ele>2024.68</ele>
        <time>2016-01-31T14:55:50.069+01:00</time>
      </trkpt>
      <trkpt lat="45.37275" lon="6.56154">
        <ele>2027.7</ele>
        <time>2016-01-31T14:55:53.067+01:00</time>
      </trkpt>
      <trkpt lat="45.37264" lon="6.5615">
        <ele>2030.92</ele>
        <time>2016-01-31T14:55:56.063+01:00</time>
      </trkpt>
      <trkpt lat="45.37252" lon="6.56145">
        <ele>2034.36</ele>
        <time>2016-01-31T14:55:59.063+01:00</time>
      </trkpt>
      <trkpt lat="45.37241" lon="6.56141">
        <ele>2038.83</ele>
        <time>2016-01-31T14:56:02.060+01:00</time>
      </trkpt>
      <trkpt lat="45.3723" lon="6.56137">
        <ele>2043.64</ele>
        <time>2016-01-31T14:56:05.053+01:00</time>
      </trkpt>
      <trkpt lat="45.37219" lon="6.56132">
        <ele>2047.41</ele>
        <time>2016-01-31T14:56:08.057+01:00</time>
      </trkpt>
      <trkpt lat="45.37208" lon="6.56128">
        <ele>2052.09</ele>
        <time>2016-01-31T14:56:11.053+01:00</time>
      </trkpt>
      <trkpt lat="45.37197" lon="6.56123">
        <ele>2056.8</ele>
        <time>2016-01-31T14:56:14.046+01:00</time>
      </trkpt>
      <trkpt lat="45.37186" lon="6.56118">
        <ele>2061.65</ele>
        <time>2016-01-31T14:56:17.048+01:00</time>
      </trkpt>
      <trkpt lat="45.37175" lon="6.56114">
        <ele>2066.67</ele>
        <time>2016-01-31T14:56:20.048+01:00</time>
      </trkpt>
      <trkpt lat="45.37164" lon="6.56109">
        <ele>2073.43</ele>
        <time>2016-01-31T14:56:23.038+01:00</time>
      </trkpt>
      <trkpt lat="45.37153" lon="6.56104">
        <ele>2079.5</ele>
        <time>2016-01-31T14:56:26.039+01:00</time>
      </trkpt>
      <trkpt lat="45.37142" lon="6.56099">
        <ele>2085.65</ele>
        <time>2016-01-31T14:56:29.037+01:00</time>
      </trkpt>
      <trkpt lat="45.37131" lon="6.56094">
        <ele>2090.56</ele>
        <time>2016-01-31T14:56:32.054+01:00</time>
      </trkpt>
      <trkpt lat="45.37121" lon="6.5609">
        <ele>2096.44</ele>
        <time>2016-01-31T14:56:35.037+01:00</time>
      </trkpt>
      <trkpt lat="45.37111" lon="6.56086">
        <ele>2102.47</ele>
        <time>2016-01-31T14:56:38.056+01:00</time>
      </trkpt>
      <trkpt lat="45.37101" lon="6.56082">
        <ele>2108.58</ele>
        <time>2016-01-31T14:56:41.042+01:00</time>
      </trkpt>
      <trkpt lat="45.3709" lon="6.56078">
        <ele>2114.53</ele>
        <time>2016-01-31T14:56:44.054+01:00</time>
      </trkpt>
      <trkpt lat="45.3708" lon="6.56074">
        <ele>2121.38</ele>
        <time>2016-01-31T14:56:47.074+01:00</time>
      </trkpt>
      <trkpt lat="45.3707" lon="6.56069">
        <ele>2126.04</ele>
        <time>2016-01-31T14:56:50.058+01:00</time>
      </trkpt>
      <trkpt lat="45.3706" lon="6.56067">
        <ele>2132.86</ele>
        <time>2016-01-31T14:56:53.055+01:00</time>
      </trkpt>
      <trkpt lat="45.37049" lon="6.56062">
        <ele>2139.02</ele>
        <time>2016-01-31T14:56:56.057+01:00</time>
      </trkpt>
      <trkpt lat="45.37038" lon="6.56057">
        <ele>2144.6</ele>
        <time>2016-01-31T14:56:59.075+01:00</time>
      </trkpt>
      <trkpt lat="45.37027" lon="6.56052">
        <ele>2149.92</ele>
        <time>2016-01-31T14:57:02.055+01:00</time>
      </trkpt>
      <trkpt lat="45.37015" lon="6.56046">
        <ele>2155.21</ele>
        <time>2016-01-31T14:57:05.056+01:00</time>
      </trkpt>
      <trkpt lat="45.37003" lon="6.5604">
        <ele>2160.66</ele>
        <time>2016-01-31T14:57:08.065+01:00</time>
      </trkpt>
      <trkpt lat="45.36992" lon="6.56035">
        <ele>2166.52</ele>
        <time>2016-01-31T14:57:11.061+01:00</time>
      </trkpt>
      <trkpt lat="45.3698" lon="6.56029">
        <ele>2171.17</ele>
        <time>2016-01-31T14:57:14.045+01:00</time>
      </trkpt>
      <trkpt lat="45.36969" lon="6.56025">
        <ele>2173.31</ele>
        <time>2016-01-31T14:57:17.049+01:00</time>
      </trkpt>
      <trkpt lat="45.36957" lon="6.56021">
        <ele>2176.96</ele>
        <time>2016-01-31T14:57:20.056+01:00</time>
      </trkpt>
      <trkpt lat="45.36946" lon="6.56017">
        <ele>2180.5</ele>
        <time>2016-01-31T14:57:23.057+01:00</time>
      </trkpt>
      <trkpt lat="45.36936" lon="6.56014">
        <ele>2184.91</ele>
        <time>2016-01-31T14:57:26.074+01:00</time>
      </trkpt>
      <trkpt lat="45.36926" lon="6.56009">
        <ele>2187.25</ele>
        <time>2016-01-31T14:57:29.067+01:00</time>
      </trkpt>
      <trkpt lat="45.36915" lon="6.56004">
        <ele>2191.54</ele>
        <time>2016-01-31T14:57:32.047+01:00</time>
      </trkpt>
      <trkpt lat="45.36905" lon="6.56001">
        <ele>2195.06</ele>
        <time>2016-01-31T14:57:35.060+01:00</time>
      </trkpt>
      <trkpt lat="45.36894" lon="6.55996">
        <ele>2200.02</ele>
        <time>2016-01-31T14:57:38.059+01:00</time>
      </trkpt>
      <trkpt lat="45.36881" lon="6.55991">
        <ele>2204.67</ele>
        <time>2016-01-31T14:57:41.047+01:00</time>
      </trkpt>
      <trkpt lat="45.36869" lon="6.55986">
        <ele>2209.42</ele>
        <time>2016-01-31T14:57:44.038+01:00</time>
      </trkpt>
      <trkpt lat="45.36859" lon="6.55982">
        <ele>2211.33</ele>
        <time>2016-01-31T14:57:47.050+01:00</time>
      </trkpt>
      <trkpt lat="45.36847" lon="6.55976">
        <ele>2215.42</ele>
        <time>2016-01-31T14:57:50.052+01:00</time>
      </trkpt>
      <trkpt lat="45.36836" lon="6.55973">
        <ele>2218.5</ele>
        <time>2016-01-31T14:57:53.059+01:00</time>
      </trkpt>
      <trkpt lat="45.36826" lon="6.5597">
        <ele>2222.91</ele>
        <time>2016-01-31T14:57:56.076+01:00</time>
      </trkpt>
      <trkpt lat="45.36815" lon="6.55963">
        <ele>2228.02</ele>
        <time>2016-01-31T14:57:59.060+01:00</time>
      </trkpt>
      <trkpt lat="45.36805" lon="6.55958">
        <ele>2232.91</ele>
        <time>2016-01-31T14:58:02.053+01:00</time>
      </trkpt>
      <trkpt lat="45.36794" lon="6.55954">
        <ele>2238.57</ele>
        <time>2016-01-31T14:58:05.042+01:00</time>
      </trkpt>
      <trkpt lat="45.36784" lon="6.5595">
        <ele>2245.13</ele>
        <time>2016-01-31T14:58:08.055+01:00</time>
      </trkpt>
      <trkpt lat="45.36774" lon="6.55946">
        <ele>2250.61</ele>
        <time>2016-01-31T14:58:11.057+01:00</time>
      </trkpt>
      <trkpt lat="45.36763" lon="6.55942">
        <ele>2254.7</ele>
        <time>2016-01-31T14:58:14.055+01:00</time>
      </trkpt>
      <trkpt lat="45.36753" lon="6.55939">
        <ele>2259.05</ele>
        <time>2016-01-31T14:58:17.055+01:00</time>
      </trkpt>
      <trkpt lat="45.36743" lon="6.55934">
        <ele>2264.16</ele>
        <time>2016-01-31T14:58:20.048+01:00</time>
      </trkpt>
      <trkpt lat="45.36732" lon="6.5593">
        <ele>2266.82</ele>
        <time>2016-01-31T14:58:23.047+01:00</time>
      </trkpt>
      <trkpt lat="45.36721" lon="6.55925">
        <ele>2271.7</ele>
        <time>2016-01-31T14:58:26.063+01:00</time>
      </trkpt>
      <trkpt lat="45.36707" lon="6.55921">
        <ele>2276.2</ele>
        <time>2016-01-31T14:58:29.057+01:00</time>
      </trkpt>
      <trkpt lat="45.36696" lon="6.55917">
        <ele>2280.54</ele>
        <time>2016-01-31T14:58:32.060+01:00</time>
      </trkpt>
      <trkpt lat="45.36686" lon="6.55913">
        <ele>2285.02</ele>
        <time>2016-01-31T14:58:35.065+01:00</time>
      </trkpt>
      <trkpt lat="45.36676" lon="6.55909">
        <ele>2291.77</ele>
        <time>2016-01-31T14:58:38.059+01:00</time>
      </trkpt>
      <trkpt lat="45.36664" lon="6.55903">
        <ele>2297.2</ele>
        <time>2016-01-31T14:58:41.059+01:00</time>
      </trkpt>
      <trkpt lat="45.36653" lon="6.55898">
        <ele>2303.89</ele>
        <time>2016-01-31T14:58:44.058+01:00</time>
      </trkpt>
      <trkpt lat="45.36642" lon="6.55894">
        <ele>2308.79</ele>
        <time>2016-01-31T14:58:47.059+01:00</time>
      </trkpt>
      <trkpt lat="45.36631" lon="6.55889">
        <ele>2311.06</ele>
        <time>2016-01-31T14:58:50.056+01:00</time>
      </trkpt>
      <trkpt lat="45.3662" lon="6.55886">
        <ele>2314.54</ele>
        <time>2016-01-31T14:58:53.069+01:00</time>
      </trkpt>
      <trkpt lat="45.3661" lon="6.55883">
        <ele>2317.82</ele>
        <time>2016-01-31T14:58:56.054+01:00</time>
      </trkpt>
      <trkpt lat="45.36599" lon="6.55879">
        <ele>2322.07</ele>
        <time>2016-01-31T14:58:59.059+01:00</time>
      </trkpt>
      <trkpt lat="45.36589" lon="6.55875">
        <ele>2327.46</ele>
        <time>2016-01-31T14:59:02.058+01:00</time>
      </trkpt>
      <trkpt lat="45.36577" lon="6.55871">
        <ele>2331.11</ele>
        <time>2016-01-31T14:59:05.059+01:00</time>
      </trkpt>
      <trkpt lat="45.36566" lon="6.55867">
        <ele>2334.72</ele>
        <time>2016-01-31T14:59:08.047+01:00</time>
      </trkpt>
      <trkpt lat="45.36554" lon="6.55862">
        <ele>2338.92</ele>
        <time>2016-01-31T14:59:11.048+01:00</time>
      </trkpt>
      <trkpt lat="45.36543" lon="6.55858">
        <ele>2343.11</ele>
        <time>2016-01-31T14:59:14.064+01:00</time>
      </trkpt>
      <trkpt lat="45.36532" lon="6.55854">
        <ele>2347.74</ele>
        <time>2016-01-31T14:59:17.065+01:00</time>
      </trkpt>
      <trkpt lat="45.36522" lon="6.5585">
        <ele>2353.08</ele>
        <time>2016-01-31T14:59:20.101+01:00</time>
      </trkpt>
      <trkpt lat="45.3651" lon="6.55846">
        <ele>2358.1</ele>
        <time>2016-01-31T14:59:23.061+01:00</time>
      </trkpt>
      <trkpt lat="45.36499" lon="6.55841">
        <ele>2363.21</ele>
        <time>2016-01-31T14:59:26.051+01:00</time>
      </trkpt>
      <trkpt lat="45.36489" lon="6.55837">
        <ele>2368.56</ele>
        <time>2016-01-31T14:59:29.059+01:00</time>
      </trkpt>
      <trkpt lat="45.36478" lon="6.55833">
        <ele>2373.89</ele>
        <time>2016-01-31T14:59:32.059+01:00</time>
      </trkpt>
      <trkpt lat="45.36467" lon="6.55828">
        <ele>2379.47</ele>
        <time>2016-01-31T14:59:35.054+01:00</time>
      </trkpt>
      <trkpt lat="45.36456" lon="6.55824">
        <ele>2384.13</ele>
        <time>2016-01-31T14:59:38.059+01:00</time>
      </trkpt>
      <trkpt lat="45.36445" lon="6.5582">
        <ele>2389.19</ele>
        <time>2016-01-31T14:59:41.047+01:00</time>
      </trkpt>
      <trkpt lat="45.36435" lon="6.55815">
        <ele>2392.78</ele>
        <time>2016-01-31T14:59:44.078+01:00</time>
      </trkpt>
      <trkpt lat="45.36424" lon="6.55811">
        <ele>2388.99</ele>
        <time>2016-01-31T14:59:47.087+01:00</time>
      </trkpt>
      <trkpt lat="45.36413" lon="6.55807">
        <ele>2390.44</ele>
        <time>2016-01-31T14:59:51.059+01:00</time>
      </trkpt>
      <trkpt lat="45.36404" lon="6.55807">
        <ele>2393</ele>
        <time>2016-01-31T14:59:56.073+01:00</time>
      </trkpt>
      <trkpt lat="45.36406" lon="6.55794">
        <ele>2392.77</ele>
        <time>2016-01-31T15:00:06.068+01:00</time>
      </trkpt>
      <trkpt lat="45.36415" lon="6.55787">
        <ele>2392.44</ele>
        <time>2016-01-31T15:00:09.066+01:00</time>
      </trkpt>
      <trkpt lat="45.36425" lon="6.55789">
        <ele>2391.99</ele>
        <time>2016-01-31T15:00:14.078+01:00</time>
      </trkpt>
      <trkpt lat="45.36434" lon="6.55786">
        <ele>2392.35</ele>
        <time>2016-01-31T15:00:32.044+01:00</time>
      </trkpt>
      <trkpt lat="45.36442" lon="6.55793">
        <ele>2390.51</ele>
        <time>2016-01-31T15:00:54.055+01:00</time>
      </trkpt>
      <trkpt lat="45.36452" lon="6.55796">
        <ele>2386.23</ele>
        <time>2016-01-31T15:00:58.060+01:00</time>
      </trkpt>
      <trkpt lat="45.36463" lon="6.55801">
        <ele>2380.93</ele>
        <time>2016-01-31T15:01:02.065+01:00</time>
      </trkpt>
      <trkpt lat="45.36474" lon="6.55798">
        <ele>2377.47</ele>
        <time>2016-01-31T15:01:05.062+01:00</time>
      </trkpt>
      <trkpt lat="45.36484" lon="6.55804">
        <ele>2369.94</ele>
        <time>2016-01-31T15:01:25.068+01:00</time>
      </trkpt>
      <trkpt lat="45.36493" lon="6.55809">
        <ele>2365.86</ele>
        <time>2016-01-31T15:01:28.057+01:00</time>
      </trkpt>
      <trkpt lat="45.365" lon="6.55821">
        <ele>2362.54</ele>
        <time>2016-01-31T15:01:32.054+01:00</time>
      </trkpt>
      <trkpt lat="45.3651" lon="6.55819">
        <ele>2361.5</ele>
        <time>2016-01-31T15:02:56.035+01:00</time>
      </trkpt>
      <trkpt lat="45.36519" lon="6.55818">
        <ele>2356.28</ele>
        <time>2016-01-31T15:03:04.071+01:00</time>
      </trkpt>
      <trkpt lat="45.36518" lon="6.55832">
        <ele>2353.63</ele>
        <time>2016-01-31T15:03:08.052+01:00</time>
      </trkpt>
      <trkpt lat="45.36532" lon="6.55826">
        <ele>2349.94</ele>
        <time>2016-01-31T15:03:13.036+01:00</time>
      </trkpt>
      <trkpt lat="45.36537" lon="6.55838">
        <ele>2342.86</ele>
        <time>2016-01-31T15:03:19.065+01:00</time>
      </trkpt>
      <trkpt lat="45.36539" lon="6.55852">
        <ele>2339.82</ele>
        <time>2016-01-31T15:03:23.065+01:00</time>
      </trkpt>
      <trkpt lat="45.36551" lon="6.55851">
        <ele>2336.01</ele>
        <time>2016-01-31T15:03:27.085+01:00</time>
      </trkpt>
      <trkpt lat="45.36557" lon="6.55864">
        <ele>2333.12</ele>
        <time>2016-01-31T15:03:31.090+01:00</time>
      </trkpt>
      <trkpt lat="45.36556" lon="6.55877">
        <ele>2332</ele>
        <time>2016-01-31T15:03:34.075+01:00</time>
      </trkpt>
      <trkpt lat="45.36558" lon="6.55891">
        <ele>2329.61</ele>
        <time>2016-01-31T15:03:38.085+01:00</time>
      </trkpt>
      <trkpt lat="45.36553" lon="6.55902">
        <ele>2329.32</ele>
        <time>2016-01-31T15:03:51.076+01:00</time>
      </trkpt>
      <trkpt lat="45.36547" lon="6.55916">
        <ele>2324.62</ele>
        <time>2016-01-31T15:03:59.085+01:00</time>
      </trkpt>
      <trkpt lat="45.36541" lon="6.55927">
        <ele>2320.52</ele>
        <time>2016-01-31T15:04:04.066+01:00</time>
      </trkpt>
      <trkpt lat="45.3654" lon="6.5594">
        <ele>2316.03</ele>
        <time>2016-01-31T15:04:09.066+01:00</time>
      </trkpt>
      <trkpt lat="45.36536" lon="6.55955">
        <ele>2311.53</ele>
        <time>2016-01-31T15:04:15.065+01:00</time>
      </trkpt>
      <trkpt lat="45.36531" lon="6.55966">
        <ele>2307.64</ele>
        <time>2016-01-31T15:04:18.087+01:00</time>
      </trkpt>
      <trkpt lat="45.36526" lon="6.55979">
        <ele>2300.86</ele>
        <time>2016-01-31T15:04:27.092+01:00</time>
      </trkpt>
      <trkpt lat="45.36527" lon="6.55993">
        <ele>2296.91</ele>
        <time>2016-01-31T15:04:33.041+01:00</time>
      </trkpt>
      <trkpt lat="45.36518" lon="6.56002">
        <ele>2293.51</ele>
        <time>2016-01-31T15:04:37.041+01:00</time>
      </trkpt>
      <trkpt lat="45.36522" lon="6.56015">
        <ele>2290.24</ele>
        <time>2016-01-31T15:04:40.064+01:00</time>
      </trkpt>
      <trkpt lat="45.36523" lon="6.56031">
        <ele>2284.39</ele>
        <time>2016-01-31T15:04:49.065+01:00</time>
      </trkpt>
      <trkpt lat="45.36518" lon="6.56043">
        <ele>2281.22</ele>
        <time>2016-01-31T15:04:52.066+01:00</time>
      </trkpt>
      <trkpt lat="45.36524" lon="6.56054">
        <ele>2276.64</ele>
        <time>2016-01-31T15:04:59.078+01:00</time>
      </trkpt>
      <trkpt lat="45.3652" lon="6.56068">
        <ele>2273.28</ele>
        <time>2016-01-31T15:05:03.067+01:00</time>
      </trkpt>
      <trkpt lat="45.36522" lon="6.56084">
        <ele>2267.08</ele>
        <time>2016-01-31T15:05:13.070+01:00</time>
      </trkpt>
      <trkpt lat="45.36531" lon="6.56089">
        <ele>2264.72</ele>
        <time>2016-01-31T15:05:18.067+01:00</time>
      </trkpt>
      <trkpt lat="45.36532" lon="6.56104">
        <ele>2259.62</ele>
        <time>2016-01-31T15:05:23.066+01:00</time>
      </trkpt>
      <trkpt lat="45.3654" lon="6.56111">
        <ele>2255.84</ele>
        <time>2016-01-31T15:05:30.060+01:00</time>
      </trkpt>
      <trkpt lat="45.36549" lon="6.56114">
        <ele>2252.07</ele>
        <time>2016-01-31T15:05:33.053+01:00</time>
      </trkpt>
      <trkpt lat="45.3656" lon="6.56117">
        <ele>2249.12</ele>
        <time>2016-01-31T15:05:36.062+01:00</time>
      </trkpt>
      <trkpt lat="45.36568" lon="6.56126">
        <ele>2246.03</ele>
        <time>2016-01-31T15:05:39.062+01:00</time>
      </trkpt>
      <trkpt lat="45.3657" lon="6.56139">
        <ele>2243.89</ele>
        <time>2016-01-31T15:05:42.066+01:00</time>
      </trkpt>
      <trkpt lat="45.36578" lon="6.56145">
        <ele>2240.56</ele>
        <time>2016-01-31T15:05:45.062+01:00</time>
      </trkpt>
      <trkpt lat="45.36589" lon="6.56146">
        <ele>2237.69</ele>
        <time>2016-01-31T15:05:48.053+01:00</time>
      </trkpt>
      <trkpt lat="45.36598" lon="6.56154">
        <ele>2231.59</ele>
        <time>2016-01-31T15:05:52.062+01:00</time>
      </trkpt>
      <trkpt lat="45.3661" lon="6.56154">
        <ele>2229.87</ele>
        <time>2016-01-31T15:05:55.085+01:00</time>
      </trkpt>
      <trkpt lat="45.36614" lon="6.56167">
        <ele>2227.41</ele>
        <time>2016-01-31T15:06:18.053+01:00</time>
      </trkpt>
      <trkpt lat="45.36622" lon="6.56177">
        <ele>2222.56</ele>
        <time>2016-01-31T15:06:23.084+01:00</time>
      </trkpt>
      <trkpt lat="45.36624" lon="6.56193">
        <ele>2217.3</ele>
        <time>2016-01-31T15:06:27.068+01:00</time>
      </trkpt>
      <trkpt lat="45.3663" lon="6.56205">
        <ele>2213.24</ele>
        <time>2016-01-31T15:06:31.067+01:00</time>
      </trkpt>
      <trkpt lat="45.36629" lon="6.56217">
        <ele>2211.05</ele>
        <time>2016-01-31T15:06:35.065+01:00</time>
      </trkpt>
      <trkpt lat="45.36629" lon="6.56234">
        <ele>2206.93</ele>
        <time>2016-01-31T15:06:38.066+01:00</time>
      </trkpt>
      <trkpt lat="45.3663" lon="6.56248">
        <ele>2204.27</ele>
        <time>2016-01-31T15:06:42.066+01:00</time>
      </trkpt>
      <trkpt lat="45.3662" lon="6.56257">
        <ele>2202.62</ele>
        <time>2016-01-31T15:06:46.066+01:00</time>
      </trkpt>
      <trkpt lat="45.36621" lon="6.56269">
        <ele>2199.93</ele>
        <time>2016-01-31T15:06:50.042+01:00</time>
      </trkpt>
      <trkpt lat="45.36613" lon="6.56275">
        <ele>2196.75</ele>
        <time>2016-01-31T15:07:02.049+01:00</time>
      </trkpt>
      <trkpt lat="45.36611" lon="6.56288">
        <ele>2192.6</ele>
        <time>2016-01-31T15:07:05.046+01:00</time>
      </trkpt>
      <trkpt lat="45.36612" lon="6.56303">
        <ele>2189.31</ele>
        <time>2016-01-31T15:07:08.059+01:00</time>
      </trkpt>
      <trkpt lat="45.36607" lon="6.56315">
        <ele>2184.04</ele>
        <time>2016-01-31T15:07:13.066+01:00</time>
      </trkpt>
      <trkpt lat="45.36608" lon="6.56328">
        <ele>2178.8</ele>
        <time>2016-01-31T15:07:19.095+01:00</time>
      </trkpt>
      <trkpt lat="45.3661" lon="6.56342">
        <ele>2176.61</ele>
        <time>2016-01-31T15:07:23.092+01:00</time>
      </trkpt>
      <trkpt lat="45.36614" lon="6.56355">
        <ele>2172.11</ele>
        <time>2016-01-31T15:07:31.061+01:00</time>
      </trkpt>
      <trkpt lat="45.36615" lon="6.56369">
        <ele>2168.56</ele>
        <time>2016-01-31T15:07:35.090+01:00</time>
      </trkpt>
      <trkpt lat="45.36616" lon="6.56382">
        <ele>2166.06</ele>
        <time>2016-01-31T15:07:38.092+01:00</time>
      </trkpt>
      <trkpt lat="45.36614" lon="6.56395">
        <ele>2163.4</ele>
        <time>2016-01-31T15:07:41.074+01:00</time>
      </trkpt>
      <trkpt lat="45.36617" lon="6.56411">
        <ele>2161.76</ele>
        <time>2016-01-31T15:07:43.088+01:00</time>
      </trkpt>
      <trkpt lat="45.36621" lon="6.56433">
        <ele>2158.08</ele>
        <time>2016-01-31T15:07:46.100+01:00</time>
      </trkpt>
      <trkpt lat="45.36623" lon="6.5645">
        <ele>2155.26</ele>
        <time>2016-01-31T15:07:48.081+01:00</time>
      </trkpt>
      <trkpt lat="45.36626" lon="6.56463">
        <ele>2155.09</ele>
        <time>2016-01-31T15:07:50.036+01:00</time>
      </trkpt>
      <trkpt lat="45.36629" lon="6.56478">
        <ele>2155.37</ele>
        <time>2016-01-31T15:07:53.059+01:00</time>
      </trkpt>
      <trkpt lat="45.36632" lon="6.56491">
        <ele>2155.33</ele>
        <time>2016-01-31T15:07:58.071+01:00</time>
      </trkpt>
      <trkpt lat="45.36635" lon="6.56506">
        <ele>2154.92</ele>
        <time>2016-01-31T15:08:04.073+01:00</time>
      </trkpt>
      <trkpt lat="45.36638" lon="6.5652">
        <ele>2154.73</ele>
        <time>2016-01-31T15:08:10.061+01:00</time>
      </trkpt>
      <trkpt lat="45.3664" lon="6.56538">
        <ele>2153.62</ele>
        <time>2016-01-31T15:08:14.057+01:00</time>
      </trkpt>
      <trkpt lat="45.36643" lon="6.56555">
        <ele>2151.58</ele>
        <time>2016-01-31T15:08:17.057+01:00</time>
      </trkpt>
      <trkpt lat="45.36643" lon="6.56573">
        <ele>2148.76</ele>
        <time>2016-01-31T15:08:20.077+01:00</time>
      </trkpt>
      <trkpt lat="45.36659" lon="6.56593">
        <ele>2145.15</ele>
        <time>2016-01-31T15:08:24.068+01:00</time>
      </trkpt>
      <trkpt lat="45.36667" lon="6.56605">
        <ele>2144.38</ele>
        <time>2016-01-31T15:08:28.047+01:00</time>
      </trkpt>
      <trkpt lat="45.36671" lon="6.56617">
        <ele>2141.95</ele>
        <time>2016-01-31T15:08:31.064+01:00</time>
      </trkpt>
      <trkpt lat="45.36671" lon="6.56631">
        <ele>2139.74</ele>
        <time>2016-01-31T15:08:33.057+01:00</time>
      </trkpt>
      <trkpt lat="45.36673" lon="6.56643">
        <ele>2137.91</ele>
        <time>2016-01-31T15:08:35.063+01:00</time>
      </trkpt>
      <trkpt lat="45.3668" lon="6.5666">
        <ele>2135.48</ele>
        <time>2016-01-31T15:08:38.068+01:00</time>
      </trkpt>
      <trkpt lat="45.3668" lon="6.56677">
        <ele>2132.68</ele>
        <time>2016-01-31T15:08:41.065+01:00</time>
      </trkpt>
      <trkpt lat="45.36686" lon="6.5669">
        <ele>2129.6</ele>
        <time>2016-01-31T15:08:44.048+01:00</time>
      </trkpt>
      <trkpt lat="45.36698" lon="6.56705">
        <ele>2124.39</ele>
        <time>2016-01-31T15:08:47.084+01:00</time>
      </trkpt>
      <trkpt lat="45.36707" lon="6.56699">
        <ele>2119.64</ele>
        <time>2016-01-31T15:08:56.063+01:00</time>
      </trkpt>
      <trkpt lat="45.36717" lon="6.56698">
        <ele>2116.85</ele>
        <time>2016-01-31T15:09:01.039+01:00</time>
      </trkpt>
      <trkpt lat="45.36726" lon="6.5669">
        <ele>2114.31</ele>
        <time>2016-01-31T15:09:04.053+01:00</time>
      </trkpt>
      <trkpt lat="45.36738" lon="6.56685">
        <ele>2108.07</ele>
        <time>2016-01-31T15:09:07.066+01:00</time>
      </trkpt>
      <trkpt lat="45.36747" lon="6.56679">
        <ele>2104.61</ele>
        <time>2016-01-31T15:09:35.055+01:00</time>
      </trkpt>
      <trkpt lat="45.36757" lon="6.56673">
        <ele>2100.5</ele>
        <time>2016-01-31T15:09:38.046+01:00</time>
      </trkpt>
      <trkpt lat="45.36768" lon="6.56665">
        <ele>2096.71</ele>
        <time>2016-01-31T15:09:41.037+01:00</time>
      </trkpt>
      <trkpt lat="45.36779" lon="6.56657">
        <ele>2091.85</ele>
        <time>2016-01-31T15:09:45.081+01:00</time>
      </trkpt>
      <trkpt lat="45.36792" lon="6.56649">
        <ele>2085.86</ele>
        <time>2016-01-31T15:09:48.059+01:00</time>
      </trkpt>
      <trkpt lat="45.36801" lon="6.56645">
        <ele>2083.52</ele>
        <time>2016-01-31T15:09:50.066+01:00</time>
      </trkpt>
      <trkpt lat="45.36809" lon="6.56635">
        <ele>2082.54</ele>
        <time>2016-01-31T15:09:52.066+01:00</time>
      </trkpt>
      <trkpt lat="45.36818" lon="6.56622">
        <ele>2081.98</ele>
        <time>2016-01-31T15:09:55.060+01:00</time>
      </trkpt>
      <trkpt lat="45.36825" lon="6.56612">
        <ele>2081.8</ele>
        <time>2016-01-31T15:09:57.040+01:00</time>
      </trkpt>
      <trkpt lat="45.36834" lon="6.56604">
        <ele>2080.61</ele>
        <time>2016-01-31T15:09:59.040+01:00</time>
      </trkpt>
      <trkpt lat="45.36841" lon="6.56592">
        <ele>2079.71</ele>
        <time>2016-01-31T15:10:02.038+01:00</time>
      </trkpt>
      <trkpt lat="45.36849" lon="6.56586">
        <ele>2077.82</ele>
        <time>2016-01-31T15:10:04.050+01:00</time>
      </trkpt>
      <trkpt lat="45.36858" lon="6.56575">
        <ele>2076.72</ele>
        <time>2016-01-31T15:10:07.064+01:00</time>
      </trkpt>
      <trkpt lat="45.36866" lon="6.56564">
        <ele>2073.88</ele>
        <time>2016-01-31T15:10:10.060+01:00</time>
      </trkpt>
      <trkpt lat="45.36877" lon="6.56563">
        <ele>2068.32</ele>
        <time>2016-01-31T15:10:15.068+01:00</time>
      </trkpt>
      <trkpt lat="45.36888" lon="6.56554">
        <ele>2062.49</ele>
        <time>2016-01-31T15:10:24.066+01:00</time>
      </trkpt>
      <trkpt lat="45.36897" lon="6.56543">
        <ele>2060.73</ele>
        <time>2016-01-31T15:10:27.063+01:00</time>
      </trkpt>
      <trkpt lat="45.36908" lon="6.56548">
        <ele>2052.91</ele>
        <time>2016-01-31T15:11:10.053+01:00</time>
      </trkpt>
      <trkpt lat="45.36919" lon="6.56552">
        <ele>2047.9</ele>
        <time>2016-01-31T15:11:13.100+01:00</time>
      </trkpt>
      <trkpt lat="45.36927" lon="6.5656">
        <ele>2044.6</ele>
        <time>2016-01-31T15:11:15.092+01:00</time>
      </trkpt>
      <trkpt lat="45.36936" lon="6.5656">
        <ele>2040.04</ele>
        <time>2016-01-31T15:11:17.088+01:00</time>
      </trkpt>
      <trkpt lat="45.36946" lon="6.56561">
        <ele>2034.81</ele>
        <time>2016-01-31T15:11:20.085+01:00</time>
      </trkpt>
      <trkpt lat="45.36956" lon="6.56563">
        <ele>2031.79</ele>
        <time>2016-01-31T15:11:22.084+01:00</time>
      </trkpt>
      <trkpt lat="45.36962" lon="6.56578">
        <ele>2026.04</ele>
        <time>2016-01-31T15:11:25.074+01:00</time>
      </trkpt>
      <trkpt lat="45.36971" lon="6.56585">
        <ele>2023.69</ele>
        <time>2016-01-31T15:11:28.075+01:00</time>
      </trkpt>
      <trkpt lat="45.3698" lon="6.56588">
        <ele>2021.5</ele>
        <time>2016-01-31T15:11:30.077+01:00</time>
      </trkpt>
      <trkpt lat="45.36988" lon="6.56599">
        <ele>2016.79</ele>
        <time>2016-01-31T15:11:34.071+01:00</time>
      </trkpt>
      <trkpt lat="45.36998" lon="6.56597">
        <ele>2013.97</ele>
        <time>2016-01-31T15:11:36.067+01:00</time>
      </trkpt>
      <trkpt lat="45.37008" lon="6.56604">
        <ele>2009.55</ele>
        <time>2016-01-31T15:11:39.071+01:00</time>
      </trkpt>
      <trkpt lat="45.3702" lon="6.56608">
        <ele>2003.93</ele>
        <time>2016-01-31T15:11:42.072+01:00</time>
      </trkpt>
      <trkpt lat="45.37028" lon="6.56611">
        <ele>2002.04</ele>
        <time>2016-01-31T15:11:44.064+01:00</time>
      </trkpt>
      <trkpt lat="45.37037" lon="6.56616">
        <ele>1997.24</ele>
        <time>2016-01-31T15:11:47.066+01:00</time>
      </trkpt>
      <trkpt lat="45.37046" lon="6.56618">
        <ele>1993.62</ele>
        <time>2016-01-31T15:11:49.067+01:00</time>
      </trkpt>
      <trkpt lat="45.37056" lon="6.56624">
        <ele>1990.31</ele>
        <time>2016-01-31T15:11:51.065+01:00</time>
      </trkpt>
      <trkpt lat="45.37065" lon="6.56621">
        <ele>1987.47</ele>
        <time>2016-01-31T15:11:53.086+01:00</time>
      </trkpt>
      <trkpt lat="45.37074" lon="6.56616">
        <ele>1984.97</ele>
        <time>2016-01-31T15:11:55.065+01:00</time>
      </trkpt>
      <trkpt lat="45.37083" lon="6.5662">
        <ele>1977.53</ele>
        <time>2016-01-31T15:12:00.062+01:00</time>
      </trkpt>
      <trkpt lat="45.37094" lon="6.56616">
        <ele>1974.22</ele>
        <time>2016-01-31T15:12:03.063+01:00</time>
      </trkpt>
      <trkpt lat="45.37106" lon="6.56617">
        <ele>1968.34</ele>
        <time>2016-01-31T15:12:07.081+01:00</time>
      </trkpt>
      <trkpt lat="45.37115" lon="6.56611">
        <ele>1965.39</ele>
        <time>2016-01-31T15:12:10.072+01:00</time>
      </trkpt>
      <trkpt lat="45.37121" lon="6.56624">
        <ele>1960.01</ele>
        <time>2016-01-31T15:12:13.051+01:00</time>
      </trkpt>
      <trkpt lat="45.37133" lon="6.56622">
        <ele>1953.72</ele>
        <time>2016-01-31T15:12:17.069+01:00</time>
      </trkpt>
      <trkpt lat="45.37129" lon="6.56637">
        <ele>1952.5</ele>
        <time>2016-01-31T15:12:19.066+01:00</time>
      </trkpt>
      <trkpt lat="45.37139" lon="6.56647">
        <ele>1948.73</ele>
        <time>2016-01-31T15:12:31.050+01:00</time>
      </trkpt>
      <trkpt lat="45.37149" lon="6.56647">
        <ele>1946.48</ele>
        <time>2016-01-31T15:12:34.069+01:00</time>
      </trkpt>
      <trkpt lat="45.37147" lon="6.56663">
        <ele>1943.36</ele>
        <time>2016-01-31T15:12:37.069+01:00</time>
      </trkpt>
      <trkpt lat="45.37108" lon="6.56709">
        <ele>1936.27</ele>
        <time>2016-01-31T15:12:42.067+01:00</time>
      </trkpt>
      <trkpt lat="45.37098" lon="6.5672">
        <ele>1933.89</ele>
        <time>2016-01-31T15:12:44.053+01:00</time>
      </trkpt>
      <trkpt lat="45.37085" lon="6.56735">
        <ele>1930.24</ele>
        <time>2016-01-31T15:12:46.063+01:00</time>
      </trkpt>
      <trkpt lat="45.37075" lon="6.56753">
        <ele>1928.43</ele>
        <time>2016-01-31T15:12:48.067+01:00</time>
      </trkpt>
      <trkpt lat="45.37066" lon="6.56771">
        <ele>1926.99</ele>
        <time>2016-01-31T15:12:50.068+01:00</time>
      </trkpt>
      <trkpt lat="45.37057" lon="6.5679">
        <ele>1926.39</ele>
        <time>2016-01-31T15:12:52.066+01:00</time>
      </trkpt>
      <trkpt lat="45.37054" lon="6.56808">
        <ele>1926.21</ele>
        <time>2016-01-31T15:12:54.065+01:00</time>
      </trkpt>
      <trkpt lat="45.37053" lon="6.56825">
        <ele>1923.69</ele>
        <time>2016-01-31T15:12:56.067+01:00</time>
      </trkpt>
      <trkpt lat="45.37062" lon="6.56835">
        <ele>1921.48</ele>
        <time>2016-01-31T15:13:00.055+01:00</time>
      </trkpt>
      <trkpt lat="45.37071" lon="6.56839">
        <ele>1917.61</ele>
        <time>2016-01-31T15:13:02.040+01:00</time>
      </trkpt>
      <trkpt lat="45.37082" lon="6.56845">
        <ele>1911.29</ele>
        <time>2016-01-31T15:13:05.038+01:00</time>
      </trkpt>
      <trkpt lat="45.37093" lon="6.56851">
        <ele>1908.38</ele>
        <time>2016-01-31T15:13:07.041+01:00</time>
      </trkpt>
      <trkpt lat="45.37101" lon="6.56861">
        <ele>1903.94</ele>
        <time>2016-01-31T15:13:09.060+01:00</time>
      </trkpt>
      <trkpt lat="45.3711" lon="6.5687">
        <ele>1900.49</ele>
        <time>2016-01-31T15:13:12.037+01:00</time>
      </trkpt>
      <trkpt lat="45.37113" lon="6.56888">
        <ele>1897.99</ele>
        <time>2016-01-31T15:13:14.054+01:00</time>
      </trkpt>
      <trkpt lat="45.37113" lon="6.56905">
        <ele>1895.76</ele>
        <time>2016-01-31T15:13:16.039+01:00</time>
      </trkpt>
      <trkpt lat="45.3712" lon="6.56922">
        <ele>1892.85</ele>
        <time>2016-01-31T15:13:19.037+01:00</time>
      </trkpt>
      <trkpt lat="45.37123" lon="6.56937">
        <ele>1889.05</ele>
        <time>2016-01-31T15:13:21.049+01:00</time>
      </trkpt>
      <trkpt lat="45.37133" lon="6.5694">
        <ele>1886.3</ele>
        <time>2016-01-31T15:13:23.093+01:00</time>
      </trkpt>
      <trkpt lat="45.37134" lon="6.56956">
        <ele>1882.36</ele>
        <time>2016-01-31T15:13:25.037+01:00</time>
      </trkpt>
      <trkpt lat="45.37144" lon="6.56964">
        <ele>1879.93</ele>
        <time>2016-01-31T15:13:29.066+01:00</time>
      </trkpt>
      <trkpt lat="45.37152" lon="6.56971">
        <ele>1877.98</ele>
        <time>2016-01-31T15:13:43.067+01:00</time>
      </trkpt>
      <trkpt lat="45.37162" lon="6.56969">
        <ele>1876.04</ele>
        <time>2016-01-31T15:13:49.051+01:00</time>
      </trkpt>
      <trkpt lat="45.37172" lon="6.56971">
        <ele>1873.31</ele>
        <time>2016-01-31T15:13:52.063+01:00</time>
      </trkpt>
      <trkpt lat="45.37181" lon="6.56967">
        <ele>1868.56</ele>
        <time>2016-01-31T15:13:55.062+01:00</time>
      </trkpt>
      <trkpt lat="45.37193" lon="6.56962">
        <ele>1863.04</ele>
        <time>2016-01-31T15:13:58.062+01:00</time>
      </trkpt>
      <trkpt lat="45.37207" lon="6.56961">
        <ele>1858.86</ele>
        <time>2016-01-31T15:14:01.064+01:00</time>
      </trkpt>
      <trkpt lat="45.37217" lon="6.56955">
        <ele>1855.12</ele>
        <time>2016-01-31T15:14:03.088+01:00</time>
      </trkpt>
      <trkpt lat="45.37233" lon="6.56958">
        <ele>1849.46</ele>
        <time>2016-01-31T15:14:06.071+01:00</time>
      </trkpt>
      <trkpt lat="45.37245" lon="6.56948">
        <ele>1844.92</ele>
        <time>2016-01-31T15:14:09.062+01:00</time>
      </trkpt>
      <trkpt lat="45.37259" lon="6.56948">
        <ele>1839.45</ele>
        <time>2016-01-31T15:14:12.064+01:00</time>
      </trkpt>
      <trkpt lat="45.3727" lon="6.5694">
        <ele>1835.63</ele>
        <time>2016-01-31T15:14:15.066+01:00</time>
      </trkpt>
      <trkpt lat="45.37284" lon="6.56933">
        <ele>1831.42</ele>
        <time>2016-01-31T15:14:17.062+01:00</time>
      </trkpt>
      <trkpt lat="45.37287" lon="6.56921">
        <ele>1827.01</ele>
        <time>2016-01-31T15:14:19.064+01:00</time>
      </trkpt>
      <trkpt lat="45.37297" lon="6.56908">
        <ele>1824.74</ele>
        <time>2016-01-31T15:14:21.050+01:00</time>
      </trkpt>
      <trkpt lat="45.37308" lon="6.56903">
        <ele>1819.02</ele>
        <time>2016-01-31T15:14:24.050+01:00</time>
      </trkpt>
      <trkpt lat="45.37313" lon="6.56891">
        <ele>1816.75</ele>
        <time>2016-01-31T15:14:26.034+01:00</time>
      </trkpt>
      <trkpt lat="45.37323" lon="6.56887">
        <ele>1812.78</ele>
        <time>2016-01-31T15:14:29.038+01:00</time>
      </trkpt>
      <trkpt lat="45.37334" lon="6.56883">
        <ele>1809.39</ele>
        <time>2016-01-31T15:14:31.036+01:00</time>
      </trkpt>
      <trkpt lat="45.37346" lon="6.56881">
        <ele>1803.69</ele>
        <time>2016-01-31T15:14:34.038+01:00</time>
      </trkpt>
      <trkpt lat="45.37361" lon="6.56888">
        <ele>1800.35</ele>
        <time>2016-01-31T15:14:36.037+01:00</time>
      </trkpt>
      <trkpt lat="45.37369" lon="6.56904">
        <ele>1797</ele>
        <time>2016-01-31T15:14:38.036+01:00</time>
      </trkpt>
      <trkpt lat="45.37372" lon="6.5693">
        <ele>1794.38</ele>
        <time>2016-01-31T15:14:40.036+01:00</time>
      </trkpt>
      <trkpt lat="45.37373" lon="6.56943">
        <ele>1793.62</ele>
        <time>2016-01-31T15:14:41.037+01:00</time>
      </trkpt>
      <trkpt lat="45.37372" lon="6.56958">
        <ele>1792.79</ele>
        <time>2016-01-31T15:14:42.038+01:00</time>
      </trkpt>
      <trkpt lat="45.37371" lon="6.56975">
        <ele>1791.79</ele>
        <time>2016-01-31T15:14:43.040+01:00</time>
      </trkpt>
      <trkpt lat="45.3737" lon="6.57002">
        <ele>1790.69</ele>
        <time>2016-01-31T15:14:45.036+01:00</time>
      </trkpt>
      <trkpt lat="45.37369" lon="6.57015">
        <ele>1789.37</ele>
        <time>2016-01-31T15:14:46.037+01:00</time>
      </trkpt>
      <trkpt lat="45.37368" lon="6.57028">
        <ele>1789.05</ele>
        <time>2016-01-31T15:14:47.050+01:00</time>
      </trkpt>
      <trkpt lat="45.37367" lon="6.57051">
        <ele>1788.28</ele>
        <time>2016-01-31T15:14:49.060+01:00</time>
      </trkpt>
      <trkpt lat="45.37363" lon="6.5707">
        <ele>1788.17</ele>
        <time>2016-01-31T15:14:51.063+01:00</time>
      </trkpt>
      <trkpt lat="45.37358" lon="6.57088">
        <ele>1788.18</ele>
        <time>2016-01-31T15:14:53.052+01:00</time>
      </trkpt>
      <trkpt lat="45.37356" lon="6.571">
        <ele>1788.14</ele>
        <time>2016-01-31T15:14:55.063+01:00</time>
      </trkpt>
      <trkpt lat="45.37355" lon="6.57115">
        <ele>1788.44</ele>
        <time>2016-01-31T15:14:57.064+01:00</time>
      </trkpt>
      <trkpt lat="45.37355" lon="6.57129">
        <ele>1788</ele>
        <time>2016-01-31T15:14:59.068+01:00</time>
      </trkpt>
      <trkpt lat="45.37351" lon="6.57143">
        <ele>1787.59</ele>
        <time>2016-01-31T15:15:01.087+01:00</time>
      </trkpt>
      <trkpt lat="45.37351" lon="6.57157">
        <ele>1787.34</ele>
        <time>2016-01-31T15:15:03.086+01:00</time>
      </trkpt>
      <trkpt lat="45.37347" lon="6.57173">
        <ele>1786.69</ele>
        <time>2016-01-31T15:15:06.042+01:00</time>
      </trkpt>
      <trkpt lat="45.37346" lon="6.57188">
        <ele>1785.88</ele>
        <time>2016-01-31T15:15:09.027+01:00</time>
      </trkpt>
      <trkpt lat="45.37342" lon="6.57202">
        <ele>1785.63</ele>
        <time>2016-01-31T15:15:12.033+01:00</time>
      </trkpt>
      <trkpt lat="45.37337" lon="6.5722">
        <ele>1785.04</ele>
        <time>2016-01-31T15:15:17.082+01:00</time>
      </trkpt>
      <trkpt lat="45.37334" lon="6.57233">
        <ele>1784.76</ele>
        <time>2016-01-31T15:15:20.077+01:00</time>
      </trkpt>
      <trkpt lat="45.3733" lon="6.57245">
        <ele>1784.31</ele>
        <time>2016-01-31T15:15:23.077+01:00</time>
      </trkpt>
      <trkpt lat="45.37325" lon="6.57261">
        <ele>1783.53</ele>
        <time>2016-01-31T15:15:27.073+01:00</time>
      </trkpt>
      <trkpt lat="45.37319" lon="6.57273">
        <ele>1783.37</ele>
        <time>2016-01-31T15:15:30.073+01:00</time>
      </trkpt>
      <trkpt lat="45.3731" lon="6.57286">
        <ele>1782.54</ele>
        <time>2016-01-31T15:15:33.070+01:00</time>
      </trkpt>
      <trkpt lat="45.37301" lon="6.573">
        <ele>1781.81</ele>
        <time>2016-01-31T15:15:36.066+01:00</time>
      </trkpt>
      <trkpt lat="45.37293" lon="6.57314">
        <ele>1780.97</ele>
        <time>2016-01-31T15:15:39.060+01:00</time>
      </trkpt>
      <trkpt lat="45.37286" lon="6.57324">
        <ele>1780.3</ele>
        <time>2016-01-31T15:15:41.061+01:00</time>
      </trkpt>
      <trkpt lat="45.3728" lon="6.57338">
        <ele>1778.28</ele>
        <time>2016-01-31T15:15:43.056+01:00</time>
      </trkpt>
      <trkpt lat="45.37273" lon="6.57352">
        <ele>1776.86</ele>
        <time>2016-01-31T15:15:45.056+01:00</time>
      </trkpt>
      <trkpt lat="45.37265" lon="6.57366">
        <ele>1776.02</ele>
        <time>2016-01-31T15:15:47.059+01:00</time>
      </trkpt>
      <trkpt lat="45.37259" lon="6.57379">
        <ele>1775.63</ele>
        <time>2016-01-31T15:15:49.057+01:00</time>
      </trkpt>
      <trkpt lat="45.37253" lon="6.5739">
        <ele>1776.1</ele>
        <time>2016-01-31T15:15:51.048+01:00</time>
      </trkpt>
      <trkpt lat="45.37248" lon="6.57403">
        <ele>1775.05</ele>
        <time>2016-01-31T15:15:53.046+01:00</time>
      </trkpt>
      <trkpt lat="45.37245" lon="6.5742">
        <ele>1773.52</ele>
        <time>2016-01-31T15:15:55.045+01:00</time>
      </trkpt>
      <trkpt lat="45.37238" lon="6.57433">
        <ele>1771.62</ele>
        <time>2016-01-31T15:15:57.040+01:00</time>
      </trkpt>
      <trkpt lat="45.37233" lon="6.57451">
        <ele>1770.48</ele>
        <time>2016-01-31T15:15:59.039+01:00</time>
      </trkpt>
      <trkpt lat="45.37229" lon="6.5747">
        <ele>1769.42</ele>
        <time>2016-01-31T15:16:01.059+01:00</time>
      </trkpt>
      <trkpt lat="45.37221" lon="6.57481">
        <ele>1768.3</ele>
        <time>2016-01-31T15:16:03.040+01:00</time>
      </trkpt>
      <trkpt lat="45.37217" lon="6.57501">
        <ele>1765.21</ele>
        <time>2016-01-31T15:16:06.057+01:00</time>
      </trkpt>
      <trkpt lat="45.37214" lon="6.57517">
        <ele>1762.31</ele>
        <time>2016-01-31T15:16:09.060+01:00</time>
      </trkpt>
      <trkpt lat="45.37213" lon="6.57533">
        <ele>1759.04</ele>
        <time>2016-01-31T15:16:11.056+01:00</time>
      </trkpt>
      <trkpt lat="45.37208" lon="6.57552">
        <ele>1755</ele>
        <time>2016-01-31T15:16:13.035+01:00</time>
      </trkpt>
      <trkpt lat="45.37206" lon="6.57567">
        <ele>1752.11</ele>
        <time>2016-01-31T15:16:15.039+01:00</time>
      </trkpt>
      <trkpt lat="45.37207" lon="6.5758">
        <ele>1750.05</ele>
        <time>2016-01-31T15:16:17.041+01:00</time>
      </trkpt>
      <trkpt lat="45.37202" lon="6.57592">
        <ele>1747.5</ele>
        <time>2016-01-31T15:16:19.045+01:00</time>
      </trkpt>
      <trkpt lat="45.37203" lon="6.57612">
        <ele>1744.54</ele>
        <time>2016-01-31T15:16:21.040+01:00</time>
      </trkpt>
      <trkpt lat="45.372" lon="6.57627">
        <ele>1742.39</ele>
        <time>2016-01-31T15:16:23.051+01:00</time>
      </trkpt>
      <trkpt lat="45.37204" lon="6.5765">
        <ele>1739.48</ele>
        <time>2016-01-31T15:16:25.065+01:00</time>
      </trkpt>
      <trkpt lat="45.37203" lon="6.57663">
        <ele>1737.4</ele>
        <time>2016-01-31T15:16:27.090+01:00</time>
      </trkpt>
      <trkpt lat="45.37209" lon="6.57675">
        <ele>1735.52</ele>
        <time>2016-01-31T15:16:29.076+01:00</time>
      </trkpt>
      <trkpt lat="45.37218" lon="6.57674">
        <ele>1735.06</ele>
        <time>2016-01-31T15:16:30.073+01:00</time>
      </trkpt>
      <trkpt lat="45.37221" lon="6.57692">
        <ele>1731.98</ele>
        <time>2016-01-31T15:16:32.066+01:00</time>
      </trkpt>
      <trkpt lat="45.3722" lon="6.57708">
        <ele>1729.14</ele>
        <time>2016-01-31T15:16:34.056+01:00</time>
      </trkpt>
      <trkpt lat="45.37226" lon="6.57726">
        <ele>1727.42</ele>
        <time>2016-01-31T15:16:36.064+01:00</time>
      </trkpt>
      <trkpt lat="45.37232" lon="6.5774">
        <ele>1724.49</ele>
        <time>2016-01-31T15:16:40.064+01:00</time>
      </trkpt>
      <trkpt lat="45.3723" lon="6.57756">
        <ele>1723.23</ele>
        <time>2016-01-31T15:16:42.066+01:00</time>
      </trkpt>
      <trkpt lat="45.37227" lon="6.57773">
        <ele>1721.02</ele>
        <time>2016-01-31T15:16:44.056+01:00</time>
      </trkpt>
      <trkpt lat="45.3723" lon="6.57786">
        <ele>1719.21</ele>
        <time>2016-01-31T15:16:46.060+01:00</time>
      </trkpt>
      <trkpt lat="45.37234" lon="6.57802">
        <ele>1716.56</ele>
        <time>2016-01-31T15:16:49.034+01:00</time>
      </trkpt>
      <trkpt lat="45.37231" lon="6.57814">
        <ele>1715.71</ele>
        <time>2016-01-31T15:16:51.041+01:00</time>
      </trkpt>
      <trkpt lat="45.37229" lon="6.57831">
        <ele>1714.15</ele>
        <time>2016-01-31T15:16:54.039+01:00</time>
      </trkpt>
      <trkpt lat="45.37231" lon="6.57849">
        <ele>1712.91</ele>
        <time>2016-01-31T15:16:56.046+01:00</time>
      </trkpt>
      <trkpt lat="45.37229" lon="6.57864">
        <ele>1711.96</ele>
        <time>2016-01-31T15:16:58.072+01:00</time>
      </trkpt>
      <trkpt lat="45.37226" lon="6.57877">
        <ele>1711.15</ele>
        <time>2016-01-31T15:17:00.053+01:00</time>
      </trkpt>
      <trkpt lat="45.37218" lon="6.5789">
        <ele>1708.96</ele>
        <time>2016-01-31T15:17:03.051+01:00</time>
      </trkpt>
      <trkpt lat="45.37208" lon="6.5789">
        <ele>1707.8</ele>
        <time>2016-01-31T15:17:05.050+01:00</time>
      </trkpt>
      <trkpt lat="45.37202" lon="6.579">
        <ele>1706.61</ele>
        <time>2016-01-31T15:17:07.053+01:00</time>
      </trkpt>
      <trkpt lat="45.37191" lon="6.57911">
        <ele>1702.51</ele>
        <time>2016-01-31T15:17:10.050+01:00</time>
      </trkpt>
      <trkpt lat="45.37184" lon="6.57925">
        <ele>1700</ele>
        <time>2016-01-31T15:17:12.067+01:00</time>
      </trkpt>
      <trkpt lat="45.37177" lon="6.57943">
        <ele>1697.38</ele>
        <time>2016-01-31T15:17:14.058+01:00</time>
      </trkpt>
      <trkpt lat="45.3717" lon="6.57956">
        <ele>1695.37</ele>
        <time>2016-01-31T15:17:16.069+01:00</time>
      </trkpt>
      <trkpt lat="45.37164" lon="6.57966">
        <ele>1694.64</ele>
        <time>2016-01-31T15:17:18.066+01:00</time>
      </trkpt>
      <trkpt lat="45.37157" lon="6.57974">
        <ele>1692.06</ele>
        <time>2016-01-31T15:17:20.064+01:00</time>
      </trkpt>
      <trkpt lat="45.37156" lon="6.57994">
        <ele>1689.66</ele>
        <time>2016-01-31T15:17:23.064+01:00</time>
      </trkpt>
      <trkpt lat="45.37153" lon="6.58012">
        <ele>1686.91</ele>
        <time>2016-01-31T15:17:26.078+01:00</time>
      </trkpt>
      <trkpt lat="45.37149" lon="6.58025">
        <ele>1684.9</ele>
        <time>2016-01-31T15:17:29.061+01:00</time>
      </trkpt>
      <trkpt lat="45.3715" lon="6.58038">
        <ele>1684.14</ele>
        <time>2016-01-31T15:17:31.076+01:00</time>
      </trkpt>
      <trkpt lat="45.37157" lon="6.5805">
        <ele>1682.35</ele>
        <time>2016-01-31T15:17:34.089+01:00</time>
      </trkpt>
      <trkpt lat="45.37167" lon="6.58053">
        <ele>1680</ele>
        <time>2016-01-31T15:17:36.066+01:00</time>
      </trkpt>
      <trkpt lat="45.37178" lon="6.58061">
        <ele>1678.93</ele>
        <time>2016-01-31T15:17:38.052+01:00</time>
      </trkpt>
      <trkpt lat="45.37192" lon="6.58063">
        <ele>1678.36</ele>
        <time>2016-01-31T15:17:40.048+01:00</time>
      </trkpt>
      <trkpt lat="45.37201" lon="6.58061">
        <ele>1678.58</ele>
        <time>2016-01-31T15:17:42.048+01:00</time>
      </trkpt>
      <trkpt lat="45.37211" lon="6.5806">
        <ele>1677.74</ele>
        <time>2016-01-31T15:17:44.036+01:00</time>
      </trkpt>
      <trkpt lat="45.37224" lon="6.58059">
        <ele>1678.1</ele>
        <time>2016-01-31T15:17:47.048+01:00</time>
      </trkpt>
      <trkpt lat="45.37234" lon="6.58057">
        <ele>1677.61</ele>
        <time>2016-01-31T15:17:50.056+01:00</time>
      </trkpt>
      <trkpt lat="45.37243" lon="6.58054">
        <ele>1677.18</ele>
        <time>2016-01-31T15:17:53.046+01:00</time>
      </trkpt>
      <trkpt lat="45.37253" lon="6.58052">
        <ele>1677.44</ele>
        <time>2016-01-31T15:17:57.062+01:00</time>
      </trkpt>
      <trkpt lat="45.37263" lon="6.58047">
        <ele>1677.77</ele>
        <time>2016-01-31T15:18:03.066+01:00</time>
      </trkpt>
      <trkpt lat="45.37273" lon="6.58042">
        <ele>1677.28</ele>
        <time>2016-01-31T15:18:10.065+01:00</time>
      </trkpt>
      <trkpt lat="45.37281" lon="6.58036">
        <ele>1677.74</ele>
        <time>2016-01-31T15:18:21.059+01:00</time>
      </trkpt>
      <trkpt lat="45.37291" lon="6.58036">
        <ele>1677.77</ele>
        <time>2016-01-31T15:19:26.078+01:00</time>
      </trkpt>
      <trkpt lat="45.373" lon="6.58032">
        <ele>1677.47</ele>
        <time>2016-01-31T15:19:58.063+01:00</time>
      </trkpt>
      <trkpt lat="45.37308" lon="6.58025">
        <ele>1677.58</ele>
        <time>2016-01-31T15:20:09.037+01:00</time>
      </trkpt>
      <trkpt lat="45.37315" lon="6.58017">
        <ele>1677.73</ele>
        <time>2016-01-31T15:20:22.062+01:00</time>
      </trkpt>
      <trkpt lat="45.37339" lon="6.57977">
        <ele>1677.03</ele>
        <time>2016-01-31T15:21:55.036+01:00</time>
      </trkpt>
      <trkpt lat="45.3733" lon="6.57973">
        <ele>1677.39</ele>
        <time>2016-01-31T15:22:07.059+01:00</time>
      </trkpt>
      <trkpt lat="45.37331" lon="6.57959">
        <ele>1677.38</ele>
        <time>2016-01-31T15:22:25.045+01:00</time>
      </trkpt>
      <trkpt lat="45.37341" lon="6.57957">
        <ele>1677.33</ele>
        <time>2016-01-31T15:22:34.049+01:00</time>
      </trkpt>
      <trkpt lat="45.37372" lon="6.57963">
        <ele>1683.04</ele>
        <time>2016-01-31T15:48:22.051+01:00</time>
      </trkpt>
    </trkseg>
  </trk>
</gpx>